<?xml version='1.0' encoding='UTF-8'?><gpx version="1.1" creator="JPX - https://github.com/jenetics/jpx" xmlns="http://www.topografix.com/GPX/1/1"><trk><trkseg><trkpt lat="45.63310525849492" lon="10.521698551183254"><ele>633.0</ele><time>2026-04-18T10:27:07.001Z</time></trkpt><trkpt lat="45.63305581275811" lon="10.521550477570367"><ele>633.0</ele><time>2026-04-18T10:27:08.001Z</time></trkpt><trkpt lat="45.632994800781" lon="10.52140938017852"><ele>633.0</ele><time>2026-04-18T10:27:09.001Z</time></trkpt><trkpt lat="45.63293134232137" lon="10.521274143838191"><ele>633.0</ele><time>2026-04-18T10:27:10.001Z</time></trkpt><trkpt lat="45.63286341899184" lon="10.521157824945053"><ele>630.3333333333334</ele><time>2026-04-18T10:27:11.001Z</time></trkpt><trkpt lat="45.63279863679942" lon="10.521067134535645"><ele>627.6666666666666</ele><time>2026-04-18T10:27:12.001Z</time></trkpt><trkpt lat="45.63274961512806" lon="10.520996055020804"><ele>625.0</ele><time>2026-04-18T10:27:13.001Z</time></trkpt><trkpt lat="45.632709294764716" lon="10.520914475890615"><ele>622.3333333333333</ele><time>2026-04-18T10:27:14.001Z</time></trkpt><trkpt lat="45.632659271450656" lon="10.520807979668856"><ele>619.6666666666666</ele><time>2026-04-18T10:27:15.001Z</time></trkpt><trkpt lat="45.63261709191104" lon="10.520712500793604"><ele>617.0</ele><time>2026-04-18T10:27:16.001Z</time></trkpt><trkpt lat="45.6325809931667" lon="10.520624187054324"><ele>617.0</ele><time>2026-04-18T10:27:17.001Z</time></trkpt><trkpt lat="45.632537038425966" lon="10.52051683007016"><ele>617.0</ele><time>2026-04-18T10:27:18.001Z</time></trkpt><trkpt lat="45.63248516347483" lon="10.520381254622539"><ele>617.0</ele><time>2026-04-18T10:27:19.001Z</time></trkpt><trkpt lat="45.632424149612454" lon="10.52025389333784"><ele>617.0</ele><time>2026-04-18T10:27:20.001Z</time></trkpt><trkpt lat="45.632362277655005" lon="10.520130412593673"><ele>617.0</ele><time>2026-04-18T10:27:21.001Z</time></trkpt><trkpt lat="45.63229927954249" lon="10.520019256449734"><ele>618.4</ele><time>2026-04-18T10:27:22.001Z</time></trkpt><trkpt lat="45.6322323768187" lon="10.51990439486092"><ele>619.8000000000001</ele><time>2026-04-18T10:27:23.001Z</time></trkpt><trkpt lat="45.632150802345734" lon="10.51980684213152"><ele>621.2</ele><time>2026-04-18T10:27:24.001Z</time></trkpt><trkpt lat="45.63207308728064" lon="10.519721071452409"><ele>622.6</ele><time>2026-04-18T10:27:25.001Z</time></trkpt><trkpt lat="45.63199314003364" lon="10.519638062944107"><ele>624.0</ele><time>2026-04-18T10:27:26.001Z</time></trkpt><trkpt lat="45.63191937033404" lon="10.519574122999739"><ele>619.6</ele><time>2026-04-18T10:27:27.001Z</time></trkpt><trkpt lat="45.631839046188276" lon="10.519496718477319"><ele>615.2</ele><time>2026-04-18T10:27:28.001Z</time></trkpt><trkpt lat="45.63175316078532" lon="10.519405603073675"><ele>610.8000000000001</ele><time>2026-04-18T10:27:29.001Z</time></trkpt><trkpt lat="45.63167959295348" lon="10.51929567804975"><ele>606.4</ele><time>2026-04-18T10:27:30.001Z</time></trkpt><trkpt lat="45.631607727376235" lon="10.519156951903922"><ele>602.0</ele><time>2026-04-18T10:27:31.001Z</time></trkpt><trkpt lat="45.631547944135306" lon="10.519028555734069"><ele>602.0</ele><time>2026-04-18T10:27:32.001Z</time></trkpt><trkpt lat="45.63148888537051" lon="10.518907698466256"><ele>602.0</ele><time>2026-04-18T10:27:33.001Z</time></trkpt><trkpt lat="45.631418608570065" lon="10.518801206775647"><ele>602.0</ele><time>2026-04-18T10:27:34.001Z</time></trkpt><trkpt lat="45.63133631641701" lon="10.51869396558208"><ele>602.0</ele><time>2026-04-18T10:27:35.001Z</time></trkpt><trkpt lat="45.631268638984345" lon="10.518605892238613"><ele>602.0</ele><time>2026-04-18T10:27:36.001Z</time></trkpt><trkpt lat="45.631218043829165" lon="10.518509114895211"><ele>599.0</ele><time>2026-04-18T10:27:37.001Z</time></trkpt><trkpt lat="45.631178229954934" lon="10.518397493018986"><ele>596.0</ele><time>2026-04-18T10:27:38.001Z</time></trkpt><trkpt lat="45.631132645757525" lon="10.518284994156792"><ele>593.0</ele><time>2026-04-18T10:27:39.001Z</time></trkpt><trkpt lat="45.63108452358686" lon="10.518204237097347"><ele>590.0</ele><time>2026-04-18T10:27:40.001Z</time></trkpt><trkpt lat="45.63102712500245" lon="10.518129914404918"><ele>587.0</ele><time>2026-04-18T10:27:41.001Z</time></trkpt><trkpt lat="45.63095058303636" lon="10.518090303459863"><ele>584.0</ele><time>2026-04-18T10:27:42.001Z</time></trkpt><trkpt lat="45.63088818379861" lon="10.51803422465649"><ele>584.0</ele><time>2026-04-18T10:27:43.001Z</time></trkpt><trkpt lat="45.630828371635005" lon="10.517989417405092"><ele>584.0</ele><time>2026-04-18T10:27:45.001Z</time></trkpt><trkpt lat="45.630701843289145" lon="10.517880361059806"><ele>584.0</ele><time>2026-04-18T10:27:52.001Z</time></trkpt><trkpt lat="45.63077130126708" lon="10.517665811994384"><ele>584.0</ele><time>2026-04-18T10:27:53.001Z</time></trkpt><trkpt lat="45.630857770761686" lon="10.51764256147209"><ele>582.3333333333333</ele><time>2026-04-18T10:27:54.002Z</time></trkpt><trkpt lat="45.630995755684" lon="10.517684667979285"><ele>580.6666666666666</ele><time>2026-04-18T10:27:56.002Z</time></trkpt><trkpt lat="45.631054174054626" lon="10.517724038251961"><ele>579.0</ele><time>2026-04-18T10:27:57.002Z</time></trkpt><trkpt lat="45.63112160273787" lon="10.517769628452662"><ele>577.3333333333334</ele><time>2026-04-18T10:27:58.002Z</time></trkpt><trkpt lat="45.63118410869011" lon="10.51780851200524"><ele>575.6666666666667</ele><time>2026-04-18T10:27:59.002Z</time></trkpt><trkpt lat="45.63124963401876" lon="10.517839635224203"><ele>574.0</ele><time>2026-04-18T10:28:00.002Z</time></trkpt><trkpt lat="45.63133815373767" lon="10.517876918100862"><ele>576.0</ele><time>2026-04-18T10:28:01.002Z</time></trkpt><trkpt lat="45.631415301835574" lon="10.517906430091553"><ele>578.0</ele><time>2026-04-18T10:28:02.002Z</time></trkpt><trkpt lat="45.63148028838269" lon="10.517929126619546"><ele>580.0</ele><time>2026-04-18T10:28:03.002Z</time></trkpt><trkpt lat="45.63161492655951" lon="10.517957753400863"><ele>582.0</ele><time>2026-04-18T10:28:05.002Z</time></trkpt><trkpt lat="45.63170624390514" lon="10.517966752395278"><ele>584.0</ele><time>2026-04-18T10:28:06.002Z</time></trkpt><trkpt lat="45.631811692316" lon="10.517949793924139"><ele>579.2</ele><time>2026-04-18T10:28:07.002Z</time></trkpt><trkpt lat="45.63190160610553" lon="10.517879306707307"><ele>574.4</ele><time>2026-04-18T10:28:08.002Z</time></trkpt><trkpt lat="45.63197513973737" lon="10.517825311860866"><ele>569.6</ele><time>2026-04-18T10:28:09.002Z</time></trkpt><trkpt lat="45.63204270353419" lon="10.517764004322027"><ele>564.8</ele><time>2026-04-18T10:28:10.002Z</time></trkpt><trkpt lat="45.63212122889633" lon="10.517688741731575"><ele>560.0</ele><time>2026-04-18T10:28:11.002Z</time></trkpt><trkpt lat="45.632196785443426" lon="10.517607464685797"><ele>560.0</ele><time>2026-04-18T10:28:12.002Z</time></trkpt><trkpt lat="45.63222822698029" lon="10.517524639537092"><ele>560.0</ele><time>2026-04-18T10:28:13.002Z</time></trkpt><trkpt lat="45.632297555286364" lon="10.51738414238408"><ele>560.0</ele><time>2026-04-18T10:28:15.002Z</time></trkpt><trkpt lat="45.632323861045876" lon="10.517299299390448"><ele>560.0</ele><time>2026-04-18T10:28:16.002Z</time></trkpt><trkpt lat="45.63237622406417" lon="10.517224707546063"><ele>560.0</ele><time>2026-04-18T10:28:17.002Z</time></trkpt><trkpt lat="45.63245525550144" lon="10.517141445391971"><ele>560.0</ele><time>2026-04-18T10:28:18.002Z</time></trkpt><trkpt lat="45.63250565159693" lon="10.517082497637821"><ele>558.0</ele><time>2026-04-18T10:28:19.002Z</time></trkpt><trkpt lat="45.63256271466723" lon="10.516992454830973"><ele>556.0</ele><time>2026-04-18T10:28:21.002Z</time></trkpt><trkpt lat="45.632583045631" lon="10.516902221432861"><ele>554.0</ele><time>2026-04-18T10:28:25.002Z</time></trkpt><trkpt lat="45.632579237786814" lon="10.516807136509374"><ele>552.0</ele><time>2026-04-18T10:28:39.002Z</time></trkpt><trkpt lat="45.632527300481314" lon="10.516732023181639"><ele>550.0</ele><time>2026-04-18T10:29:14.002Z</time></trkpt><trkpt lat="45.63247973158257" lon="10.516602889592436"><ele>548.0</ele><time>2026-04-18T10:29:16.002Z</time></trkpt><trkpt lat="45.632448201062836" lon="10.516503809944554"><ele>548.0</ele><time>2026-04-18T10:29:17.002Z</time></trkpt><trkpt lat="45.63239695466922" lon="10.516413283106218"><ele>548.0</ele><time>2026-04-18T10:29:18.002Z</time></trkpt><trkpt lat="45.632353307144385" lon="10.516345693435454"><ele>548.0</ele><time>2026-04-18T10:29:19.002Z</time></trkpt><trkpt lat="45.632311109932104" lon="10.516264303019348"><ele>548.0</ele><time>2026-04-18T10:29:20.002Z</time></trkpt><trkpt lat="45.63225967334975" lon="10.516154662086432"><ele>548.0</ele><time>2026-04-18T10:29:21.002Z</time></trkpt><trkpt lat="45.632225461851114" lon="10.516026037619747"><ele>548.0</ele><time>2026-04-18T10:29:22.002Z</time></trkpt><trkpt lat="45.632177788220254" lon="10.515919460487547"><ele>548.0</ele><time>2026-04-18T10:29:23.002Z</time></trkpt><trkpt lat="45.63214741667937" lon="10.515834669931596"><ele>548.0</ele><time>2026-04-18T10:29:24.002Z</time></trkpt><trkpt lat="45.63211167945168" lon="10.515723003759028"><ele>548.0</ele><time>2026-04-18T10:29:26.002Z</time></trkpt><trkpt lat="45.6320833831306" lon="10.515640657298409"><ele>548.0</ele><time>2026-04-18T10:29:28.002Z</time></trkpt><trkpt lat="45.632041730920484" lon="10.515491453941099"><ele>548.0</ele><time>2026-04-18T10:29:30.002Z</time></trkpt><trkpt lat="45.63201435397401" lon="10.515397829446052"><ele>548.0</ele><time>2026-04-18T10:29:31.002Z</time></trkpt><trkpt lat="45.63200183585363" lon="10.515229498603878"><ele>548.0000000000001</ele><time>2026-04-18T10:29:33.002Z</time></trkpt><trkpt lat="45.632015865675505" lon="10.515128637810072"><ele>548.0</ele><time>2026-04-18T10:29:34.002Z</time></trkpt><trkpt lat="45.63202785279432" lon="10.51503976079895"><ele>548.0</ele><time>2026-04-18T10:29:35.002Z</time></trkpt><trkpt lat="45.63204169649299" lon="10.514948163937143"><ele>548.0</ele><time>2026-04-18T10:29:36.002Z</time></trkpt><trkpt lat="45.63205657871712" lon="10.51485368941594"><ele>548.0</ele><time>2026-04-18T10:29:37.002Z</time></trkpt><trkpt lat="45.632087643066434" lon="10.514769828771348"><ele>548.0000000000001</ele><time>2026-04-18T10:29:38.002Z</time></trkpt><trkpt lat="45.6321578960647" lon="10.51468186976432"><ele>548.0</ele><time>2026-04-18T10:29:40.002Z</time></trkpt><trkpt lat="45.63217004980464" lon="10.514536569769135"><ele>545.1999999999999</ele><time>2026-04-18T10:29:42.002Z</time></trkpt><trkpt lat="45.632181729796166" lon="10.51438456057529"><ele>542.4</ele><time>2026-04-18T10:29:44.002Z</time></trkpt><trkpt lat="45.632187146724114" lon="10.51423020317159"><ele>539.5999999999999</ele><time>2026-04-18T10:29:46.003Z</time></trkpt><trkpt lat="45.632176800247194" lon="10.514126536811828"><ele>536.8</ele><time>2026-04-18T10:29:47.003Z</time></trkpt><trkpt lat="45.63216276194419" lon="10.513984504954637"><ele>534.0</ele><time>2026-04-18T10:29:49.003Z</time></trkpt><trkpt lat="45.63217558258595" lon="10.513847607008564"><ele>529.8</ele><time>2026-04-18T10:29:51.003Z</time></trkpt><trkpt lat="45.6322164911434" lon="10.513716139002398"><ele>525.5999999999999</ele><time>2026-04-18T10:29:53.003Z</time></trkpt><trkpt lat="45.63225807575693" lon="10.513595806107881"><ele>521.4</ele><time>2026-04-18T10:29:55.003Z</time></trkpt><trkpt lat="45.632253566032645" lon="10.513447707022413"><ele>517.1999999999999</ele><time>2026-04-18T10:29:57.003Z</time></trkpt><trkpt lat="45.63226616271583" lon="10.513306867009032"><ele>513.0</ele><time>2026-04-18T10:29:59.003Z</time></trkpt><trkpt lat="45.63227735933002" lon="10.5132068712458"><ele>513.0</ele><time>2026-04-18T10:30:00.003Z</time></trkpt><trkpt lat="45.632302372729555" lon="10.513090229603373"><ele>513.0</ele><time>2026-04-18T10:30:01.003Z</time></trkpt><trkpt lat="45.63232153546438" lon="10.512971135154123"><ele>513.0</ele><time>2026-04-18T10:30:02.003Z</time></trkpt><trkpt lat="45.632326030802766" lon="10.512866270870408"><ele>513.0</ele><time>2026-04-18T10:30:03.003Z</time></trkpt><trkpt lat="45.632338231174266" lon="10.512733568065192"><ele>513.0</ele><time>2026-04-18T10:30:05.003Z</time></trkpt><trkpt lat="45.63234917193321" lon="10.512601209595665"><ele>513.0</ele><time>2026-04-18T10:30:07.003Z</time></trkpt><trkpt lat="45.63236422997142" lon="10.512465210097814"><ele>509.4</ele><time>2026-04-18T10:30:10.003Z</time></trkpt><trkpt lat="45.632338395746984" lon="10.512329499536941"><ele>505.79999999999995</ele><time>2026-04-18T10:30:15.003Z</time></trkpt><trkpt lat="45.63228150069984" lon="10.5121461882923"><ele>502.2</ele><time>2026-04-18T10:30:17.003Z</time></trkpt><trkpt lat="45.632226846501034" lon="10.512051543717844"><ele>498.6</ele><time>2026-04-18T10:30:18.003Z</time></trkpt><trkpt lat="45.63217600113344" lon="10.511951275680099"><ele>495.0</ele><time>2026-04-18T10:30:19.003Z</time></trkpt><trkpt lat="45.632130677681666" lon="10.51184438741519"><ele>492.5</ele><time>2026-04-18T10:30:20.003Z</time></trkpt><trkpt lat="45.63207990364107" lon="10.511749610472895"><ele>490.0</ele><time>2026-04-18T10:30:21.003Z</time></trkpt><trkpt lat="45.63203283000235" lon="10.511650548497647"><ele>487.5</ele><time>2026-04-18T10:30:22.003Z</time></trkpt><trkpt lat="45.632001151980354" lon="10.511561286245914"><ele>485.0</ele><time>2026-04-18T10:30:23.003Z</time></trkpt><trkpt lat="45.63195149759609" lon="10.51146168552089"><ele>482.5</ele><time>2026-04-18T10:30:25.003Z</time></trkpt><trkpt lat="45.63188739865881" lon="10.511345670471677"><ele>480.0</ele><time>2026-04-18T10:30:27.003Z</time></trkpt><trkpt lat="45.63182957157311" lon="10.511236784863389"><ele>477.3333333333333</ele><time>2026-04-18T10:30:29.003Z</time></trkpt><trkpt lat="45.63180367254764" lon="10.511149402301365"><ele>474.66666666666663</ele><time>2026-04-18T10:30:33.003Z</time></trkpt><trkpt lat="45.63176144945569" lon="10.511070074873693"><ele>472.0</ele><time>2026-04-18T10:30:51.004Z</time></trkpt><trkpt lat="45.631724816407434" lon="10.51097595606866"><ele>469.3333333333333</ele><time>2026-04-18T10:30:53.004Z</time></trkpt><trkpt lat="45.631690384410554" lon="10.510827131135212"><ele>466.66666666666663</ele><time>2026-04-18T10:30:55.004Z</time></trkpt><trkpt lat="45.63165669710007" lon="10.510682311595984"><ele>464.0</ele><time>2026-04-18T10:30:57.004Z</time></trkpt><trkpt lat="45.63158742579583" lon="10.510542444040551"><ele>463.99999999999994</ele><time>2026-04-18T10:30:59.004Z</time></trkpt><trkpt lat="45.631531118950235" lon="10.510459164955368"><ele>464.0</ele><time>2026-04-18T10:31:00.004Z</time></trkpt><trkpt lat="45.63148106547712" lon="10.510384081838708"><ele>464.0</ele><time>2026-04-18T10:31:01.004Z</time></trkpt><trkpt lat="45.631422062253364" lon="10.510293514570588"><ele>464.0</ele><time>2026-04-18T10:31:02.004Z</time></trkpt><trkpt lat="45.63136188064979" lon="10.51019358222471"><ele>463.99999999999994</ele><time>2026-04-18T10:31:03.004Z</time></trkpt><trkpt lat="45.631304773671175" lon="10.510111535496886"><ele>464.0</ele><time>2026-04-18T10:31:04.004Z</time></trkpt><trkpt lat="45.63124807101326" lon="10.510027541758946"><ele>462.8333333333333</ele><time>2026-04-18T10:31:05.004Z</time></trkpt><trkpt lat="45.63120262991862" lon="10.509957665745514"><ele>461.66666666666663</ele><time>2026-04-18T10:31:06.004Z</time></trkpt><trkpt lat="45.631102853052596" lon="10.509847013581858"><ele>460.5</ele><time>2026-04-18T10:31:08.004Z</time></trkpt><trkpt lat="45.63104485911885" lon="10.509802026078788"><ele>459.33333333333337</ele><time>2026-04-18T10:31:09.004Z</time></trkpt><trkpt lat="45.63097315891322" lon="10.509758357288502"><ele>458.1666666666667</ele><time>2026-04-18T10:31:10.004Z</time></trkpt><trkpt lat="45.630915204185136" lon="10.509715857514061"><ele>457.0</ele><time>2026-04-18T10:31:11.004Z</time></trkpt><trkpt lat="45.63084188821831" lon="10.50967007255189"><ele>455.40000000000003</ele><time>2026-04-18T10:31:12.004Z</time></trkpt><trkpt lat="45.63078181970041" lon="10.50964261049501"><ele>453.80000000000007</ele><time>2026-04-18T10:31:13.004Z</time></trkpt><trkpt lat="45.63066302344225" lon="10.509574048133542"><ele>452.2</ele><time>2026-04-18T10:31:15.004Z</time></trkpt><trkpt lat="45.63056778264373" lon="10.50951153767036"><ele>450.6</ele><time>2026-04-18T10:31:17.004Z</time></trkpt><trkpt lat="45.63048336816475" lon="10.509393574883479"><ele>449.0</ele><time>2026-04-18T10:31:19.004Z</time></trkpt><trkpt lat="45.63043601808247" lon="10.509318453205227"><ele>449.0</ele><time>2026-04-18T10:31:20.004Z</time></trkpt><trkpt lat="45.63038268892948" lon="10.509228503791672"><ele>449.0</ele><time>2026-04-18T10:31:21.004Z</time></trkpt><trkpt lat="45.63032586717093" lon="10.509108625279483"><ele>449.0</ele><time>2026-04-18T10:31:22.004Z</time></trkpt><trkpt lat="45.63026263209536" lon="10.508977604466605"><ele>449.0</ele><time>2026-04-18T10:31:23.004Z</time></trkpt><trkpt lat="45.63019438704046" lon="10.508857388348964"><ele>449.0</ele><time>2026-04-18T10:31:24.004Z</time></trkpt><trkpt lat="45.63011676938839" lon="10.508740942049611"><ele>446.4</ele><time>2026-04-18T10:31:25.004Z</time></trkpt><trkpt lat="45.63004015769366" lon="10.50862334927121"><ele>443.79999999999995</ele><time>2026-04-18T10:31:26.004Z</time></trkpt><trkpt lat="45.629974190523896" lon="10.508521384329935"><ele>441.20000000000005</ele><time>2026-04-18T10:31:27.004Z</time></trkpt><trkpt lat="45.629920395821436" lon="10.508409790118433"><ele>438.6</ele><time>2026-04-18T10:31:28.004Z</time></trkpt><trkpt lat="45.62986714811872" lon="10.508290046448442"><ele>436.0</ele><time>2026-04-18T10:31:29.004Z</time></trkpt><trkpt lat="45.62980081843328" lon="10.508187410687032"><ele>436.00000000000006</ele><time>2026-04-18T10:31:30.004Z</time></trkpt><trkpt lat="45.62975239580774" lon="10.508109349477715"><ele>436.0</ele><time>2026-04-18T10:31:31.004Z</time></trkpt><trkpt lat="45.62968238391811" lon="10.508043566206393"><ele>436.0</ele><time>2026-04-18T10:31:32.004Z</time></trkpt><trkpt lat="45.6296026543381" lon="10.507988790623104"><ele>436.0</ele><time>2026-04-18T10:31:33.004Z</time></trkpt><trkpt lat="45.629508167552444" lon="10.507950001915056"><ele>436.00000000000006</ele><time>2026-04-18T10:31:34.004Z</time></trkpt><trkpt lat="45.62942076054977" lon="10.507940634101855"><ele>436.0</ele><time>2026-04-18T10:31:35.004Z</time></trkpt><trkpt lat="45.629327217367035" lon="10.507959889354112"><ele>433.33333333333337</ele><time>2026-04-18T10:31:36.005Z</time></trkpt><trkpt lat="45.629248184592576" lon="10.50800146814321"><ele>430.6666666666667</ele><time>2026-04-18T10:31:37.005Z</time></trkpt><trkpt lat="45.6291820718044" lon="10.508067168479696"><ele>428.0</ele><time>2026-04-18T10:31:38.005Z</time></trkpt><trkpt lat="45.62910909548238" lon="10.508176170269445"><ele>425.33333333333337</ele><time>2026-04-18T10:31:40.005Z</time></trkpt><trkpt lat="45.62906224257719" lon="10.508237460230426"><ele>422.6666666666667</ele><time>2026-04-18T10:31:42.005Z</time></trkpt><trkpt lat="45.62899130457777" lon="10.508256780650951"><ele>420.0</ele><time>2026-04-18T10:31:48.005Z</time></trkpt><trkpt lat="45.62893132767699" lon="10.508291373803345"><ele>420.0</ele><time>2026-04-18T10:32:02.005Z</time></trkpt><trkpt lat="45.62886731272588" lon="10.508235190488751"><ele>420.0</ele><time>2026-04-18T10:32:17.005Z</time></trkpt><trkpt lat="45.62882721707272" lon="10.508149937560413"><ele>420.0</ele><time>2026-04-18T10:32:19.005Z</time></trkpt><trkpt lat="45.62877094437717" lon="10.508041419415537"><ele>420.0</ele><time>2026-04-18T10:32:21.005Z</time></trkpt><trkpt lat="45.628775659032705" lon="10.507877105543365"><ele>420.0</ele><time>2026-04-18T10:32:23.005Z</time></trkpt><trkpt lat="45.62872834359081" lon="10.507771776302036"><ele>420.0</ele><time>2026-04-18T10:32:25.005Z</time></trkpt><trkpt lat="45.628675617210334" lon="10.50764743342579"><ele>419.5</ele><time>2026-04-18T10:32:27.005Z</time></trkpt><trkpt lat="45.628643602465466" lon="10.507569077182142"><ele>419.0</ele><time>2026-04-18T10:32:28.005Z</time></trkpt><trkpt lat="45.6286053719703" lon="10.507471941342622"><ele>418.5</ele><time>2026-04-18T10:32:29.005Z</time></trkpt><trkpt lat="45.62856715241789" lon="10.507374834268427"><ele>418.0</ele><time>2026-04-18T10:32:30.005Z</time></trkpt><trkpt lat="45.62852460646139" lon="10.507263685338195"><ele>417.5</ele><time>2026-04-18T10:32:31.006Z</time></trkpt><trkpt lat="45.62848219973641" lon="10.507149082901881"><ele>417.0</ele><time>2026-04-18T10:32:32.006Z</time></trkpt><trkpt lat="45.62843645753606" lon="10.507053915677671"><ele>412.0</ele><time>2026-04-18T10:32:33.006Z</time></trkpt><trkpt lat="45.62839935832236" lon="10.506937752238496"><ele>407.0</ele><time>2026-04-18T10:32:34.006Z</time></trkpt><trkpt lat="45.62836139294831" lon="10.506822080896494"><ele>402.0</ele><time>2026-04-18T10:32:35.006Z</time></trkpt><trkpt lat="45.62834123457176" lon="10.506708919431334"><ele>397.0</ele><time>2026-04-18T10:32:36.006Z</time></trkpt><trkpt lat="45.6283009899258" lon="10.506614628130208"><ele>392.0</ele><time>2026-04-18T10:32:37.006Z</time></trkpt><trkpt lat="45.628283997622894" lon="10.50652257318214"><ele>387.0</ele><time>2026-04-18T10:32:38.006Z</time></trkpt><trkpt lat="45.62824631722353" lon="10.506355068564687"><ele>387.0</ele><time>2026-04-18T10:32:40.006Z</time></trkpt><trkpt lat="45.628221784692315" lon="10.506267576377322"><ele>387.0</ele><time>2026-04-18T10:32:41.006Z</time></trkpt><trkpt lat="45.62814783311116" lon="10.506138497212024"><ele>387.0</ele><time>2026-04-18T10:32:43.006Z</time></trkpt><trkpt lat="45.62811909997477" lon="10.506054716027236"><ele>387.0</ele><time>2026-04-18T10:32:44.006Z</time></trkpt><trkpt lat="45.6280486735001" lon="10.505961846598652"><ele>387.0</ele><time>2026-04-18T10:32:46.006Z</time></trkpt><trkpt lat="45.62798898415643" lon="10.505853697486463"><ele>387.0</ele><time>2026-04-18T10:32:49.006Z</time></trkpt><trkpt lat="45.62786638748722" lon="10.505865723526641"><ele>381.40000000000003</ele><time>2026-04-18T10:32:51.006Z</time></trkpt><trkpt lat="45.62777749772039" lon="10.505850738919115"><ele>375.8</ele><time>2026-04-18T10:32:52.006Z</time></trkpt><trkpt lat="45.627673456415565" lon="10.505831146431131"><ele>370.2</ele><time>2026-04-18T10:32:53.006Z</time></trkpt><trkpt lat="45.62758285175257" lon="10.50579998501491"><ele>364.6</ele><time>2026-04-18T10:32:54.006Z</time></trkpt><trkpt lat="45.62746998361228" lon="10.505750285924012"><ele>359.0</ele><time>2026-04-18T10:32:55.006Z</time></trkpt><trkpt lat="45.62735627008633" lon="10.505697657975404"><ele>359.0</ele><time>2026-04-18T10:32:56.006Z</time></trkpt><trkpt lat="45.62726124842129" lon="10.505657122966246"><ele>359.0</ele><time>2026-04-18T10:32:57.006Z</time></trkpt><trkpt lat="45.627178567384426" lon="10.505619117992802"><ele>359.0</ele><time>2026-04-18T10:32:58.006Z</time></trkpt><trkpt lat="45.62708068998224" lon="10.505588262184517"><ele>359.0</ele><time>2026-04-18T10:32:59.006Z</time></trkpt><trkpt lat="45.626973201401135" lon="10.505545644432557"><ele>359.0</ele><time>2026-04-18T10:33:00.006Z</time></trkpt><trkpt lat="45.62688241426361" lon="10.505500764800887"><ele>356.0</ele><time>2026-04-18T10:33:01.006Z</time></trkpt><trkpt lat="45.62679994827099" lon="10.505468137757411"><ele>353.0</ele><time>2026-04-18T10:33:02.006Z</time></trkpt><trkpt lat="45.62671970709566" lon="10.50542943951733"><ele>350.0</ele><time>2026-04-18T10:33:03.006Z</time></trkpt><trkpt lat="45.6266429864165" lon="10.505372538681417"><ele>347.0</ele><time>2026-04-18T10:33:04.006Z</time></trkpt><trkpt lat="45.626570533112215" lon="10.505291751707745"><ele>344.0</ele><time>2026-04-18T10:33:05.006Z</time></trkpt><trkpt lat="45.62650065658988" lon="10.505202454945195"><ele>341.0</ele><time>2026-04-18T10:33:06.006Z</time></trkpt><trkpt lat="45.62643919149262" lon="10.505108341230784"><ele>341.0</ele><time>2026-04-18T10:33:07.006Z</time></trkpt><trkpt lat="45.626387621704815" lon="10.50500596908054"><ele>341.0</ele><time>2026-04-18T10:33:08.006Z</time></trkpt><trkpt lat="45.62634361758277" lon="10.50488899543109"><ele>341.0</ele><time>2026-04-18T10:33:09.006Z</time></trkpt><trkpt lat="45.62630534617833" lon="10.50477431947722"><ele>341.0</ele><time>2026-04-18T10:33:10.006Z</time></trkpt><trkpt lat="45.62626152877506" lon="10.504635628783697"><ele>341.0</ele><time>2026-04-18T10:33:11.006Z</time></trkpt><trkpt lat="45.6262239291601" lon="10.504504334655861"><ele>340.1666666666667</ele><time>2026-04-18T10:33:12.006Z</time></trkpt><trkpt lat="45.626184153068024" lon="10.504372248653553"><ele>339.33333333333337</ele><time>2026-04-18T10:33:13.006Z</time></trkpt><trkpt lat="45.62615297187893" lon="10.504244071994595"><ele>338.5</ele><time>2026-04-18T10:33:14.006Z</time></trkpt><trkpt lat="45.62612886682161" lon="10.504134364692408"><ele>337.6666666666667</ele><time>2026-04-18T10:33:15.006Z</time></trkpt><trkpt lat="45.62610935546907" lon="10.504025738298026"><ele>336.8333333333333</ele><time>2026-04-18T10:33:16.006Z</time></trkpt><trkpt lat="45.626095501243974" lon="10.503910929727068"><ele>336.0</ele><time>2026-04-18T10:33:17.006Z</time></trkpt><trkpt lat="45.626079129241056" lon="10.503797175647646"><ele>329.1666666666667</ele><time>2026-04-18T10:33:18.006Z</time></trkpt><trkpt lat="45.6260715969514" lon="10.503686658542776"><ele>322.3333333333333</ele><time>2026-04-18T10:33:19.006Z</time></trkpt><trkpt lat="45.62606426337149" lon="10.503584457841413"><ele>315.5</ele><time>2026-04-18T10:33:20.006Z</time></trkpt><trkpt lat="45.62604929437979" lon="10.503489984412056"><ele>308.66666666666663</ele><time>2026-04-18T10:33:21.006Z</time></trkpt><trkpt lat="45.62599906214179" lon="10.503380417575341"><ele>301.8333333333333</ele><time>2026-04-18T10:33:22.006Z</time></trkpt><trkpt lat="45.62594792297149" lon="10.50327466772411"><ele>295.0</ele><time>2026-04-18T10:33:23.006Z</time></trkpt><trkpt lat="45.62590129575468" lon="10.503158970438879"><ele>295.0</ele><time>2026-04-18T10:33:24.006Z</time></trkpt><trkpt lat="45.62585900560859" lon="10.50304153880199"><ele>295.0</ele><time>2026-04-18T10:33:25.006Z</time></trkpt><trkpt lat="45.62582852051924" lon="10.502935820074457"><ele>295.0</ele><time>2026-04-18T10:33:26.006Z</time></trkpt><trkpt lat="45.62580227950748" lon="10.50282247309195"><ele>295.0</ele><time>2026-04-18T10:33:27.007Z</time></trkpt><trkpt lat="45.62577245251204" lon="10.502730102762529"><ele>295.0</ele><time>2026-04-18T10:33:28.006Z</time></trkpt><trkpt lat="45.625686536763894" lon="10.502630904130934"><ele>295.0</ele><time>2026-04-18T10:33:30.006Z</time></trkpt><trkpt lat="45.62555863831802" lon="10.502668279572362"><ele>295.0</ele><time>2026-04-18T10:33:32.006Z</time></trkpt><trkpt lat="45.625506002703034" lon="10.502736566294502"><ele>295.0</ele><time>2026-04-18T10:33:33.005Z</time></trkpt><trkpt lat="45.625454270087964" lon="10.502834947777396"><ele>295.0</ele><time>2026-04-18T10:33:34.005Z</time></trkpt><trkpt lat="45.625405865776955" lon="10.502931865685905"><ele>295.0</ele><time>2026-04-18T10:33:35.005Z</time></trkpt><trkpt lat="45.62536689832178" lon="10.503016499507769"><ele>295.0</ele><time>2026-04-18T10:33:36.004Z</time></trkpt><trkpt lat="45.62531346432558" lon="10.503126526604444"><ele>295.0</ele><time>2026-04-18T10:33:38.004Z</time></trkpt><trkpt lat="45.62530311582496" lon="10.5032347826684"><ele>289.8333333333333</ele><time>2026-04-18T10:33:40.003Z</time></trkpt><trkpt lat="45.625269302122206" lon="10.503339243676791"><ele>284.66666666666663</ele><time>2026-04-18T10:33:42.003Z</time></trkpt><trkpt lat="45.625198203603674" lon="10.503334112869643"><ele>279.5</ele><time>2026-04-18T10:33:44.003Z</time></trkpt><trkpt lat="45.625130132175855" lon="10.503245209773066"><ele>274.3333333333333</ele><time>2026-04-18T10:33:46.002Z</time></trkpt><trkpt lat="45.62506937740392" lon="10.50310671379609"><ele>269.1666666666667</ele><time>2026-04-18T10:33:48.002Z</time></trkpt><trkpt lat="45.62503383414056" lon="10.503019974873395"><ele>264.0</ele><time>2026-04-18T10:33:49.002Z</time></trkpt><trkpt lat="45.62500033361033" lon="10.502918849603345"><ele>263.3333333333333</ele><time>2026-04-18T10:33:50.002Z</time></trkpt><trkpt lat="45.62497202307626" lon="10.50282046206364"><ele>262.6666666666667</ele><time>2026-04-18T10:33:51.002Z</time></trkpt><trkpt lat="45.62494670307232" lon="10.502732546762186"><ele>262.0</ele><time>2026-04-18T10:33:52.002Z</time></trkpt><trkpt lat="45.62490389106966" lon="10.502577405068728"><ele>261.33333333333337</ele><time>2026-04-18T10:33:54.002Z</time></trkpt><trkpt lat="45.624854196521305" lon="10.50247298492992"><ele>260.6666666666667</ele><time>2026-04-18T10:33:56.001Z</time></trkpt><trkpt lat="45.62480260609261" lon="10.502397078476733"><ele>260.0</ele><time>2026-04-18T10:33:58.001Z</time></trkpt><trkpt lat="45.62473558701022" lon="10.502279013107593"><ele>260.0</ele><time>2026-04-18T10:34:20.001Z</time></trkpt><trkpt lat="45.624738038423075" lon="10.502185579250616"><ele>260.0</ele><time>2026-04-18T10:34:22.001Z</time></trkpt><trkpt lat="45.62473322249295" lon="10.50201138689767"><ele>260.0</ele><time>2026-04-18T10:34:24.001Z</time></trkpt><trkpt lat="45.62473913267923" lon="10.50191879427811"><ele>260.0</ele><time>2026-04-18T10:34:25.001Z</time></trkpt><trkpt lat="45.624760541126406" lon="10.501815192419395"><ele>260.0</ele><time>2026-04-18T10:34:26.001Z</time></trkpt><trkpt lat="45.62480804271894" lon="10.501712021072828"><ele>260.0</ele><time>2026-04-18T10:34:27.001Z</time></trkpt><trkpt lat="45.62480875741717" lon="10.50160691483267"><ele>256.2</ele><time>2026-04-18T10:34:28.001Z</time></trkpt><trkpt lat="45.62483855235516" lon="10.501496347280023"><ele>252.4</ele><time>2026-04-18T10:34:30.001Z</time></trkpt><trkpt lat="45.624900510634724" lon="10.501440765873364"><ele>248.60000000000002</ele><time>2026-04-18T10:34:36.001Z</time></trkpt><trkpt lat="45.625026164413654" lon="10.501446189348785"><ele>244.8</ele><time>2026-04-18T10:34:38.001Z</time></trkpt><trkpt lat="45.625113937805295" lon="10.501455213862268"><ele>241.0</ele><time>2026-04-18T10:34:39.001Z</time></trkpt><trkpt lat="45.625203736728466" lon="10.501450827424014"><ele>240.99999999999997</ele><time>2026-04-18T10:34:40.001Z</time></trkpt><trkpt lat="45.62529438598001" lon="10.501423858674485"><ele>241.0</ele><time>2026-04-18T10:34:41.001Z</time></trkpt><trkpt lat="45.62534991036527" lon="10.501361630689098"><ele>241.0</ele><time>2026-04-18T10:34:42.001Z</time></trkpt><trkpt lat="45.62540228599263" lon="10.50130649965779"><ele>241.0</ele><time>2026-04-18T10:34:43.001Z</time></trkpt><trkpt lat="45.625446206417166" lon="10.501212467584768"><ele>240.99999999999997</ele><time>2026-04-18T10:34:44.001Z</time></trkpt><trkpt lat="45.62552423230202" lon="10.50110856878415"><ele>241.0</ele><time>2026-04-18T10:34:45.001Z</time></trkpt><trkpt lat="45.625597172602625" lon="10.50098964683422"><ele>240.4</ele><time>2026-04-18T10:34:46.001Z</time></trkpt><trkpt lat="45.62565940988649" lon="10.500889712995713"><ele>239.8</ele><time>2026-04-18T10:34:47.001Z</time></trkpt><trkpt lat="45.625729282553195" lon="10.500783763852343"><ele>239.20000000000002</ele><time>2026-04-18T10:34:48.001Z</time></trkpt><trkpt lat="45.62578152968307" lon="10.500674159340447"><ele>238.60000000000002</ele><time>2026-04-18T10:34:49.001Z</time></trkpt><trkpt lat="45.62581525522533" lon="10.500568916741294"><ele>238.0</ele><time>2026-04-18T10:34:50.001Z</time></trkpt><trkpt lat="45.62585590099399" lon="10.500468499872277"><ele>237.49999999999997</ele><time>2026-04-18T10:34:51.001Z</time></trkpt><trkpt lat="45.62588153698786" lon="10.50034970065727"><ele>237.0</ele><time>2026-04-18T10:34:52.001Z</time></trkpt><trkpt lat="45.62591524338331" lon="10.500240261499606"><ele>236.5</ele><time>2026-04-18T10:34:53.001Z</time></trkpt><trkpt lat="45.6259599872999" lon="10.500141511233094"><ele>236.0</ele><time>2026-04-18T10:34:54.001Z</time></trkpt><trkpt lat="45.62598372303934" lon="10.500031170121378"><ele>235.49999999999997</ele><time>2026-04-18T10:34:55.001Z</time></trkpt><trkpt lat="45.6259999931989" lon="10.499916897173998"><ele>235.0</ele><time>2026-04-18T10:34:56.001Z</time></trkpt><trkpt lat="45.6260198861991" lon="10.499813113470227"><ele>234.99999999999997</ele><time>2026-04-18T10:34:57.001Z</time></trkpt><trkpt lat="45.62603818902626" lon="10.49971435255746"><ele>235.0</ele><time>2026-04-18T10:34:58.001Z</time></trkpt><trkpt lat="45.626054880696536" lon="10.499624285101762"><ele>235.0</ele><time>2026-04-18T10:34:59.001Z</time></trkpt><trkpt lat="45.62608514245236" lon="10.49945790401154"><ele>235.0</ele><time>2026-04-18T10:35:01.001Z</time></trkpt><trkpt lat="45.62610826265675" lon="10.49933079395394"><ele>234.99999999999997</ele><time>2026-04-18T10:35:03.001Z</time></trkpt><trkpt lat="45.626128695146704" lon="10.499229391410429"><ele>235.0</ele><time>2026-04-18T10:35:08.001Z</time></trkpt><trkpt lat="45.62611161269716" lon="10.49909519670602"><ele>234.99999999999997</ele><time>2026-04-18T10:35:10.001Z</time></trkpt><trkpt lat="45.626041396776756" lon="10.49906661906544"><ele>235.0</ele><time>2026-04-18T10:35:11.001Z</time></trkpt><trkpt lat="45.62596002898528" lon="10.499001752854818"><ele>235.0</ele><time>2026-04-18T10:35:12.001Z</time></trkpt><trkpt lat="45.625881940256214" lon="10.498948398246851"><ele>235.0</ele><time>2026-04-18T10:35:13.001Z</time></trkpt><trkpt lat="45.62580227206557" lon="10.498902658658489"><ele>234.99999999999997</ele><time>2026-04-18T10:35:14.001Z</time></trkpt><trkpt lat="45.625728759049615" lon="10.498855122125153"><ele>235.0</ele><time>2026-04-18T10:35:15.001Z</time></trkpt><trkpt lat="45.62566391991113" lon="10.498799126142481"><ele>234.83333333333331</ele><time>2026-04-18T10:35:16.001Z</time></trkpt><trkpt lat="45.62560065564257" lon="10.498725266329473"><ele>234.66666666666666</ele><time>2026-04-18T10:35:17.001Z</time></trkpt><trkpt lat="45.625520017072645" lon="10.49864832758466"><ele>234.5</ele><time>2026-04-18T10:35:18.001Z</time></trkpt><trkpt lat="45.625491152018206" lon="10.498525941975334"><ele>234.33333333333331</ele><time>2026-04-18T10:35:19.001Z</time></trkpt><trkpt lat="45.62548472158769" lon="10.498413368684144"><ele>234.16666666666666</ele><time>2026-04-18T10:35:20.001Z</time></trkpt><trkpt lat="45.62552781957836" lon="10.498312709212929"><ele>234.0</ele><time>2026-04-18T10:35:21.001Z</time></trkpt><trkpt lat="45.62548969026866" lon="10.49823151617809"><ele>234.0</ele><time>2026-04-18T10:35:22.001Z</time></trkpt><trkpt lat="45.62543459031439" lon="10.498152210615185"><ele>234.0</ele><time>2026-04-18T10:35:23.001Z</time></trkpt><trkpt lat="45.62536449376677" lon="10.498074438338612"><ele>234.0</ele><time>2026-04-18T10:35:24.001Z</time></trkpt><trkpt lat="45.62529423426934" lon="10.49801025784952"><ele>234.0</ele><time>2026-04-18T10:35:25.001Z</time></trkpt><trkpt lat="45.62524407671949" lon="10.497917728893608"><ele>234.0</ele><time>2026-04-18T10:35:26.001Z</time></trkpt><trkpt lat="45.62521818753466" lon="10.4977991904593"><ele>234.0</ele><time>2026-04-18T10:35:27.001Z</time></trkpt><trkpt lat="45.62520548010875" lon="10.497661571697504"><ele>233.79999999999998</ele><time>2026-04-18T10:35:28.001Z</time></trkpt><trkpt lat="45.62519325715242" lon="10.497510669427092"><ele>233.59999999999997</ele><time>2026-04-18T10:35:29.001Z</time></trkpt><trkpt lat="45.62517693490048" lon="10.49734353162223"><ele>233.4</ele><time>2026-04-18T10:35:30.001Z</time></trkpt><trkpt lat="45.62516725773161" lon="10.497172960621205"><ele>233.2</ele><time>2026-04-18T10:35:31.001Z</time></trkpt><trkpt lat="45.62515656213506" lon="10.497025764814023"><ele>233.0</ele><time>2026-04-18T10:35:32.001Z</time></trkpt><trkpt lat="45.62514811695396" lon="10.49690032810294"><ele>233.00000000000003</ele><time>2026-04-18T10:35:33.001Z</time></trkpt><trkpt lat="45.625134156300945" lon="10.496793262036269"><ele>233.0</ele><time>2026-04-18T10:35:34.001Z</time></trkpt><trkpt lat="45.62511894396819" lon="10.49669029493231"><ele>233.0</ele><time>2026-04-18T10:35:35.001Z</time></trkpt><trkpt lat="45.625101908232274" lon="10.496590722225115"><ele>233.0</ele><time>2026-04-18T10:35:36.001Z</time></trkpt><trkpt lat="45.62507188935216" lon="10.496493454115548"><ele>233.00000000000003</ele><time>2026-04-18T10:35:37.001Z</time></trkpt><trkpt lat="45.62503169327959" lon="10.496378219336336"><ele>233.0</ele><time>2026-04-18T10:35:38.001Z</time></trkpt><trkpt lat="45.624994008515145" lon="10.49626096889399"><ele>233.60000000000002</ele><time>2026-04-18T10:35:39.001Z</time></trkpt><trkpt lat="45.62493963388502" lon="10.49614221222784"><ele>234.20000000000002</ele><time>2026-04-18T10:35:40.001Z</time></trkpt><trkpt lat="45.62487715572443" lon="10.496036322141753"><ele>234.8</ele><time>2026-04-18T10:35:41.001Z</time></trkpt><trkpt lat="45.62481323763211" lon="10.49590128345366"><ele>235.4</ele><time>2026-04-18T10:35:42.001Z</time></trkpt><trkpt lat="45.62474076443184" lon="10.495769230553238"><ele>236.0</ele><time>2026-04-18T10:35:43.001Z</time></trkpt><trkpt lat="45.624674970376894" lon="10.495636976139126"><ele>236.0</ele><time>2026-04-18T10:35:44.001Z</time></trkpt><trkpt lat="45.62460470940359" lon="10.495491052728926"><ele>236.0</ele><time>2026-04-18T10:35:45.001Z</time></trkpt><trkpt lat="45.62453917454107" lon="10.495354488129724"><ele>236.0</ele><time>2026-04-18T10:35:46.001Z</time></trkpt><trkpt lat="45.624462076374435" lon="10.495205930261973"><ele>236.0</ele><time>2026-04-18T10:35:47.001Z</time></trkpt><trkpt lat="45.62438122975672" lon="10.495052728421904"><ele>235.5</ele><time>2026-04-18T10:35:48.001Z</time></trkpt><trkpt lat="45.6242967221389" lon="10.4948955326147"><ele>235.0</ele><time>2026-04-18T10:35:49.001Z</time></trkpt><trkpt lat="45.62421011478845" lon="10.494737481996724"><ele>234.5</ele><time>2026-04-18T10:35:50.001Z</time></trkpt><trkpt lat="45.624142774949604" lon="10.494561699282038"><ele>234.0</ele><time>2026-04-18T10:35:51.001Z</time></trkpt><trkpt lat="45.62404411307778" lon="10.49442113798239"><ele>233.25</ele><time>2026-04-18T10:35:52.001Z</time></trkpt><trkpt lat="45.623966698001674" lon="10.494262751619711"><ele>232.5</ele><time>2026-04-18T10:35:53.001Z</time></trkpt><trkpt lat="45.62389494446997" lon="10.494107724419885"><ele>231.75</ele><time>2026-04-18T10:35:54.001Z</time></trkpt><trkpt lat="45.6238279672089" lon="10.493943871086328"><ele>231.0</ele><time>2026-04-18T10:35:55.001Z</time></trkpt><trkpt lat="45.62375705459441" lon="10.493790230382704"><ele>230.5</ele><time>2026-04-18T10:35:56.001Z</time></trkpt><trkpt lat="45.62369305263663" lon="10.493639673850254"><ele>230.0</ele><time>2026-04-18T10:35:57.001Z</time></trkpt><trkpt lat="45.62363393950283" lon="10.493486689573356"><ele>229.5</ele><time>2026-04-18T10:35:58.001Z</time></trkpt><trkpt lat="45.62360342933375" lon="10.493310473931869"><ele>229.0</ele><time>2026-04-18T10:35:59.001Z</time></trkpt><trkpt lat="45.62355291669595" lon="10.493152421770205"><ele>230.5</ele><time>2026-04-18T10:36:00.001Z</time></trkpt><trkpt lat="45.623503930432484" lon="10.492996266100327"><ele>232.0</ele><time>2026-04-18T10:36:01.001Z</time></trkpt><trkpt lat="45.62345465328671" lon="10.492839183153334"><ele>233.5</ele><time>2026-04-18T10:36:02.001Z</time></trkpt><trkpt lat="45.62340453781129" lon="10.492679427779423"><ele>235.0</ele><time>2026-04-18T10:36:03.001Z</time></trkpt><trkpt lat="45.6233568968916" lon="10.492526093187582"><ele>235.0</ele><time>2026-04-18T10:36:04.001Z</time></trkpt><trkpt lat="45.623283667864435" lon="10.49238885108819"><ele>235.0</ele><time>2026-04-18T10:36:05.001Z</time></trkpt><trkpt lat="45.62323912645364" lon="10.492229069779095"><ele>235.0</ele><time>2026-04-18T10:36:06.001Z</time></trkpt><trkpt lat="45.62319711878598" lon="10.492066849562855"><ele>235.0</ele><time>2026-04-18T10:36:07.001Z</time></trkpt><trkpt lat="45.62316605945153" lon="10.49190025906504"><ele>233.5</ele><time>2026-04-18T10:36:08.001Z</time></trkpt><trkpt lat="45.62313081222401" lon="10.491734159791013"><ele>232.0</ele><time>2026-04-18T10:36:09.001Z</time></trkpt><trkpt lat="45.6230998128031" lon="10.491561516267039"><ele>230.5</ele><time>2026-04-18T10:36:10.001Z</time></trkpt><trkpt lat="45.623071583082705" lon="10.49138909146956"><ele>229.0</ele><time>2026-04-18T10:36:11.001Z</time></trkpt><trkpt lat="45.623045557509144" lon="10.491216703712782"><ele>229.0</ele><time>2026-04-18T10:36:12.001Z</time></trkpt><trkpt lat="45.623010257226504" lon="10.491041866215998"><ele>229.0</ele><time>2026-04-18T10:36:13.001Z</time></trkpt><trkpt lat="45.622960384594876" lon="10.490870677056915"><ele>229.0</ele><time>2026-04-18T10:36:14.001Z</time></trkpt><trkpt lat="45.62289654048929" lon="10.49070407125696"><ele>229.0</ele><time>2026-04-18T10:36:15.001Z</time></trkpt><trkpt lat="45.62281452265922" lon="10.490549920713802"><ele>230.75</ele><time>2026-04-18T10:36:16.001Z</time></trkpt><trkpt lat="45.62272742716415" lon="10.490389609909345"><ele>232.5</ele><time>2026-04-18T10:36:17.001Z</time></trkpt><trkpt lat="45.62263510358609" lon="10.490228973636286"><ele>234.25</ele><time>2026-04-18T10:36:18.001Z</time></trkpt><trkpt lat="45.62254738006307" lon="10.49006497836386"><ele>236.0</ele><time>2026-04-18T10:36:19.001Z</time></trkpt><trkpt lat="45.622460094211085" lon="10.489904134185949"><ele>236.0</ele><time>2026-04-18T10:36:20.001Z</time></trkpt><trkpt lat="45.62237335440715" lon="10.48974696571547"><ele>236.0</ele><time>2026-04-18T10:36:21.001Z</time></trkpt><trkpt lat="45.62227965735268" lon="10.489597266411588"><ele>236.0</ele><time>2026-04-18T10:36:22.001Z</time></trkpt><trkpt lat="45.622194074618484" lon="10.48944592232151"><ele>236.0</ele><time>2026-04-18T10:36:23.001Z</time></trkpt><trkpt lat="45.62208861988076" lon="10.48930868960432"><ele>235.5</ele><time>2026-04-18T10:36:24.001Z</time></trkpt><trkpt lat="45.62199508241694" lon="10.489159110887147"><ele>235.0</ele><time>2026-04-18T10:36:25.001Z</time></trkpt><trkpt lat="45.62190388815093" lon="10.489003981433468"><ele>234.5</ele><time>2026-04-18T10:36:26.001Z</time></trkpt><trkpt lat="45.62181686364763" lon="10.488845145074164"><ele>234.0</ele><time>2026-04-18T10:36:27.001Z</time></trkpt><trkpt lat="45.62173008741106" lon="10.488687735683824"><ele>234.0</ele><time>2026-04-18T10:36:28.001Z</time></trkpt><trkpt lat="45.62164511135807" lon="10.488526711440104"><ele>234.0</ele><time>2026-04-18T10:36:29.001Z</time></trkpt><trkpt lat="45.62156353311197" lon="10.4883615931224"><ele>234.0</ele><time>2026-04-18T10:36:30.001Z</time></trkpt><trkpt lat="45.621487489400955" lon="10.488193865197763"><ele>234.0</ele><time>2026-04-18T10:36:31.001Z</time></trkpt><trkpt lat="45.62141809747193" lon="10.488016649337556"><ele>234.75</ele><time>2026-04-18T10:36:32.001Z</time></trkpt><trkpt lat="45.62134996084178" lon="10.487837622726582"><ele>235.5</ele><time>2026-04-18T10:36:33.001Z</time></trkpt><trkpt lat="45.62128495655713" lon="10.487662472728433"><ele>236.25</ele><time>2026-04-18T10:36:34.001Z</time></trkpt><trkpt lat="45.62121594156273" lon="10.487491254381156"><ele>237.0</ele><time>2026-04-18T10:36:35.001Z</time></trkpt><trkpt lat="45.62115187991557" lon="10.487319919661656"><ele>235.25</ele><time>2026-04-18T10:36:36.001Z</time></trkpt><trkpt lat="45.62108565545591" lon="10.487157554854866"><ele>233.5</ele><time>2026-04-18T10:36:37.001Z</time></trkpt><trkpt lat="45.62101319034158" lon="10.487002775126925"><ele>231.75</ele><time>2026-04-18T10:36:38.001Z</time></trkpt><trkpt lat="45.62094176799032" lon="10.486844156997911"><ele>230.0</ele><time>2026-04-18T10:36:39.001Z</time></trkpt><trkpt lat="45.620864945745815" lon="10.486681613088862"><ele>230.0</ele><time>2026-04-18T10:36:40.001Z</time></trkpt><trkpt lat="45.62078476703321" lon="10.486513690891018"><ele>230.0</ele><time>2026-04-18T10:36:41.001Z</time></trkpt><trkpt lat="45.62071734275754" lon="10.486335699364435"><ele>230.0</ele><time>2026-04-18T10:36:42.001Z</time></trkpt><trkpt lat="45.62063055560627" lon="10.486184665572663"><ele>230.0</ele><time>2026-04-18T10:36:43.001Z</time></trkpt><trkpt lat="45.620557104010736" lon="10.486019589436342"><ele>230.0</ele><time>2026-04-18T10:36:44.001Z</time></trkpt><trkpt lat="45.62047812360601" lon="10.485857041998925"><ele>230.0</ele><time>2026-04-18T10:36:45.001Z</time></trkpt><trkpt lat="45.62039719799993" lon="10.485696277069861"><ele>230.0</ele><time>2026-04-18T10:36:46.001Z</time></trkpt><trkpt lat="45.62032561321272" lon="10.485530581044346"><ele>230.0</ele><time>2026-04-18T10:36:47.001Z</time></trkpt><trkpt lat="45.620248585062846" lon="10.485369999842616"><ele>231.25</ele><time>2026-04-18T10:36:48.001Z</time></trkpt><trkpt lat="45.62017233698648" lon="10.485206577640986"><ele>232.5</ele><time>2026-04-18T10:36:49.001Z</time></trkpt><trkpt lat="45.62009871076115" lon="10.485044247060111"><ele>233.75</ele><time>2026-04-18T10:36:50.001Z</time></trkpt><trkpt lat="45.62003586135967" lon="10.484881458511962"><ele>235.0</ele><time>2026-04-18T10:36:51.001Z</time></trkpt><trkpt lat="45.61996971743916" lon="10.484723230976874"><ele>233.0</ele><time>2026-04-18T10:36:52.001Z</time></trkpt><trkpt lat="45.61990347053025" lon="10.484557976349395"><ele>231.0</ele><time>2026-04-18T10:36:53.001Z</time></trkpt><trkpt lat="45.619834469688485" lon="10.484397836852525"><ele>229.0</ele><time>2026-04-18T10:36:54.001Z</time></trkpt><trkpt lat="45.61977539669812" lon="10.484231921886817"><ele>227.0</ele><time>2026-04-18T10:36:55.001Z</time></trkpt><trkpt lat="45.61972423971616" lon="10.484062859076419"><ele>227.0</ele><time>2026-04-18T10:36:56.001Z</time></trkpt><trkpt lat="45.61965049554916" lon="10.48392144572706"><ele>227.0</ele><time>2026-04-18T10:36:57.001Z</time></trkpt><trkpt lat="45.619560054745804" lon="10.48379106736607"><ele>227.0</ele><time>2026-04-18T10:36:58.001Z</time></trkpt><trkpt lat="45.619450564995766" lon="10.48368871836193"><ele>227.0</ele><time>2026-04-18T10:36:59.001Z</time></trkpt><trkpt lat="45.61933421054756" lon="10.483600571267754"><ele>226.75</ele><time>2026-04-18T10:37:00.001Z</time></trkpt><trkpt lat="45.61920387919062" lon="10.48356853502466"><ele>226.5</ele><time>2026-04-18T10:37:01.001Z</time></trkpt><trkpt lat="45.61907980083584" lon="10.48357869937214"><ele>226.25</ele><time>2026-04-18T10:37:02.001Z</time></trkpt><trkpt lat="45.61895546768938" lon="10.483572696365531"><ele>226.0</ele><time>2026-04-18T10:37:03.001Z</time></trkpt><trkpt lat="45.61882536310704" lon="10.483550184720436"><ele>226.0</ele><time>2026-04-18T10:37:04.001Z</time></trkpt><trkpt lat="45.61868691803947" lon="10.48352729178991"><ele>226.0</ele><time>2026-04-18T10:37:05.001Z</time></trkpt><trkpt lat="45.618563836392816" lon="10.48349171070892"><ele>226.0</ele><time>2026-04-18T10:37:06.001Z</time></trkpt><trkpt lat="45.618443176962" lon="10.48354044772556"><ele>226.0</ele><time>2026-04-18T10:37:07.001Z</time></trkpt><trkpt lat="45.6183256967527" lon="10.483595117893564"><ele>226.20000000000002</ele><time>2026-04-18T10:37:08.001Z</time></trkpt><trkpt lat="45.61819915034858" lon="10.483619839701557"><ele>226.40000000000003</ele><time>2026-04-18T10:37:09.001Z</time></trkpt><trkpt lat="45.61808832234108" lon="10.483640373917172"><ele>226.6</ele><time>2026-04-18T10:37:10.001Z</time></trkpt><trkpt lat="45.617989325274436" lon="10.483637905324919"><ele>226.8</ele><time>2026-04-18T10:37:11.001Z</time></trkpt><trkpt lat="45.61789899468826" lon="10.483610569797166"><ele>227.0</ele><time>2026-04-18T10:37:12.001Z</time></trkpt><trkpt lat="45.61780977238303" lon="10.483597126782975"><ele>227.00000000000003</ele><time>2026-04-18T10:37:13.001Z</time></trkpt><trkpt lat="45.61773124007403" lon="10.483596198689622"><ele>227.0</ele><time>2026-04-18T10:37:14.001Z</time></trkpt><trkpt lat="45.61763131660207" lon="10.483598352509388"><ele>227.0</ele><time>2026-04-18T10:37:16.001Z</time></trkpt><trkpt lat="45.6175489398143" lon="10.483593967883694"><ele>227.0</ele><time>2026-04-18T10:37:18.001Z</time></trkpt><trkpt lat="45.617440232202554" lon="10.483520960598774"><ele>227.00000000000003</ele><time>2026-04-18T10:37:20.001Z</time></trkpt><trkpt lat="45.617374022595016" lon="10.483532875175948"><ele>227.0</ele><time>2026-04-18T10:37:21.001Z</time></trkpt><trkpt lat="45.61729535262951" lon="10.483523617965544"><ele>227.0</ele><time>2026-04-18T10:37:22.001Z</time></trkpt><trkpt lat="45.61722118295453" lon="10.483509255404242"><ele>227.0</ele><time>2026-04-18T10:37:23.001Z</time></trkpt><trkpt lat="45.61715316508838" lon="10.483494648806415"><ele>227.0</ele><time>2026-04-18T10:37:24.001Z</time></trkpt><trkpt lat="45.61711517611398" lon="10.483260247736766"><ele>227.0</ele><time>2026-04-18T10:37:25.001Z</time></trkpt><trkpt lat="45.617017812702606" lon="10.483245066950744"><ele>227.0</ele><time>2026-04-18T10:37:27.001Z</time></trkpt><trkpt lat="45.61685845524757" lon="10.483396582166018"><ele>227.0</ele><time>2026-04-18T10:37:31.001Z</time></trkpt><trkpt lat="45.61696504652686" lon="10.4834121025364"><ele>227.0</ele><time>2026-04-18T10:38:04Z</time></trkpt><trkpt lat="45.617028390898184" lon="10.483391223895415"><ele>227.0</ele><time>2026-04-18T10:38:38.001Z</time></trkpt><trkpt lat="45.616964780960146" lon="10.483707969182488"><ele>227.0</ele><time>2026-04-18T10:41:30Z</time></trkpt><trkpt lat="45.616878609611724" lon="10.48373266034201"><ele>227.0</ele><time>2026-04-18T10:45:19.001Z</time></trkpt><trkpt lat="45.61710671765855" lon="10.483439201537314"><ele>227.0</ele><time>2026-04-18T11:46:10.478Z</time></trkpt><trkpt lat="45.61706889295529" lon="10.483267920481982"><ele>227.0</ele><time>2026-04-18T11:46:24Z</time></trkpt><trkpt lat="45.61700676434367" lon="10.483230023965437"><ele>227.00000000000003</ele><time>2026-04-18T11:48:42Z</time></trkpt><trkpt lat="45.61694088436314" lon="10.483258227811541"><ele>227.0</ele><time>2026-04-18T11:48:55Z</time></trkpt><trkpt lat="45.6169148671018" lon="10.483388608820299"><ele>227.0</ele><time>2026-04-18T11:50:38Z</time></trkpt><trkpt lat="45.61683464711094" lon="10.483345846580425"><ele>227.0</ele><time>2026-04-18T11:51:44Z</time></trkpt><trkpt lat="45.616769574708044" lon="10.483346976125432"><ele>227.00000000000003</ele><time>2026-04-18T11:51:47Z</time></trkpt><trkpt lat="45.6166868192469" lon="10.483348372262874"><ele>227.0</ele><time>2026-04-18T11:52:00Z</time></trkpt><trkpt lat="45.61661572890672" lon="10.483327495581076"><ele>227.0</ele><time>2026-04-18T11:52:01Z</time></trkpt><trkpt lat="45.616523298445045" lon="10.483309536249129"><ele>227.0</ele><time>2026-04-18T11:52:02Z</time></trkpt><trkpt lat="45.616434222432225" lon="10.483292693475526"><ele>227.0</ele><time>2026-04-18T11:52:03Z</time></trkpt><trkpt lat="45.6163339871786" lon="10.48326169988114"><ele>227.0</ele><time>2026-04-18T11:52:04Z</time></trkpt><trkpt lat="45.6162202690387" lon="10.483216786552804"><ele>227.0</ele><time>2026-04-18T11:52:05Z</time></trkpt><trkpt lat="45.616085831634635" lon="10.483166956406539"><ele>228.33333333333334</ele><time>2026-04-18T11:52:06Z</time></trkpt><trkpt lat="45.615937466070946" lon="10.483115336176523"><ele>229.66666666666669</ele><time>2026-04-18T11:52:07Z</time></trkpt><trkpt lat="45.6157704600827" lon="10.48308896229028"><ele>231.0</ele><time>2026-04-18T11:52:08Z</time></trkpt><trkpt lat="45.61559639047459" lon="10.483057727614609"><ele>231.0</ele><time>2026-04-18T11:52:09Z</time></trkpt><trkpt lat="45.615405057130594" lon="10.482990112700524"><ele>231.0</ele><time>2026-04-18T11:52:10Z</time></trkpt><trkpt lat="45.61522129007718" lon="10.482917270859469"><ele>231.0</ele><time>2026-04-18T11:52:11Z</time></trkpt><trkpt lat="45.61505569220103" lon="10.482839249226489"><ele>229.33333333333331</ele><time>2026-04-18T11:52:12Z</time></trkpt><trkpt lat="45.614892155933504" lon="10.482764215814473"><ele>227.66666666666666</ele><time>2026-04-18T11:52:13Z</time></trkpt><trkpt lat="45.61470598212048" lon="10.482681500031422"><ele>226.0</ele><time>2026-04-18T11:52:14Z</time></trkpt><trkpt lat="45.614524686891016" lon="10.482567837370308"><ele>228.0</ele><time>2026-04-18T11:52:15Z</time></trkpt><trkpt lat="45.61433567118229" lon="10.482533380390475"><ele>230.0</ele><time>2026-04-18T11:52:16Z</time></trkpt><trkpt lat="45.614162071746506" lon="10.48244474444613"><ele>232.0</ele><time>2026-04-18T11:52:17Z</time></trkpt><trkpt lat="45.61399337078559" lon="10.482329676063928"><ele>232.0</ele><time>2026-04-18T11:52:18Z</time></trkpt><trkpt lat="45.61383947648938" lon="10.482168523450348"><ele>232.0</ele><time>2026-04-18T11:52:19Z</time></trkpt><trkpt lat="45.61369377621935" lon="10.48200463255735"><ele>232.0</ele><time>2026-04-18T11:52:20Z</time></trkpt><trkpt lat="45.61353539589824" lon="10.481886133314225"><ele>229.33333333333331</ele><time>2026-04-18T11:52:21Z</time></trkpt><trkpt lat="45.61338301237039" lon="10.481797848901305"><ele>226.66666666666669</ele><time>2026-04-18T11:52:22Z</time></trkpt><trkpt lat="45.6132308607363" lon="10.481757122953306"><ele>224.0</ele><time>2026-04-18T11:52:23Z</time></trkpt><trkpt lat="45.61309729920169" lon="10.481680893962567"><ele>224.0</ele><time>2026-04-18T11:52:24Z</time></trkpt><trkpt lat="45.61296207456627" lon="10.481626161596122"><ele>224.0</ele><time>2026-04-18T11:52:25Z</time></trkpt><trkpt lat="45.6128395040774" lon="10.48157668954749"><ele>224.0</ele><time>2026-04-18T11:52:26Z</time></trkpt><trkpt lat="45.6127248151666" lon="10.48152593683618"><ele>224.0</ele><time>2026-04-18T11:52:27Z</time></trkpt><trkpt lat="45.612579343323475" lon="10.481439004884667"><ele>224.5</ele><time>2026-04-18T11:52:28Z</time></trkpt><trkpt lat="45.61243753318159" lon="10.481322837856931"><ele>225.0</ele><time>2026-04-18T11:52:29Z</time></trkpt><trkpt lat="45.612312210739276" lon="10.481207750186403"><ele>225.5</ele><time>2026-04-18T11:52:30Z</time></trkpt><trkpt lat="45.61220450002447" lon="10.481108835692073"><ele>226.0</ele><time>2026-04-18T11:52:31Z</time></trkpt><trkpt lat="45.61210032090173" lon="10.481013591603059"><ele>225.57142857142858</ele><time>2026-04-18T11:52:32Z</time></trkpt><trkpt lat="45.612026486478804" lon="10.480936003022034"><ele>225.14285714285714</ele><time>2026-04-18T11:52:33Z</time></trkpt><trkpt lat="45.61197196701609" lon="10.48087470796057"><ele>224.71428571428572</ele><time>2026-04-18T11:52:34Z</time></trkpt><trkpt lat="45.61195771090471" lon="10.480775752051223"><ele>224.28571428571428</ele><time>2026-04-18T11:52:36Z</time></trkpt><trkpt lat="45.61191061531491" lon="10.480705748497414"><ele>223.85714285714283</ele><time>2026-04-18T11:52:37Z</time></trkpt><trkpt lat="45.611873908304325" lon="10.480620050277572"><ele>223.42857142857142</ele><time>2026-04-18T11:52:38Z</time></trkpt><trkpt lat="45.611805427264684" lon="10.480581449103052"><ele>223.0</ele><time>2026-04-18T11:52:39Z</time></trkpt><trkpt lat="45.6117251282627" lon="10.480605506351816"><ele>223.0</ele><time>2026-04-18T11:52:40Z</time></trkpt><trkpt lat="45.61167609008897" lon="10.48067374066308"><ele>223.0</ele><time>2026-04-18T11:52:41Z</time></trkpt><trkpt lat="45.61165671152404" lon="10.480801156522151"><ele>223.0</ele><time>2026-04-18T11:52:42Z</time></trkpt><trkpt lat="45.6116362323549" lon="10.480956992457944"><ele>223.0</ele><time>2026-04-18T11:52:43Z</time></trkpt><trkpt lat="45.61162729698801" lon="10.481114054268064"><ele>223.0</ele><time>2026-04-18T11:52:44Z</time></trkpt><trkpt lat="45.61160739548856" lon="10.481295025124037"><ele>223.75</ele><time>2026-04-18T11:52:45Z</time></trkpt><trkpt lat="45.611558391134885" lon="10.481456499785569"><ele>224.5</ele><time>2026-04-18T11:52:46Z</time></trkpt><trkpt lat="45.611439757353814" lon="10.4815214660628"><ele>225.25</ele><time>2026-04-18T11:52:47Z</time></trkpt><trkpt lat="45.61130930305316" lon="10.481651282473894"><ele>226.0</ele><time>2026-04-18T11:52:48Z</time></trkpt><trkpt lat="45.61119894002876" lon="10.481835425105185"><ele>225.5</ele><time>2026-04-18T11:52:49Z</time></trkpt><trkpt lat="45.61109082785359" lon="10.481975630286607"><ele>225.0</ele><time>2026-04-18T11:52:50Z</time></trkpt><trkpt lat="45.610997849937455" lon="10.482102575534663"><ele>224.5</ele><time>2026-04-18T11:52:51Z</time></trkpt><trkpt lat="45.610906411173524" lon="10.48218986613646"><ele>224.0</ele><time>2026-04-18T11:52:52Z</time></trkpt><trkpt lat="45.61085928279617" lon="10.482344768499548"><ele>224.0</ele><time>2026-04-18T11:52:53Z</time></trkpt><trkpt lat="45.61077297463388" lon="10.48235682679523"><ele>223.99999999999997</ele><time>2026-04-18T11:52:54Z</time></trkpt><trkpt lat="45.610702927892" lon="10.482293659588834"><ele>223.99999999999997</ele><time>2026-04-18T11:52:55Z</time></trkpt><trkpt lat="45.61061815220698" lon="10.482215723730059"><ele>224.0</ele><time>2026-04-18T11:52:56Z</time></trkpt><trkpt lat="45.610549433514066" lon="10.482025582616435"><ele>224.0</ele><time>2026-04-18T11:52:57Z</time></trkpt><trkpt lat="45.610448404423316" lon="10.481943735202435"><ele>224.0</ele><time>2026-04-18T11:52:58Z</time></trkpt><trkpt lat="45.6103448171528" lon="10.481868159802039"><ele>223.99999999999997</ele><time>2026-04-18T11:52:59Z</time></trkpt><trkpt lat="45.610234142109555" lon="10.48179053649602"><ele>223.99999999999997</ele><time>2026-04-18T11:53:00Z</time></trkpt><trkpt lat="45.610144662991935" lon="10.481728837791097"><ele>224.0</ele><time>2026-04-18T11:53:01Z</time></trkpt><trkpt lat="45.6100671919538" lon="10.481674509459534"><ele>224.0</ele><time>2026-04-18T11:53:02Z</time></trkpt><trkpt lat="45.610003219625675" lon="10.481628783519126"><ele>225.0</ele><time>2026-04-18T11:53:03Z</time></trkpt><trkpt lat="45.60992523938978" lon="10.481558610249998"><ele>226.0</ele><time>2026-04-18T11:53:04Z</time></trkpt><trkpt lat="45.60978794468599" lon="10.481531076413782"><ele>227.0</ele><time>2026-04-18T11:53:05Z</time></trkpt><trkpt lat="45.60968581659673" lon="10.481466455108423"><ele>228.0</ele><time>2026-04-18T11:53:06Z</time></trkpt><trkpt lat="45.60957877568282" lon="10.481376871176478"><ele>227.0</ele><time>2026-04-18T11:53:07Z</time></trkpt><trkpt lat="45.60945791144111" lon="10.481278498380746"><ele>226.0</ele><time>2026-04-18T11:53:08Z</time></trkpt><trkpt lat="45.60932880141755" lon="10.481191782183455"><ele>225.0</ele><time>2026-04-18T11:53:09Z</time></trkpt><trkpt lat="45.60916227095689" lon="10.481150935759025"><ele>227.0</ele><time>2026-04-18T11:53:10Z</time></trkpt><trkpt lat="45.60900756276339" lon="10.481100247415553"><ele>229.0</ele><time>2026-04-18T11:53:11Z</time></trkpt><trkpt lat="45.60887762431776" lon="10.481042215881567"><ele>231.0</ele><time>2026-04-18T11:53:12Z</time></trkpt><trkpt lat="45.60873762143113" lon="10.480948191706279"><ele>232.33333333333331</ele><time>2026-04-18T11:53:13Z</time></trkpt><trkpt lat="45.60859252795882" lon="10.480847933385927"><ele>233.66666666666666</ele><time>2026-04-18T11:53:14Z</time></trkpt><trkpt lat="45.608455979536785" lon="10.480758284058833"><ele>235.0</ele><time>2026-04-18T11:53:15Z</time></trkpt><trkpt lat="45.608323775949685" lon="10.480698487637893"><ele>235.0</ele><time>2026-04-18T11:53:16Z</time></trkpt><trkpt lat="45.608201948301584" lon="10.48067569498955"><ele>235.0</ele><time>2026-04-18T11:53:17Z</time></trkpt><trkpt lat="45.608078816831885" lon="10.480627048652458"><ele>235.0</ele><time>2026-04-18T11:53:18Z</time></trkpt><trkpt lat="45.607951989787836" lon="10.48060157001297"><ele>235.0</ele><time>2026-04-18T11:53:19Z</time></trkpt><trkpt lat="45.60781963335682" lon="10.480524647058632"><ele>234.75</ele><time>2026-04-18T11:53:20Z</time></trkpt><trkpt lat="45.60766949527439" lon="10.480488299648167"><ele>234.5</ele><time>2026-04-18T11:53:21Z</time></trkpt><trkpt lat="45.60755458299077" lon="10.480435767793926"><ele>234.25</ele><time>2026-04-18T11:53:22Z</time></trkpt><trkpt lat="45.60744651344437" lon="10.480338446981504"><ele>234.0</ele><time>2026-04-18T11:53:23Z</time></trkpt><trkpt lat="45.607344639542816" lon="10.480267425836818"><ele>234.0</ele><time>2026-04-18T11:53:24Z</time></trkpt><trkpt lat="45.6072459249794" lon="10.480225386040976"><ele>234.0</ele><time>2026-04-18T11:53:25Z</time></trkpt><trkpt lat="45.60713107205586" lon="10.480215113630427"><ele>234.0</ele><time>2026-04-18T11:53:26Z</time></trkpt><trkpt lat="45.607014664604705" lon="10.480199461683222"><ele>234.0</ele><time>2026-04-18T11:53:27Z</time></trkpt><trkpt lat="45.606896303042504" lon="10.480190547118472"><ele>234.0</ele><time>2026-04-18T11:53:28Z</time></trkpt><trkpt lat="45.60678820531755" lon="10.480192727850868"><ele>233.99999999999997</ele><time>2026-04-18T11:53:29Z</time></trkpt><trkpt lat="45.60668634149363" lon="10.480199260213638"><ele>233.99999999999997</ele><time>2026-04-18T11:53:30Z</time></trkpt><trkpt lat="45.60658287761636" lon="10.480204084457059"><ele>234.0</ele><time>2026-04-18T11:53:31Z</time></trkpt><trkpt lat="45.606469199028034" lon="10.48019796050691"><ele>234.0</ele><time>2026-04-18T11:53:32Z</time></trkpt><trkpt lat="45.60635689693162" lon="10.480156282718665"><ele>234.0</ele><time>2026-04-18T11:53:33Z</time></trkpt><trkpt lat="45.6062424635174" lon="10.480112579407812"><ele>234.0</ele><time>2026-04-18T11:53:34Z</time></trkpt><trkpt lat="45.60613987009858" lon="10.480047174759045"><ele>234.0</ele><time>2026-04-18T11:53:35Z</time></trkpt><trkpt lat="45.60603206863067" lon="10.479935967568519"><ele>234.0</ele><time>2026-04-18T11:53:36Z</time></trkpt><trkpt lat="45.60592024755661" lon="10.479811653047415"><ele>233.5</ele><time>2026-04-18T11:53:37Z</time></trkpt><trkpt lat="45.60580198617379" lon="10.479695773107487"><ele>233.0</ele><time>2026-04-18T11:53:38Z</time></trkpt><trkpt lat="45.60569154469164" lon="10.479581947573505"><ele>232.5</ele><time>2026-04-18T11:53:39Z</time></trkpt><trkpt lat="45.60559327076683" lon="10.479464013018829"><ele>232.0</ele><time>2026-04-18T11:53:40Z</time></trkpt><trkpt lat="45.60550335993879" lon="10.479344739268557"><ele>232.0</ele><time>2026-04-18T11:53:41Z</time></trkpt><trkpt lat="45.60543072837827" lon="10.479217959680259"><ele>232.0</ele><time>2026-04-18T11:53:42Z</time></trkpt><trkpt lat="45.605344683803494" lon="10.479087214891125"><ele>232.0</ele><time>2026-04-18T11:53:43Z</time></trkpt><trkpt lat="45.60526336155376" lon="10.478958346911414"><ele>232.0</ele><time>2026-04-18T11:53:44Z</time></trkpt><trkpt lat="45.60516512119038" lon="10.478877122135076"><ele>232.83333333333331</ele><time>2026-04-18T11:53:45Z</time></trkpt><trkpt lat="45.605075789661036" lon="10.47881333996846"><ele>233.66666666666666</ele><time>2026-04-18T11:53:46Z</time></trkpt><trkpt lat="45.60498770636283" lon="10.478777357748994"><ele>234.5</ele><time>2026-04-18T11:53:47Z</time></trkpt><trkpt lat="45.604902591863826" lon="10.478758957282288"><ele>235.33333333333331</ele><time>2026-04-18T11:53:48Z</time></trkpt><trkpt lat="45.604825308606415" lon="10.47874074153035"><ele>236.16666666666666</ele><time>2026-04-18T11:53:49Z</time></trkpt><trkpt lat="45.604765246206625" lon="10.478696278936345"><ele>237.0</ele><time>2026-04-18T11:53:50Z</time></trkpt><trkpt lat="45.604670061802814" lon="10.478620733145586"><ele>238.0</ele><time>2026-04-18T11:53:52Z</time></trkpt><trkpt lat="45.60460653523073" lon="10.478506157729964"><ele>239.0</ele><time>2026-04-18T11:53:54Z</time></trkpt><trkpt lat="45.60454519223681" lon="10.478418476007443"><ele>240.0</ele><time>2026-04-18T11:53:55Z</time></trkpt><trkpt lat="45.604472520001835" lon="10.478314600154972"><ele>241.0</ele><time>2026-04-18T11:53:56Z</time></trkpt><trkpt lat="45.60439318815782" lon="10.4781986901762"><ele>242.0</ele><time>2026-04-18T11:53:57Z</time></trkpt><trkpt lat="45.60430895635847" lon="10.478079269365056"><ele>244.0</ele><time>2026-04-18T11:53:58Z</time></trkpt><trkpt lat="45.604229941441965" lon="10.477985189301444"><ele>246.0</ele><time>2026-04-18T11:53:59Z</time></trkpt><trkpt lat="45.60416048680346" lon="10.477930254037082"><ele>248.0</ele><time>2026-04-18T11:54:00Z</time></trkpt><trkpt lat="45.604111116690916" lon="10.47786297203321"><ele>250.0</ele><time>2026-04-18T11:54:01Z</time></trkpt><trkpt lat="45.6040591616593" lon="10.477715499294584"><ele>252.0</ele><time>2026-04-18T11:54:03Z</time></trkpt><trkpt lat="45.604020510454525" lon="10.477586082553772"><ele>253.8</ele><time>2026-04-18T11:54:05Z</time></trkpt><trkpt lat="45.60406014953999" lon="10.477454474563782"><ele>255.6</ele><time>2026-04-18T11:54:07Z</time></trkpt><trkpt lat="45.6039896394665" lon="10.477445341348947"><ele>257.40000000000003</ele><time>2026-04-18T11:54:09Z</time></trkpt><trkpt lat="45.603879627951386" lon="10.477516038426637"><ele>259.2</ele><time>2026-04-18T11:54:11Z</time></trkpt><trkpt lat="45.60381068761304" lon="10.477536687840344"><ele>261.0</ele><time>2026-04-18T11:54:12Z</time></trkpt><trkpt lat="45.603722609764105" lon="10.477558303265129"><ele>261.6</ele><time>2026-04-18T11:54:13Z</time></trkpt><trkpt lat="45.60363017955383" lon="10.4775644353516"><ele>262.20000000000005</ele><time>2026-04-18T11:54:14Z</time></trkpt><trkpt lat="45.60356268457563" lon="10.477555111398242"><ele>262.79999999999995</ele><time>2026-04-18T11:54:15Z</time></trkpt><trkpt lat="45.60346628859056" lon="10.477518649561057"><ele>263.4</ele><time>2026-04-18T11:54:17Z</time></trkpt><trkpt lat="45.60338920015195" lon="10.47746448167727"><ele>264.0</ele><time>2026-04-18T11:54:19Z</time></trkpt><trkpt lat="45.603305835516515" lon="10.477371304923619"><ele>264.0</ele><time>2026-04-18T11:54:21Z</time></trkpt><trkpt lat="45.603182993494535" lon="10.477320582295876"><ele>264.0</ele><time>2026-04-18T11:54:23Z</time></trkpt><trkpt lat="45.60310754350595" lon="10.477303973561837"><ele>264.0</ele><time>2026-04-18T11:54:24Z</time></trkpt><trkpt lat="45.60303402024854" lon="10.477297546038125"><ele>264.0</ele><time>2026-04-18T11:54:25Z</time></trkpt><trkpt lat="45.602915421566486" lon="10.477313122529305"><ele>264.0</ele><time>2026-04-18T11:54:27Z</time></trkpt><trkpt lat="45.60283412030827" lon="10.477332905585245"><ele>265.3333333333333</ele><time>2026-04-18T11:54:28Z</time></trkpt><trkpt lat="45.60275031884018" lon="10.477362041993773"><ele>266.6666666666667</ele><time>2026-04-18T11:54:29Z</time></trkpt><trkpt lat="45.60267830285869" lon="10.477392710089886"><ele>268.0</ele><time>2026-04-18T11:54:30Z</time></trkpt><trkpt lat="45.60261775056177" lon="10.477434576313666"><ele>269.33333333333337</ele><time>2026-04-18T11:54:31Z</time></trkpt><trkpt lat="45.60255836962978" lon="10.477483512169206"><ele>270.6666666666667</ele><time>2026-04-18T11:54:32Z</time></trkpt><trkpt lat="45.60246073375443" lon="10.4775215538177"><ele>272.0</ele><time>2026-04-18T11:54:34Z</time></trkpt><trkpt lat="45.60234070163295" lon="10.477553076080303"><ele>271.99999999999994</ele><time>2026-04-18T11:54:36Z</time></trkpt><trkpt lat="45.602267620878784" lon="10.477581304374668"><ele>272.0</ele><time>2026-04-18T11:54:37Z</time></trkpt><trkpt lat="45.60219042764333" lon="10.477595788140194"><ele>272.0</ele><time>2026-04-18T11:54:38Z</time></trkpt><trkpt lat="45.60212007455872" lon="10.47763130004345"><ele>272.0</ele><time>2026-04-18T11:54:39Z</time></trkpt><trkpt lat="45.60205596778246" lon="10.477661465522417"><ele>272.0</ele><time>2026-04-18T11:54:40Z</time></trkpt><trkpt lat="45.60198009054619" lon="10.477700799195803"><ele>271.99999999999994</ele><time>2026-04-18T11:54:41Z</time></trkpt><trkpt lat="45.60191351098461" lon="10.477719573095687"><ele>272.0</ele><time>2026-04-18T11:54:42Z</time></trkpt><trkpt lat="45.60185057064219" lon="10.477744811912027"><ele>272.6666666666667</ele><time>2026-04-18T11:54:43Z</time></trkpt><trkpt lat="45.60176747824928" lon="10.477745071160644"><ele>273.33333333333337</ele><time>2026-04-18T11:54:44Z</time></trkpt><trkpt lat="45.60168957377473" lon="10.477734684571564"><ele>274.0</ele><time>2026-04-18T11:54:45Z</time></trkpt><trkpt lat="45.60160644638457" lon="10.477717912001843"><ele>274.6666666666667</ele><time>2026-04-18T11:54:46Z</time></trkpt><trkpt lat="45.601528117958345" lon="10.477694258151933"><ele>275.3333333333333</ele><time>2026-04-18T11:54:47Z</time></trkpt><trkpt lat="45.601451921570934" lon="10.477689715610438"><ele>276.0</ele><time>2026-04-18T11:54:48Z</time></trkpt><trkpt lat="45.601375824437234" lon="10.477706934599006"><ele>276.0</ele><time>2026-04-18T11:54:49Z</time></trkpt><trkpt lat="45.601288527603224" lon="10.477700692087293"><ele>276.0</ele><time>2026-04-18T11:54:51Z</time></trkpt><trkpt lat="45.60116030614021" lon="10.477581464787248"><ele>276.0</ele><time>2026-04-18T11:54:53Z</time></trkpt><trkpt lat="45.60106959546607" lon="10.477536981519341"><ele>276.0</ele><time>2026-04-18T11:54:54Z</time></trkpt><trkpt lat="45.60099760914548" lon="10.477507264195392"><ele>276.0</ele><time>2026-04-18T11:54:55Z</time></trkpt><trkpt lat="45.60092747365375" lon="10.477466128889557"><ele>277.3333333333333</ele><time>2026-04-18T11:54:56Z</time></trkpt><trkpt lat="45.60081735152943" lon="10.477476422248415"><ele>278.6666666666667</ele><time>2026-04-18T11:54:58Z</time></trkpt><trkpt lat="45.60073146227326" lon="10.477485346313436"><ele>280.0</ele><time>2026-04-18T11:55:00Z</time></trkpt><trkpt lat="45.60066265704481" lon="10.47750461726264"><ele>281.33333333333337</ele><time>2026-04-18T11:55:02Z</time></trkpt><trkpt lat="45.600673480459896" lon="10.477596736030007"><ele>282.6666666666667</ele><time>2026-04-18T11:55:05Z</time></trkpt><trkpt lat="45.60075144261533" lon="10.477662183934187"><ele>284.0</ele><time>2026-04-18T11:55:07Z</time></trkpt><trkpt lat="45.60082214724206" lon="10.477770190669272"><ele>284.0</ele><time>2026-04-18T11:55:09Z</time></trkpt><trkpt lat="45.6008980843384" lon="10.477894839071244"><ele>284.0</ele><time>2026-04-18T11:55:11Z</time></trkpt><trkpt lat="45.60098707094415" lon="10.478013168948989"><ele>284.0</ele><time>2026-04-18T11:55:13Z</time></trkpt><trkpt lat="45.60103651942784" lon="10.478069771474413"><ele>284.0</ele><time>2026-04-18T11:55:14Z</time></trkpt><trkpt lat="45.601110387268406" lon="10.478202554737445"><ele>284.0</ele><time>2026-04-18T11:55:16Z</time></trkpt><trkpt lat="45.601192945191706" lon="10.47834219454076"><ele>285.0</ele><time>2026-04-18T11:55:18Z</time></trkpt><trkpt lat="45.601272009843726" lon="10.47838496212555"><ele>286.0</ele><time>2026-04-18T11:55:20Z</time></trkpt><trkpt lat="45.60134306438253" lon="10.478448186893319"><ele>287.0</ele><time>2026-04-18T11:55:21Z</time></trkpt><trkpt lat="45.60140452971446" lon="10.478496240447138"><ele>288.0</ele><time>2026-04-18T11:55:22Z</time></trkpt><trkpt lat="45.601469634487565" lon="10.47853027128412"><ele>289.0</ele><time>2026-04-18T11:55:23Z</time></trkpt><trkpt lat="45.60156651902712" lon="10.47853558647346"><ele>290.0</ele><time>2026-04-18T11:55:24Z</time></trkpt><trkpt lat="45.601651964406095" lon="10.478543398359877"><ele>290.0</ele><time>2026-04-18T11:55:25Z</time></trkpt><trkpt lat="45.60173293026622" lon="10.478553647960881"><ele>290.0</ele><time>2026-04-18T11:55:26Z</time></trkpt><trkpt lat="45.60181362546883" lon="10.478552044002955"><ele>290.0</ele><time>2026-04-18T11:55:27Z</time></trkpt><trkpt lat="45.60187892414701" lon="10.478529797289516"><ele>290.0</ele><time>2026-04-18T11:55:28Z</time></trkpt><trkpt lat="45.60194642202345" lon="10.478527865713076"><ele>290.0</ele><time>2026-04-18T11:55:29Z</time></trkpt><trkpt lat="45.60201575258501" lon="10.47857465227069"><ele>290.0</ele><time>2026-04-18T11:55:30Z</time></trkpt><trkpt lat="45.602084993526695" lon="10.478611897286099"><ele>290.0</ele><time>2026-04-18T11:55:31Z</time></trkpt><trkpt lat="45.60217683443101" lon="10.478649229580363"><ele>290.33333333333337</ele><time>2026-04-18T11:55:32Z</time></trkpt><trkpt lat="45.60225353009867" lon="10.47870204932983"><ele>290.6666666666667</ele><time>2026-04-18T11:55:33Z</time></trkpt><trkpt lat="45.6023329455524" lon="10.478739347713294"><ele>291.0</ele><time>2026-04-18T11:55:34Z</time></trkpt><trkpt lat="45.602416589188415" lon="10.478774970721249"><ele>291.3333333333333</ele><time>2026-04-18T11:55:35Z</time></trkpt><trkpt lat="45.60247778313192" lon="10.478818035111694"><ele>291.66666666666663</ele><time>2026-04-18T11:55:36Z</time></trkpt><trkpt lat="45.602534938966734" lon="10.47887341118068"><ele>292.0</ele><time>2026-04-18T11:55:38Z</time></trkpt><trkpt lat="45.602529304683905" lon="10.478984531612545"><ele>292.0</ele><time>2026-04-18T11:55:42Z</time></trkpt><trkpt lat="45.602456958888716" lon="10.478998863687478"><ele>292.0</ele><time>2026-04-18T11:55:44Z</time></trkpt><trkpt lat="45.60238735931577" lon="10.47900989825081"><ele>292.0</ele><time>2026-04-18T11:55:45Z</time></trkpt><trkpt lat="45.60231602019912" lon="10.47903544903472"><ele>292.0</ele><time>2026-04-18T11:55:46Z</time></trkpt><trkpt lat="45.60224280987245" lon="10.47906516039932"><ele>292.0</ele><time>2026-04-18T11:55:47Z</time></trkpt><trkpt lat="45.60212905264055" lon="10.47910143794387"><ele>292.0</ele><time>2026-04-18T11:55:48.999Z</time></trkpt><trkpt lat="45.60206014281021" lon="10.479136107126054"><ele>295.0</ele><time>2026-04-18T11:55:49.999Z</time></trkpt><trkpt lat="45.60198961007049" lon="10.479156602687938"><ele>298.0</ele><time>2026-04-18T11:55:50.999Z</time></trkpt><trkpt lat="45.601919704647564" lon="10.479170141246433"><ele>301.0</ele><time>2026-04-18T11:55:51.999Z</time></trkpt><trkpt lat="45.60183576566677" lon="10.479191837330264"><ele>304.0</ele><time>2026-04-18T11:55:52.999Z</time></trkpt><trkpt lat="45.601744648381285" lon="10.479223491145609"><ele>307.0</ele><time>2026-04-18T11:55:53.999Z</time></trkpt><trkpt lat="45.60166687071341" lon="10.479242928009853"><ele>310.0</ele><time>2026-04-18T11:55:54.999Z</time></trkpt><trkpt lat="45.601595657215725" lon="10.479298871770961"><ele>310.0</ele><time>2026-04-18T11:55:55.999Z</time></trkpt><trkpt lat="45.60152873410996" lon="10.479347715539074"><ele>310.0</ele><time>2026-04-18T11:55:56.999Z</time></trkpt><trkpt lat="45.60145617933549" lon="10.47939399941752"><ele>310.0</ele><time>2026-04-18T11:55:57.999Z</time></trkpt><trkpt lat="45.60139016957639" lon="10.479438317443703"><ele>310.0</ele><time>2026-04-18T11:55:58.999Z</time></trkpt><trkpt lat="45.601330995509194" lon="10.479479874895018"><ele>310.0</ele><time>2026-04-18T11:55:59.999Z</time></trkpt><trkpt lat="45.60124254607243" lon="10.479589203674687"><ele>310.0</ele><time>2026-04-18T11:56:01.999Z</time></trkpt><trkpt lat="45.601186456394345" lon="10.47966158904266"><ele>311.66666666666663</ele><time>2026-04-18T11:56:03.999Z</time></trkpt><trkpt lat="45.60113437428449" lon="10.479743760282354"><ele>313.3333333333333</ele><time>2026-04-18T11:56:06.999Z</time></trkpt><trkpt lat="45.60108213634863" lon="10.479803061781292"><ele>315.0</ele><time>2026-04-18T11:56:09.999Z</time></trkpt><trkpt lat="45.60099490600029" lon="10.479880893304186"><ele>316.6666666666667</ele><time>2026-04-18T11:56:11.999Z</time></trkpt><trkpt lat="45.60091875332405" lon="10.479951095633062"><ele>318.33333333333337</ele><time>2026-04-18T11:56:12.999Z</time></trkpt><trkpt lat="45.60084674858625" lon="10.480019519985413"><ele>320.0</ele><time>2026-04-18T11:56:14.999Z</time></trkpt><trkpt lat="45.60076254739159" lon="10.480045091309165"><ele>320.0</ele><time>2026-04-18T11:56:16.999Z</time></trkpt><trkpt lat="45.600705480794915" lon="10.48008384377369"><ele>320.0</ele><time>2026-04-18T11:56:18.999Z</time></trkpt><trkpt lat="45.60072488697865" lon="10.480183260758883"><ele>320.0</ele><time>2026-04-18T11:56:21.999Z</time></trkpt><trkpt lat="45.60074157627932" lon="10.480271167202831"><ele>320.0</ele><time>2026-04-18T11:56:25.999Z</time></trkpt><trkpt lat="45.60081263638123" lon="10.480275850432257"><ele>320.0</ele><time>2026-04-18T11:56:38.999Z</time></trkpt><trkpt lat="45.600864222014025" lon="10.48036232719719"><ele>320.0</ele><time>2026-04-18T11:56:42Z</time></trkpt><trkpt lat="45.60090329653078" lon="10.480454233146249"><ele>320.0</ele><time>2026-04-18T11:56:45Z</time></trkpt><trkpt lat="45.6009537635814" lon="10.480539198170883"><ele>318.8</ele><time>2026-04-18T11:56:47Z</time></trkpt><trkpt lat="45.601016228357174" lon="10.480620213163487"><ele>317.6</ele><time>2026-04-18T11:56:49Z</time></trkpt><trkpt lat="45.60108734966963" lon="10.4807115865935"><ele>316.4</ele><time>2026-04-18T11:56:51Z</time></trkpt><trkpt lat="45.60118660098555" lon="10.48080028927179"><ele>315.2</ele><time>2026-04-18T11:56:53Z</time></trkpt><trkpt lat="45.601240781483845" lon="10.480854139851452"><ele>314.0</ele><time>2026-04-18T11:56:54Z</time></trkpt><trkpt lat="45.601320720918615" lon="10.48092813319906"><ele>313.6666666666667</ele><time>2026-04-18T11:56:56Z</time></trkpt><trkpt lat="45.60139286441413" lon="10.480980761137488"><ele>313.33333333333337</ele><time>2026-04-18T11:56:59Z</time></trkpt><trkpt lat="45.60151565976591" lon="10.481058950120564"><ele>313.0</ele><time>2026-04-18T11:57:11Z</time></trkpt><trkpt lat="45.60157713063338" lon="10.481112095609575"><ele>312.6666666666667</ele><time>2026-04-18T11:57:14Z</time></trkpt><trkpt lat="45.60163654132561" lon="10.481171170526032"><ele>312.3333333333333</ele><time>2026-04-18T11:57:17Z</time></trkpt><trkpt lat="45.60169084440212" lon="10.481220820422791"><ele>312.0</ele><time>2026-04-18T11:57:20Z</time></trkpt><trkpt lat="45.6018139952353" lon="10.4813736542198"><ele>309.8333333333333</ele><time>2026-04-18T11:57:37Z</time></trkpt><trkpt lat="45.60185345511" lon="10.481471186839439"><ele>307.6666666666667</ele><time>2026-04-18T11:57:40Z</time></trkpt><trkpt lat="45.601910721072166" lon="10.481511330981057"><ele>305.5</ele><time>2026-04-18T11:57:53Z</time></trkpt><trkpt lat="45.60194962453364" lon="10.481678804573505"><ele>303.33333333333337</ele><time>2026-04-18T11:57:58Z</time></trkpt><trkpt lat="45.60197731856549" lon="10.481795784360017"><ele>301.1666666666667</ele><time>2026-04-18T11:58:01Z</time></trkpt><trkpt lat="45.60199627614935" lon="10.48189749203294"><ele>299.0</ele><time>2026-04-18T11:58:03Z</time></trkpt><trkpt lat="45.602008570843545" lon="10.482009090443473"><ele>296.5</ele><time>2026-04-18T11:58:06Z</time></trkpt><trkpt lat="45.602024483047025" lon="10.482111398307831"><ele>294.0</ele><time>2026-04-18T11:58:08Z</time></trkpt><trkpt lat="45.602033976770215" lon="10.4822274191868"><ele>291.5</ele><time>2026-04-18T11:58:11Z</time></trkpt><trkpt lat="45.60202810878346" lon="10.482327045486109"><ele>289.0</ele><time>2026-04-18T11:58:15Z</time></trkpt><trkpt lat="45.60201020569475" lon="10.482421610586128"><ele>286.5</ele><time>2026-04-18T11:58:18Z</time></trkpt><trkpt lat="45.60196115552043" lon="10.482513109308718"><ele>284.0</ele><time>2026-04-18T11:58:21Z</time></trkpt><trkpt lat="45.60193534460979" lon="10.482618334261211"><ele>284.0</ele><time>2026-04-18T11:58:24Z</time></trkpt><trkpt lat="45.601945180562446" lon="10.482725250826878"><ele>284.0</ele><time>2026-04-18T11:58:26Z</time></trkpt><trkpt lat="45.60196578497391" lon="10.482826978655261"><ele>284.0</ele><time>2026-04-18T11:58:30Z</time></trkpt><trkpt lat="45.60205514686457" lon="10.482990242351814"><ele>284.0</ele><time>2026-04-18T11:58:36Z</time></trkpt><trkpt lat="45.602077880599374" lon="10.48310951814598"><ele>284.0</ele><time>2026-04-18T11:58:38Z</time></trkpt><trkpt lat="45.60201214993332" lon="10.483221176159065"><ele>281.83333333333337</ele><time>2026-04-18T11:58:40Z</time></trkpt><trkpt lat="45.60194910438447" lon="10.48330053826197"><ele>279.6666666666667</ele><time>2026-04-18T11:58:42Z</time></trkpt><trkpt lat="45.60189918119991" lon="10.483379813317768"><ele>277.5</ele><time>2026-04-18T11:58:44Z</time></trkpt><trkpt lat="45.601854431362405" lon="10.483465502843028"><ele>275.3333333333333</ele><time>2026-04-18T11:58:46Z</time></trkpt><trkpt lat="45.60181853189753" lon="10.483617757618779"><ele>273.16666666666663</ele><time>2026-04-18T11:58:48Z</time></trkpt><trkpt lat="45.601811390442826" lon="10.48372143278744"><ele>271.0</ele><time>2026-04-18T11:58:49Z</time></trkpt><trkpt lat="45.601789991748575" lon="10.48381572503122"><ele>269.3333333333333</ele><time>2026-04-18T11:58:50Z</time></trkpt><trkpt lat="45.60176725314341" lon="10.483910621241753"><ele>267.66666666666663</ele><time>2026-04-18T11:58:51Z</time></trkpt><trkpt lat="45.601741302682704" lon="10.484011620790852"><ele>266.0</ele><time>2026-04-18T11:58:52Z</time></trkpt><trkpt lat="45.601715187641915" lon="10.48411964519448"><ele>264.3333333333333</ele><time>2026-04-18T11:58:53Z</time></trkpt><trkpt lat="45.601682106736405" lon="10.48423311399005"><ele>262.6666666666667</ele><time>2026-04-18T11:58:54Z</time></trkpt><trkpt lat="45.601644133145214" lon="10.48435000795929"><ele>261.0</ele><time>2026-04-18T11:58:55Z</time></trkpt><trkpt lat="45.601607936578866" lon="10.484466673545567"><ele>260.40000000000003</ele><time>2026-04-18T11:58:56Z</time></trkpt><trkpt lat="45.60156593330833" lon="10.484611278072288"><ele>259.8</ele><time>2026-04-18T11:58:57Z</time></trkpt><trkpt lat="45.6015314381038" lon="10.484757474650246"><ele>259.20000000000005</ele><time>2026-04-18T11:58:58Z</time></trkpt><trkpt lat="45.60151026736627" lon="10.484905843686857"><ele>258.6</ele><time>2026-04-18T11:58:59Z</time></trkpt><trkpt lat="45.601505092589306" lon="10.485061405437794"><ele>258.0</ele><time>2026-04-18T11:59:00Z</time></trkpt><trkpt lat="45.60150570457644" lon="10.485200419496461"><ele>258.0</ele><time>2026-04-18T11:59:01Z</time></trkpt><trkpt lat="45.60150781429331" lon="10.485333077757089"><ele>258.0</ele><time>2026-04-18T11:59:02Z</time></trkpt><trkpt lat="45.601512432110695" lon="10.48546492252671"><ele>258.0</ele><time>2026-04-18T11:59:03Z</time></trkpt><trkpt lat="45.601519531654276" lon="10.485610755999659"><ele>258.0</ele><time>2026-04-18T11:59:04Z</time></trkpt><trkpt lat="45.60154858479782" lon="10.485715515259217"><ele>258.0</ele><time>2026-04-18T11:59:05Z</time></trkpt><trkpt lat="45.60158254419459" lon="10.485816384568254"><ele>258.0</ele><time>2026-04-18T11:59:06Z</time></trkpt><trkpt lat="45.601622370107016" lon="10.485943432760685"><ele>259.3333333333333</ele><time>2026-04-18T11:59:07Z</time></trkpt><trkpt lat="45.60165690921095" lon="10.486068010873119"><ele>260.6666666666667</ele><time>2026-04-18T11:59:08Z</time></trkpt><trkpt lat="45.601691411887906" lon="10.48617768324883"><ele>262.0</ele><time>2026-04-18T11:59:09Z</time></trkpt><trkpt lat="45.60173303608687" lon="10.486276354709382"><ele>263.33333333333337</ele><time>2026-04-18T11:59:10Z</time></trkpt><trkpt lat="45.601776780783375" lon="10.486375786689235"><ele>264.6666666666667</ele><time>2026-04-18T11:59:11Z</time></trkpt><trkpt lat="45.601820256321105" lon="10.486498885857728"><ele>266.0</ele><time>2026-04-18T11:59:12Z</time></trkpt><trkpt lat="45.60186662524635" lon="10.486622641300244"><ele>266.1666666666667</ele><time>2026-04-18T11:59:13Z</time></trkpt><trkpt lat="45.601906030248806" lon="10.486737334116759"><ele>266.33333333333337</ele><time>2026-04-18T11:59:14Z</time></trkpt><trkpt lat="45.60194100063926" lon="10.486826087869101"><ele>266.5</ele><time>2026-04-18T11:59:15Z</time></trkpt><trkpt lat="45.601987422900535" lon="10.486985748401263"><ele>266.6666666666667</ele><time>2026-04-18T11:59:17Z</time></trkpt><trkpt lat="45.60200379067508" lon="10.487084460518659"><ele>266.8333333333333</ele><time>2026-04-18T11:59:19Z</time></trkpt><trkpt lat="45.60196250578333" lon="10.4871525092089"><ele>267.0</ele><time>2026-04-18T11:59:23Z</time></trkpt><trkpt lat="45.60192432873844" lon="10.487251128953787"><ele>267.0</ele><time>2026-04-18T11:59:27Z</time></trkpt><trkpt lat="45.601929197763845" lon="10.487384253037837"><ele>267.0</ele><time>2026-04-18T11:59:45Z</time></trkpt><trkpt lat="45.60190513624177" lon="10.487485309096206"><ele>267.0</ele><time>2026-04-18T11:59:52Z</time></trkpt><trkpt lat="45.601843313937316" lon="10.487581862432538"><ele>267.0</ele><time>2026-04-18T11:59:54Z</time></trkpt><trkpt lat="45.60175322021605" lon="10.48763192032872"><ele>267.0</ele><time>2026-04-18T11:59:56Z</time></trkpt><trkpt lat="45.60166570502384" lon="10.487604157698245"><ele>267.0</ele><time>2026-04-18T11:59:59Z</time></trkpt><trkpt lat="45.60160009458151" lon="10.487654166897402"><ele>267.0</ele><time>2026-04-18T12:00:02Z</time></trkpt><trkpt lat="45.60154133534545" lon="10.487706509398937"><ele>267.0</ele><time>2026-04-18T12:00:09Z</time></trkpt><trkpt lat="45.601469935762864" lon="10.487743367648495"><ele>267.0</ele><time>2026-04-18T12:00:15Z</time></trkpt><trkpt lat="45.601374755373996" lon="10.487742086636997"><ele>267.0</ele><time>2026-04-18T12:00:19Z</time></trkpt><trkpt lat="45.60128352100696" lon="10.48770415303142"><ele>267.0</ele><time>2026-04-18T12:00:21Z</time></trkpt><trkpt lat="45.6012307817498" lon="10.487649249442017"><ele>267.0</ele><time>2026-04-18T12:00:22Z</time></trkpt><trkpt lat="45.601191681224705" lon="10.487568227938766"><ele>268.8333333333333</ele><time>2026-04-18T12:00:23Z</time></trkpt><trkpt lat="45.60113620404987" lon="10.48750115265816"><ele>270.6666666666667</ele><time>2026-04-18T12:00:24Z</time></trkpt><trkpt lat="45.601080338617955" lon="10.487424613225834"><ele>272.5</ele><time>2026-04-18T12:00:25Z</time></trkpt><trkpt lat="45.60100555549337" lon="10.48732746694968"><ele>274.33333333333337</ele><time>2026-04-18T12:00:26Z</time></trkpt><trkpt lat="45.60094562633143" lon="10.487229522692536"><ele>276.1666666666667</ele><time>2026-04-18T12:00:27Z</time></trkpt><trkpt lat="45.600894808037374" lon="10.487143176843013"><ele>278.0</ele><time>2026-04-18T12:00:28Z</time></trkpt><trkpt lat="45.600859892766294" lon="10.487061782715166"><ele>278.33333333333337</ele><time>2026-04-18T12:00:29Z</time></trkpt><trkpt lat="45.60082471295494" lon="10.486969159522056"><ele>278.6666666666667</ele><time>2026-04-18T12:00:31Z</time></trkpt><trkpt lat="45.600775981727196" lon="10.486879268848242"><ele>279.0</ele><time>2026-04-18T12:00:33Z</time></trkpt><trkpt lat="45.60073269179932" lon="10.486795768890003"><ele>279.3333333333333</ele><time>2026-04-18T12:00:35Z</time></trkpt><trkpt lat="45.600661631479966" lon="10.48665693080365"><ele>279.66666666666663</ele><time>2026-04-18T12:00:37Z</time></trkpt><trkpt lat="45.60060968916403" lon="10.486574943539667"><ele>280.0</ele><time>2026-04-18T12:00:38Z</time></trkpt><trkpt lat="45.60055405930768" lon="10.486476116352767"><ele>280.0</ele><time>2026-04-18T12:00:39Z</time></trkpt><trkpt lat="45.60050153692828" lon="10.486384204779368"><ele>280.0</ele><time>2026-04-18T12:00:40Z</time></trkpt><trkpt lat="45.60045800369244" lon="10.48630106762397"><ele>280.0</ele><time>2026-04-18T12:00:41Z</time></trkpt><trkpt lat="45.60041293599916" lon="10.48621749431053"><ele>280.0</ele><time>2026-04-18T12:00:42Z</time></trkpt><trkpt lat="45.60036078888136" lon="10.48613612968353"><ele>280.0</ele><time>2026-04-18T12:00:43Z</time></trkpt><trkpt lat="45.60029602860174" lon="10.486047438144867"><ele>280.0</ele><time>2026-04-18T12:00:44Z</time></trkpt><trkpt lat="45.6002429177326" lon="10.485962601944873"><ele>279.5</ele><time>2026-04-18T12:00:45Z</time></trkpt><trkpt lat="45.600206056771874" lon="10.485845172739097"><ele>279.0</ele><time>2026-04-18T12:00:47Z</time></trkpt><trkpt lat="45.60011615654724" lon="10.48578116563786"><ele>278.5</ele><time>2026-04-18T12:00:49Z</time></trkpt><trkpt lat="45.60006929338677" lon="10.485718227619644"><ele>278.0</ele><time>2026-04-18T12:00:50Z</time></trkpt><trkpt lat="45.60001274722082" lon="10.485656781898244"><ele>277.5</ele><time>2026-04-18T12:00:51Z</time></trkpt><trkpt lat="45.5998988113144" lon="10.485645693276162"><ele>277.0</ele><time>2026-04-18T12:00:53Z</time></trkpt><trkpt lat="45.5998102088089" lon="10.485664376014729"><ele>277.0</ele><time>2026-04-18T12:00:54Z</time></trkpt><trkpt lat="45.5997233420169" lon="10.485710250046118"><ele>277.0</ele><time>2026-04-18T12:00:55Z</time></trkpt><trkpt lat="45.59964554928891" lon="10.485752427307167"><ele>277.0</ele><time>2026-04-18T12:00:56Z</time></trkpt><trkpt lat="45.599577062826484" lon="10.485793038741502"><ele>277.0</ele><time>2026-04-18T12:00:57Z</time></trkpt><trkpt lat="45.59953030788949" lon="10.485862447289552"><ele>277.0</ele><time>2026-04-18T12:00:59Z</time></trkpt><trkpt lat="45.59956148469589" lon="10.486006647026906"><ele>277.0</ele><time>2026-04-18T12:01:01Z</time></trkpt><trkpt lat="45.59955761145353" lon="10.486174204715935"><ele>277.5</ele><time>2026-04-18T12:01:03Z</time></trkpt><trkpt lat="45.59952161721124" lon="10.486261929671821"><ele>278.0</ele><time>2026-04-18T12:01:04Z</time></trkpt><trkpt lat="45.599473589913806" lon="10.486352258464878"><ele>278.5</ele><time>2026-04-18T12:01:05Z</time></trkpt><trkpt lat="45.59942636112859" lon="10.486455452091196"><ele>279.0</ele><time>2026-04-18T12:01:06Z</time></trkpt><trkpt lat="45.59937121070972" lon="10.486564982080731"><ele>279.5</ele><time>2026-04-18T12:01:07Z</time></trkpt><trkpt lat="45.599319188798205" lon="10.48667029165463"><ele>280.0</ele><time>2026-04-18T12:01:08Z</time></trkpt><trkpt lat="45.5992752813354" lon="10.486750146678727"><ele>281.3333333333333</ele><time>2026-04-18T12:01:09Z</time></trkpt><trkpt lat="45.59924429509953" lon="10.48683048988823"><ele>282.66666666666663</ele><time>2026-04-18T12:01:11Z</time></trkpt><trkpt lat="45.59924182376787" lon="10.486936447632713"><ele>284.0</ele><time>2026-04-18T12:01:14Z</time></trkpt><trkpt lat="45.599249718597655" lon="10.48709383971329"><ele>285.3333333333333</ele><time>2026-04-18T12:01:16Z</time></trkpt><trkpt lat="45.5992777683883" lon="10.487202995059379"><ele>286.6666666666667</ele><time>2026-04-18T12:01:18Z</time></trkpt><trkpt lat="45.59934507484917" lon="10.487313928523331"><ele>288.0</ele><time>2026-04-18T12:01:20Z</time></trkpt><trkpt lat="45.599424343822776" lon="10.487396840620203"><ele>288.3333333333333</ele><time>2026-04-18T12:01:22Z</time></trkpt><trkpt lat="45.59947390427064" lon="10.487461942790608"><ele>288.6666666666667</ele><time>2026-04-18T12:01:23Z</time></trkpt><trkpt lat="45.599535641504715" lon="10.487557370602111"><ele>289.0</ele><time>2026-04-18T12:01:25Z</time></trkpt><trkpt lat="45.5995960662604" lon="10.487636295653662"><ele>289.33333333333337</ele><time>2026-04-18T12:01:27Z</time></trkpt><trkpt lat="45.59966332437881" lon="10.487705931274988"><ele>289.6666666666667</ele><time>2026-04-18T12:01:29Z</time></trkpt><trkpt lat="45.59974848806512" lon="10.487786154125292"><ele>290.0</ele><time>2026-04-18T12:01:31Z</time></trkpt><trkpt lat="45.59980825875896" lon="10.48786835362871"><ele>291.5</ele><time>2026-04-18T12:01:32Z</time></trkpt><trkpt lat="45.599865436432204" lon="10.487952346687328"><ele>293.0</ele><time>2026-04-18T12:01:33Z</time></trkpt><trkpt lat="45.59993440418142" lon="10.488015963034144"><ele>294.5</ele><time>2026-04-18T12:01:34Z</time></trkpt><trkpt lat="45.600014836238785" lon="10.488051156848403"><ele>296.0</ele><time>2026-04-18T12:01:35Z</time></trkpt><trkpt lat="45.6000858754078" lon="10.488106710315598"><ele>297.5</ele><time>2026-04-18T12:01:36Z</time></trkpt><trkpt lat="45.60014620599171" lon="10.488164250229373"><ele>299.0</ele><time>2026-04-18T12:01:37Z</time></trkpt><trkpt lat="45.6001992236846" lon="10.488237330299404"><ele>299.0</ele><time>2026-04-18T12:01:38Z</time></trkpt><trkpt lat="45.60025434777494" lon="10.488342119079327"><ele>299.0</ele><time>2026-04-18T12:01:39Z</time></trkpt><trkpt lat="45.60032062562159" lon="10.488452243846703"><ele>299.0</ele><time>2026-04-18T12:01:40Z</time></trkpt><trkpt lat="45.600380494744016" lon="10.488562713967687"><ele>299.0</ele><time>2026-04-18T12:01:41Z</time></trkpt><trkpt lat="45.60043216584234" lon="10.488628055457609"><ele>299.0</ele><time>2026-04-18T12:01:42Z</time></trkpt><trkpt lat="45.60048659404504" lon="10.48869855484666"><ele>299.0</ele><time>2026-04-18T12:01:43Z</time></trkpt><trkpt lat="45.60055162550731" lon="10.48885199739589"><ele>297.5</ele><time>2026-04-18T12:01:45Z</time></trkpt><trkpt lat="45.6005931573338" lon="10.488922843450379"><ele>296.0</ele><time>2026-04-18T12:01:46Z</time></trkpt><trkpt lat="45.60065581864889" lon="10.488979321141167"><ele>294.5</ele><time>2026-04-18T12:01:48Z</time></trkpt><trkpt lat="45.60069263274379" lon="10.489052453355217"><ele>293.0</ele><time>2026-04-18T12:01:55Z</time></trkpt><trkpt lat="45.600619000381286" lon="10.489133162880313"><ele>291.5</ele><time>2026-04-18T12:02:00Z</time></trkpt><trkpt lat="45.60052813159435" lon="10.489205528090784"><ele>290.0</ele><time>2026-04-18T12:02:02Z</time></trkpt><trkpt lat="45.60046254695107" lon="10.489299123866274"><ele>290.0</ele><time>2026-04-18T12:02:04Z</time></trkpt><trkpt lat="45.60046870531413" lon="10.4894151358637"><ele>290.0</ele><time>2026-04-18T12:02:08Z</time></trkpt><trkpt lat="45.60049883024144" lon="10.489522559796187"><ele>290.0</ele><time>2026-04-18T12:02:10Z</time></trkpt><trkpt lat="45.600520795018234" lon="10.489671299738937"><ele>290.0</ele><time>2026-04-18T12:02:12Z</time></trkpt><trkpt lat="45.60054467765343" lon="10.489772927441875"><ele>290.0</ele><time>2026-04-18T12:02:13Z</time></trkpt><trkpt lat="45.600571343925765" lon="10.48989879200879"><ele>290.0</ele><time>2026-04-18T12:02:14Z</time></trkpt><trkpt lat="45.600600505857464" lon="10.4900104410889"><ele>292.33333333333337</ele><time>2026-04-18T12:02:15Z</time></trkpt><trkpt lat="45.60063611583073" lon="10.49011220381156"><ele>294.6666666666667</ele><time>2026-04-18T12:02:16Z</time></trkpt><trkpt lat="45.600679684175084" lon="10.490184468544808"><ele>297.0</ele><time>2026-04-18T12:02:17Z</time></trkpt><trkpt lat="45.600740742845844" lon="10.49026516984817"><ele>299.3333333333333</ele><time>2026-04-18T12:02:18Z</time></trkpt><trkpt lat="45.60081458171619" lon="10.490350878541275"><ele>301.66666666666663</ele><time>2026-04-18T12:02:19Z</time></trkpt><trkpt lat="45.6008758429117" lon="10.490434975780788"><ele>304.0</ele><time>2026-04-18T12:02:20Z</time></trkpt><trkpt lat="45.6009267772124" lon="10.490512246493703"><ele>303.66666666666663</ele><time>2026-04-18T12:02:21Z</time></trkpt><trkpt lat="45.600975817539066" lon="10.490573732558822"><ele>303.3333333333333</ele><time>2026-04-18T12:02:22Z</time></trkpt><trkpt lat="45.60102015558546" lon="10.490638955840598"><ele>303.0</ele><time>2026-04-18T12:02:23Z</time></trkpt><trkpt lat="45.60111597592793" lon="10.490697211284786"><ele>302.6666666666667</ele><time>2026-04-18T12:02:25Z</time></trkpt><trkpt lat="45.60120883410156" lon="10.49077666390551"><ele>302.33333333333337</ele><time>2026-04-18T12:02:27Z</time></trkpt><trkpt lat="45.60129789723338" lon="10.490834522150603"><ele>302.0</ele><time>2026-04-18T12:02:29Z</time></trkpt><trkpt lat="45.60138837884219" lon="10.490819058594704"><ele>302.0</ele><time>2026-04-18T12:02:31Z</time></trkpt><trkpt lat="45.6014467887472" lon="10.490770984339719"><ele>302.0</ele><time>2026-04-18T12:02:33Z</time></trkpt><trkpt lat="45.601508835318086" lon="10.490666849996053"><ele>302.0</ele><time>2026-04-18T12:02:35Z</time></trkpt><trkpt lat="45.60157395390613" lon="10.490581195188714"><ele>302.0</ele><time>2026-04-18T12:02:37Z</time></trkpt><trkpt lat="45.60165477294656" lon="10.490508618278746"><ele>302.0</ele><time>2026-04-18T12:02:39Z</time></trkpt><trkpt lat="45.60172044813207" lon="10.49047936926954"><ele>302.0</ele><time>2026-04-18T12:02:41Z</time></trkpt><trkpt lat="45.60181330429476" lon="10.490545596149007"><ele>302.0</ele><time>2026-04-18T12:02:43Z</time></trkpt><trkpt lat="45.601915675218486" lon="10.490658613383818"><ele>302.0</ele><time>2026-04-18T12:02:45Z</time></trkpt><trkpt lat="45.60199220126553" lon="10.490711656106079"><ele>302.0</ele><time>2026-04-18T12:02:46Z</time></trkpt><trkpt lat="45.60204969426731" lon="10.490782478442279"><ele>302.0</ele><time>2026-04-18T12:02:47Z</time></trkpt><trkpt lat="45.60210324795253" lon="10.490869762688753"><ele>302.0</ele><time>2026-04-18T12:02:48Z</time></trkpt><trkpt lat="45.60221275601793" lon="10.490964801326461"><ele>300.83333333333337</ele><time>2026-04-18T12:02:50Z</time></trkpt><trkpt lat="45.60229464325495" lon="10.490950374481663"><ele>299.6666666666667</ele><time>2026-04-18T12:02:51Z</time></trkpt><trkpt lat="45.602381588204224" lon="10.490922907621583"><ele>298.5</ele><time>2026-04-18T12:02:52Z</time></trkpt><trkpt lat="45.602453082772854" lon="10.490910889429895"><ele>297.3333333333333</ele><time>2026-04-18T12:02:53Z</time></trkpt><trkpt lat="45.60252276433895" lon="10.490892118289725"><ele>296.16666666666663</ele><time>2026-04-18T12:02:54Z</time></trkpt><trkpt lat="45.602594221333256" lon="10.490874470255436"><ele>295.0</ele><time>2026-04-18T12:02:55Z</time></trkpt><trkpt lat="45.60265818168479" lon="10.490850023221103"><ele>295.0</ele><time>2026-04-18T12:02:56Z</time></trkpt><trkpt lat="45.602768190757985" lon="10.490847963175437"><ele>295.0</ele><time>2026-04-18T12:02:58Z</time></trkpt><trkpt lat="45.60283591463154" lon="10.490966477028483"><ele>295.0</ele><time>2026-04-18T12:03:00Z</time></trkpt><trkpt lat="45.60284682543076" lon="10.491107205230472"><ele>295.0</ele><time>2026-04-18T12:03:01Z</time></trkpt><trkpt lat="45.60285230072417" lon="10.491241037264016"><ele>295.0</ele><time>2026-04-18T12:03:02Z</time></trkpt><trkpt lat="45.60286095005915" lon="10.491377861996195"><ele>294.4</ele><time>2026-04-18T12:03:03Z</time></trkpt><trkpt lat="45.60287707113708" lon="10.491523915682183"><ele>293.8</ele><time>2026-04-18T12:03:04Z</time></trkpt><trkpt lat="45.60288788601503" lon="10.49170037444152"><ele>293.2</ele><time>2026-04-18T12:03:05Z</time></trkpt><trkpt lat="45.602904069844804" lon="10.491854337942188"><ele>292.6</ele><time>2026-04-18T12:03:06Z</time></trkpt><trkpt lat="45.602925633729846" lon="10.491984633660906"><ele>292.0</ele><time>2026-04-18T12:03:07Z</time></trkpt><trkpt lat="45.602975383678455" lon="10.49210844808112"><ele>293.2</ele><time>2026-04-18T12:03:09Z</time></trkpt><trkpt lat="45.603017969787324" lon="10.492234758345534"><ele>294.4</ele><time>2026-04-18T12:03:11Z</time></trkpt><trkpt lat="45.60302676566438" lon="10.492372712303304"><ele>295.6</ele><time>2026-04-18T12:03:13Z</time></trkpt><trkpt lat="45.602997367708625" lon="10.492477622195386"><ele>296.8</ele><time>2026-04-18T12:03:15Z</time></trkpt><trkpt lat="45.602921048424065" lon="10.492558976468871"><ele>298.0</ele><time>2026-04-18T12:03:17Z</time></trkpt><trkpt lat="45.602797995726554" lon="10.492604954373519"><ele>299.57142857142856</ele><time>2026-04-18T12:03:19Z</time></trkpt><trkpt lat="45.60273117929204" lon="10.492632949196427"><ele>301.1428571428571</ele><time>2026-04-18T12:03:20Z</time></trkpt><trkpt lat="45.602671507388614" lon="10.492667404982951"><ele>302.7142857142857</ele><time>2026-04-18T12:03:21Z</time></trkpt><trkpt lat="45.60260704050908" lon="10.492705664461907"><ele>304.2857142857143</ele><time>2026-04-18T12:03:22Z</time></trkpt><trkpt lat="45.60253176267392" lon="10.492734494153629"><ele>305.8571428571429</ele><time>2026-04-18T12:03:23Z</time></trkpt><trkpt lat="45.602468579358515" lon="10.492771075650467"><ele>307.42857142857144</ele><time>2026-04-18T12:03:24Z</time></trkpt><trkpt lat="45.602408514306234" lon="10.492813065381572"><ele>309.0</ele><time>2026-04-18T12:03:25Z</time></trkpt><trkpt lat="45.602345357861054" lon="10.492899445540337"><ele>307.4</ele><time>2026-04-18T12:03:27Z</time></trkpt><trkpt lat="45.6022498404806" lon="10.492942197380671"><ele>305.79999999999995</ele><time>2026-04-18T12:03:29Z</time></trkpt><trkpt lat="45.60215821639702" lon="10.49300357374456"><ele>304.20000000000005</ele><time>2026-04-18T12:03:31Z</time></trkpt><trkpt lat="45.60210160915101" lon="10.49305840562317"><ele>302.6</ele><time>2026-04-18T12:03:32Z</time></trkpt><trkpt lat="45.601990119120124" lon="10.493109905518374"><ele>301.0</ele><time>2026-04-18T12:03:34Z</time></trkpt><trkpt lat="45.60192226823686" lon="10.493133775297654"><ele>305.4</ele><time>2026-04-18T12:03:35Z</time></trkpt><trkpt lat="45.60184371173512" lon="10.493160115502052"><ele>309.8</ele><time>2026-04-18T12:03:36Z</time></trkpt><trkpt lat="45.60175925426124" lon="10.493205559444798"><ele>314.2</ele><time>2026-04-18T12:03:37Z</time></trkpt><trkpt lat="45.601672491489474" lon="10.493271802699526"><ele>318.59999999999997</ele><time>2026-04-18T12:03:38Z</time></trkpt><trkpt lat="45.601588038247" lon="10.493357009263281"><ele>323.0</ele><time>2026-04-18T12:03:39Z</time></trkpt><trkpt lat="45.60151024106883" lon="10.493455045105533"><ele>323.0</ele><time>2026-04-18T12:03:40Z</time></trkpt><trkpt lat="45.60144974396748" lon="10.49354452698754"><ele>323.0</ele><time>2026-04-18T12:03:41Z</time></trkpt><trkpt lat="45.601403554052375" lon="10.493631282767844"><ele>323.0</ele><time>2026-04-18T12:03:42Z</time></trkpt><trkpt lat="45.60135079573142" lon="10.493742094556884"><ele>323.0</ele><time>2026-04-18T12:03:43Z</time></trkpt><trkpt lat="45.60130846615258" lon="10.493844364937969"><ele>323.0</ele><time>2026-04-18T12:03:44Z</time></trkpt><trkpt lat="45.60124791948884" lon="10.493985699946094"><ele>324.33333333333337</ele><time>2026-04-18T12:03:46Z</time></trkpt><trkpt lat="45.60115038506136" lon="10.49403297419268"><ele>325.6666666666667</ele><time>2026-04-18T12:03:48Z</time></trkpt><trkpt lat="45.601083531137284" lon="10.494045693434884"><ele>327.0</ele><time>2026-04-18T12:03:49Z</time></trkpt><trkpt lat="45.60100870710566" lon="10.494050979980331"><ele>328.3333333333333</ele><time>2026-04-18T12:04:45.999Z</time></trkpt><trkpt lat="45.60094111947121" lon="10.494097119428782"><ele>329.66666666666663</ele><time>2026-04-18T12:04:53.999Z</time></trkpt><trkpt lat="45.60086683038162" lon="10.494088191339587"><ele>331.0</ele><time>2026-04-18T12:04:56.999Z</time></trkpt><trkpt lat="45.60077508000535" lon="10.49408221162979"><ele>331.0</ele><time>2026-04-18T12:04:59.999Z</time></trkpt><trkpt lat="45.60070621514017" lon="10.494096093232287"><ele>331.0</ele><time>2026-04-18T12:05:02.999Z</time></trkpt><trkpt lat="45.600635673789576" lon="10.494103492771268"><ele>331.0</ele><time>2026-04-18T12:05:05.999Z</time></trkpt><trkpt lat="45.60056244966012" lon="10.494117272153082"><ele>331.0</ele><time>2026-04-18T12:05:08.999Z</time></trkpt><trkpt lat="45.60049877900801" lon="10.494159122391936"><ele>331.0</ele><time>2026-04-18T12:05:12.999Z</time></trkpt><trkpt lat="45.60043557796155" lon="10.49414041720317"><ele>331.0</ele><time>2026-04-18T12:05:19.999Z</time></trkpt><trkpt lat="45.60034972114051" lon="10.494146439652429"><ele>331.0</ele><time>2026-04-18T12:05:22.999Z</time></trkpt><trkpt lat="45.600272897006015" lon="10.494106394620765"><ele>331.0</ele><time>2026-04-18T12:05:25.999Z</time></trkpt><trkpt lat="45.6001926667416" lon="10.49407011761467"><ele>331.0</ele><time>2026-04-18T12:05:27.999Z</time></trkpt><trkpt lat="45.60011172249099" lon="10.494034132291384"><ele>331.0</ele><time>2026-04-18T12:05:29.999Z</time></trkpt><trkpt lat="45.600001378186626" lon="10.49406928173886"><ele>331.0</ele><time>2026-04-18T12:05:31.999Z</time></trkpt><trkpt lat="45.59992398372988" lon="10.494085001554424"><ele>331.0</ele><time>2026-04-18T12:05:33.999Z</time></trkpt><trkpt lat="45.59987692812697" lon="10.493980006227147"><ele>331.0</ele><time>2026-04-18T12:05:35.999Z</time></trkpt><trkpt lat="45.59980027403356" lon="10.493852554337355"><ele>331.0</ele><time>2026-04-18T12:05:37.999Z</time></trkpt><trkpt lat="45.599738282051014" lon="10.493811156287997"><ele>331.0</ele><time>2026-04-18T12:05:38.999Z</time></trkpt><trkpt lat="45.599667559929166" lon="10.493771682868195"><ele>331.0</ele><time>2026-04-18T12:05:39.999Z</time></trkpt><trkpt lat="45.599574685396" lon="10.493709755784387"><ele>331.0</ele><time>2026-04-18T12:05:40.999Z</time></trkpt><trkpt lat="45.59947925255135" lon="10.493641397731851"><ele>331.0</ele><time>2026-04-18T12:05:41.999Z</time></trkpt><trkpt lat="45.59938988149017" lon="10.493562723306677"><ele>330.6</ele><time>2026-04-18T12:05:42.999Z</time></trkpt><trkpt lat="45.59930617615227" lon="10.493484034544208"><ele>330.20000000000005</ele><time>2026-04-18T12:05:43.999Z</time></trkpt><trkpt lat="45.59922964784036" lon="10.493413198805492"><ele>329.79999999999995</ele><time>2026-04-18T12:05:44.999Z</time></trkpt><trkpt lat="45.59917124258919" lon="10.493360185158688"><ele>329.4</ele><time>2026-04-18T12:05:45.999Z</time></trkpt><trkpt lat="45.59909818029022" lon="10.493309889706355"><ele>329.0</ele><time>2026-04-18T12:05:47.999Z</time></trkpt><trkpt lat="45.59903248956521" lon="10.493432388602079"><ele>329.0</ele><time>2026-04-18T12:05:49.999Z</time></trkpt><trkpt lat="45.59899007907665" lon="10.493525659288126"><ele>329.0</ele><time>2026-04-18T12:05:50.999Z</time></trkpt><trkpt lat="45.59895921685904" lon="10.493612176680832"><ele>329.0</ele><time>2026-04-18T12:05:51.999Z</time></trkpt><trkpt lat="45.598954051874784" lon="10.493767629784996"><ele>329.0</ele><time>2026-04-18T12:05:53.999Z</time></trkpt><trkpt lat="45.59892731454014" lon="10.493878636249809"><ele>329.0</ele><time>2026-04-18T12:05:55.999Z</time></trkpt><trkpt lat="45.59884582694707" lon="10.493954321822805"><ele>329.0</ele><time>2026-04-18T12:05:57.999Z</time></trkpt><trkpt lat="45.59877749927259" lon="10.493973506688732"><ele>327.83333333333337</ele><time>2026-04-18T12:05:58.999Z</time></trkpt><trkpt lat="45.598707339733146" lon="10.493969622754934"><ele>326.6666666666667</ele><time>2026-04-18T12:05:59.999Z</time></trkpt><trkpt lat="45.59863796153645" lon="10.493952366071445"><ele>325.5</ele><time>2026-04-18T12:06:00.999Z</time></trkpt><trkpt lat="45.598563779894405" lon="10.493931510870786"><ele>324.3333333333333</ele><time>2026-04-18T12:06:01.999Z</time></trkpt><trkpt lat="45.598469505052286" lon="10.49390798322651"><ele>323.16666666666663</ele><time>2026-04-18T12:06:02.999Z</time></trkpt><trkpt lat="45.5983798339617" lon="10.49388474038903"><ele>322.0</ele><time>2026-04-18T12:06:03.999Z</time></trkpt><trkpt lat="45.59827870092452" lon="10.49386267704231"><ele>325.0</ele><time>2026-04-18T12:06:04.999Z</time></trkpt><trkpt lat="45.59820190526418" lon="10.493840768440018"><ele>328.0</ele><time>2026-04-18T12:06:05.999Z</time></trkpt><trkpt lat="45.598123419789545" lon="10.493812554616339"><ele>331.0</ele><time>2026-04-18T12:06:06.999Z</time></trkpt><trkpt lat="45.59803192800778" lon="10.493800958780202"><ele>334.0</ele><time>2026-04-18T12:06:07.999Z</time></trkpt><trkpt lat="45.59795418878521" lon="10.49383282878227"><ele>337.0</ele><time>2026-04-18T12:06:08.999Z</time></trkpt><trkpt lat="45.5978683213128" lon="10.493905117436132"><ele>340.0</ele><time>2026-04-18T12:06:09.999Z</time></trkpt><trkpt lat="45.59777195992262" lon="10.493997018112408"><ele>341.25</ele><time>2026-04-18T12:06:10.999Z</time></trkpt><trkpt lat="45.59768361163384" lon="10.494106456494794"><ele>342.5</ele><time>2026-04-18T12:06:11.999Z</time></trkpt><trkpt lat="45.597581998907806" lon="10.49422471626295"><ele>343.75</ele><time>2026-04-18T12:06:12.999Z</time></trkpt><trkpt lat="45.59748035259898" lon="10.494337551052729"><ele>345.0</ele><time>2026-04-18T12:06:13.999Z</time></trkpt><trkpt lat="45.59738588926454" lon="10.494441441918994"><ele>345.0</ele><time>2026-04-18T12:06:14.999Z</time></trkpt><trkpt lat="45.59729942143409" lon="10.494517168806846"><ele>345.0</ele><time>2026-04-18T12:06:15.999Z</time></trkpt><trkpt lat="45.59720489846849" lon="10.494564260353474"><ele>345.0</ele><time>2026-04-18T12:06:16.999Z</time></trkpt><trkpt lat="45.597113628444504" lon="10.494600212959874"><ele>345.0</ele><time>2026-04-18T12:06:17.999Z</time></trkpt><trkpt lat="45.597024066368775" lon="10.49461260744003"><ele>345.0</ele><time>2026-04-18T12:06:18.999Z</time></trkpt><trkpt lat="45.59691582111909" lon="10.494602044466644"><ele>345.25</ele><time>2026-04-18T12:06:19.999Z</time></trkpt><trkpt lat="45.59679910281125" lon="10.49453648441277"><ele>345.5</ele><time>2026-04-18T12:06:20.999Z</time></trkpt><trkpt lat="45.59666187047893" lon="10.494446829503229"><ele>345.75</ele><time>2026-04-18T12:06:21.999Z</time></trkpt><trkpt lat="45.59652017077316" lon="10.4943518353655"><ele>346.0</ele><time>2026-04-18T12:06:22.999Z</time></trkpt><trkpt lat="45.59639416634798" lon="10.494271948602137"><ele>346.0</ele><time>2026-04-18T12:06:23.999Z</time></trkpt><trkpt lat="45.59629549838059" lon="10.494219774906863"><ele>346.0</ele><time>2026-04-18T12:06:24.999Z</time></trkpt><trkpt lat="45.59620586178114" lon="10.494189273464109"><ele>346.0</ele><time>2026-04-18T12:06:25.999Z</time></trkpt><trkpt lat="45.5961119120548" lon="10.494186692318449"><ele>346.0</ele><time>2026-04-18T12:06:26.999Z</time></trkpt><trkpt lat="45.59601077719659" lon="10.494218032301916"><ele>346.0</ele><time>2026-04-18T12:06:27.999Z</time></trkpt><trkpt lat="45.59590510945574" lon="10.494283323591446"><ele>346.25</ele><time>2026-04-18T12:06:28.999Z</time></trkpt><trkpt lat="45.59579065857706" lon="10.494312051383002"><ele>346.5</ele><time>2026-04-18T12:06:29.999Z</time></trkpt><trkpt lat="45.5956731915365" lon="10.494321957086227"><ele>346.75</ele><time>2026-04-18T12:06:30.999Z</time></trkpt><trkpt lat="45.59556203984214" lon="10.494326550343303"><ele>347.0</ele><time>2026-04-18T12:06:31.999Z</time></trkpt><trkpt lat="45.59545762791133" lon="10.494337745584016"><ele>347.0</ele><time>2026-04-18T12:06:32.999Z</time></trkpt><trkpt lat="45.595347815172275" lon="10.494344536444864"><ele>347.0</ele><time>2026-04-18T12:06:33.999Z</time></trkpt><trkpt lat="45.59523131931655" lon="10.494335605853045"><ele>347.0</ele><time>2026-04-18T12:06:34.999Z</time></trkpt><trkpt lat="45.595118835026405" lon="10.494316039111775"><ele>347.0</ele><time>2026-04-18T12:06:35.999Z</time></trkpt><trkpt lat="45.595012347224646" lon="10.494291945062852"><ele>347.0</ele><time>2026-04-18T12:06:36.999Z</time></trkpt><trkpt lat="45.594912774125966" lon="10.494269038505323"><ele>346.83333333333337</ele><time>2026-04-18T12:06:37.999Z</time></trkpt><trkpt lat="45.59482320723877" lon="10.494263409090518"><ele>346.6666666666667</ele><time>2026-04-18T12:06:38.999Z</time></trkpt><trkpt lat="45.594738368986974" lon="10.494253751873979"><ele>346.5</ele><time>2026-04-18T12:06:39.999Z</time></trkpt><trkpt lat="45.59465537587847" lon="10.494249415144514"><ele>346.3333333333333</ele><time>2026-04-18T12:06:40.999Z</time></trkpt><trkpt lat="45.594585114073126" lon="10.494246156625474"><ele>346.16666666666663</ele><time>2026-04-18T12:06:41.999Z</time></trkpt><trkpt lat="45.59446892057059" lon="10.494257355199608"><ele>346.0</ele><time>2026-04-18T12:06:43.999Z</time></trkpt><trkpt lat="45.594352136386" lon="10.494295386183499"><ele>346.0</ele><time>2026-04-18T12:06:45.999Z</time></trkpt><trkpt lat="45.59429579959" lon="10.494380113979132"><ele>346.0</ele><time>2026-04-18T12:06:46.999Z</time></trkpt><trkpt lat="45.594245805365176" lon="10.494466438155035"><ele>346.0</ele><time>2026-04-18T12:06:47.999Z</time></trkpt><trkpt lat="45.59418588323809" lon="10.494592698115929"><ele>346.0</ele><time>2026-04-18T12:06:50Z</time></trkpt><trkpt lat="45.59415215436217" lon="10.494680587761211"><ele>346.0</ele><time>2026-04-18T12:06:52Z</time></trkpt><trkpt lat="45.594113622854586" lon="10.494783433865706"><ele>346.0</ele><time>2026-04-18T12:06:55Z</time></trkpt><trkpt lat="45.594088731604366" lon="10.494876863611207"><ele>346.0</ele><time>2026-04-18T12:06:57Z</time></trkpt><trkpt lat="45.594090009208706" lon="10.494967254934837"><ele>346.0</ele><time>2026-04-18T12:07:00Z</time></trkpt><trkpt lat="45.594135388405476" lon="10.495063936621728"><ele>346.0</ele><time>2026-04-18T12:07:04Z</time></trkpt><trkpt lat="45.59416615908793" lon="10.495143749017375"><ele>346.0</ele><time>2026-04-18T12:07:06Z</time></trkpt><trkpt lat="45.594213757345436" lon="10.49523185024865"><ele>346.0</ele><time>2026-04-18T12:07:08Z</time></trkpt><trkpt lat="45.59421564934861" lon="10.495340037113538"><ele>346.0</ele><time>2026-04-18T12:07:12Z</time></trkpt><trkpt lat="45.59416118207242" lon="10.495424118182724"><ele>346.0</ele><time>2026-04-18T12:07:14Z</time></trkpt><trkpt lat="45.59408151505994" lon="10.495492553115696"><ele>345.3333333333333</ele><time>2026-04-18T12:07:16Z</time></trkpt><trkpt lat="45.59398613717448" lon="10.495516988847045"><ele>344.66666666666663</ele><time>2026-04-18T12:07:18Z</time></trkpt><trkpt lat="45.59392022227674" lon="10.495524254206863"><ele>344.0</ele><time>2026-04-18T12:07:19Z</time></trkpt><trkpt lat="45.59385764992566" lon="10.495559586886426"><ele>343.3333333333333</ele><time>2026-04-18T12:07:20Z</time></trkpt><trkpt lat="45.59378139136885" lon="10.495593935896638"><ele>342.6666666666667</ele><time>2026-04-18T12:07:21Z</time></trkpt><trkpt lat="45.59370062083914" lon="10.495619624913513"><ele>342.0</ele><time>2026-04-18T12:07:22Z</time></trkpt><trkpt lat="45.593622536135136" lon="10.49562824117326"><ele>342.0</ele><time>2026-04-18T12:07:23Z</time></trkpt><trkpt lat="45.59353952730653" lon="10.49559689814574"><ele>342.0</ele><time>2026-04-18T12:07:24Z</time></trkpt><trkpt lat="45.59345932386863" lon="10.495549828217932"><ele>342.0</ele><time>2026-04-18T12:07:25Z</time></trkpt><trkpt lat="45.59337944088241" lon="10.495514871541296"><ele>342.0</ele><time>2026-04-18T12:07:26Z</time></trkpt><trkpt lat="45.59330267014594" lon="10.495489483906969"><ele>342.0</ele><time>2026-04-18T12:07:27Z</time></trkpt><trkpt lat="45.593175890242584" lon="10.495463459179913"><ele>342.0</ele><time>2026-04-18T12:07:29Z</time></trkpt><trkpt lat="45.59309814110301" lon="10.495445166860113"><ele>342.0</ele><time>2026-04-18T12:07:30Z</time></trkpt><trkpt lat="45.59301152650589" lon="10.495436655801594"><ele>342.0</ele><time>2026-04-18T12:07:31Z</time></trkpt><trkpt lat="45.59291378262944" lon="10.495421600230571"><ele>342.0</ele><time>2026-04-18T12:07:32Z</time></trkpt><trkpt lat="45.592800882578864" lon="10.495386408031369"><ele>342.0</ele><time>2026-04-18T12:07:33Z</time></trkpt><trkpt lat="45.592678512337315" lon="10.495360515969388"><ele>343.5</ele><time>2026-04-18T12:07:34Z</time></trkpt><trkpt lat="45.592557653584564" lon="10.495321275544521"><ele>345.0</ele><time>2026-04-18T12:07:35Z</time></trkpt><trkpt lat="45.59243076309288" lon="10.495273527265155"><ele>346.5</ele><time>2026-04-18T12:07:36Z</time></trkpt><trkpt lat="45.59230496927008" lon="10.495233104830232"><ele>348.0</ele><time>2026-04-18T12:07:37Z</time></trkpt><trkpt lat="45.59218923042675" lon="10.4951983722332"><ele>348.0</ele><time>2026-04-18T12:07:38Z</time></trkpt><trkpt lat="45.59209277023919" lon="10.495164231035842"><ele>348.0</ele><time>2026-04-18T12:07:39Z</time></trkpt><trkpt lat="45.59201249360757" lon="10.495139265496242"><ele>348.0</ele><time>2026-04-18T12:07:40Z</time></trkpt><trkpt lat="45.59190633564969" lon="10.495127822512003"><ele>348.0</ele><time>2026-04-18T12:07:42Z</time></trkpt><trkpt lat="45.59187344501675" lon="10.495221817899017"><ele>348.0</ele><time>2026-04-18T12:07:44Z</time></trkpt><trkpt lat="45.59186319967993" lon="10.49532043687536"><ele>348.0</ele><time>2026-04-18T12:07:45Z</time></trkpt><trkpt lat="45.591869370036584" lon="10.495429767889215"><ele>348.1666666666667</ele><time>2026-04-18T12:07:46Z</time></trkpt><trkpt lat="45.59188018395914" lon="10.495521339945602"><ele>348.3333333333333</ele><time>2026-04-18T12:07:48Z</time></trkpt><trkpt lat="45.59181015598143" lon="10.495566587811016"><ele>348.5</ele><time>2026-04-18T12:07:50Z</time></trkpt><trkpt lat="45.59170888464378" lon="10.495618167040979"><ele>348.66666666666663</ele><time>2026-04-18T12:07:52Z</time></trkpt><trkpt lat="45.5916252051053" lon="10.495682999792308"><ele>348.8333333333333</ele><time>2026-04-18T12:07:54Z</time></trkpt><trkpt lat="45.591537252946765" lon="10.495714314304166"><ele>349.0</ele><time>2026-04-18T12:07:56Z</time></trkpt><trkpt lat="45.59147135428774" lon="10.495705028994742"><ele>348.99999999999994</ele><time>2026-04-18T12:07:57Z</time></trkpt><trkpt lat="45.59140399940032" lon="10.495703438615548"><ele>349.0</ele><time>2026-04-18T12:07:58Z</time></trkpt><trkpt lat="45.59133654368269" lon="10.495706950097867"><ele>349.0</ele><time>2026-04-18T12:07:59Z</time></trkpt><trkpt lat="45.59126348229826" lon="10.495709676874567"><ele>349.0</ele><time>2026-04-18T12:08:00Z</time></trkpt><trkpt lat="45.59119713920882" lon="10.495717697242226"><ele>349.0</ele><time>2026-04-18T12:08:01Z</time></trkpt><trkpt lat="45.59111606418517" lon="10.495729547946707"><ele>348.99999999999994</ele><time>2026-04-18T12:08:03Z</time></trkpt><trkpt lat="45.59107845579706" lon="10.495838242751349"><ele>349.0</ele><time>2026-04-18T12:08:07Z</time></trkpt><trkpt lat="45.59110018854228" lon="10.49592432102739"><ele>348.5</ele><time>2026-04-18T12:08:09Z</time></trkpt><trkpt lat="45.59111348570265" lon="10.496033278638276"><ele>348.0</ele><time>2026-04-18T12:08:11Z</time></trkpt><trkpt lat="45.59110819468208" lon="10.496207258655355"><ele>347.5</ele><time>2026-04-18T12:08:13Z</time></trkpt><trkpt lat="45.59110057269422" lon="10.496309220052122"><ele>347.0</ele><time>2026-04-18T12:08:14Z</time></trkpt><trkpt lat="45.591081907241055" lon="10.496414153226704"><ele>346.5</ele><time>2026-04-18T12:08:16Z</time></trkpt><trkpt lat="45.59111190302008" lon="10.496514907183608"><ele>346.0</ele><time>2026-04-18T12:08:19Z</time></trkpt><trkpt lat="45.591172647766086" lon="10.49648798201547"><ele>344.66666666666663</ele><time>2026-04-18T12:08:23Z</time></trkpt><trkpt lat="45.591251240593344" lon="10.49645728797175"><ele>343.3333333333333</ele><time>2026-04-18T12:08:26Z</time></trkpt><trkpt lat="45.591270302815076" lon="10.49657111874189"><ele>342.0</ele><time>2026-04-18T12:08:31Z</time></trkpt><trkpt lat="45.59123753749983" lon="10.496684971582896"><ele>340.6666666666667</ele><time>2026-04-18T12:08:33Z</time></trkpt><trkpt lat="45.591203957165064" lon="10.496800551510425"><ele>339.33333333333337</ele><time>2026-04-18T12:08:35Z</time></trkpt><trkpt lat="45.591146501988746" lon="10.496906491442349"><ele>338.0</ele><time>2026-04-18T12:08:37Z</time></trkpt><trkpt lat="45.59105265452498" lon="10.496970716746233"><ele>338.0</ele><time>2026-04-18T12:08:39Z</time></trkpt><trkpt lat="45.59096542273738" lon="10.497006253601715"><ele>338.0</ele><time>2026-04-18T12:08:41Z</time></trkpt><trkpt lat="45.59090347049416" lon="10.497034565573735"><ele>338.0</ele><time>2026-04-18T12:08:43Z</time></trkpt><trkpt lat="45.59085263484995" lon="10.497106808562744"><ele>338.0</ele><time>2026-04-18T12:08:46Z</time></trkpt><trkpt lat="45.59087020436796" lon="10.497211802139253"><ele>338.0</ele><time>2026-04-18T12:08:49Z</time></trkpt><trkpt lat="45.59093408056071" lon="10.497249729610175"><ele>338.0</ele><time>2026-04-18T12:08:51Z</time></trkpt><trkpt lat="45.59102379271308" lon="10.497240771481248"><ele>334.4</ele><time>2026-04-18T12:08:53Z</time></trkpt><trkpt lat="45.591136663240434" lon="10.497213256777256"><ele>330.79999999999995</ele><time>2026-04-18T12:08:56Z</time></trkpt><trkpt lat="45.59120098551157" lon="10.497274896017485"><ele>327.2</ele><time>2026-04-18T12:09:00Z</time></trkpt><trkpt lat="45.59129013968835" lon="10.497355357565057"><ele>323.6</ele><time>2026-04-18T12:09:03Z</time></trkpt><trkpt lat="45.59133255340626" lon="10.497467063270397"><ele>320.0</ele><time>2026-04-18T12:09:05Z</time></trkpt><trkpt lat="45.59129281782145" lon="10.49755795677342"><ele>320.0</ele><time>2026-04-18T12:09:08Z</time></trkpt><trkpt lat="45.59120746717038" lon="10.4976083297338"><ele>320.0</ele><time>2026-04-18T12:09:10Z</time></trkpt><trkpt lat="45.591087097738566" lon="10.497655740305378"><ele>320.0</ele><time>2026-04-18T12:09:12Z</time></trkpt><trkpt lat="45.5909726233435" lon="10.497686308468205"><ele>320.0</ele><time>2026-04-18T12:09:14Z</time></trkpt><trkpt lat="45.59085923677625" lon="10.497683955505876"><ele>320.0</ele><time>2026-04-18T12:09:16Z</time></trkpt><trkpt lat="45.59078553321402" lon="10.497676772484438"><ele>320.0</ele><time>2026-04-18T12:09:17Z</time></trkpt><trkpt lat="45.59071127826914" lon="10.49765774732535"><ele>320.0</ele><time>2026-04-18T12:09:18Z</time></trkpt><trkpt lat="45.590635838854766" lon="10.497606363486645"><ele>320.0</ele><time>2026-04-18T12:09:19Z</time></trkpt><trkpt lat="45.59058226872746" lon="10.49755076303405"><ele>320.0</ele><time>2026-04-18T12:09:20Z</time></trkpt><trkpt lat="45.590447129614034" lon="10.497499849476613"><ele>320.0</ele><time>2026-04-18T12:09:22Z</time></trkpt><trkpt lat="45.59037109552829" lon="10.497468580738833"><ele>320.0</ele><time>2026-04-18T12:09:23Z</time></trkpt><trkpt lat="45.59029601376908" lon="10.497421812710517"><ele>318.83333333333337</ele><time>2026-04-18T12:09:24Z</time></trkpt><trkpt lat="45.5902245864357" lon="10.497384375996566"><ele>317.6666666666667</ele><time>2026-04-18T12:09:25Z</time></trkpt><trkpt lat="45.590162790982454" lon="10.497334418906275"><ele>316.5</ele><time>2026-04-18T12:09:26Z</time></trkpt><trkpt lat="45.590103159691594" lon="10.49726801825942"><ele>315.3333333333333</ele><time>2026-04-18T12:09:27Z</time></trkpt><trkpt lat="45.59004456843195" lon="10.497177691348682"><ele>314.16666666666663</ele><time>2026-04-18T12:09:28Z</time></trkpt><trkpt lat="45.589984013270104" lon="10.497059093072226"><ele>313.0</ele><time>2026-04-18T12:09:29Z</time></trkpt><trkpt lat="45.58991732690929" lon="10.496953778212799"><ele>315.0</ele><time>2026-04-18T12:09:30Z</time></trkpt><trkpt lat="45.589852982108155" lon="10.496889758183865"><ele>317.0</ele><time>2026-04-18T12:09:31Z</time></trkpt><trkpt lat="45.58978633465112" lon="10.496831482686996"><ele>319.0</ele><time>2026-04-18T12:09:32Z</time></trkpt><trkpt lat="45.589654053038565" lon="10.496807064871119"><ele>321.0</ele><time>2026-04-18T12:09:34Z</time></trkpt><trkpt lat="45.589570373942514" lon="10.496831637765515"><ele>323.0</ele><time>2026-04-18T12:09:35Z</time></trkpt><trkpt lat="45.589466425967" lon="10.496811916863372"><ele>323.0</ele><time>2026-04-18T12:09:36Z</time></trkpt><trkpt lat="45.589365603166485" lon="10.496779476448596"><ele>323.0</ele><time>2026-04-18T12:09:37Z</time></trkpt><trkpt lat="45.58926261318702" lon="10.496761856554027"><ele>323.0</ele><time>2026-04-18T12:09:38Z</time></trkpt><trkpt lat="45.58914630395139" lon="10.496735626642392"><ele>323.0</ele><time>2026-04-18T12:09:39Z</time></trkpt><trkpt lat="45.58902121263664" lon="10.496689601856362"><ele>323.0</ele><time>2026-04-18T12:09:40Z</time></trkpt><trkpt lat="45.58890445465722" lon="10.496644756937933"><ele>323.0</ele><time>2026-04-18T12:09:41Z</time></trkpt><trkpt lat="45.58880958947177" lon="10.496615089331012"><ele>323.0</ele><time>2026-04-18T12:09:42Z</time></trkpt><trkpt lat="45.588711903504354" lon="10.496612403269673"><ele>323.0</ele><time>2026-04-18T12:09:43Z</time></trkpt><trkpt lat="45.58860775055024" lon="10.496631560673027"><ele>323.0</ele><time>2026-04-18T12:09:44Z</time></trkpt><trkpt lat="45.58849894437321" lon="10.496654572318322"><ele>324.2</ele><time>2026-04-18T12:09:45Z</time></trkpt><trkpt lat="45.58838981095388" lon="10.496692789017052"><ele>325.4</ele><time>2026-04-18T12:09:46Z</time></trkpt><trkpt lat="45.588284518887406" lon="10.496726328937909"><ele>326.59999999999997</ele><time>2026-04-18T12:09:47Z</time></trkpt><trkpt lat="45.588203868380354" lon="10.496752281642982"><ele>327.79999999999995</ele><time>2026-04-18T12:09:48Z</time></trkpt><trkpt lat="45.58810174869965" lon="10.496767351663213"><ele>329.0</ele><time>2026-04-18T12:09:49Z</time></trkpt><trkpt lat="45.587987096721314" lon="10.496768727205827"><ele>329.0</ele><time>2026-04-18T12:09:50Z</time></trkpt><trkpt lat="45.58786936397227" lon="10.49678133863303"><ele>329.0</ele><time>2026-04-18T12:09:51Z</time></trkpt><trkpt lat="45.58776345992594" lon="10.49680290199682"><ele>329.0</ele><time>2026-04-18T12:09:52Z</time></trkpt><trkpt lat="45.587649509790744" lon="10.496805869617873"><ele>329.0</ele><time>2026-04-18T12:09:53Z</time></trkpt><trkpt lat="45.58755676915194" lon="10.496802438315212"><ele>329.0</ele><time>2026-04-18T12:09:54Z</time></trkpt><trkpt lat="45.587459018344994" lon="10.496799721232952"><ele>329.5</ele><time>2026-04-18T12:09:55Z</time></trkpt><trkpt lat="45.587370682390635" lon="10.496804861449828"><ele>330.0</ele><time>2026-04-18T12:09:56Z</time></trkpt><trkpt lat="45.58729279895813" lon="10.496807574538483"><ele>330.5</ele><time>2026-04-18T12:09:57Z</time></trkpt><trkpt lat="45.587219630224396" lon="10.496805077840165"><ele>331.0</ele><time>2026-04-18T12:09:58Z</time></trkpt><trkpt lat="45.58714416777022" lon="10.496796749155674"><ele>331.5</ele><time>2026-04-18T12:09:59Z</time></trkpt><trkpt lat="45.58705500713769" lon="10.496774032465176"><ele>332.0</ele><time>2026-04-18T12:10:01Z</time></trkpt><trkpt lat="45.58699113609691" lon="10.49676344601587"><ele>332.20000000000005</ele><time>2026-04-18T12:10:03Z</time></trkpt><trkpt lat="45.586904626614114" lon="10.496894517057845"><ele>332.4</ele><time>2026-04-18T12:10:06Z</time></trkpt><trkpt lat="45.58685357935893" lon="10.496984392753463"><ele>332.6</ele><time>2026-04-18T12:10:07Z</time></trkpt><trkpt lat="45.5867880406664" lon="10.497077040624943"><ele>332.79999999999995</ele><time>2026-04-18T12:10:08Z</time></trkpt><trkpt lat="45.58672076902688" lon="10.497151035279312"><ele>333.0</ele><time>2026-04-18T12:10:09Z</time></trkpt><trkpt lat="45.58666214252819" lon="10.49721213565014"><ele>330.59999999999997</ele><time>2026-04-18T12:10:10Z</time></trkpt><trkpt lat="45.58659459563483" lon="10.4972766171765"><ele>328.2</ele><time>2026-04-18T12:10:11Z</time></trkpt><trkpt lat="45.5865299391057" lon="10.497335423548765"><ele>325.8</ele><time>2026-04-18T12:10:12Z</time></trkpt><trkpt lat="45.58639966082425" lon="10.497402524794404"><ele>323.4</ele><time>2026-04-18T12:10:14Z</time></trkpt><trkpt lat="45.58630300952628" lon="10.497417235109904"><ele>321.0</ele><time>2026-04-18T12:10:15Z</time></trkpt><trkpt lat="45.58622440073448" lon="10.49739225234445"><ele>321.4285714285714</ele><time>2026-04-18T12:10:16Z</time></trkpt><trkpt lat="45.5861467815152" lon="10.497387241044837"><ele>321.85714285714283</ele><time>2026-04-18T12:10:17Z</time></trkpt><trkpt lat="45.586084248709646" lon="10.497371752932107"><ele>322.2857142857143</ele><time>2026-04-18T12:10:18Z</time></trkpt><trkpt lat="45.58602526420479" lon="10.49733365661714"><ele>322.71428571428567</ele><time>2026-04-18T12:10:19Z</time></trkpt><trkpt lat="45.5859755326907" lon="10.49726740178806"><ele>323.1428571428571</ele><time>2026-04-18T12:10:20Z</time></trkpt><trkpt lat="45.58592636169081" lon="10.49718566152251"><ele>323.57142857142856</ele><time>2026-04-18T12:10:21Z</time></trkpt><trkpt lat="45.585880729864364" lon="10.497102017778449"><ele>324.0</ele><time>2026-04-18T12:10:22Z</time></trkpt><trkpt lat="45.58583997827306" lon="10.497012240933767"><ele>324.0</ele><time>2026-04-18T12:10:23Z</time></trkpt><trkpt lat="45.58580457452567" lon="10.496926926019723"><ele>324.0</ele><time>2026-04-18T12:10:24Z</time></trkpt><trkpt lat="45.585757618839075" lon="10.496844860762241"><ele>324.0</ele><time>2026-04-18T12:10:25Z</time></trkpt><trkpt lat="45.58565824763552" lon="10.496755807626357"><ele>324.0</ele><time>2026-04-18T12:10:27Z</time></trkpt><trkpt lat="45.58559918596671" lon="10.496718727396194"><ele>324.0</ele><time>2026-04-18T12:10:28Z</time></trkpt><trkpt lat="45.58552014599927" lon="10.49670371759734"><ele>324.0</ele><time>2026-04-18T12:10:29Z</time></trkpt><trkpt lat="45.58545600172638" lon="10.496712626517287"><ele>324.0</ele><time>2026-04-18T12:10:30Z</time></trkpt><trkpt lat="45.585393137247834" lon="10.496704345494544"><ele>324.0</ele><time>2026-04-18T12:10:31Z</time></trkpt><trkpt lat="45.58532299859455" lon="10.496692076780537"><ele>324.0</ele><time>2026-04-18T12:10:32Z</time></trkpt><trkpt lat="45.58521774192004" lon="10.49669382212044"><ele>324.0</ele><time>2026-04-18T12:10:34Z</time></trkpt><trkpt lat="45.58513229523885" lon="10.496691717300711"><ele>324.0</ele><time>2026-04-18T12:10:37Z</time></trkpt><trkpt lat="45.585041316840794" lon="10.49670747158528"><ele>324.0</ele><time>2026-04-18T12:10:39Z</time></trkpt><trkpt lat="45.5849136349928" lon="10.496682027862182"><ele>320.75</ele><time>2026-04-18T12:10:41Z</time></trkpt><trkpt lat="45.584817390745634" lon="10.49665240862778"><ele>317.5</ele><time>2026-04-18T12:10:42Z</time></trkpt><trkpt lat="45.58470901929423" lon="10.496587718230403"><ele>314.25</ele><time>2026-04-18T12:10:43Z</time></trkpt><trkpt lat="45.584593958088604" lon="10.496540106962344"><ele>311.0</ele><time>2026-04-18T12:10:44Z</time></trkpt><trkpt lat="45.58446803787554" lon="10.49649142302491"><ele>312.5</ele><time>2026-04-18T12:10:45Z</time></trkpt><trkpt lat="45.584338304923286" lon="10.496450907459618"><ele>314.0</ele><time>2026-04-18T12:10:46Z</time></trkpt><trkpt lat="45.58423538912979" lon="10.4963817358779"><ele>315.5</ele><time>2026-04-18T12:10:47Z</time></trkpt><trkpt lat="45.58414366500858" lon="10.496310217826382"><ele>317.0</ele><time>2026-04-18T12:10:48Z</time></trkpt><trkpt lat="45.584026359806394" lon="10.496232358420695"><ele>317.0</ele><time>2026-04-18T12:10:49Z</time></trkpt><trkpt lat="45.58392998887939" lon="10.496208376383008"><ele>317.0</ele><time>2026-04-18T12:10:50Z</time></trkpt><trkpt lat="45.58383233733065" lon="10.496195507107203"><ele>317.0</ele><time>2026-04-18T12:10:51Z</time></trkpt><trkpt lat="45.5837575647884" lon="10.496197218949442"><ele>317.0</ele><time>2026-04-18T12:10:52Z</time></trkpt><trkpt lat="45.583691701419625" lon="10.496224528371924"><ele>317.0</ele><time>2026-04-18T12:10:53Z</time></trkpt><trkpt lat="45.58357926611752" lon="10.496319114843594"><ele>312.4</ele><time>2026-04-18T12:10:55Z</time></trkpt><trkpt lat="45.58350830250406" lon="10.496350066678648"><ele>307.79999999999995</ele><time>2026-04-18T12:10:56Z</time></trkpt><trkpt lat="45.583386806392504" lon="10.496351684076739"><ele>303.2</ele><time>2026-04-18T12:10:57Z</time></trkpt><trkpt lat="45.58326557972762" lon="10.496334720129987"><ele>298.59999999999997</ele><time>2026-04-18T12:10:58Z</time></trkpt><trkpt lat="45.583166049639054" lon="10.49633062257903"><ele>294.0</ele><time>2026-04-18T12:10:59Z</time></trkpt><trkpt lat="45.58307388209365" lon="10.496346660204969"><ele>294.0</ele><time>2026-04-18T12:11:00Z</time></trkpt><trkpt lat="45.58300552516061" lon="10.496378485669359"><ele>294.0</ele><time>2026-04-18T12:11:01Z</time></trkpt><trkpt lat="45.58290117957143" lon="10.496410586190455"><ele>294.0</ele><time>2026-04-18T12:11:03Z</time></trkpt><trkpt lat="45.582779868355026" lon="10.496403927026183"><ele>294.0</ele><time>2026-04-18T12:11:05Z</time></trkpt><trkpt lat="45.58270326319843" lon="10.49639839845999"><ele>294.0</ele><time>2026-04-18T12:11:06Z</time></trkpt><trkpt lat="45.582616489985085" lon="10.496383278603334"><ele>293.4</ele><time>2026-04-18T12:11:07Z</time></trkpt><trkpt lat="45.58252730752572" lon="10.496384270222935"><ele>292.79999999999995</ele><time>2026-04-18T12:11:08Z</time></trkpt><trkpt lat="45.5824319840374" lon="10.496384158891843"><ele>292.20000000000005</ele><time>2026-04-18T12:11:09Z</time></trkpt><trkpt lat="45.582319710909225" lon="10.496371685857056"><ele>291.6</ele><time>2026-04-18T12:11:10Z</time></trkpt><trkpt lat="45.58218729714651" lon="10.496353392462199"><ele>291.0</ele><time>2026-04-18T12:11:11Z</time></trkpt><trkpt lat="45.58207251569716" lon="10.496327425663829"><ele>291.0</ele><time>2026-04-18T12:11:12Z</time></trkpt><trkpt lat="45.581973956577606" lon="10.496308211477096"><ele>291.0</ele><time>2026-04-18T12:11:13Z</time></trkpt><trkpt lat="45.581874560972395" lon="10.49629523171485"><ele>291.0</ele><time>2026-04-18T12:11:14Z</time></trkpt><trkpt lat="45.58177917100672" lon="10.496279669413234"><ele>291.0</ele><time>2026-04-18T12:11:15Z</time></trkpt><trkpt lat="45.58167056581997" lon="10.496241269565646"><ele>291.0</ele><time>2026-04-18T12:11:16Z</time></trkpt><trkpt lat="45.58155779831682" lon="10.496198959893649"><ele>294.8</ele><time>2026-04-18T12:11:17Z</time></trkpt><trkpt lat="45.581464044720114" lon="10.496177314230609"><ele>298.6</ele><time>2026-04-18T12:11:18Z</time></trkpt><trkpt lat="45.581378406680486" lon="10.496158026933209"><ele>302.4</ele><time>2026-04-18T12:11:19Z</time></trkpt><trkpt lat="45.58128075396363" lon="10.496136975156732"><ele>306.2</ele><time>2026-04-18T12:11:20Z</time></trkpt><trkpt lat="45.58118603023085" lon="10.496105603393593"><ele>310.0</ele><time>2026-04-18T12:11:21Z</time></trkpt><trkpt lat="45.581094940619046" lon="10.496067633186948"><ele>310.0</ele><time>2026-04-18T12:11:22Z</time></trkpt><trkpt lat="45.58100434294621" lon="10.49602071991151"><ele>310.0</ele><time>2026-04-18T12:11:23Z</time></trkpt><trkpt lat="45.58092393219966" lon="10.495951243047426"><ele>310.0</ele><time>2026-04-18T12:11:24Z</time></trkpt><trkpt lat="45.58084866489689" lon="10.495882640557436"><ele>310.0</ele><time>2026-04-18T12:11:25Z</time></trkpt><trkpt lat="45.580775627639206" lon="10.495816441713297"><ele>310.0</ele><time>2026-04-18T12:11:26Z</time></trkpt><trkpt lat="45.580702535333174" lon="10.495756016352823"><ele>310.0</ele><time>2026-04-18T12:11:27Z</time></trkpt><trkpt lat="45.58061609276518" lon="10.495688863940341"><ele>310.0</ele><time>2026-04-18T12:11:28Z</time></trkpt><trkpt lat="45.580528076877194" lon="10.49562336699008"><ele>310.0</ele><time>2026-04-18T12:11:29Z</time></trkpt><trkpt lat="45.58044712092359" lon="10.49556034077642"><ele>310.0</ele><time>2026-04-18T12:11:30Z</time></trkpt><trkpt lat="45.58037591399769" lon="10.49548104043139"><ele>310.0</ele><time>2026-04-18T12:11:31Z</time></trkpt><trkpt lat="45.58030714389548" lon="10.495399554731565"><ele>310.0</ele><time>2026-04-18T12:11:32Z</time></trkpt><trkpt lat="45.58023770588972" lon="10.495309572887097"><ele>310.0</ele><time>2026-04-18T12:11:33Z</time></trkpt><trkpt lat="45.58017926451994" lon="10.495228627051027"><ele>310.0</ele><time>2026-04-18T12:11:34Z</time></trkpt><trkpt lat="45.58011823794411" lon="10.495186735127218"><ele>310.0</ele><time>2026-04-18T12:11:35Z</time></trkpt><trkpt lat="45.580039668043" lon="10.495104274453826"><ele>310.0</ele><time>2026-04-18T12:11:37Z</time></trkpt><trkpt lat="45.579964566364445" lon="10.495079914285542"><ele>310.0</ele><time>2026-04-18T12:11:39Z</time></trkpt><trkpt lat="45.58000327858845" lon="10.49499959141074"><ele>310.0</ele><time>2026-04-18T12:11:40Z</time></trkpt><trkpt lat="45.58002914469248" lon="10.494876958035752"><ele>310.0</ele><time>2026-04-18T12:11:42Z</time></trkpt><trkpt lat="45.580017381361" lon="10.494769199474176"><ele>310.0</ele><time>2026-04-18T12:11:44Z</time></trkpt><trkpt lat="45.57984044636534" lon="10.494836462235845"><ele>310.0</ele><time>2026-04-18T12:11:45Z</time></trkpt><trkpt lat="45.57978750759558" lon="10.494685688722972"><ele>310.0</ele><time>2026-04-18T12:11:47Z</time></trkpt><trkpt lat="45.57975725994699" lon="10.494594333069207"><ele>310.0</ele><time>2026-04-18T12:11:48Z</time></trkpt><trkpt lat="45.57969713158037" lon="10.4943958345977"><ele>310.0</ele><time>2026-04-18T12:11:49Z</time></trkpt><trkpt lat="45.57965523479932" lon="10.494320038214434"><ele>310.0</ele><time>2026-04-18T12:11:50Z</time></trkpt><trkpt lat="45.57962967869667" lon="10.494203829128065"><ele>310.0</ele><time>2026-04-18T12:11:52Z</time></trkpt><trkpt lat="45.579584815027374" lon="10.494072092482295"><ele>312.2</ele><time>2026-04-18T12:11:55Z</time></trkpt><trkpt lat="45.57959934698646" lon="10.493963431321284"><ele>314.4</ele><time>2026-04-18T12:11:57Z</time></trkpt><trkpt lat="45.579622113878386" lon="10.493813548401738"><ele>316.6</ele><time>2026-04-18T12:11:59Z</time></trkpt><trkpt lat="45.579653827540355" lon="10.493705183131278"><ele>318.8</ele><time>2026-04-18T12:12:00Z</time></trkpt><trkpt lat="45.57971089801732" lon="10.493551517430259"><ele>321.0</ele><time>2026-04-18T12:12:02Z</time></trkpt><trkpt lat="45.579745459108196" lon="10.493458029950418"><ele>322.0</ele><time>2026-04-18T12:12:03Z</time></trkpt><trkpt lat="45.57977927261526" lon="10.493360986398766"><ele>323.0</ele><time>2026-04-18T12:12:04Z</time></trkpt><trkpt lat="45.57978989420594" lon="10.493235517841159"><ele>324.0</ele><time>2026-04-18T12:12:05Z</time></trkpt><trkpt lat="45.57980533796656" lon="10.493134150381904"><ele>325.0</ele><time>2026-04-18T12:12:06Z</time></trkpt><trkpt lat="45.579836248602575" lon="10.492982784025669"><ele>326.0</ele><time>2026-04-18T12:12:08Z</time></trkpt><trkpt lat="45.57984817057265" lon="10.49284047390845"><ele>327.0</ele><time>2026-04-18T12:12:10Z</time></trkpt><trkpt lat="45.57980956598372" lon="10.492753373284186"><ele>327.1666666666667</ele><time>2026-04-18T12:12:11Z</time></trkpt><trkpt lat="45.579767822147865" lon="10.492678929975389"><ele>327.3333333333333</ele><time>2026-04-18T12:12:12Z</time></trkpt><trkpt lat="45.57970820773168" lon="10.492609871315153"><ele>327.5</ele><time>2026-04-18T12:12:13Z</time></trkpt><trkpt lat="45.57964855669847" lon="10.492541352401158"><ele>327.66666666666663</ele><time>2026-04-18T12:12:14Z</time></trkpt><trkpt lat="45.57959971184354" lon="10.492464347550733"><ele>327.8333333333333</ele><time>2026-04-18T12:12:15Z</time></trkpt><trkpt lat="45.57954316863932" lon="10.492368055572056"><ele>328.0</ele><time>2026-04-18T12:12:16Z</time></trkpt><trkpt lat="45.57945680965404" lon="10.49225080195807"><ele>326.59999999999997</ele><time>2026-04-18T12:12:17Z</time></trkpt><trkpt lat="45.57936713357933" lon="10.492117485521485"><ele>325.2</ele><time>2026-04-18T12:12:18Z</time></trkpt><trkpt lat="45.579290290413326" lon="10.491992270533988"><ele>323.8</ele><time>2026-04-18T12:12:19Z</time></trkpt><trkpt lat="45.579230141728715" lon="10.491896991675596"><ele>322.4</ele><time>2026-04-18T12:12:20Z</time></trkpt><trkpt lat="45.579164620386656" lon="10.491804575955232"><ele>321.0</ele><time>2026-04-18T12:12:21Z</time></trkpt><trkpt lat="45.57908231439693" lon="10.49171527493228"><ele>321.0</ele><time>2026-04-18T12:12:22Z</time></trkpt><trkpt lat="45.57898689686727" lon="10.49163570206797"><ele>321.0</ele><time>2026-04-18T12:12:23Z</time></trkpt><trkpt lat="45.57890270381179" lon="10.491566289106995"><ele>321.0</ele><time>2026-04-18T12:12:24Z</time></trkpt><trkpt lat="45.578819666688375" lon="10.491489380676096"><ele>321.0</ele><time>2026-04-18T12:12:25Z</time></trkpt><trkpt lat="45.578751775683145" lon="10.491402835539882"><ele>321.0</ele><time>2026-04-18T12:12:26Z</time></trkpt><trkpt lat="45.57869501207692" lon="10.491320001290509"><ele>320.3333333333333</ele><time>2026-04-18T12:12:27Z</time></trkpt><trkpt lat="45.57862641053231" lon="10.491262280320166"><ele>319.6666666666667</ele><time>2026-04-18T12:12:28Z</time></trkpt><trkpt lat="45.578557777442654" lon="10.491231887732667"><ele>319.0</ele><time>2026-04-18T12:12:29Z</time></trkpt><trkpt lat="45.5784939042441" lon="10.491213540006848"><ele>318.33333333333337</ele><time>2026-04-18T12:12:30Z</time></trkpt><trkpt lat="45.57842623196577" lon="10.491203440001897"><ele>317.6666666666667</ele><time>2026-04-18T12:12:31Z</time></trkpt><trkpt lat="45.57836791509569" lon="10.491295722171083"><ele>317.0</ele><time>2026-04-18T12:12:32Z</time></trkpt><trkpt lat="45.57828961365477" lon="10.491309692589178"><ele>317.0</ele><time>2026-04-18T12:12:33Z</time></trkpt><trkpt lat="45.578214484727226" lon="10.491318881648143"><ele>317.0</ele><time>2026-04-18T12:12:34Z</time></trkpt><trkpt lat="45.578136273927576" lon="10.49132667425808"><ele>317.0</ele><time>2026-04-18T12:12:35Z</time></trkpt><trkpt lat="45.578024987783905" lon="10.491304003570743"><ele>317.0</ele><time>2026-04-18T12:12:36Z</time></trkpt><trkpt lat="45.57794738031935" lon="10.491255690623655"><ele>317.0</ele><time>2026-04-18T12:12:37Z</time></trkpt><trkpt lat="45.57787797849819" lon="10.491228570723917"><ele>317.0</ele><time>2026-04-18T12:12:38Z</time></trkpt><trkpt lat="45.577806819998735" lon="10.491205493440658"><ele>319.0</ele><time>2026-04-18T12:12:39Z</time></trkpt><trkpt lat="45.577735945539544" lon="10.491183845459906"><ele>321.0</ele><time>2026-04-18T12:12:40Z</time></trkpt><trkpt lat="45.57764100332708" lon="10.491161072453215"><ele>323.0</ele><time>2026-04-18T12:12:42Z</time></trkpt><trkpt lat="45.57755853298437" lon="10.491151499204184"><ele>325.0</ele><time>2026-04-18T12:12:44Z</time></trkpt><trkpt lat="45.577488189288" lon="10.491160473208472"><ele>327.0</ele><time>2026-04-18T12:12:46Z</time></trkpt><trkpt lat="45.57735216575652" lon="10.491171071393055"><ele>327.0</ele><time>2026-04-18T12:12:47Z</time></trkpt><trkpt lat="45.577269109745515" lon="10.491091796667412"><ele>327.0</ele><time>2026-04-18T12:12:48Z</time></trkpt><trkpt lat="45.577140328231" lon="10.491008205480535"><ele>327.0</ele><time>2026-04-18T12:12:50Z</time></trkpt><trkpt lat="45.57705633233539" lon="10.490959307654007"><ele>327.0</ele><time>2026-04-18T12:12:51Z</time></trkpt><trkpt lat="45.57697023039845" lon="10.490922582285766"><ele>327.0</ele><time>2026-04-18T12:12:52Z</time></trkpt><trkpt lat="45.576835240684886" lon="10.49089757384929"><ele>326.0</ele><time>2026-04-18T12:12:53Z</time></trkpt><trkpt lat="45.576750509528125" lon="10.490844016501224"><ele>325.0</ele><time>2026-04-18T12:12:54Z</time></trkpt><trkpt lat="45.57667791707501" lon="10.4908085144348"><ele>324.0</ele><time>2026-04-18T12:12:55Z</time></trkpt><trkpt lat="45.57656312174102" lon="10.490755601868809"><ele>323.0</ele><time>2026-04-18T12:12:57Z</time></trkpt><trkpt lat="45.57649661279979" lon="10.490692037690815"><ele>322.0</ele><time>2026-04-18T12:12:58Z</time></trkpt><trkpt lat="45.57645774428565" lon="10.4905790118808"><ele>322.0</ele><time>2026-04-18T12:12:59Z</time></trkpt><trkpt lat="45.576426124006254" lon="10.490452340170565"><ele>322.0</ele><time>2026-04-18T12:13:00Z</time></trkpt><trkpt lat="45.57639963128405" lon="10.490321343934454"><ele>322.0</ele><time>2026-04-18T12:13:01Z</time></trkpt><trkpt lat="45.57637824185964" lon="10.490179324132344"><ele>322.0</ele><time>2026-04-18T12:13:02Z</time></trkpt><trkpt lat="45.57637650256671" lon="10.490030631063835"><ele>322.0</ele><time>2026-04-18T12:13:03Z</time></trkpt><trkpt lat="45.57636864528341" lon="10.489883622008485"><ele>322.0</ele><time>2026-04-18T12:13:04Z</time></trkpt><trkpt lat="45.57635086652078" lon="10.489738279854862"><ele>322.0</ele><time>2026-04-18T12:13:05Z</time></trkpt><trkpt lat="45.576344982164315" lon="10.48957463650137"><ele>322.0</ele><time>2026-04-18T12:13:06Z</time></trkpt><trkpt lat="45.57628972081368" lon="10.48943846550992"><ele>322.0</ele><time>2026-04-18T12:13:07Z</time></trkpt><trkpt lat="45.576225319754826" lon="10.4893177365284"><ele>322.0</ele><time>2026-04-18T12:13:08Z</time></trkpt><trkpt lat="45.57615835748548" lon="10.4892022090844"><ele>321.66666666666663</ele><time>2026-04-18T12:13:09Z</time></trkpt><trkpt lat="45.57609319201415" lon="10.489093786963528"><ele>321.3333333333333</ele><time>2026-04-18T12:13:10Z</time></trkpt><trkpt lat="45.576034825608396" lon="10.488996675853466"><ele>321.0</ele><time>2026-04-18T12:13:11Z</time></trkpt><trkpt lat="45.57598621420486" lon="10.48891579536021"><ele>320.6666666666667</ele><time>2026-04-18T12:13:12Z</time></trkpt><trkpt lat="45.575941865289415" lon="10.48884200645802"><ele>320.33333333333337</ele><time>2026-04-18T12:13:13Z</time></trkpt><trkpt lat="45.57593736565675" lon="10.488734433161058"><ele>320.0</ele><time>2026-04-18T12:13:15Z</time></trkpt><trkpt lat="45.57599939556806" lon="10.488706165959675"><ele>320.0</ele><time>2026-04-18T12:13:15.999Z</time></trkpt><trkpt lat="45.576081689417805" lon="10.488665814391835"><ele>320.0</ele><time>2026-04-18T12:13:16.999Z</time></trkpt><trkpt lat="45.57617592103158" lon="10.488609065713847"><ele>320.0</ele><time>2026-04-18T12:13:17.999Z</time></trkpt><trkpt lat="45.57627478263088" lon="10.488550029257564"><ele>320.0</ele><time>2026-04-18T12:13:18.999Z</time></trkpt><trkpt lat="45.576376178146546" lon="10.488483752897844"><ele>320.0</ele><time>2026-04-18T12:13:19.999Z</time></trkpt><trkpt lat="45.57648375682797" lon="10.488424895156237"><ele>320.6666666666667</ele><time>2026-04-18T12:13:20.999Z</time></trkpt><trkpt lat="45.576587750093985" lon="10.488371888707391"><ele>321.33333333333337</ele><time>2026-04-18T12:13:21.999Z</time></trkpt><trkpt lat="45.57667538058416" lon="10.488324143740536"><ele>322.0</ele><time>2026-04-18T12:13:22.999Z</time></trkpt><trkpt lat="45.57674567982233" lon="10.488276523052077"><ele>322.6666666666667</ele><time>2026-04-18T12:13:23.999Z</time></trkpt><trkpt lat="45.576807240029574" lon="10.488233685274192"><ele>323.3333333333333</ele><time>2026-04-18T12:13:24.999Z</time></trkpt><trkpt lat="45.57687050081455" lon="10.488204623700739"><ele>324.0</ele><time>2026-04-18T12:13:25.999Z</time></trkpt><trkpt lat="45.576936273709066" lon="10.488203832358746"><ele>324.0</ele><time>2026-04-18T12:13:26.999Z</time></trkpt><trkpt lat="45.57705424070615" lon="10.48821403570322"><ele>324.0</ele><time>2026-04-18T12:13:28.999Z</time></trkpt><trkpt lat="45.57711790096939" lon="10.488205286717402"><ele>324.0</ele><time>2026-04-18T12:13:29.999Z</time></trkpt><trkpt lat="45.57718979293616" lon="10.48814726281076"><ele>324.0</ele><time>2026-04-18T12:13:31.999Z</time></trkpt><trkpt lat="45.57719783060816" lon="10.488044641862874"><ele>324.0</ele><time>2026-04-18T12:13:36.999Z</time></trkpt><trkpt lat="45.577204716804445" lon="10.487920602026074"><ele>324.0</ele><time>2026-04-18T12:13:38.999Z</time></trkpt><trkpt lat="45.57719275607188" lon="10.487777309143262"><ele>322.6666666666667</ele><time>2026-04-18T12:13:40.999Z</time></trkpt><trkpt lat="45.577184394057404" lon="10.487611131395425"><ele>321.3333333333333</ele><time>2026-04-18T12:13:42.999Z</time></trkpt><trkpt lat="45.577221679782106" lon="10.487516378874275"><ele>320.0</ele><time>2026-04-18T12:13:44.999Z</time></trkpt><trkpt lat="45.57727079192498" lon="10.487428116050037"><ele>318.66666666666663</ele><time>2026-04-18T12:13:46.999Z</time></trkpt><trkpt lat="45.577295105498706" lon="10.487338136286805"><ele>317.3333333333333</ele><time>2026-04-18T12:13:47.999Z</time></trkpt><trkpt lat="45.57729798282525" lon="10.487235275311512"><ele>316.0</ele><time>2026-04-18T12:13:48.999Z</time></trkpt><trkpt lat="45.57730214780734" lon="10.487145487043149"><ele>315.0</ele><time>2026-04-18T12:13:49.999Z</time></trkpt><trkpt lat="45.577317521050844" lon="10.487027642052619"><ele>314.0</ele><time>2026-04-18T12:13:50.999Z</time></trkpt><trkpt lat="45.577325933091785" lon="10.486936169631386"><ele>313.0</ele><time>2026-04-18T12:13:51.999Z</time></trkpt><trkpt lat="45.577328403881076" lon="10.486796687069958"><ele>312.0</ele><time>2026-04-18T12:13:53.999Z</time></trkpt><trkpt lat="45.57725914050927" lon="10.486707244260058"><ele>311.0</ele><time>2026-04-18T12:13:55.999Z</time></trkpt><trkpt lat="45.577202706253495" lon="10.486656991445866"><ele>310.0</ele><time>2026-04-18T12:13:56.999Z</time></trkpt><trkpt lat="45.57715578649268" lon="10.486584035219973"><ele>310.0</ele><time>2026-04-18T12:13:57.999Z</time></trkpt><trkpt lat="45.57711486348293" lon="10.48648532529356"><ele>310.0</ele><time>2026-04-18T12:13:59.999Z</time></trkpt><trkpt lat="45.57703292067414" lon="10.486409718463578"><ele>310.0</ele><time>2026-04-18T12:14:03Z</time></trkpt><trkpt lat="45.57695410866398" lon="10.486440338842412"><ele>310.0</ele><time>2026-04-18T12:14:05Z</time></trkpt><trkpt lat="45.576843067818274" lon="10.486537612230647"><ele>310.0</ele><time>2026-04-18T12:14:07Z</time></trkpt><trkpt lat="45.57678105715896" lon="10.486592178979787"><ele>310.8333333333333</ele><time>2026-04-18T12:14:08Z</time></trkpt><trkpt lat="45.57670988670858" lon="10.486642402563934"><ele>311.66666666666663</ele><time>2026-04-18T12:14:09Z</time></trkpt><trkpt lat="45.576610918106525" lon="10.486642306327862"><ele>312.5</ele><time>2026-04-18T12:14:11Z</time></trkpt><trkpt lat="45.576519521230594" lon="10.48663903459967"><ele>313.3333333333333</ele><time>2026-04-18T12:14:14Z</time></trkpt><trkpt lat="45.57645802315974" lon="10.48667146555845"><ele>314.1666666666667</ele><time>2026-04-18T12:14:16Z</time></trkpt><trkpt lat="45.5763899351106" lon="10.486720908038352"><ele>315.0</ele><time>2026-04-18T12:14:18Z</time></trkpt><trkpt lat="45.57632033530286" lon="10.486823161454241"><ele>315.0</ele><time>2026-04-18T12:14:20Z</time></trkpt><trkpt lat="45.57625470549345" lon="10.486928022096228"><ele>315.0</ele><time>2026-04-18T12:14:22Z</time></trkpt><trkpt lat="45.57618273878847" lon="10.487060442251169"><ele>315.0</ele><time>2026-04-18T12:14:24Z</time></trkpt><trkpt lat="45.57614449664606" lon="10.48714163890952"><ele>315.0</ele><time>2026-04-18T12:14:25Z</time></trkpt><trkpt lat="45.576061100053785" lon="10.487230728395485"><ele>315.0</ele><time>2026-04-18T12:14:27Z</time></trkpt><trkpt lat="45.57601381588886" lon="10.487340815172713"><ele>315.5</ele><time>2026-04-18T12:14:29Z</time></trkpt><trkpt lat="45.575947540270214" lon="10.487366080794038"><ele>316.0</ele><time>2026-04-18T12:14:31Z</time></trkpt><trkpt lat="45.575879773840555" lon="10.487410826707213"><ele>316.5</ele><time>2026-04-18T12:14:33Z</time></trkpt><trkpt lat="45.57579383331988" lon="10.48746148983846"><ele>317.0</ele><time>2026-04-18T12:14:35Z</time></trkpt><trkpt lat="45.575698298306456" lon="10.487464341724541"><ele>317.5</ele><time>2026-04-18T12:14:37Z</time></trkpt><trkpt lat="45.57562549211777" lon="10.487469738847706"><ele>318.0</ele><time>2026-04-18T12:14:41Z</time></trkpt><trkpt lat="45.57556394736384" lon="10.487520038275065"><ele>318.0</ele><time>2026-04-18T12:14:46Z</time></trkpt><trkpt lat="45.57554332713412" lon="10.487694909749504"><ele>318.0</ele><time>2026-04-18T12:14:48Z</time></trkpt><trkpt lat="45.5755350614636" lon="10.487816803961154"><ele>318.0</ele><time>2026-04-18T12:14:49Z</time></trkpt><trkpt lat="45.575528641385986" lon="10.487936665388574"><ele>318.0</ele><time>2026-04-18T12:14:50Z</time></trkpt><trkpt lat="45.575533402874164" lon="10.488053077780865"><ele>318.0</ele><time>2026-04-18T12:14:51Z</time></trkpt><trkpt lat="45.575556223832116" lon="10.488181706321063"><ele>318.3333333333333</ele><time>2026-04-18T12:14:52Z</time></trkpt><trkpt lat="45.57556198411877" lon="10.488309543875427"><ele>318.6666666666667</ele><time>2026-04-18T12:14:53Z</time></trkpt><trkpt lat="45.57555167614338" lon="10.488418484037531"><ele>319.0</ele><time>2026-04-18T12:14:54Z</time></trkpt><trkpt lat="45.57552395797921" lon="10.48852120562344"><ele>319.33333333333337</ele><time>2026-04-18T12:14:55Z</time></trkpt><trkpt lat="45.57547871861517" lon="10.488610780779844"><ele>319.6666666666667</ele><time>2026-04-18T12:14:56Z</time></trkpt><trkpt lat="45.57541190346488" lon="10.488680367363912"><ele>320.0</ele><time>2026-04-18T12:14:57Z</time></trkpt><trkpt lat="45.57532511403426" lon="10.48872748401649"><ele>319.6666666666667</ele><time>2026-04-18T12:14:58Z</time></trkpt><trkpt lat="45.5752391706814" lon="10.488780088897983"><ele>319.33333333333337</ele><time>2026-04-18T12:14:59Z</time></trkpt><trkpt lat="45.57516834038236" lon="10.488828222944539"><ele>319.0</ele><time>2026-04-18T12:15:00Z</time></trkpt><trkpt lat="45.575100610076866" lon="10.488881251919565"><ele>318.6666666666667</ele><time>2026-04-18T12:15:01Z</time></trkpt><trkpt lat="45.57502414697461" lon="10.488946853723752"><ele>318.3333333333333</ele><time>2026-04-18T12:15:02Z</time></trkpt><trkpt lat="45.57494601096892" lon="10.489020016197886"><ele>318.0</ele><time>2026-04-18T12:15:03Z</time></trkpt><trkpt lat="45.57488271441435" lon="10.489095858066378"><ele>318.0</ele><time>2026-04-18T12:15:04Z</time></trkpt><trkpt lat="45.57483517822764" lon="10.48919393918238"><ele>318.0</ele><time>2026-04-18T12:15:05Z</time></trkpt><trkpt lat="45.57478757845208" lon="10.489282097904018"><ele>318.0</ele><time>2026-04-18T12:15:06Z</time></trkpt><trkpt lat="45.574730932909176" lon="10.489350477438853"><ele>318.0</ele><time>2026-04-18T12:15:07Z</time></trkpt><trkpt lat="45.57465279726658" lon="10.489384185166125"><ele>318.0</ele><time>2026-04-18T12:15:08Z</time></trkpt><trkpt lat="45.574599310255984" lon="10.489459693690199"><ele>318.0</ele><time>2026-04-18T12:15:09Z</time></trkpt><trkpt lat="45.57454149836979" lon="10.489513254647717"><ele>317.3333333333333</ele><time>2026-04-18T12:15:10Z</time></trkpt><trkpt lat="45.57448532349045" lon="10.48955834806566"><ele>316.6666666666667</ele><time>2026-04-18T12:15:11Z</time></trkpt><trkpt lat="45.574414437827414" lon="10.489601297485125"><ele>316.0</ele><time>2026-04-18T12:15:13Z</time></trkpt><trkpt lat="45.57433708861569" lon="10.489526442631572"><ele>315.33333333333337</ele><time>2026-04-18T12:15:14Z</time></trkpt><trkpt lat="45.574272712239754" lon="10.489505579003334"><ele>314.6666666666667</ele><time>2026-04-18T12:15:15Z</time></trkpt><trkpt lat="45.57418948987666" lon="10.489489024321825"><ele>314.0</ele><time>2026-04-18T12:15:16Z</time></trkpt><trkpt lat="45.57408235408054" lon="10.489452331793316"><ele>315.75</ele><time>2026-04-18T12:15:17Z</time></trkpt><trkpt lat="45.573973090799214" lon="10.489424814379454"><ele>317.5</ele><time>2026-04-18T12:15:18Z</time></trkpt><trkpt lat="45.573865764297615" lon="10.48938578353003"><ele>319.25</ele><time>2026-04-18T12:15:19Z</time></trkpt><trkpt lat="45.57374456249527" lon="10.489336676421129"><ele>321.0</ele><time>2026-04-18T12:15:20Z</time></trkpt><trkpt lat="45.573629684911616" lon="10.4892851809264"><ele>321.0</ele><time>2026-04-18T12:15:21Z</time></trkpt><trkpt lat="45.57353646799301" lon="10.489231052335512"><ele>321.0</ele><time>2026-04-18T12:15:22Z</time></trkpt><trkpt lat="45.57344420662413" lon="10.489175688060769"><ele>321.0</ele><time>2026-04-18T12:15:23Z</time></trkpt><trkpt lat="45.57335633170705" lon="10.489133334293797"><ele>321.0</ele><time>2026-04-18T12:15:24Z</time></trkpt><trkpt lat="45.57325265637394" lon="10.489139934359695"><ele>321.0</ele><time>2026-04-18T12:15:25Z</time></trkpt><trkpt lat="45.573140956083826" lon="10.489186312354976"><ele>321.0</ele><time>2026-04-18T12:15:26Z</time></trkpt><trkpt lat="45.573044043583316" lon="10.489215788997098"><ele>321.0</ele><time>2026-04-18T12:15:27Z</time></trkpt><trkpt lat="45.572950047529616" lon="10.489277185687868"><ele>321.0</ele><time>2026-04-18T12:15:28Z</time></trkpt><trkpt lat="45.57288279133298" lon="10.489372479470648"><ele>321.0</ele><time>2026-04-18T12:15:29Z</time></trkpt><trkpt lat="45.57281952145484" lon="10.489442300372597"><ele>321.0</ele><time>2026-04-18T12:15:30Z</time></trkpt><trkpt lat="45.572752822737435" lon="10.489488508468806"><ele>319.8</ele><time>2026-04-18T12:15:31Z</time></trkpt><trkpt lat="45.57267401471875" lon="10.489541164852252"><ele>318.6</ele><time>2026-04-18T12:15:32Z</time></trkpt><trkpt lat="45.572590792251006" lon="10.489582515736583"><ele>317.4</ele><time>2026-04-18T12:15:33Z</time></trkpt><trkpt lat="45.572508775959975" lon="10.489629656737531"><ele>316.2</ele><time>2026-04-18T12:15:34Z</time></trkpt><trkpt lat="45.572437072812626" lon="10.489733112887093"><ele>315.0</ele><time>2026-04-18T12:15:35Z</time></trkpt><trkpt lat="45.572370964579655" lon="10.489841811159188"><ele>315.0</ele><time>2026-04-18T12:15:36Z</time></trkpt><trkpt lat="45.57232412407413" lon="10.489920423557635"><ele>315.0</ele><time>2026-04-18T12:15:37Z</time></trkpt><trkpt lat="45.572283662214666" lon="10.49001036281167"><ele>315.0</ele><time>2026-04-18T12:15:38Z</time></trkpt><trkpt lat="45.572249973652404" lon="10.490104301951405"><ele>315.0</ele><time>2026-04-18T12:15:39Z</time></trkpt><trkpt lat="45.57221828421221" lon="10.490186970071765"><ele>315.0</ele><time>2026-04-18T12:15:40Z</time></trkpt><trkpt lat="45.57214988532825" lon="10.49027179240971"><ele>315.0</ele><time>2026-04-18T12:15:42Z</time></trkpt><trkpt lat="45.57209900852627" lon="10.490333363410928"><ele>315.0</ele><time>2026-04-18T12:15:51Z</time></trkpt><trkpt lat="45.57204642808723" lon="10.490389209154682"><ele>314.6666666666667</ele><time>2026-04-18T12:16:09Z</time></trkpt><trkpt lat="45.57200632528301" lon="10.49029721658023"><ele>314.3333333333333</ele><time>2026-04-18T12:16:12Z</time></trkpt><trkpt lat="45.571947785021656" lon="10.49017394155433"><ele>314.0</ele><time>2026-04-18T12:16:14Z</time></trkpt><trkpt lat="45.57190712130869" lon="10.490091954070897"><ele>313.66666666666663</ele><time>2026-04-18T12:16:15Z</time></trkpt><trkpt lat="45.5718639059641" lon="10.489995369840539"><ele>313.3333333333333</ele><time>2026-04-18T12:16:16Z</time></trkpt><trkpt lat="45.57180776744628" lon="10.48988164507961"><ele>313.0</ele><time>2026-04-18T12:16:17Z</time></trkpt><trkpt lat="45.571740305418594" lon="10.48977248348378"><ele>313.0</ele><time>2026-04-18T12:16:18Z</time></trkpt><trkpt lat="45.57169623909596" lon="10.48968893489384"><ele>313.0</ele><time>2026-04-18T12:16:19Z</time></trkpt><trkpt lat="45.57165420817623" lon="10.489580046486562"><ele>313.0</ele><time>2026-04-18T12:16:20Z</time></trkpt><trkpt lat="45.571607603958455" lon="10.48948435329397"><ele>313.0</ele><time>2026-04-18T12:16:21Z</time></trkpt><trkpt lat="45.57152859430407" lon="10.489365244933397"><ele>313.0</ele><time>2026-04-18T12:16:23Z</time></trkpt><trkpt lat="45.57148724291444" lon="10.489288170169223"><ele>313.0</ele><time>2026-04-18T12:16:24Z</time></trkpt><trkpt lat="45.57144228653097" lon="10.489201571783957"><ele>314.8</ele><time>2026-04-18T12:16:25Z</time></trkpt><trkpt lat="45.57139333366065" lon="10.489122184731741"><ele>316.6</ele><time>2026-04-18T12:16:26Z</time></trkpt><trkpt lat="45.571306994282125" lon="10.489015716287696"><ele>318.40000000000003</ele><time>2026-04-18T12:16:28Z</time></trkpt><trkpt lat="45.571200292347" lon="10.488945663073697"><ele>320.20000000000005</ele><time>2026-04-18T12:16:30Z</time></trkpt><trkpt lat="45.57113790117098" lon="10.488904729813473"><ele>322.0</ele><time>2026-04-18T12:16:31Z</time></trkpt><trkpt lat="45.57100625021681" lon="10.48883481215556"><ele>322.0</ele><time>2026-04-18T12:16:33Z</time></trkpt><trkpt lat="45.57093360820244" lon="10.488796576059087"><ele>322.0</ele><time>2026-04-18T12:16:34Z</time></trkpt><trkpt lat="45.57087082275457" lon="10.488756073548126"><ele>322.0</ele><time>2026-04-18T12:16:35Z</time></trkpt><trkpt lat="45.57078292289691" lon="10.488698430356914"><ele>322.0</ele><time>2026-04-18T12:16:37Z</time></trkpt><trkpt lat="45.57066873519848" lon="10.488645561371145"><ele>322.0</ele><time>2026-04-18T12:16:39Z</time></trkpt><trkpt lat="45.57060468547922" lon="10.488637660294227"><ele>322.0</ele><time>2026-04-18T12:16:40Z</time></trkpt><trkpt lat="45.57054341450712" lon="10.488615685337122"><ele>322.0</ele><time>2026-04-18T12:16:41Z</time></trkpt><trkpt lat="45.570486200511915" lon="10.488568171852961"><ele>322.0</ele><time>2026-04-18T12:16:42Z</time></trkpt><trkpt lat="45.57043329101756" lon="10.488514996463667"><ele>322.0</ele><time>2026-04-18T12:16:43Z</time></trkpt><trkpt lat="45.57037697513694" lon="10.48845598629935"><ele>322.0</ele><time>2026-04-18T12:16:44Z</time></trkpt><trkpt lat="45.57032170142221" lon="10.488406511453897"><ele>322.0</ele><time>2026-04-18T12:16:45Z</time></trkpt><trkpt lat="45.570259406058" lon="10.488341625898201"><ele>322.0</ele><time>2026-04-18T12:16:47Z</time></trkpt><trkpt lat="45.57020684431745" lon="10.48825407233697"><ele>322.0</ele><time>2026-04-18T12:16:49Z</time></trkpt><trkpt lat="45.57014422309204" lon="10.488164388252287"><ele>322.0</ele><time>2026-04-18T12:16:51Z</time></trkpt><trkpt lat="45.57012071286004" lon="10.488080411094405"><ele>322.0</ele><time>2026-04-18T12:16:52Z</time></trkpt><trkpt lat="45.57006452425684" lon="10.487921578126318"><ele>322.0</ele><time>2026-04-18T12:16:54Z</time></trkpt><trkpt lat="45.570027609243525" lon="10.487845296134397"><ele>322.0</ele><time>2026-04-18T12:16:55Z</time></trkpt><trkpt lat="45.56997880103171" lon="10.487777421734833"><ele>322.0</ele><time>2026-04-18T12:16:56Z</time></trkpt><trkpt lat="45.56991228017045" lon="10.487718103490645"><ele>322.0</ele><time>2026-04-18T12:16:57Z</time></trkpt><trkpt lat="45.569808941897016" lon="10.487672224038612"><ele>322.0</ele><time>2026-04-18T12:16:59Z</time></trkpt><trkpt lat="45.56974598227293" lon="10.487639836230732"><ele>322.0</ele><time>2026-04-18T12:17:00Z</time></trkpt><trkpt lat="45.569634184308946" lon="10.48754890734089"><ele>322.0</ele><time>2026-04-18T12:17:02Z</time></trkpt><trkpt lat="45.569523766306254" lon="10.487497839045984"><ele>322.0</ele><time>2026-04-18T12:17:04Z</time></trkpt><trkpt lat="45.56945223406486" lon="10.487464287896913"><ele>322.0</ele><time>2026-04-18T12:17:08Z</time></trkpt><trkpt lat="45.56940197091375" lon="10.487547854045307"><ele>322.0</ele><time>2026-04-18T12:17:13Z</time></trkpt><trkpt lat="45.56937023819062" lon="10.487677293523449"><ele>322.0</ele><time>2026-04-18T12:17:16Z</time></trkpt><trkpt lat="45.56936935703963" lon="10.487799097078701"><ele>322.0</ele><time>2026-04-18T12:17:18Z</time></trkpt><trkpt lat="45.56937135609674" lon="10.48789567284636"><ele>322.0</ele><time>2026-04-18T12:17:20Z</time></trkpt><trkpt lat="45.569371310631055" lon="10.488009053540349"><ele>322.0</ele><time>2026-04-18T12:17:25Z</time></trkpt><trkpt lat="45.56931490789675" lon="10.488079934651513"><ele>322.0</ele><time>2026-04-18T12:17:48Z</time></trkpt><trkpt lat="45.56925426545975" lon="10.488055662648465"><ele>320.66666666666663</ele><time>2026-04-18T12:17:50Z</time></trkpt><trkpt lat="45.569174872278445" lon="10.488035050285175"><ele>319.3333333333333</ele><time>2026-04-18T12:17:52Z</time></trkpt><trkpt lat="45.56909198959551" lon="10.488015830498771"><ele>318.0</ele><time>2026-04-18T12:17:54Z</time></trkpt><trkpt lat="45.569008839699784" lon="10.488008323873041"><ele>316.6666666666667</ele><time>2026-04-18T12:17:58Z</time></trkpt><trkpt lat="45.5689439628269" lon="10.487999786148286"><ele>315.33333333333337</ele><time>2026-04-18T12:18:01Z</time></trkpt><trkpt lat="45.568879196750785" lon="10.488046098889495"><ele>314.0</ele><time>2026-04-18T12:18:03Z</time></trkpt><trkpt lat="45.56879778360537" lon="10.488115215819422"><ele>314.0</ele><time>2026-04-18T12:18:05Z</time></trkpt><trkpt lat="45.56872556444531" lon="10.488173086759643"><ele>314.0</ele><time>2026-04-18T12:18:07Z</time></trkpt><trkpt lat="45.568643728574685" lon="10.488251880780894"><ele>314.0</ele><time>2026-04-18T12:18:09Z</time></trkpt><trkpt lat="45.56854745328286" lon="10.488329178895992"><ele>314.0</ele><time>2026-04-18T12:18:11Z</time></trkpt><trkpt lat="45.568470460832884" lon="10.48837879179216"><ele>314.0</ele><time>2026-04-18T12:18:13Z</time></trkpt><trkpt lat="45.56840039888113" lon="10.488424883046484"><ele>313.0</ele><time>2026-04-18T12:18:15Z</time></trkpt><trkpt lat="45.56831630029552" lon="10.488448507899898"><ele>312.0</ele><time>2026-04-18T12:18:18Z</time></trkpt><trkpt lat="45.568250280542195" lon="10.48853376728772"><ele>311.0</ele><time>2026-04-18T12:18:20Z</time></trkpt><trkpt lat="45.56822045355051" lon="10.488631224635593"><ele>310.0</ele><time>2026-04-18T12:18:21Z</time></trkpt><trkpt lat="45.56819067896486" lon="10.488728140771837"><ele>309.0</ele><time>2026-04-18T12:18:22Z</time></trkpt><trkpt lat="45.56815849021511" lon="10.488809390672143"><ele>308.0</ele><time>2026-04-18T12:18:23Z</time></trkpt><trkpt lat="45.568080490085364" lon="10.488925420690988"><ele>308.0</ele><time>2026-04-18T12:18:25Z</time></trkpt><trkpt lat="45.56797050485192" lon="10.488956862572708"><ele>308.0</ele><time>2026-04-18T12:18:27Z</time></trkpt><trkpt lat="45.56788179774886" lon="10.488975373496523"><ele>308.0</ele><time>2026-04-18T12:18:29Z</time></trkpt><trkpt lat="45.56779168118168" lon="10.489052195774995"><ele>308.0</ele><time>2026-04-18T12:18:31Z</time></trkpt><trkpt lat="45.56773409301751" lon="10.48913323565958"><ele>308.0</ele><time>2026-04-18T12:18:33Z</time></trkpt><trkpt lat="45.56768312441778" lon="10.489233656479414"><ele>307.0</ele><time>2026-04-18T12:18:35Z</time></trkpt><trkpt lat="45.567633625864765" lon="10.489338785866934"><ele>306.0</ele><time>2026-04-18T12:18:37Z</time></trkpt><trkpt lat="45.5675812043114" lon="10.489470959003329"><ele>305.0</ele><time>2026-04-18T12:18:39Z</time></trkpt><trkpt lat="45.567557101959885" lon="10.489557337407494"><ele>304.0</ele><time>2026-04-18T12:18:40Z</time></trkpt><trkpt lat="45.567539066499236" lon="10.489650156843787"><ele>303.0</ele><time>2026-04-18T12:18:41Z</time></trkpt><trkpt lat="45.56751685291854" lon="10.489821479194456"><ele>303.0</ele><time>2026-04-18T12:18:43Z</time></trkpt><trkpt lat="45.56751473914309" lon="10.489997843952905"><ele>303.0</ele><time>2026-04-18T12:18:45Z</time></trkpt><trkpt lat="45.56753099880074" lon="10.490144367320095"><ele>303.0</ele><time>2026-04-18T12:18:47Z</time></trkpt><trkpt lat="45.56755071618847" lon="10.490267344198617"><ele>303.0</ele><time>2026-04-18T12:18:49Z</time></trkpt><trkpt lat="45.56756181060117" lon="10.49041570740438"><ele>303.0</ele><time>2026-04-18T12:18:51Z</time></trkpt><trkpt lat="45.567588259368314" lon="10.490589998830963"><ele>301.8</ele><time>2026-04-18T12:18:53Z</time></trkpt><trkpt lat="45.56760931557228" lon="10.490755857338968"><ele>300.6</ele><time>2026-04-18T12:18:55Z</time></trkpt><trkpt lat="45.567608072563274" lon="10.490890961685649"><ele>299.4</ele><time>2026-04-18T12:18:57Z</time></trkpt><trkpt lat="45.56759844975256" lon="10.491002080509318"><ele>298.2</ele><time>2026-04-18T12:18:59Z</time></trkpt><trkpt lat="45.56756517102908" lon="10.491127345392218"><ele>297.0</ele><time>2026-04-18T12:19:01Z</time></trkpt><trkpt lat="45.567503153737015" lon="10.491206149248878"><ele>297.0</ele><time>2026-04-18T12:19:03Z</time></trkpt><trkpt lat="45.56739052142126" lon="10.491202680462605"><ele>297.0</ele><time>2026-04-18T12:19:05Z</time></trkpt><trkpt lat="45.56732079615905" lon="10.491190706267913"><ele>297.0</ele><time>2026-04-18T12:19:06Z</time></trkpt><trkpt lat="45.56721416951769" lon="10.491208189667004"><ele>297.0</ele><time>2026-04-18T12:19:07Z</time></trkpt><trkpt lat="45.5671139728203" lon="10.491218912607199"><ele>297.0</ele><time>2026-04-18T12:19:08Z</time></trkpt><trkpt lat="45.567018831422224" lon="10.491223654504516"><ele>296.5</ele><time>2026-04-18T12:19:09Z</time></trkpt><trkpt lat="45.56693054099214" lon="10.491205667906858"><ele>296.0</ele><time>2026-04-18T12:19:10Z</time></trkpt><trkpt lat="45.56684505399855" lon="10.49118074824739"><ele>295.5</ele><time>2026-04-18T12:19:11Z</time></trkpt><trkpt lat="45.56674845071211" lon="10.491148080006418"><ele>295.0</ele><time>2026-04-18T12:19:12Z</time></trkpt><trkpt lat="45.56667334244983" lon="10.49112138795132"><ele>294.5</ele><time>2026-04-18T12:19:13Z</time></trkpt><trkpt lat="45.56660920081932" lon="10.491078229255523"><ele>294.0</ele><time>2026-04-18T12:19:14Z</time></trkpt><trkpt lat="45.56654950900618" lon="10.491039616431008"><ele>294.0</ele><time>2026-04-18T12:19:15Z</time></trkpt><trkpt lat="45.56646328993053" lon="10.490977505087969"><ele>294.0</ele><time>2026-04-18T12:19:17Z</time></trkpt><trkpt lat="45.56641202560272" lon="10.49085685840985"><ele>294.0</ele><time>2026-04-18T12:19:37Z</time></trkpt><trkpt lat="45.566391009361745" lon="10.490734916754418"><ele>294.0</ele><time>2026-04-18T12:19:38Z</time></trkpt><trkpt lat="45.56634996203734" lon="10.490632931050952"><ele>294.0</ele><time>2026-04-18T12:19:39Z</time></trkpt><trkpt lat="45.566303888092534" lon="10.490505514905895"><ele>293.75</ele><time>2026-04-18T12:19:40Z</time></trkpt><trkpt lat="45.5662485011468" lon="10.490337841307724"><ele>293.5</ele><time>2026-04-18T12:19:41Z</time></trkpt><trkpt lat="45.56619203152447" lon="10.490178812216426"><ele>293.25</ele><time>2026-04-18T12:19:42Z</time></trkpt><trkpt lat="45.56612144133979" lon="10.489988261211636"><ele>293.0</ele><time>2026-04-18T12:19:43Z</time></trkpt><trkpt lat="45.566040645441795" lon="10.489831724226692"><ele>293.0</ele><time>2026-04-18T12:19:44Z</time></trkpt><trkpt lat="45.56594811186488" lon="10.489649660641726"><ele>293.0</ele><time>2026-04-18T12:19:45Z</time></trkpt><trkpt lat="45.56585075652772" lon="10.489466875990551"><ele>293.0</ele><time>2026-04-18T12:19:46Z</time></trkpt><trkpt lat="45.565766826030185" lon="10.489304648571794"><ele>292.4</ele><time>2026-04-18T12:19:47Z</time></trkpt><trkpt lat="45.56566304433184" lon="10.489156996634826"><ele>291.8</ele><time>2026-04-18T12:19:48Z</time></trkpt><trkpt lat="45.56557453011964" lon="10.489051413442395"><ele>291.2</ele><time>2026-04-18T12:19:49Z</time></trkpt><trkpt lat="45.56551542849173" lon="10.48896035290618"><ele>290.6</ele><time>2026-04-18T12:19:50Z</time></trkpt><trkpt lat="45.56548617002657" lon="10.488872473067659"><ele>290.0</ele><time>2026-04-18T12:19:51Z</time></trkpt><trkpt lat="45.56545295662819" lon="10.488709790802316"><ele>289.75</ele><time>2026-04-18T12:19:52Z</time></trkpt><trkpt lat="45.565423151618766" lon="10.488511617911913"><ele>289.5</ele><time>2026-04-18T12:19:53Z</time></trkpt><trkpt lat="45.56537042785056" lon="10.488326825654628"><ele>289.25</ele><time>2026-04-18T12:19:54Z</time></trkpt><trkpt lat="45.5653062523706" lon="10.488140788531881"><ele>289.0</ele><time>2026-04-18T12:19:55Z</time></trkpt><trkpt lat="45.56525442122174" lon="10.487982542051673"><ele>289.2</ele><time>2026-04-18T12:19:56Z</time></trkpt><trkpt lat="45.565234095649956" lon="10.487843142765033"><ele>289.4</ele><time>2026-04-18T12:19:57Z</time></trkpt><trkpt lat="45.5652107047934" lon="10.487745855088924"><ele>289.6</ele><time>2026-04-18T12:19:58Z</time></trkpt><trkpt lat="45.56509757092583" lon="10.487676040210525"><ele>289.8</ele><time>2026-04-18T12:20:00Z</time></trkpt><trkpt lat="45.564994932093484" lon="10.487609068562604"><ele>290.0</ele><time>2026-04-18T12:20:02Z</time></trkpt><trkpt lat="45.564935949468534" lon="10.487429533413898"><ele>290.0</ele><time>2026-04-18T12:20:04Z</time></trkpt><trkpt lat="45.56492885393384" lon="10.487328423358443"><ele>290.0</ele><time>2026-04-18T12:20:05Z</time></trkpt><trkpt lat="45.564904643956055" lon="10.487202842485656"><ele>290.0</ele><time>2026-04-18T12:20:06Z</time></trkpt><trkpt lat="45.564863624245596" lon="10.48706742473852"><ele>290.0</ele><time>2026-04-18T12:20:07Z</time></trkpt><trkpt lat="45.56481698367906" lon="10.486920481655908"><ele>290.0</ele><time>2026-04-18T12:20:08Z</time></trkpt><trkpt lat="45.5647718866908" lon="10.48679074168712"><ele>291.1666666666667</ele><time>2026-04-18T12:20:09Z</time></trkpt><trkpt lat="45.56471321210299" lon="10.48674109137981"><ele>292.33333333333337</ele><time>2026-04-18T12:20:10Z</time></trkpt><trkpt lat="45.5646793804189" lon="10.48665453914156"><ele>293.5</ele><time>2026-04-18T12:20:17Z</time></trkpt><trkpt lat="45.564633793650614" lon="10.486589426909028"><ele>294.6666666666667</ele><time>2026-04-18T12:20:25Z</time></trkpt><trkpt lat="45.564563920156175" lon="10.48656051383789"><ele>295.8333333333333</ele><time>2026-04-18T12:20:36Z</time></trkpt><trkpt lat="45.56444413218152" lon="10.486604439872787"><ele>297.0</ele><time>2026-04-18T12:20:38Z</time></trkpt><trkpt lat="45.56435708142116" lon="10.486631818663446"><ele>297.8</ele><time>2026-04-18T12:20:39Z</time></trkpt><trkpt lat="45.56424994144965" lon="10.486654018204709"><ele>298.6</ele><time>2026-04-18T12:20:40Z</time></trkpt><trkpt lat="45.56412792069134" lon="10.486649078571531"><ele>299.40000000000003</ele><time>2026-04-18T12:20:41Z</time></trkpt><trkpt lat="45.56401270986195" lon="10.486666355429136"><ele>300.2</ele><time>2026-04-18T12:20:42Z</time></trkpt><trkpt lat="45.56391516949404" lon="10.486687681834885"><ele>301.0</ele><time>2026-04-18T12:20:43Z</time></trkpt><trkpt lat="45.563817892447204" lon="10.486715790504745"><ele>301.0</ele><time>2026-04-18T12:20:44Z</time></trkpt><trkpt lat="45.56371540075667" lon="10.486753449088093"><ele>301.0</ele><time>2026-04-18T12:20:45Z</time></trkpt><trkpt lat="45.56363039118516" lon="10.48680381024736"><ele>301.0</ele><time>2026-04-18T12:20:46Z</time></trkpt><trkpt lat="45.5635446707183" lon="10.486868073069502"><ele>301.0</ele><time>2026-04-18T12:20:47Z</time></trkpt><trkpt lat="45.56346675082336" lon="10.486978914328159"><ele>301.0</ele><time>2026-04-18T12:20:48Z</time></trkpt><trkpt lat="45.56339038510325" lon="10.48706602612299"><ele>300.2</ele><time>2026-04-18T12:20:49Z</time></trkpt><trkpt lat="45.56334213493086" lon="10.487164122049565"><ele>299.40000000000003</ele><time>2026-04-18T12:20:50Z</time></trkpt><trkpt lat="45.5632873783387" lon="10.487281631313977"><ele>298.6</ele><time>2026-04-18T12:20:51Z</time></trkpt><trkpt lat="45.56324345630601" lon="10.487421306431791"><ele>297.8</ele><time>2026-04-18T12:20:52Z</time></trkpt><trkpt lat="45.56316948637814" lon="10.487556671749719"><ele>297.0</ele><time>2026-04-18T12:20:53Z</time></trkpt><trkpt lat="45.56311047693101" lon="10.487699981731673"><ele>297.0</ele><time>2026-04-18T12:20:54Z</time></trkpt><trkpt lat="45.56305916237851" lon="10.48783421818897"><ele>297.0</ele><time>2026-04-18T12:20:55Z</time></trkpt><trkpt lat="45.563016065546805" lon="10.487956736682161"><ele>297.0</ele><time>2026-04-18T12:20:56Z</time></trkpt><trkpt lat="45.56297148962147" lon="10.488083510513126"><ele>297.0</ele><time>2026-04-18T12:20:57Z</time></trkpt><trkpt lat="45.56292147949258" lon="10.48822573911968"><ele>297.0</ele><time>2026-04-18T12:20:58Z</time></trkpt><trkpt lat="45.562877385760814" lon="10.488375549526179"><ele>298.4</ele><time>2026-04-18T12:20:59Z</time></trkpt><trkpt lat="45.56282983111894" lon="10.488517916517319"><ele>299.79999999999995</ele><time>2026-04-18T12:21:00Z</time></trkpt><trkpt lat="45.562780532679774" lon="10.488660488343918"><ele>301.2</ele><time>2026-04-18T12:21:01Z</time></trkpt><trkpt lat="45.56274830041278" lon="10.488814570244763"><ele>302.59999999999997</ele><time>2026-04-18T12:21:02Z</time></trkpt><trkpt lat="45.56272407237132" lon="10.488968959797957"><ele>304.0</ele><time>2026-04-18T12:21:03Z</time></trkpt><trkpt lat="45.56270270894507" lon="10.48911033622372"><ele>304.0</ele><time>2026-04-18T12:21:04Z</time></trkpt><trkpt lat="45.562674566388836" lon="10.48925150463132"><ele>304.0</ele><time>2026-04-18T12:21:05Z</time></trkpt><trkpt lat="45.562637324578255" lon="10.489386130188386"><ele>304.0</ele><time>2026-04-18T12:21:06Z</time></trkpt><trkpt lat="45.56259878696792" lon="10.489514933870405"><ele>304.0</ele><time>2026-04-18T12:21:07Z</time></trkpt><trkpt lat="45.56256333527346" lon="10.48961425686992"><ele>304.0</ele><time>2026-04-18T12:21:08Z</time></trkpt><trkpt lat="45.56253037658734" lon="10.489694831810192"><ele>304.0</ele><time>2026-04-18T12:21:09Z</time></trkpt><trkpt lat="45.56247299798949" lon="10.489824841937583"><ele>302.59999999999997</ele><time>2026-04-18T12:21:11Z</time></trkpt><trkpt lat="45.56243004473245" lon="10.489896612360429"><ele>301.2</ele><time>2026-04-18T12:21:12Z</time></trkpt><trkpt lat="45.56233607205157" lon="10.490038946644324"><ele>299.79999999999995</ele><time>2026-04-18T12:21:14Z</time></trkpt><trkpt lat="45.56227378081748" lon="10.490122455966288"><ele>298.4</ele><time>2026-04-18T12:21:15Z</time></trkpt><trkpt lat="45.56220974135759" lon="10.490195597744128"><ele>297.0</ele><time>2026-04-18T12:21:16Z</time></trkpt><trkpt lat="45.562146679574695" lon="10.490264153898815"><ele>297.0</ele><time>2026-04-18T12:21:17Z</time></trkpt><trkpt lat="45.56208833786929" lon="10.490323835090123"><ele>297.0</ele><time>2026-04-18T12:21:18Z</time></trkpt><trkpt lat="45.56199167153123" lon="10.49040964611565"><ele>297.0</ele><time>2026-04-18T12:21:20Z</time></trkpt><trkpt lat="45.56189950847234" lon="10.490475709589957"><ele>297.0</ele><time>2026-04-18T12:21:22Z</time></trkpt><trkpt lat="45.561836242248184" lon="10.490480007833273"><ele>297.0</ele><time>2026-04-18T12:21:23Z</time></trkpt><trkpt lat="45.56174699765546" lon="10.490474134306854"><ele>297.0</ele><time>2026-04-18T12:21:24Z</time></trkpt><trkpt lat="45.56165429612174" lon="10.490493761481206"><ele>296.2</ele><time>2026-04-18T12:21:25Z</time></trkpt><trkpt lat="45.561555435543326" lon="10.490538046338518"><ele>295.4</ele><time>2026-04-18T12:21:26Z</time></trkpt><trkpt lat="45.561466078441754" lon="10.49057541054677"><ele>294.6</ele><time>2026-04-18T12:21:27Z</time></trkpt><trkpt lat="45.56138993296622" lon="10.4905867095808"><ele>293.8</ele><time>2026-04-18T12:21:28Z</time></trkpt><trkpt lat="45.56127470662987" lon="10.490587591393107"><ele>293.0</ele><time>2026-04-18T12:21:29Z</time></trkpt><trkpt lat="45.56117608839808" lon="10.49055101510709"><ele>292.0</ele><time>2026-04-18T12:21:30Z</time></trkpt><trkpt lat="45.56109141666221" lon="10.49050603060551"><ele>291.0</ele><time>2026-04-18T12:21:31Z</time></trkpt><trkpt lat="45.56100868484081" lon="10.490458202539438"><ele>290.0</ele><time>2026-04-18T12:21:32Z</time></trkpt><trkpt lat="45.5608908885587" lon="10.490393562223742"><ele>289.0</ele><time>2026-04-18T12:21:33Z</time></trkpt><trkpt lat="45.560827195331534" lon="10.490359265848157"><ele>288.0</ele><time>2026-04-18T12:21:34Z</time></trkpt><trkpt lat="45.56072787460878" lon="10.49030663070441"><ele>288.6</ele><time>2026-04-18T12:21:36Z</time></trkpt><trkpt lat="45.5606440283714" lon="10.490275428897048"><ele>289.20000000000005</ele><time>2026-04-18T12:21:38Z</time></trkpt><trkpt lat="45.5605376513938" lon="10.490200448850592"><ele>289.8</ele><time>2026-04-18T12:21:40Z</time></trkpt><trkpt lat="45.560446111518544" lon="10.490144430108275"><ele>290.40000000000003</ele><time>2026-04-18T12:21:42Z</time></trkpt><trkpt lat="45.560373611704996" lon="10.490088582334675"><ele>291.0</ele><time>2026-04-18T12:21:44Z</time></trkpt><trkpt lat="45.56030282196071" lon="10.490081099705222"><ele>291.0</ele><time>2026-04-18T12:21:46Z</time></trkpt><trkpt lat="45.560192762254054" lon="10.490116893999666"><ele>291.0</ele><time>2026-04-18T12:21:48Z</time></trkpt><trkpt lat="45.56011871165606" lon="10.490091194579199"><ele>291.0</ele><time>2026-04-18T12:21:49Z</time></trkpt><trkpt lat="45.56003262341115" lon="10.490059354692486"><ele>291.0</ele><time>2026-04-18T12:21:50Z</time></trkpt><trkpt lat="45.55996586792293" lon="10.490056396350003"><ele>291.0</ele><time>2026-04-18T12:21:51Z</time></trkpt><trkpt lat="45.55988370667414" lon="10.490068245677508"><ele>291.0</ele><time>2026-04-18T12:21:53Z</time></trkpt><trkpt lat="45.55979346766923" lon="10.490052028788933"><ele>291.0</ele><time>2026-04-18T12:21:55Z</time></trkpt><trkpt lat="45.55970482035381" lon="10.489986916581424"><ele>291.0</ele><time>2026-04-18T12:21:57Z</time></trkpt><trkpt lat="45.55964498087694" lon="10.489942119068116"><ele>291.0</ele><time>2026-04-18T12:21:58Z</time></trkpt><trkpt lat="45.55958456186036" lon="10.489894447395638"><ele>291.0</ele><time>2026-04-18T12:21:59Z</time></trkpt><trkpt lat="45.55951582261573" lon="10.489814821980568"><ele>291.0</ele><time>2026-04-18T12:22:00Z</time></trkpt><trkpt lat="45.55943968320891" lon="10.489708596148562"><ele>291.0</ele><time>2026-04-18T12:22:01Z</time></trkpt><trkpt lat="45.559366783491896" lon="10.489621622110823"><ele>291.2</ele><time>2026-04-18T12:22:01.999Z</time></trkpt><trkpt lat="45.559292566419714" lon="10.489552850784145"><ele>291.40000000000003</ele><time>2026-04-18T12:22:02.999Z</time></trkpt><trkpt lat="45.55923095972285" lon="10.489482944145559"><ele>291.6</ele><time>2026-04-18T12:22:03.999Z</time></trkpt><trkpt lat="45.55915542976" lon="10.489384555235894"><ele>291.8</ele><time>2026-04-18T12:22:05.999Z</time></trkpt><trkpt lat="45.55905745923741" lon="10.489377718775973"><ele>292.0</ele><time>2026-04-18T12:22:07.999Z</time></trkpt><trkpt lat="45.558974597912254" lon="10.489391020380696"><ele>292.0</ele><time>2026-04-18T12:22:10Z</time></trkpt><trkpt lat="45.558896803533784" lon="10.489344659657391"><ele>292.0</ele><time>2026-04-18T12:22:12Z</time></trkpt><trkpt lat="45.55884050841773" lon="10.489298979402745"><ele>292.0</ele><time>2026-04-18T12:22:14Z</time></trkpt><trkpt lat="45.55869377022522" lon="10.4892570101102"><ele>292.0</ele><time>2026-04-18T12:22:16Z</time></trkpt><trkpt lat="45.558628214787" lon="10.489226095644863"><ele>292.0</ele><time>2026-04-18T12:22:17Z</time></trkpt><trkpt lat="45.55856911827726" lon="10.489154271809268"><ele>292.0</ele><time>2026-04-18T12:22:18Z</time></trkpt><trkpt lat="45.55848735549851" lon="10.489065626742018"><ele>289.8</ele><time>2026-04-18T12:22:19Z</time></trkpt><trkpt lat="45.55839597424146" lon="10.489007535294904"><ele>287.6</ele><time>2026-04-18T12:22:20Z</time></trkpt><trkpt lat="45.55831292732693" lon="10.488960672705124"><ele>285.40000000000003</ele><time>2026-04-18T12:22:21Z</time></trkpt><trkpt lat="45.558243407668115" lon="10.48890745076777"><ele>283.2</ele><time>2026-04-18T12:22:22Z</time></trkpt><trkpt lat="45.558143860862" lon="10.488884454674983"><ele>281.0</ele><time>2026-04-18T12:22:23Z</time></trkpt><trkpt lat="45.55803810228166" lon="10.488884562628625"><ele>281.0</ele><time>2026-04-18T12:22:24Z</time></trkpt><trkpt lat="45.55793609985002" lon="10.488864040832986"><ele>281.0</ele><time>2026-04-18T12:22:25Z</time></trkpt><trkpt lat="45.55784979022379" lon="10.488851197681395"><ele>281.0</ele><time>2026-04-18T12:22:26Z</time></trkpt><trkpt lat="45.557770632225385" lon="10.48884624575657"><ele>281.0</ele><time>2026-04-18T12:22:27Z</time></trkpt><trkpt lat="45.55770457702724" lon="10.488844879835124"><ele>281.0</ele><time>2026-04-18T12:22:28Z</time></trkpt><trkpt lat="45.5575931211874" lon="10.488827380693921"><ele>281.0</ele><time>2026-04-18T12:22:30Z</time></trkpt><trkpt lat="45.5574994521598" lon="10.488818347108454"><ele>280.14285714285717</ele><time>2026-04-18T12:22:32Z</time></trkpt><trkpt lat="45.55743247081305" lon="10.488821233593889"><ele>279.2857142857143</ele><time>2026-04-18T12:22:35Z</time></trkpt><trkpt lat="45.557362106180975" lon="10.4887960715131"><ele>278.42857142857144</ele><time>2026-04-18T12:22:38Z</time></trkpt><trkpt lat="45.557354895772264" lon="10.488688587463965"><ele>277.57142857142856</ele><time>2026-04-18T12:22:56Z</time></trkpt><trkpt lat="45.55734162001985" lon="10.488594049308919"><ele>276.7142857142857</ele><time>2026-04-18T12:22:59Z</time></trkpt><trkpt lat="45.557332097457014" lon="10.488494454925302"><ele>275.8571428571429</ele><time>2026-04-18T12:23:03Z</time></trkpt><trkpt lat="45.55733492145252" lon="10.488396855377268"><ele>275.0</ele><time>2026-04-18T12:23:05Z</time></trkpt><trkpt lat="45.55738651225235" lon="10.488287582669011"><ele>278.8</ele><time>2026-04-18T12:23:07Z</time></trkpt><trkpt lat="45.55746602793844" lon="10.488190648157715"><ele>282.6</ele><time>2026-04-18T12:23:09Z</time></trkpt><trkpt lat="45.55753417244339" lon="10.488091425239329"><ele>286.4</ele><time>2026-04-18T12:23:11Z</time></trkpt><trkpt lat="45.557510525275966" lon="10.488006340912829"><ele>290.2</ele><time>2026-04-18T12:23:15Z</time></trkpt><trkpt lat="45.55744080315212" lon="10.487952228353313"><ele>294.0</ele><time>2026-04-18T12:23:17Z</time></trkpt><trkpt lat="45.5573331184343" lon="10.487924206720798"><ele>295.2</ele><time>2026-04-18T12:23:19Z</time></trkpt><trkpt lat="45.55723935475795" lon="10.487842096027451"><ele>296.4</ele><time>2026-04-18T12:23:21Z</time></trkpt><trkpt lat="45.557181408105016" lon="10.48779591282105"><ele>297.6</ele><time>2026-04-18T12:23:22Z</time></trkpt><trkpt lat="45.55706836567202" lon="10.487708226907413"><ele>298.8</ele><time>2026-04-18T12:23:24Z</time></trkpt><trkpt lat="45.55698638448877" lon="10.48765258930849"><ele>300.0</ele><time>2026-04-18T12:23:25Z</time></trkpt><trkpt lat="45.5569092959528" lon="10.487592704554297"><ele>300.0</ele><time>2026-04-18T12:23:26Z</time></trkpt><trkpt lat="45.55684251213642" lon="10.487518284095405"><ele>300.0</ele><time>2026-04-18T12:23:27Z</time></trkpt><trkpt lat="45.556779686938334" lon="10.487448818472199"><ele>300.0</ele><time>2026-04-18T12:23:28Z</time></trkpt><trkpt lat="45.5567120898519" lon="10.487372960199812"><ele>300.0</ele><time>2026-04-18T12:23:29Z</time></trkpt><trkpt lat="45.556643951041" lon="10.48730203289663"><ele>300.0</ele><time>2026-04-18T12:23:30Z</time></trkpt><trkpt lat="45.556578519177734" lon="10.487231756070232"><ele>300.0</ele><time>2026-04-18T12:23:31Z</time></trkpt><trkpt lat="45.556517663558346" lon="10.487172770281914"><ele>300.0</ele><time>2026-04-18T12:23:32Z</time></trkpt><trkpt lat="45.55645892095486" lon="10.48712475252838"><ele>300.0</ele><time>2026-04-18T12:23:33Z</time></trkpt><trkpt lat="45.55638956580537" lon="10.487076822135606"><ele>300.0</ele><time>2026-04-18T12:23:34Z</time></trkpt><trkpt lat="45.55631903453707" lon="10.487025465191174"><ele>300.0</ele><time>2026-04-18T12:23:35Z</time></trkpt><trkpt lat="45.55620250850069" lon="10.48699353627065"><ele>300.0</ele><time>2026-04-18T12:23:37Z</time></trkpt><trkpt lat="45.55608267973897" lon="10.486963442525903"><ele>301.0</ele><time>2026-04-18T12:23:39Z</time></trkpt><trkpt lat="45.55600961019955" lon="10.48691890989644"><ele>302.0</ele><time>2026-04-18T12:23:40Z</time></trkpt><trkpt lat="45.555927508234795" lon="10.486850123438947"><ele>303.0</ele><time>2026-04-18T12:23:41Z</time></trkpt><trkpt lat="45.5558674063987" lon="10.486787446848068"><ele>304.0</ele><time>2026-04-18T12:23:42Z</time></trkpt><trkpt lat="45.555753902844955" lon="10.486677238552693"><ele>305.0</ele><time>2026-04-18T12:23:44Z</time></trkpt><trkpt lat="45.55567465694299" lon="10.486598994510697"><ele>305.0</ele><time>2026-04-18T12:23:45Z</time></trkpt><trkpt lat="45.55559174058341" lon="10.486512694215563"><ele>305.0</ele><time>2026-04-18T12:23:46Z</time></trkpt><trkpt lat="45.55551214375036" lon="10.486414805504747"><ele>305.0</ele><time>2026-04-18T12:23:47Z</time></trkpt><trkpt lat="45.55544166243082" lon="10.486327269904487"><ele>305.0</ele><time>2026-04-18T12:23:48Z</time></trkpt><trkpt lat="45.55537141718199" lon="10.486251012755899"><ele>305.0</ele><time>2026-04-18T12:23:49Z</time></trkpt><trkpt lat="45.55531700528262" lon="10.48618871600962"><ele>304.14285714285717</ele><time>2026-04-18T12:23:50Z</time></trkpt><trkpt lat="45.55526662035562" lon="10.486134418525495"><ele>303.2857142857143</ele><time>2026-04-18T12:23:51Z</time></trkpt><trkpt lat="45.55521011499881" lon="10.486080463623221"><ele>302.42857142857144</ele><time>2026-04-18T12:23:52Z</time></trkpt><trkpt lat="45.555155941558" lon="10.486028033963217"><ele>301.57142857142856</ele><time>2026-04-18T12:23:53Z</time></trkpt><trkpt lat="45.55510150090132" lon="10.485949853440399"><ele>300.7142857142857</ele><time>2026-04-18T12:23:55Z</time></trkpt><trkpt lat="45.55505820888006" lon="10.485884169302578"><ele>299.85714285714283</ele><time>2026-04-18T12:23:57Z</time></trkpt><trkpt lat="45.55499133195026" lon="10.485815431565323"><ele>299.0</ele><time>2026-04-18T12:23:59Z</time></trkpt><trkpt lat="45.55491553994872" lon="10.485771762289911"><ele>299.0</ele><time>2026-04-18T12:24:01Z</time></trkpt><trkpt lat="45.55487525259815" lon="10.485651329080529"><ele>299.0</ele><time>2026-04-18T12:24:04Z</time></trkpt><trkpt lat="45.55483891599906" lon="10.485540006070572"><ele>299.0</ele><time>2026-04-18T12:24:06Z</time></trkpt><trkpt lat="45.55477848861025" lon="10.485466272067264"><ele>299.0</ele><time>2026-04-18T12:24:08Z</time></trkpt><trkpt lat="45.55473427686324" lon="10.48534302974505"><ele>299.0</ele><time>2026-04-18T12:24:10Z</time></trkpt><trkpt lat="45.554698989070666" lon="10.485247573991153"><ele>299.0</ele><time>2026-04-18T12:24:11Z</time></trkpt><trkpt lat="45.554652005271926" lon="10.48514243042551"><ele>296.59999999999997</ele><time>2026-04-18T12:24:12Z</time></trkpt><trkpt lat="45.55459312437519" lon="10.48503977571229"><ele>294.2</ele><time>2026-04-18T12:24:13Z</time></trkpt><trkpt lat="45.55452362227233" lon="10.484936072886676"><ele>291.79999999999995</ele><time>2026-04-18T12:24:14Z</time></trkpt><trkpt lat="45.554451861661846" lon="10.484817635261763"><ele>289.4</ele><time>2026-04-18T12:24:15Z</time></trkpt><trkpt lat="45.554385539218636" lon="10.484712178750103"><ele>287.0</ele><time>2026-04-18T12:24:16Z</time></trkpt><trkpt lat="45.55432400455304" lon="10.484615205466596"><ele>291.2</ele><time>2026-04-18T12:24:17Z</time></trkpt><trkpt lat="45.55425960543548" lon="10.484522156507401"><ele>295.4</ele><time>2026-04-18T12:24:18Z</time></trkpt><trkpt lat="45.554195587211964" lon="10.484432859793579"><ele>299.6</ele><time>2026-04-18T12:24:19Z</time></trkpt><trkpt lat="45.55412908571674" lon="10.484344150751541"><ele>303.8</ele><time>2026-04-18T12:24:20Z</time></trkpt><trkpt lat="45.554053865335874" lon="10.484259240353573"><ele>308.0</ele><time>2026-04-18T12:24:21Z</time></trkpt><trkpt lat="45.55398042733039" lon="10.484172894714442"><ele>308.0</ele><time>2026-04-18T12:24:22Z</time></trkpt><trkpt lat="45.553890959382265" lon="10.48410491417912"><ele>308.0</ele><time>2026-04-18T12:24:23Z</time></trkpt><trkpt lat="45.553807538264074" lon="10.484048480477053"><ele>308.0</ele><time>2026-04-18T12:24:24Z</time></trkpt><trkpt lat="45.55372489549689" lon="10.483998632208841"><ele>308.0</ele><time>2026-04-18T12:24:25Z</time></trkpt><trkpt lat="45.55363600004873" lon="10.483964969769378"><ele>308.0</ele><time>2026-04-18T12:24:26Z</time></trkpt><trkpt lat="45.55355257675087" lon="10.483953069358389"><ele>304.5</ele><time>2026-04-18T12:24:27Z</time></trkpt><trkpt lat="45.5534827629529" lon="10.483956673152365"><ele>301.0</ele><time>2026-04-18T12:24:28Z</time></trkpt><trkpt lat="45.55340678472171" lon="10.483957416737862"><ele>297.5</ele><time>2026-04-18T12:24:30Z</time></trkpt><trkpt lat="45.55334664708023" lon="10.484005314715205"><ele>294.0</ele><time>2026-04-18T12:24:33Z</time></trkpt><trkpt lat="45.55327326193623" lon="10.484018292041718"><ele>290.5</ele><time>2026-04-18T12:24:38Z</time></trkpt><trkpt lat="45.55318170426373" lon="10.484036203436155"><ele>287.0</ele><time>2026-04-18T12:24:42Z</time></trkpt><trkpt lat="45.553099198276016" lon="10.484019922657007"><ele>287.0</ele><time>2026-04-18T12:24:44Z</time></trkpt><trkpt lat="45.5530095505144" lon="10.48395089739754"><ele>287.0</ele><time>2026-04-18T12:24:46Z</time></trkpt><trkpt lat="45.552889745866494" lon="10.483840282170933"><ele>287.0</ele><time>2026-04-18T12:24:48Z</time></trkpt><trkpt lat="45.55281981118323" lon="10.483792918051119"><ele>287.0</ele><time>2026-04-18T12:24:49Z</time></trkpt><trkpt lat="45.55271471759672" lon="10.483698042802397"><ele>287.0</ele><time>2026-04-18T12:24:51Z</time></trkpt><trkpt lat="45.552652743913235" lon="10.483635145392839"><ele>286.1666666666667</ele><time>2026-04-18T12:24:52Z</time></trkpt><trkpt lat="45.55259494447616" lon="10.483569741266322"><ele>285.33333333333337</ele><time>2026-04-18T12:24:53Z</time></trkpt><trkpt lat="45.552500223137244" lon="10.483450929227732"><ele>284.5</ele><time>2026-04-18T12:24:55Z</time></trkpt><trkpt lat="45.55244595011569" lon="10.483396047630526"><ele>283.6666666666667</ele><time>2026-04-18T12:24:56Z</time></trkpt><trkpt lat="45.5523946053253" lon="10.483343437813192"><ele>282.8333333333333</ele><time>2026-04-18T12:24:57Z</time></trkpt><trkpt lat="45.55230727079863" lon="10.483308330820458"><ele>282.0</ele><time>2026-04-18T12:24:58Z</time></trkpt><trkpt lat="45.55223328583158" lon="10.483303447070556"><ele>282.0</ele><time>2026-04-18T12:24:59Z</time></trkpt><trkpt lat="45.55214066643245" lon="10.483314803758477"><ele>282.0</ele><time>2026-04-18T12:25:00Z</time></trkpt><trkpt lat="45.5520437078091" lon="10.483315633426287"><ele>282.0</ele><time>2026-04-18T12:25:01Z</time></trkpt><trkpt lat="45.55197261143646" lon="10.483314729360504"><ele>282.0</ele><time>2026-04-18T12:25:02Z</time></trkpt><trkpt lat="45.55187490579184" lon="10.483360679583452"><ele>282.0</ele><time>2026-04-18T12:25:04Z</time></trkpt><trkpt lat="45.55180397551861" lon="10.483391539224334"><ele>282.0</ele><time>2026-04-18T12:25:06Z</time></trkpt><trkpt lat="45.55172588521083" lon="10.483430474306042"><ele>280.42857142857144</ele><time>2026-04-18T12:25:08Z</time></trkpt><trkpt lat="45.55165671864921" lon="10.483424511429181"><ele>278.85714285714283</ele><time>2026-04-18T12:25:10Z</time></trkpt><trkpt lat="45.551581073881636" lon="10.483363589242394"><ele>277.2857142857143</ele><time>2026-04-18T12:25:13Z</time></trkpt><trkpt lat="45.55153677808535" lon="10.483295205452523"><ele>275.7142857142857</ele><time>2026-04-18T12:25:14Z</time></trkpt><trkpt lat="45.55148389102628" lon="10.483233555549177"><ele>274.14285714285717</ele><time>2026-04-18T12:25:15Z</time></trkpt><trkpt lat="45.551420533134106" lon="10.483213599585504"><ele>272.57142857142856</ele><time>2026-04-18T12:25:16Z</time></trkpt><trkpt lat="45.55134049464871" lon="10.483240723106954"><ele>271.0</ele><time>2026-04-18T12:25:17Z</time></trkpt><trkpt lat="45.55124102563374" lon="10.483316331993883"><ele>270.25</ele><time>2026-04-18T12:25:18Z</time></trkpt><trkpt lat="45.551143204137645" lon="10.483423645536128"><ele>269.5</ele><time>2026-04-18T12:25:19Z</time></trkpt><trkpt lat="45.55104226983492" lon="10.483509388159371"><ele>268.75</ele><time>2026-04-18T12:25:20Z</time></trkpt><trkpt lat="45.55092734774624" lon="10.483595573270714"><ele>268.0</ele><time>2026-04-18T12:25:21Z</time></trkpt><trkpt lat="45.5507938704555" lon="10.483685975002247"><ele>266.5</ele><time>2026-04-18T12:25:22Z</time></trkpt><trkpt lat="45.55067056926661" lon="10.483770637346584"><ele>265.0</ele><time>2026-04-18T12:25:23Z</time></trkpt><trkpt lat="45.55056476258605" lon="10.483844272501365"><ele>263.5</ele><time>2026-04-18T12:25:24Z</time></trkpt><trkpt lat="45.55047834584632" lon="10.48389343597883"><ele>262.0</ele><time>2026-04-18T12:25:25Z</time></trkpt><trkpt lat="45.55037334383813" lon="10.483919245835319"><ele>262.0</ele><time>2026-04-18T12:25:26Z</time></trkpt><trkpt lat="45.550261425713806" lon="10.483932009983647"><ele>262.0</ele><time>2026-04-18T12:25:27Z</time></trkpt><trkpt lat="45.550113468523946" lon="10.483940010562044"><ele>262.0</ele><time>2026-04-18T12:25:28Z</time></trkpt><trkpt lat="45.549986846024304" lon="10.483936799398572"><ele>262.0</ele><time>2026-04-18T12:25:29Z</time></trkpt><trkpt lat="45.54987819710014" lon="10.483933181191219"><ele>262.0</ele><time>2026-04-18T12:25:30Z</time></trkpt><trkpt lat="45.54976739362288" lon="10.483952482733592"><ele>262.0</ele><time>2026-04-18T12:25:31Z</time></trkpt><trkpt lat="45.54966429026956" lon="10.484002843060678"><ele>262.0</ele><time>2026-04-18T12:25:32Z</time></trkpt><trkpt lat="45.549555602659524" lon="10.484078566800012"><ele>262.0</ele><time>2026-04-18T12:25:33Z</time></trkpt><trkpt lat="45.54943895929222" lon="10.484189857179777"><ele>262.5</ele><time>2026-04-18T12:25:34Z</time></trkpt><trkpt lat="45.549348464165206" lon="10.484307677924036"><ele>263.0</ele><time>2026-04-18T12:25:35Z</time></trkpt><trkpt lat="45.54926475403484" lon="10.48449265385126"><ele>263.5</ele><time>2026-04-18T12:25:36Z</time></trkpt><trkpt lat="45.549182925596995" lon="10.484688063958583"><ele>264.0</ele><time>2026-04-18T12:25:37Z</time></trkpt><trkpt lat="45.54911226533822" lon="10.484856367379127"><ele>264.0</ele><time>2026-04-18T12:25:38Z</time></trkpt><trkpt lat="45.549050091974685" lon="10.485022702269616"><ele>264.0</ele><time>2026-04-18T12:25:39Z</time></trkpt><trkpt lat="45.54898623146895" lon="10.485190112219549"><ele>264.0</ele><time>2026-04-18T12:25:40Z</time></trkpt><trkpt lat="45.54892388162952" lon="10.485341603039789"><ele>264.0</ele><time>2026-04-18T12:25:41Z</time></trkpt><trkpt lat="45.54886494010036" lon="10.485502688341821"><ele>262.4</ele><time>2026-04-18T12:25:42Z</time></trkpt><trkpt lat="45.54880893864455" lon="10.485631630059482"><ele>260.79999999999995</ele><time>2026-04-18T12:25:43Z</time></trkpt><trkpt lat="45.54873794144008" lon="10.485768613861415"><ele>259.20000000000005</ele><time>2026-04-18T12:25:44Z</time></trkpt><trkpt lat="45.54867633975653" lon="10.485861721026758"><ele>257.6</ele><time>2026-04-18T12:25:45Z</time></trkpt><trkpt lat="45.5486237936876" lon="10.48598310487961"><ele>256.0</ele><time>2026-04-18T12:25:46Z</time></trkpt><trkpt lat="45.54858864129688" lon="10.486099360925099"><ele>258.6</ele><time>2026-04-18T12:25:47Z</time></trkpt><trkpt lat="45.54855759918193" lon="10.486209923996988"><ele>261.20000000000005</ele><time>2026-04-18T12:25:48Z</time></trkpt><trkpt lat="45.54852161907505" lon="10.486338420305758"><ele>263.79999999999995</ele><time>2026-04-18T12:25:49Z</time></trkpt><trkpt lat="45.54848717814677" lon="10.486477924901308"><ele>266.4</ele><time>2026-04-18T12:25:50Z</time></trkpt><trkpt lat="45.548454039300125" lon="10.48662020373549"><ele>269.0</ele><time>2026-04-18T12:25:51Z</time></trkpt><trkpt lat="45.54842244139797" lon="10.486765551824467"><ele>269.0</ele><time>2026-04-18T12:25:52Z</time></trkpt><trkpt lat="45.54839778473633" lon="10.486893332050819"><ele>269.0</ele><time>2026-04-18T12:25:53Z</time></trkpt><trkpt lat="45.54837525620724" lon="10.487005400252167"><ele>269.0</ele><time>2026-04-18T12:25:54Z</time></trkpt><trkpt lat="45.54834549470233" lon="10.487126781509469"><ele>269.0</ele><time>2026-04-18T12:25:55Z</time></trkpt><trkpt lat="45.548299340029146" lon="10.487246465311756"><ele>269.0</ele><time>2026-04-18T12:25:56Z</time></trkpt><trkpt lat="45.54824464337453" lon="10.487375311015402"><ele>267.2</ele><time>2026-04-18T12:25:57Z</time></trkpt><trkpt lat="45.54820642609443" lon="10.487520448043151"><ele>265.4</ele><time>2026-04-18T12:25:58Z</time></trkpt><trkpt lat="45.548181582473845" lon="10.487676629257818"><ele>263.6</ele><time>2026-04-18T12:25:59Z</time></trkpt><trkpt lat="45.54815157289815" lon="10.487815627309775"><ele>261.8</ele><time>2026-04-18T12:26:00Z</time></trkpt><trkpt lat="45.54811468251518" lon="10.487945746024458"><ele>260.0</ele><time>2026-04-18T12:26:01Z</time></trkpt><trkpt lat="45.54806598053191" lon="10.48808245846918"><ele>259.1666666666667</ele><time>2026-04-18T12:26:02Z</time></trkpt><trkpt lat="45.548034169765934" lon="10.488204588878896"><ele>258.33333333333337</ele><time>2026-04-18T12:26:03Z</time></trkpt><trkpt lat="45.54801289532483" lon="10.48830791576047"><ele>257.5</ele><time>2026-04-18T12:26:04Z</time></trkpt><trkpt lat="45.547987212567676" lon="10.488427440148103"><ele>256.6666666666667</ele><time>2026-04-18T12:26:05Z</time></trkpt><trkpt lat="45.547968232704164" lon="10.488552192061592"><ele>255.83333333333334</ele><time>2026-04-18T12:26:06Z</time></trkpt><trkpt lat="45.54794676109824" lon="10.488658165771238"><ele>255.0</ele><time>2026-04-18T12:26:07Z</time></trkpt><trkpt lat="45.547918117167406" lon="10.488774093268251"><ele>254.66666666666666</ele><time>2026-04-18T12:26:08Z</time></trkpt><trkpt lat="45.54788296829572" lon="10.488892590741568"><ele>254.33333333333331</ele><time>2026-04-18T12:26:09Z</time></trkpt><trkpt lat="45.547847626504264" lon="10.488988788318679"><ele>254.0</ele><time>2026-04-18T12:26:10Z</time></trkpt><trkpt lat="45.54781239024605" lon="10.489083253880013"><ele>253.66666666666666</ele><time>2026-04-18T12:26:11Z</time></trkpt><trkpt lat="45.54777053696304" lon="10.489185134978309"><ele>253.33333333333331</ele><time>2026-04-18T12:26:12Z</time></trkpt><trkpt lat="45.54773886334464" lon="10.489270900803202"><ele>253.0</ele><time>2026-04-18T12:26:13Z</time></trkpt><trkpt lat="45.54771114034017" lon="10.48935501995668"><ele>255.0</ele><time>2026-04-18T12:26:14Z</time></trkpt><trkpt lat="45.54766024858145" lon="10.489500224686923"><ele>257.0</ele><time>2026-04-18T12:26:16Z</time></trkpt><trkpt lat="45.547605781474836" lon="10.489670756440509"><ele>259.0</ele><time>2026-04-18T12:26:18Z</time></trkpt><trkpt lat="45.54753697386362" lon="10.489832546261248"><ele>261.0</ele><time>2026-04-18T12:26:20Z</time></trkpt><trkpt lat="45.54749053528302" lon="10.489932033285394"><ele>261.0</ele><time>2026-04-18T12:26:21Z</time></trkpt><trkpt lat="45.547438314444236" lon="10.49004470682169"><ele>261.0</ele><time>2026-04-18T12:26:22Z</time></trkpt><trkpt lat="45.54739230153776" lon="10.490160216350384"><ele>261.0</ele><time>2026-04-18T12:26:23Z</time></trkpt><trkpt lat="45.54734920424503" lon="10.490268604064923"><ele>261.0</ele><time>2026-04-18T12:26:24Z</time></trkpt><trkpt lat="45.54730516179273" lon="10.490385663878273"><ele>261.0</ele><time>2026-04-18T12:26:25Z</time></trkpt><trkpt lat="45.547264840648744" lon="10.490492924065"><ele>259.6</ele><time>2026-04-18T12:26:26Z</time></trkpt><trkpt lat="45.5472207428887" lon="10.490604340160726"><ele>258.20000000000005</ele><time>2026-04-18T12:26:27Z</time></trkpt><trkpt lat="45.54717019625936" lon="10.490699424397421"><ele>256.79999999999995</ele><time>2026-04-18T12:26:28Z</time></trkpt><trkpt lat="45.547073064068535" lon="10.490819478607117"><ele>255.39999999999998</ele><time>2026-04-18T12:26:30Z</time></trkpt><trkpt lat="45.54701224740985" lon="10.490867782048465"><ele>254.0</ele><time>2026-04-18T12:26:31Z</time></trkpt><trkpt lat="45.54693955490195" lon="10.490915591605106"><ele>255.00000000000003</ele><time>2026-04-18T12:26:32Z</time></trkpt><trkpt lat="45.54686851171409" lon="10.490972202393475"><ele>256.0</ele><time>2026-04-18T12:26:33Z</time></trkpt><trkpt lat="45.54681156337879" lon="10.491014808144323"><ele>257.0</ele><time>2026-04-18T12:26:34Z</time></trkpt><trkpt lat="45.54673762120701" lon="10.491082843085865"><ele>258.0</ele><time>2026-04-18T12:26:36Z</time></trkpt><trkpt lat="45.54668611653463" lon="10.491168519541633"><ele>259.0</ele><time>2026-04-18T12:26:38Z</time></trkpt><trkpt lat="45.546637919225475" lon="10.491281706995444"><ele>260.0</ele><time>2026-04-18T12:26:42Z</time></trkpt><trkpt lat="45.5465748540059" lon="10.491420360894056"><ele>260.0</ele><time>2026-04-18T12:26:44Z</time></trkpt><trkpt lat="45.54653187230927" lon="10.491491207386511"><ele>260.0</ele><time>2026-04-18T12:26:45Z</time></trkpt><trkpt lat="45.546467938588066" lon="10.491579382523312"><ele>260.0</ele><time>2026-04-18T12:26:46Z</time></trkpt><trkpt lat="45.546409620461475" lon="10.491659450232943"><ele>260.0</ele><time>2026-04-18T12:26:47Z</time></trkpt><trkpt lat="45.54635467024452" lon="10.49174103301905"><ele>260.0</ele><time>2026-04-18T12:26:48Z</time></trkpt><trkpt lat="45.54629516543977" lon="10.49181428334978"><ele>260.0</ele><time>2026-04-18T12:26:49Z</time></trkpt><trkpt lat="45.54623873509522" lon="10.491861692933885"><ele>261.0</ele><time>2026-04-18T12:26:50Z</time></trkpt><trkpt lat="45.54616615348797" lon="10.491905972087416"><ele>262.0</ele><time>2026-04-18T12:26:51Z</time></trkpt><trkpt lat="45.54606441214339" lon="10.491904575816386"><ele>263.0</ele><time>2026-04-18T12:26:53Z</time></trkpt><trkpt lat="45.545997306367305" lon="10.491870286465822"><ele>264.0</ele><time>2026-04-18T12:26:54Z</time></trkpt><trkpt lat="45.545920289055054" lon="10.491840881133"><ele>265.0</ele><time>2026-04-18T12:26:55Z</time></trkpt><trkpt lat="45.545841160553" lon="10.491811392228032"><ele>266.0</ele><time>2026-04-18T12:26:56Z</time></trkpt><trkpt lat="45.545755543216146" lon="10.491772335948475"><ele>266.0</ele><time>2026-04-18T12:26:57Z</time></trkpt><trkpt lat="45.54566172077271" lon="10.491726691703512"><ele>266.0</ele><time>2026-04-18T12:26:58Z</time></trkpt><trkpt lat="45.54556901508508" lon="10.49168063411134"><ele>266.0</ele><time>2026-04-18T12:26:59Z</time></trkpt><trkpt lat="45.54546372420828" lon="10.49163777466587"><ele>266.0</ele><time>2026-04-18T12:27:00Z</time></trkpt><trkpt lat="45.54536241455389" lon="10.491586714397027"><ele>266.0</ele><time>2026-04-18T12:27:01Z</time></trkpt><trkpt lat="45.54526599444155" lon="10.491534903782659"><ele>266.33333333333337</ele><time>2026-04-18T12:27:02Z</time></trkpt><trkpt lat="45.54516800510287" lon="10.491483089204934"><ele>266.6666666666667</ele><time>2026-04-18T12:27:03Z</time></trkpt><trkpt lat="45.54508484837792" lon="10.49143815690023"><ele>267.0</ele><time>2026-04-18T12:27:04Z</time></trkpt><trkpt lat="45.54501748570513" lon="10.491413816937436"><ele>267.3333333333333</ele><time>2026-04-18T12:27:05Z</time></trkpt><trkpt lat="45.54494642141172" lon="10.491395818464559"><ele>267.66666666666663</ele><time>2026-04-18T12:27:06Z</time></trkpt><trkpt lat="45.544877383540594" lon="10.491402828392275"><ele>268.0</ele><time>2026-04-18T12:27:07Z</time></trkpt><trkpt lat="45.54481322400896" lon="10.491444372163462"><ele>268.0</ele><time>2026-04-18T12:27:08Z</time></trkpt><trkpt lat="45.54471091969958" lon="10.491498839236138"><ele>268.0</ele><time>2026-04-18T12:27:10Z</time></trkpt><trkpt lat="45.54464860811295" lon="10.49145421419402"><ele>268.0</ele><time>2026-04-18T12:27:11Z</time></trkpt><trkpt lat="45.544549468414594" lon="10.491404730929121"><ele>268.0</ele><time>2026-04-18T12:27:13Z</time></trkpt><trkpt lat="45.54444286871335" lon="10.491367178374235"><ele>268.0</ele><time>2026-04-18T12:27:15Z</time></trkpt><trkpt lat="45.544346073722444" lon="10.491286123836195"><ele>270.0</ele><time>2026-04-18T12:27:17Z</time></trkpt><trkpt lat="45.54427438006045" lon="10.491234755779839"><ele>272.0</ele><time>2026-04-18T12:27:19Z</time></trkpt><trkpt lat="45.5441869172084" lon="10.491164229285102"><ele>274.0</ele><time>2026-04-18T12:27:21Z</time></trkpt><trkpt lat="45.54409507058856" lon="10.49111289863254"><ele>276.0</ele><time>2026-04-18T12:27:23Z</time></trkpt><trkpt lat="45.54401153445817" lon="10.491126614632165"><ele>278.0</ele><time>2026-04-18T12:27:26Z</time></trkpt><trkpt lat="45.54395622779008" lon="10.49117004891356"><ele>280.0</ele><time>2026-04-18T12:27:28Z</time></trkpt><trkpt lat="45.54388332619215" lon="10.491185592485282"><ele>280.0</ele><time>2026-04-18T12:27:30Z</time></trkpt><trkpt lat="45.54380706545943" lon="10.491266475807544"><ele>280.0</ele><time>2026-04-18T12:27:32Z</time></trkpt><trkpt lat="45.543711423653484" lon="10.491365919076912"><ele>280.0</ele><time>2026-04-18T12:27:34Z</time></trkpt><trkpt lat="45.54365100425244" lon="10.491409257052938"><ele>280.0</ele><time>2026-04-18T12:27:35Z</time></trkpt><trkpt lat="45.543555577396894" lon="10.491467425670344"><ele>280.0</ele><time>2026-04-18T12:27:37Z</time></trkpt><trkpt lat="45.54349630198325" lon="10.491561139874257"><ele>280.0</ele><time>2026-04-18T12:27:52Z</time></trkpt><trkpt lat="45.54343237439672" lon="10.491651317096492"><ele>280.0</ele><time>2026-04-18T12:27:54Z</time></trkpt><trkpt lat="45.54332088227482" lon="10.491738075626914"><ele>280.0</ele><time>2026-04-18T12:27:56Z</time></trkpt><trkpt lat="45.543262532617824" lon="10.491774979470394"><ele>280.0</ele><time>2026-04-18T12:27:57Z</time></trkpt><trkpt lat="45.54314665951942" lon="10.491853519477093"><ele>280.0</ele><time>2026-04-18T12:27:59Z</time></trkpt><trkpt lat="45.54307770578155" lon="10.491892389328155"><ele>280.0</ele><time>2026-04-18T12:28:00Z</time></trkpt><trkpt lat="45.543008408141446" lon="10.49192109099031"><ele>280.0</ele><time>2026-04-18T12:28:01Z</time></trkpt><trkpt lat="45.54292891613783" lon="10.491917155434573"><ele>280.0</ele><time>2026-04-18T12:28:02Z</time></trkpt><trkpt lat="45.542848899253336" lon="10.49189196810359"><ele>280.0</ele><time>2026-04-18T12:28:03Z</time></trkpt><trkpt lat="45.54277500335167" lon="10.49186348361036"><ele>280.0</ele><time>2026-04-18T12:28:04Z</time></trkpt><trkpt lat="45.54269534174901" lon="10.491843960396066"><ele>280.0</ele><time>2026-04-18T12:28:05Z</time></trkpt><trkpt lat="45.54260243456825" lon="10.491832046761433"><ele>281.3333333333333</ele><time>2026-04-18T12:28:06Z</time></trkpt><trkpt lat="45.54251989601653" lon="10.491833734787031"><ele>282.66666666666663</ele><time>2026-04-18T12:28:07Z</time></trkpt><trkpt lat="45.54244047856463" lon="10.491825382471784"><ele>284.0</ele><time>2026-04-18T12:28:08Z</time></trkpt><trkpt lat="45.54235914219924" lon="10.491811083017204"><ele>285.3333333333333</ele><time>2026-04-18T12:28:09Z</time></trkpt><trkpt lat="45.54226469047157" lon="10.491797139025612"><ele>286.6666666666667</ele><time>2026-04-18T12:28:10Z</time></trkpt><trkpt lat="45.542176863304014" lon="10.491799817713742"><ele>288.0</ele><time>2026-04-18T12:28:11Z</time></trkpt><trkpt lat="45.542093197526825" lon="10.491834032009413"><ele>288.0</ele><time>2026-04-18T12:28:12Z</time></trkpt><trkpt lat="45.54200923288979" lon="10.49186190574506"><ele>288.0</ele><time>2026-04-18T12:28:14Z</time></trkpt><trkpt lat="45.54201928648251" lon="10.491771371995803"><ele>288.0</ele><time>2026-04-18T12:28:17Z</time></trkpt><trkpt lat="45.54211129207009" lon="10.491670899994315"><ele>288.0</ele><time>2026-04-18T12:28:19Z</time></trkpt><trkpt lat="45.54218462096032" lon="10.491609003563317"><ele>288.0</ele><time>2026-04-18T12:28:20Z</time></trkpt><trkpt lat="45.54225302016594" lon="10.49155544848089"><ele>288.0</ele><time>2026-04-18T12:28:21Z</time></trkpt><trkpt lat="45.542316902214836" lon="10.491509129186277"><ele>288.0</ele><time>2026-04-18T12:28:22Z</time></trkpt><trkpt lat="45.542431784819996" lon="10.49147471521085"><ele>288.0</ele><time>2026-04-18T12:28:24Z</time></trkpt><trkpt lat="45.54249535662016" lon="10.491452947074883"><ele>288.0</ele><time>2026-04-18T12:28:25Z</time></trkpt><trkpt lat="45.54256811383701" lon="10.491355791338458"><ele>288.0</ele><time>2026-04-18T12:28:27Z</time></trkpt><trkpt lat="45.54254359077286" lon="10.491272604352746"><ele>288.0</ele><time>2026-04-18T12:28:29Z</time></trkpt><trkpt lat="45.54241276962866" lon="10.491209755670903"><ele>289.2</ele><time>2026-04-18T12:28:31Z</time></trkpt><trkpt lat="45.54233341418998" lon="10.491171457353483"><ele>290.4</ele><time>2026-04-18T12:28:32Z</time></trkpt><trkpt lat="45.54223644528293" lon="10.49112209590504"><ele>291.59999999999997</ele><time>2026-04-18T12:28:33Z</time></trkpt><trkpt lat="45.54212788668279" lon="10.491085598534807"><ele>292.8</ele><time>2026-04-18T12:28:34Z</time></trkpt><trkpt lat="45.542022112600385" lon="10.49105453922137"><ele>294.0</ele><time>2026-04-18T12:28:35Z</time></trkpt><trkpt lat="45.54191641359129" lon="10.491031788875667"><ele>294.3333333333333</ele><time>2026-04-18T12:28:36Z</time></trkpt><trkpt lat="45.54182644995655" lon="10.491026758440166"><ele>294.6666666666667</ele><time>2026-04-18T12:28:37Z</time></trkpt><trkpt lat="45.54173755647097" lon="10.491007868364347"><ele>295.0</ele><time>2026-04-18T12:28:38Z</time></trkpt><trkpt lat="45.54163641067719" lon="10.49099582181819"><ele>295.33333333333337</ele><time>2026-04-18T12:28:40Z</time></trkpt><trkpt lat="45.54155889475805" lon="10.490971039092962"><ele>295.6666666666667</ele><time>2026-04-18T12:28:42Z</time></trkpt><trkpt lat="45.54148997307723" lon="10.490943125874297"><ele>296.0</ele><time>2026-04-18T12:28:44Z</time></trkpt><trkpt lat="45.541355722305134" lon="10.490945272211322"><ele>296.0</ele><time>2026-04-18T12:28:46Z</time></trkpt><trkpt lat="45.54126721688392" lon="10.490961253806592"><ele>296.0</ele><time>2026-04-18T12:28:47Z</time></trkpt><trkpt lat="45.54117119539264" lon="10.49096900426511"><ele>296.0</ele><time>2026-04-18T12:28:48Z</time></trkpt><trkpt lat="45.541075363365266" lon="10.490981309997895"><ele>296.0</ele><time>2026-04-18T12:28:49Z</time></trkpt><trkpt lat="45.540943065754526" lon="10.49099537883664"><ele>296.0</ele><time>2026-04-18T12:28:50Z</time></trkpt><trkpt lat="45.540842036927565" lon="10.491021465244811"><ele>296.6666666666667</ele><time>2026-04-18T12:28:51Z</time></trkpt><trkpt lat="45.540746210779346" lon="10.491043800688358"><ele>297.33333333333337</ele><time>2026-04-18T12:28:52Z</time></trkpt><trkpt lat="45.54066226592877" lon="10.491063576117247"><ele>298.0</ele><time>2026-04-18T12:28:53Z</time></trkpt><trkpt lat="45.54057549899336" lon="10.491066545984351"><ele>298.6666666666667</ele><time>2026-04-18T12:28:54Z</time></trkpt><trkpt lat="45.54051162254718" lon="10.491063445787397"><ele>299.3333333333333</ele><time>2026-04-18T12:28:55Z</time></trkpt><trkpt lat="45.54043127160058" lon="10.491051875222484"><ele>300.0</ele><time>2026-04-18T12:28:56Z</time></trkpt><trkpt lat="45.54035857974304" lon="10.491042599248678"><ele>300.2</ele><time>2026-04-18T12:28:57Z</time></trkpt><trkpt lat="45.540264007095594" lon="10.491021073004601"><ele>300.4</ele><time>2026-04-18T12:28:58Z</time></trkpt><trkpt lat="45.5401857630169" lon="10.490972036030481"><ele>300.6</ele><time>2026-04-18T12:28:59Z</time></trkpt><trkpt lat="45.54009498973394" lon="10.490946594723107"><ele>300.8</ele><time>2026-04-18T12:29:00Z</time></trkpt><trkpt lat="45.53998872746885" lon="10.490913539587833"><ele>301.0</ele><time>2026-04-18T12:29:01Z</time></trkpt><trkpt lat="45.53987251065001" lon="10.490877387873374"><ele>301.0</ele><time>2026-04-18T12:29:02Z</time></trkpt><trkpt lat="45.539758604477655" lon="10.490840336993816"><ele>301.0</ele><time>2026-04-18T12:29:03Z</time></trkpt><trkpt lat="45.539646562976124" lon="10.490798161476315"><ele>301.0</ele><time>2026-04-18T12:29:04Z</time></trkpt><trkpt lat="45.539533360625995" lon="10.490753794964974"><ele>301.0</ele><time>2026-04-18T12:29:05Z</time></trkpt><trkpt lat="45.53942196952905" lon="10.49070379975621"><ele>300.8</ele><time>2026-04-18T12:29:06Z</time></trkpt><trkpt lat="45.53931037409625" lon="10.49066411539184"><ele>300.6</ele><time>2026-04-18T12:29:07Z</time></trkpt><trkpt lat="45.53920220637482" lon="10.49062890571831"><ele>300.4</ele><time>2026-04-18T12:29:08Z</time></trkpt><trkpt lat="45.53910264824791" lon="10.49059669419387"><ele>300.2</ele><time>2026-04-18T12:29:09Z</time></trkpt><trkpt lat="45.5390034641758" lon="10.490564603679864"><ele>300.0</ele><time>2026-04-18T12:29:10Z</time></trkpt><trkpt lat="45.53890698211979" lon="10.49053338738926"><ele>300.0</ele><time>2026-04-18T12:29:11Z</time></trkpt><trkpt lat="45.53881012860814" lon="10.49050205093309"><ele>300.0</ele><time>2026-04-18T12:29:12Z</time></trkpt><trkpt lat="45.53870926716946" lon="10.490490657985513"><ele>300.0</ele><time>2026-04-18T12:29:13Z</time></trkpt><trkpt lat="45.53861668429994" lon="10.490443896895316"><ele>300.0</ele><time>2026-04-18T12:29:14Z</time></trkpt><trkpt lat="45.538527354384705" lon="10.490399875643591"><ele>300.0</ele><time>2026-04-18T12:29:15Z</time></trkpt><trkpt lat="45.53845125694406" lon="10.490359091833128"><ele>300.6666666666667</ele><time>2026-04-18T12:29:16Z</time></trkpt><trkpt lat="45.53837181656713" lon="10.490327864623353"><ele>301.3333333333333</ele><time>2026-04-18T12:29:18Z</time></trkpt><trkpt lat="45.53828424200231" lon="10.490264493317673"><ele>302.0</ele><time>2026-04-18T12:30:30.001Z</time></trkpt><trkpt lat="45.53819516549001" lon="10.490243998367403"><ele>302.66666666666663</ele><time>2026-04-18T12:30:34.001Z</time></trkpt><trkpt lat="45.538092713796665" lon="10.490196481527871"><ele>303.3333333333333</ele><time>2026-04-18T12:30:36.001Z</time></trkpt><trkpt lat="45.53802833323081" lon="10.490181819908642"><ele>304.0</ele><time>2026-04-18T12:30:37.001Z</time></trkpt><trkpt lat="45.537958405176255" lon="10.490166056595637"><ele>304.0</ele><time>2026-04-18T12:30:38.001Z</time></trkpt><trkpt lat="45.53789022848946" lon="10.490150158654835"><ele>304.0</ele><time>2026-04-18T12:30:39.001Z</time></trkpt><trkpt lat="45.53782411339768" lon="10.490133378053164"><ele>304.0</ele><time>2026-04-18T12:30:40.001Z</time></trkpt><trkpt lat="45.53776274557737" lon="10.49011310780841"><ele>304.0</ele><time>2026-04-18T12:30:41.001Z</time></trkpt><trkpt lat="45.53768662773095" lon="10.490132456378994"><ele>304.0</ele><time>2026-04-18T12:30:42.001Z</time></trkpt><trkpt lat="45.537618596619765" lon="10.490100075302525"><ele>304.0</ele><time>2026-04-18T12:30:43.001Z</time></trkpt><trkpt lat="45.537549653097436" lon="10.490062741692055"><ele>304.0</ele><time>2026-04-18T12:30:44.001Z</time></trkpt><trkpt lat="45.537490399182275" lon="10.490021245186547"><ele>303.2</ele><time>2026-04-18T12:30:45.001Z</time></trkpt><trkpt lat="45.537380608771386" lon="10.489921325410991"><ele>302.4</ele><time>2026-04-18T12:30:47Z</time></trkpt><trkpt lat="45.53730699061572" lon="10.48985572758336"><ele>301.6</ele><time>2026-04-18T12:30:48Z</time></trkpt><trkpt lat="45.537221980763405" lon="10.48979382257944"><ele>300.8</ele><time>2026-04-18T12:30:49Z</time></trkpt><trkpt lat="45.53711392553315" lon="10.489732752944237"><ele>300.0</ele><time>2026-04-18T12:30:50Z</time></trkpt><trkpt lat="45.5370153370948" lon="10.489660648286034"><ele>300.5</ele><time>2026-04-18T12:30:51Z</time></trkpt><trkpt lat="45.536914182957915" lon="10.4895720612703"><ele>301.0</ele><time>2026-04-18T12:30:52Z</time></trkpt><trkpt lat="45.5368038626791" lon="10.489467391898033"><ele>301.5</ele><time>2026-04-18T12:30:53Z</time></trkpt><trkpt lat="45.536694462838156" lon="10.489377388524808"><ele>302.0</ele><time>2026-04-18T12:30:54Z</time></trkpt><trkpt lat="45.53659548308048" lon="10.489281912845447"><ele>302.0</ele><time>2026-04-18T12:30:55Z</time></trkpt><trkpt lat="45.53651383256813" lon="10.489204442946269"><ele>302.0</ele><time>2026-04-18T12:30:56Z</time></trkpt><trkpt lat="45.53644350441807" lon="10.489112519706294"><ele>302.0</ele><time>2026-04-18T12:30:57Z</time></trkpt><trkpt lat="45.53635349804465" lon="10.489070782564266"><ele>302.0</ele><time>2026-04-18T12:30:58Z</time></trkpt><trkpt lat="45.53627327007385" lon="10.488991129305157"><ele>302.0</ele><time>2026-04-18T12:30:59Z</time></trkpt><trkpt lat="45.53618523973" lon="10.488947993057163"><ele>302.0</ele><time>2026-04-18T12:31:00Z</time></trkpt><trkpt lat="45.53610497141625" lon="10.48886789348314"><ele>302.0</ele><time>2026-04-18T12:31:01Z</time></trkpt><trkpt lat="45.536017050380416" lon="10.488807730722327"><ele>302.0</ele><time>2026-04-18T12:31:02Z</time></trkpt><trkpt lat="45.5359382937831" lon="10.48875375008937"><ele>302.0</ele><time>2026-04-18T12:31:03Z</time></trkpt><trkpt lat="45.53585440979691" lon="10.48871442158714"><ele>302.0</ele><time>2026-04-18T12:31:04Z</time></trkpt><trkpt lat="45.53577890699784" lon="10.488645374076668"><ele>302.0</ele><time>2026-04-18T12:31:05Z</time></trkpt><trkpt lat="45.53570601266232" lon="10.488574145925902"><ele>302.0</ele><time>2026-04-18T12:31:06Z</time></trkpt><trkpt lat="45.53563383337351" lon="10.48849998570902"><ele>302.0</ele><time>2026-04-18T12:31:07Z</time></trkpt><trkpt lat="45.535560867930286" lon="10.48842958271466"><ele>302.0</ele><time>2026-04-18T12:31:08Z</time></trkpt><trkpt lat="45.53549238956777" lon="10.488360272064572"><ele>302.0</ele><time>2026-04-18T12:31:09Z</time></trkpt><trkpt lat="45.53542906602193" lon="10.488281765812996"><ele>302.0</ele><time>2026-04-18T12:31:10Z</time></trkpt><trkpt lat="45.53536627955988" lon="10.488221197279309"><ele>302.0</ele><time>2026-04-18T12:31:11Z</time></trkpt><trkpt lat="45.535310428713665" lon="10.488174266989619"><ele>302.0</ele><time>2026-04-18T12:31:12Z</time></trkpt><trkpt lat="45.53522961413841" lon="10.488118152479927"><ele>302.0</ele><time>2026-04-18T12:31:13Z</time></trkpt><trkpt lat="45.53515455672713" lon="10.488062419171227"><ele>302.0</ele><time>2026-04-18T12:31:14Z</time></trkpt><trkpt lat="45.53507576458687" lon="10.488004037428583"><ele>302.0</ele><time>2026-04-18T12:31:15Z</time></trkpt><trkpt lat="45.53500387008888" lon="10.487948790874603"><ele>302.0</ele><time>2026-04-18T12:31:16Z</time></trkpt><trkpt lat="45.53494162445318" lon="10.487903005358932"><ele>302.0</ele><time>2026-04-18T12:31:17Z</time></trkpt><trkpt lat="45.53487719883794" lon="10.48785102490339"><ele>302.0</ele><time>2026-04-18T12:31:18Z</time></trkpt><trkpt lat="45.5348130769232" lon="10.487814750124985"><ele>302.0</ele><time>2026-04-18T12:31:19Z</time></trkpt><trkpt lat="45.5347458797388" lon="10.487782574287456"><ele>302.0</ele><time>2026-04-18T12:31:20Z</time></trkpt><trkpt lat="45.53466451946537" lon="10.487725084402525"><ele>302.0</ele><time>2026-04-18T12:31:22Z</time></trkpt><trkpt lat="45.534654555068585" lon="10.48763591425773"><ele>302.0</ele><time>2026-04-18T12:31:24Z</time></trkpt><trkpt lat="45.53465914200167" lon="10.487495418207258"><ele>302.0</ele><time>2026-04-18T12:31:27Z</time></trkpt><trkpt lat="45.5346412051605" lon="10.487403439061168"><ele>302.0</ele><time>2026-04-18T12:31:29Z</time></trkpt><trkpt lat="45.53458885570303" lon="10.487292230170906"><ele>302.0</ele><time>2026-04-18T12:31:31Z</time></trkpt><trkpt lat="45.53453365729346" lon="10.487177805937323"><ele>302.0</ele><time>2026-04-18T12:31:33Z</time></trkpt><trkpt lat="45.53446616546929" lon="10.487055978531533"><ele>302.0</ele><time>2026-04-18T12:31:35Z</time></trkpt><trkpt lat="45.53441155967782" lon="10.486905099751008"><ele>301.6666666666667</ele><time>2026-04-18T12:31:37Z</time></trkpt><trkpt lat="45.53439143155671" lon="10.486806043064986"><ele>301.33333333333337</ele><time>2026-04-18T12:31:38Z</time></trkpt><trkpt lat="45.53437262977887" lon="10.486700191988897"><ele>301.0</ele><time>2026-04-18T12:31:39Z</time></trkpt><trkpt lat="45.534360720356815" lon="10.48660509548771"><ele>300.6666666666667</ele><time>2026-04-18T12:31:40Z</time></trkpt><trkpt lat="45.53435702413204" lon="10.486436833394505"><ele>300.3333333333333</ele><time>2026-04-18T12:31:42Z</time></trkpt><trkpt lat="45.53435218202173" lon="10.48629504610066"><ele>300.0</ele><time>2026-04-18T12:31:44Z</time></trkpt><trkpt lat="45.53432600716645" lon="10.486181655308439"><ele>301.5</ele><time>2026-04-18T12:31:46Z</time></trkpt><trkpt lat="45.53425545340037" lon="10.486132367559229"><ele>303.0</ele><time>2026-04-18T12:31:49Z</time></trkpt><trkpt lat="45.53418213304758" lon="10.486055684382064"><ele>304.5</ele><time>2026-04-18T12:31:52Z</time></trkpt><trkpt lat="45.53411585616279" lon="10.486014909742398"><ele>306.0</ele><time>2026-04-18T12:31:54Z</time></trkpt><trkpt lat="45.53405853900231" lon="10.48596481460985"><ele>307.5</ele><time>2026-04-18T12:31:56Z</time></trkpt><trkpt lat="45.53399849643633" lon="10.485906350047488"><ele>309.0</ele><time>2026-04-18T12:31:58Z</time></trkpt><trkpt lat="45.5339168485802" lon="10.485825931840141"><ele>309.0</ele><time>2026-04-18T12:32:01Z</time></trkpt><trkpt lat="45.5338394259501" lon="10.485758278842912"><ele>309.0</ele><time>2026-04-18T12:32:03Z</time></trkpt><trkpt lat="45.53375264962509" lon="10.485687337892204"><ele>309.0</ele><time>2026-04-18T12:32:05Z</time></trkpt><trkpt lat="45.53366136350394" lon="10.48561680270126"><ele>309.0</ele><time>2026-04-18T12:32:07Z</time></trkpt><trkpt lat="45.53359612374526" lon="10.48555963163535"><ele>309.0</ele><time>2026-04-18T12:32:09Z</time></trkpt><trkpt lat="45.53354174335786" lon="10.485514148080767"><ele>309.0</ele><time>2026-04-18T12:32:11Z</time></trkpt><trkpt lat="45.53351029815088" lon="10.485433202289027"><ele>310.6666666666667</ele><time>2026-04-18T12:32:13Z</time></trkpt><trkpt lat="45.53339920161963" lon="10.485347715070176"><ele>312.3333333333333</ele><time>2026-04-18T12:32:15Z</time></trkpt><trkpt lat="45.5333164520653" lon="10.485320421400644"><ele>314.0</ele><time>2026-04-18T12:32:17Z</time></trkpt><trkpt lat="45.533253898962435" lon="10.48529509026084"><ele>315.66666666666663</ele><time>2026-04-18T12:32:19Z</time></trkpt><trkpt lat="45.533168028257506" lon="10.485230983831466"><ele>317.3333333333333</ele><time>2026-04-18T12:32:21Z</time></trkpt><trkpt lat="45.533109837853395" lon="10.485194530907219"><ele>319.0</ele><time>2026-04-18T12:32:22Z</time></trkpt><trkpt lat="45.533021707648835" lon="10.4851172592518"><ele>319.0</ele><time>2026-04-18T12:32:24Z</time></trkpt><trkpt lat="45.53292666897792" lon="10.485026076106635"><ele>319.0</ele><time>2026-04-18T12:32:26Z</time></trkpt><trkpt lat="45.53284221027394" lon="10.484924858123534"><ele>319.0</ele><time>2026-04-18T12:32:28Z</time></trkpt><trkpt lat="45.53278126538611" lon="10.484884980564724"><ele>319.0</ele><time>2026-04-18T12:32:29Z</time></trkpt><trkpt lat="45.53272791194" lon="10.484806588882982"><ele>319.0</ele><time>2026-04-18T12:32:31Z</time></trkpt><trkpt lat="45.532661545933884" lon="10.484742431034809"><ele>319.0</ele><time>2026-04-18T12:32:34Z</time></trkpt><trkpt lat="45.532600124038204" lon="10.484643886233629"><ele>318.16666666666663</ele><time>2026-04-18T12:32:37Z</time></trkpt><trkpt lat="45.53251264771218" lon="10.484549345759579"><ele>317.3333333333333</ele><time>2026-04-18T12:32:39Z</time></trkpt><trkpt lat="45.532448466978735" lon="10.48448592015477"><ele>316.5</ele><time>2026-04-18T12:32:40Z</time></trkpt><trkpt lat="45.53240012434863" lon="10.48441650310534"><ele>315.6666666666667</ele><time>2026-04-18T12:32:41Z</time></trkpt><trkpt lat="45.5323422358186" lon="10.4843541662568"><ele>314.83333333333337</ele><time>2026-04-18T12:32:42Z</time></trkpt><trkpt lat="45.53228768194423" lon="10.484303184379936"><ele>314.0</ele><time>2026-04-18T12:32:43Z</time></trkpt><trkpt lat="45.53223412654869" lon="10.484251782276147"><ele>314.0</ele><time>2026-04-18T12:32:44Z</time></trkpt><trkpt lat="45.53215945651113" lon="10.48419014911542"><ele>314.0</ele><time>2026-04-18T12:32:45Z</time></trkpt><trkpt lat="45.532092660184084" lon="10.48410092334509"><ele>314.0</ele><time>2026-04-18T12:32:46Z</time></trkpt><trkpt lat="45.53203547019327" lon="10.484013482708688"><ele>314.0</ele><time>2026-04-18T12:32:47Z</time></trkpt><trkpt lat="45.53198582881671" lon="10.483948461185456"><ele>314.0</ele><time>2026-04-18T12:32:48Z</time></trkpt><trkpt lat="45.53189542715002" lon="10.483849918438064"><ele>314.0</ele><time>2026-04-18T12:32:50Z</time></trkpt><trkpt lat="45.531769958055655" lon="10.483764222061838"><ele>313.59999999999997</ele><time>2026-04-18T12:32:52Z</time></trkpt><trkpt lat="45.531693158005524" lon="10.483737679696542"><ele>313.2</ele><time>2026-04-18T12:32:53Z</time></trkpt><trkpt lat="45.53160177512626" lon="10.483715735213277"><ele>312.79999999999995</ele><time>2026-04-18T12:32:54Z</time></trkpt><trkpt lat="45.5314845586149" lon="10.483683762736293"><ele>312.4</ele><time>2026-04-18T12:32:55Z</time></trkpt><trkpt lat="45.53137403160479" lon="10.48364331129022"><ele>312.0</ele><time>2026-04-18T12:32:56Z</time></trkpt><trkpt lat="45.53128222667843" lon="10.483614318227833"><ele>312.8</ele><time>2026-04-18T12:32:57Z</time></trkpt><trkpt lat="45.53121012461975" lon="10.483609547612279"><ele>313.6</ele><time>2026-04-18T12:32:58Z</time></trkpt><trkpt lat="45.531100950290416" lon="10.483623005098869"><ele>314.40000000000003</ele><time>2026-04-18T12:33:00Z</time></trkpt><trkpt lat="45.53097713338883" lon="10.483646484453928"><ele>315.2</ele><time>2026-04-18T12:33:02Z</time></trkpt><trkpt lat="45.53088027259575" lon="10.48366294794664"><ele>316.0</ele><time>2026-04-18T12:33:04Z</time></trkpt><trkpt lat="45.530769473327375" lon="10.483702852926099"><ele>316.00000000000006</ele><time>2026-04-18T12:33:06Z</time></trkpt><trkpt lat="45.530692684468974" lon="10.48372025261749"><ele>316.0</ele><time>2026-04-18T12:33:07Z</time></trkpt><trkpt lat="45.53061999660892" lon="10.483736631763108"><ele>316.0</ele><time>2026-04-18T12:33:08Z</time></trkpt><trkpt lat="45.5305456756043" lon="10.483746649552009"><ele>316.0</ele><time>2026-04-18T12:33:09Z</time></trkpt><trkpt lat="45.53047806200888" lon="10.48376728047013"><ele>316.0</ele><time>2026-04-18T12:33:10Z</time></trkpt><trkpt lat="45.53040730377491" lon="10.483793612008302"><ele>316.00000000000006</ele><time>2026-04-18T12:33:11Z</time></trkpt><trkpt lat="45.530337933601075" lon="10.483826698586288"><ele>316.0</ele><time>2026-04-18T12:33:12Z</time></trkpt><trkpt lat="45.530270666906084" lon="10.483847288922162"><ele>314.3333333333333</ele><time>2026-04-18T12:33:13Z</time></trkpt><trkpt lat="45.530166117402814" lon="10.483894847837547"><ele>312.66666666666663</ele><time>2026-04-18T12:33:15Z</time></trkpt><trkpt lat="45.530063305427745" lon="10.483936622931058"><ele>311.0</ele><time>2026-04-18T12:33:17Z</time></trkpt><trkpt lat="45.53000520962091" lon="10.483972741653147"><ele>309.3333333333333</ele><time>2026-04-18T12:33:18Z</time></trkpt><trkpt lat="45.52991853790333" lon="10.484007755468081"><ele>307.6666666666667</ele><time>2026-04-18T12:33:19Z</time></trkpt><trkpt lat="45.52985541838643" lon="10.484036236631242"><ele>306.0</ele><time>2026-04-18T12:33:20Z</time></trkpt><trkpt lat="45.52976971472591" lon="10.484056297576124"><ele>306.0</ele><time>2026-04-18T12:33:22Z</time></trkpt><trkpt lat="45.5296879345262" lon="10.484111391781566"><ele>306.0</ele><time>2026-04-18T12:33:24Z</time></trkpt><trkpt lat="45.529649328353756" lon="10.484182452690822"><ele>306.0</ele><time>2026-04-18T12:33:26Z</time></trkpt><trkpt lat="45.52963450101504" lon="10.484306959424504"><ele>306.0</ele><time>2026-04-18T12:33:29Z</time></trkpt><trkpt lat="45.52957538839754" lon="10.484377031148796"><ele>306.0</ele><time>2026-04-18T12:33:33Z</time></trkpt><trkpt lat="45.52952337178495" lon="10.484449778168903"><ele>306.0</ele><time>2026-04-18T12:33:36Z</time></trkpt><trkpt lat="45.52947376988072" lon="10.484538025525767"><ele>305.0</ele><time>2026-04-18T12:33:38Z</time></trkpt><trkpt lat="45.52944332990121" lon="10.484636409587775"><ele>304.0</ele><time>2026-04-18T12:33:40Z</time></trkpt><trkpt lat="45.52942312407106" lon="10.48474636255594"><ele>303.0</ele><time>2026-04-18T12:33:42Z</time></trkpt><trkpt lat="45.52937713460798" lon="10.484904391015988"><ele>302.0</ele><time>2026-04-18T12:33:44Z</time></trkpt><trkpt lat="45.52934062691232" lon="10.484996048167622"><ele>301.0</ele><time>2026-04-18T12:33:45Z</time></trkpt><trkpt lat="45.529285760216425" lon="10.485157288579353"><ele>301.0</ele><time>2026-04-18T12:33:47Z</time></trkpt><trkpt lat="45.52924097557636" lon="10.485261566103803"><ele>301.0</ele><time>2026-04-18T12:33:49Z</time></trkpt><trkpt lat="45.529161264283324" lon="10.4853611316283"><ele>301.0</ele><time>2026-04-18T12:33:51Z</time></trkpt><trkpt lat="45.52906460407202" lon="10.485415786724758"><ele>301.0</ele><time>2026-04-18T12:33:53Z</time></trkpt><trkpt lat="45.5289639367186" lon="10.485443556687148"><ele>301.0</ele><time>2026-04-18T12:33:55Z</time></trkpt><trkpt lat="45.52887214056241" lon="10.485482412326329"><ele>299.5</ele><time>2026-04-18T12:33:57Z</time></trkpt><trkpt lat="45.52876695964558" lon="10.485516075676813"><ele>298.0</ele><time>2026-04-18T12:33:59Z</time></trkpt><trkpt lat="45.52868631116292" lon="10.485528300483645"><ele>296.5</ele><time>2026-04-18T12:34:01Z</time></trkpt><trkpt lat="45.528623396875716" lon="10.485551172302094"><ele>295.0</ele><time>2026-04-18T12:34:03Z</time></trkpt><trkpt lat="45.528537070846255" lon="10.485612804194556"><ele>293.5</ele><time>2026-04-18T12:34:05Z</time></trkpt><trkpt lat="45.52848521244679" lon="10.485689505159476"><ele>292.0</ele><time>2026-04-18T12:34:07Z</time></trkpt><trkpt lat="45.52840120835917" lon="10.485796496493155"><ele>292.0</ele><time>2026-04-18T12:34:09Z</time></trkpt><trkpt lat="45.52835015257869" lon="10.485865825831878"><ele>292.0</ele><time>2026-04-18T12:34:10Z</time></trkpt><trkpt lat="45.528293227842696" lon="10.48593564545259"><ele>292.0</ele><time>2026-04-18T12:34:11Z</time></trkpt><trkpt lat="45.52824426685834" lon="10.4860116399642"><ele>292.0</ele><time>2026-04-18T12:34:12Z</time></trkpt><trkpt lat="45.528200245101715" lon="10.48610170419116"><ele>292.0</ele><time>2026-04-18T12:34:13Z</time></trkpt><trkpt lat="45.5281600062449" lon="10.486203775240817"><ele>292.0</ele><time>2026-04-18T12:34:14Z</time></trkpt><trkpt lat="45.528128629822575" lon="10.486300355032267"><ele>290.66666666666663</ele><time>2026-04-18T12:34:15Z</time></trkpt><trkpt lat="45.528093642444894" lon="10.486402370796117"><ele>289.3333333333333</ele><time>2026-04-18T12:34:16Z</time></trkpt><trkpt lat="45.528062496405106" lon="10.48649783874678"><ele>288.0</ele><time>2026-04-18T12:34:17Z</time></trkpt><trkpt lat="45.52803128874553" lon="10.48657644869859"><ele>286.6666666666667</ele><time>2026-04-18T12:34:18Z</time></trkpt><trkpt lat="45.52798750999757" lon="10.486642735160885"><ele>285.33333333333337</ele><time>2026-04-18T12:34:19Z</time></trkpt><trkpt lat="45.52794572945603" lon="10.486719528103986"><ele>284.0</ele><time>2026-04-18T12:34:20Z</time></trkpt><trkpt lat="45.527828597416885" lon="10.486794470607714"><ele>284.0</ele><time>2026-04-18T12:34:22Z</time></trkpt><trkpt lat="45.5277556918012" lon="10.48680130065197"><ele>284.0</ele><time>2026-04-18T12:34:23Z</time></trkpt><trkpt lat="45.52769155218377" lon="10.486816777403105"><ele>284.0</ele><time>2026-04-18T12:34:24Z</time></trkpt><trkpt lat="45.527618683397435" lon="10.48681815210799"><ele>284.0</ele><time>2026-04-18T12:34:25Z</time></trkpt><trkpt lat="45.527537378205295" lon="10.486809095126931"><ele>284.0</ele><time>2026-04-18T12:34:26Z</time></trkpt><trkpt lat="45.52746022463995" lon="10.486784882605983"><ele>284.0</ele><time>2026-04-18T12:34:27Z</time></trkpt><trkpt lat="45.52738597129481" lon="10.486776503902178"><ele>284.0</ele><time>2026-04-18T12:34:28Z</time></trkpt><trkpt lat="45.527319440898296" lon="10.486779073830194"><ele>284.0</ele><time>2026-04-18T12:34:29Z</time></trkpt><trkpt lat="45.5272016247425" lon="10.486781632316523"><ele>284.0</ele><time>2026-04-18T12:34:31Z</time></trkpt><trkpt lat="45.52709528415431" lon="10.486743947677933"><ele>284.0</ele><time>2026-04-18T12:34:33Z</time></trkpt><trkpt lat="45.5270024055521" lon="10.486682219311703"><ele>284.0</ele><time>2026-04-18T12:34:35Z</time></trkpt><trkpt lat="45.52694550063644" lon="10.486567753664206"><ele>284.0</ele><time>2026-04-18T12:34:37Z</time></trkpt><trkpt lat="45.52690549015813" lon="10.48649449055433"><ele>283.5</ele><time>2026-04-18T12:34:38Z</time></trkpt><trkpt lat="45.526854073413055" lon="10.486422066526513"><ele>283.0</ele><time>2026-04-18T12:34:39Z</time></trkpt><trkpt lat="45.526798225453746" lon="10.486372926336553"><ele>282.5</ele><time>2026-04-18T12:34:40Z</time></trkpt><trkpt lat="45.52671591702136" lon="10.486341218642224"><ele>282.0</ele><time>2026-04-18T12:34:41Z</time></trkpt><trkpt lat="45.52665157712283" lon="10.486314416461138"><ele>281.5</ele><time>2026-04-18T12:34:42Z</time></trkpt><trkpt lat="45.526574987757805" lon="10.486288627502443"><ele>281.0</ele><time>2026-04-18T12:34:43Z</time></trkpt><trkpt lat="45.52649656324411" lon="10.486235832116765"><ele>281.0</ele><time>2026-04-18T12:34:44Z</time></trkpt><trkpt lat="45.52640805165816" lon="10.486172903673834"><ele>281.0</ele><time>2026-04-18T12:34:45Z</time></trkpt><trkpt lat="45.52630778343051" lon="10.486114069856102"><ele>281.0</ele><time>2026-04-18T12:34:46Z</time></trkpt><trkpt lat="45.526209027955424" lon="10.486051040302598"><ele>281.0</ele><time>2026-04-18T12:34:47Z</time></trkpt><trkpt lat="45.52612741471207" lon="10.485999155831514"><ele>281.0</ele><time>2026-04-18T12:34:48Z</time></trkpt><trkpt lat="45.526050764601656" lon="10.485953314261609"><ele>278.5</ele><time>2026-04-18T12:34:49Z</time></trkpt><trkpt lat="45.52597904953998" lon="10.485913455492017"><ele>276.0</ele><time>2026-04-18T12:34:50Z</time></trkpt><trkpt lat="45.52591213043253" lon="10.485868627800118"><ele>273.5</ele><time>2026-04-18T12:34:51Z</time></trkpt><trkpt lat="45.52585320331221" lon="10.485834679144434"><ele>271.0</ele><time>2026-04-18T12:34:52Z</time></trkpt><trkpt lat="45.52575048221665" lon="10.485744875358577"><ele>268.5</ele><time>2026-04-18T12:34:54Z</time></trkpt><trkpt lat="45.52566759202024" lon="10.485655814229531"><ele>266.0</ele><time>2026-04-18T12:34:56Z</time></trkpt><trkpt lat="45.52560069007043" lon="10.485634763778664"><ele>266.0</ele><time>2026-04-18T12:34:57Z</time></trkpt><trkpt lat="45.525526461254074" lon="10.485614649312078"><ele>266.0</ele><time>2026-04-18T12:34:59Z</time></trkpt><trkpt lat="45.525468811339266" lon="10.485496669464451"><ele>266.0</ele><time>2026-04-18T12:35:01Z</time></trkpt><trkpt lat="45.52539674565846" lon="10.485359636902897"><ele>266.0</ele><time>2026-04-18T12:35:03Z</time></trkpt><trkpt lat="45.525301709775356" lon="10.485260238021146"><ele>266.0</ele><time>2026-04-18T12:35:05Z</time></trkpt><trkpt lat="45.525249200376194" lon="10.485188890408335"><ele>266.1666666666667</ele><time>2026-04-18T12:35:06Z</time></trkpt><trkpt lat="45.52522208505831" lon="10.485101474835433"><ele>266.33333333333337</ele><time>2026-04-18T12:35:07Z</time></trkpt><trkpt lat="45.52518501554719" lon="10.48497383698139"><ele>266.5</ele><time>2026-04-18T12:35:09Z</time></trkpt><trkpt lat="45.52519030885846" lon="10.484861009293756"><ele>266.6666666666667</ele><time>2026-04-18T12:35:11Z</time></trkpt><trkpt lat="45.52522799010713" lon="10.484772410570871"><ele>266.8333333333333</ele><time>2026-04-18T12:35:12Z</time></trkpt><trkpt lat="45.525242718691224" lon="10.48467487771713"><ele>267.0</ele><time>2026-04-18T12:35:13Z</time></trkpt><trkpt lat="45.52524635419278" lon="10.48456292966333"><ele>267.0</ele><time>2026-04-18T12:35:14Z</time></trkpt><trkpt lat="45.525244512224724" lon="10.484458827143682"><ele>267.0</ele><time>2026-04-18T12:35:15Z</time></trkpt><trkpt lat="45.52524052287065" lon="10.484356805837999"><ele>267.0</ele><time>2026-04-18T12:35:16Z</time></trkpt><trkpt lat="45.525178129731536" lon="10.48422149329696"><ele>267.0</ele><time>2026-04-18T12:35:18Z</time></trkpt><trkpt lat="45.52510759163108" lon="10.484153027953246"><ele>267.0</ele><time>2026-04-18T12:35:20Z</time></trkpt><trkpt lat="45.52503133458097" lon="10.484095337969396"><ele>267.0</ele><time>2026-04-18T12:35:21Z</time></trkpt><trkpt lat="45.52496690990617" lon="10.484052495843544"><ele>267.0</ele><time>2026-04-18T12:35:22Z</time></trkpt><trkpt lat="45.524860204119285" lon="10.483983236563484"><ele>267.0</ele><time>2026-04-18T12:35:24Z</time></trkpt><trkpt lat="45.524802385832935" lon="10.483943491842078"><ele>267.0</ele><time>2026-04-18T12:35:25Z</time></trkpt><trkpt lat="45.52473837322943" lon="10.483916988060061"><ele>267.0</ele><time>2026-04-18T12:35:26Z</time></trkpt><trkpt lat="45.52467155929916" lon="10.483900313071658"><ele>267.0</ele><time>2026-04-18T12:35:27Z</time></trkpt><trkpt lat="45.524598455491805" lon="10.483888675543524"><ele>267.0</ele><time>2026-04-18T12:35:28Z</time></trkpt><trkpt lat="45.52450378615323" lon="10.483873865428622"><ele>265.6666666666667</ele><time>2026-04-18T12:35:29Z</time></trkpt><trkpt lat="45.52443381401846" lon="10.483861744904871"><ele>264.3333333333333</ele><time>2026-04-18T12:35:30Z</time></trkpt><trkpt lat="45.52436178906233" lon="10.48385986723518"><ele>263.0</ele><time>2026-04-18T12:35:31Z</time></trkpt><trkpt lat="45.52429100133446" lon="10.483856673773158"><ele>261.66666666666663</ele><time>2026-04-18T12:35:32Z</time></trkpt><trkpt lat="45.524187703065344" lon="10.48383117313003"><ele>260.3333333333333</ele><time>2026-04-18T12:35:34Z</time></trkpt><trkpt lat="45.52408284350358" lon="10.483794499982388"><ele>259.0</ele><time>2026-04-18T12:35:36Z</time></trkpt><trkpt lat="45.524013655235784" lon="10.483798459382532"><ele>259.0</ele><time>2026-04-18T12:35:37Z</time></trkpt><trkpt lat="45.52388331658077" lon="10.483825032661755"><ele>259.0</ele><time>2026-04-18T12:35:39Z</time></trkpt><trkpt lat="45.523802005360345" lon="10.483801131656357"><ele>259.0</ele><time>2026-04-18T12:35:41Z</time></trkpt><trkpt lat="45.523695218324654" lon="10.483770253752654"><ele>259.0</ele><time>2026-04-18T12:35:43Z</time></trkpt><trkpt lat="45.52359025438019" lon="10.483735262068073"><ele>259.0</ele><time>2026-04-18T12:35:44Z</time></trkpt><trkpt lat="45.52350275220458" lon="10.48369348939377"><ele>259.5</ele><time>2026-04-18T12:35:45Z</time></trkpt><trkpt lat="45.5234130598619" lon="10.483661685052594"><ele>260.0</ele><time>2026-04-18T12:35:46Z</time></trkpt><trkpt lat="45.52333776222499" lon="10.483643332682508"><ele>260.5</ele><time>2026-04-18T12:35:47Z</time></trkpt><trkpt lat="45.52325996976156" lon="10.483622595853689"><ele>261.0</ele><time>2026-04-18T12:35:49Z</time></trkpt><trkpt lat="45.52318132432697" lon="10.48352584005533"><ele>261.5</ele><time>2026-04-18T12:35:52Z</time></trkpt><trkpt lat="45.52312756717199" lon="10.48347819497008"><ele>262.0</ele><time>2026-04-18T12:35:53Z</time></trkpt><trkpt lat="45.523078868694284" lon="10.483396163516273"><ele>262.0</ele><time>2026-04-18T12:35:54Z</time></trkpt><trkpt lat="45.522994488148285" lon="10.48330772776606"><ele>262.0</ele><time>2026-04-18T12:35:55Z</time></trkpt><trkpt lat="45.522926420906884" lon="10.483235807008255"><ele>262.0</ele><time>2026-04-18T12:35:56Z</time></trkpt><trkpt lat="45.522863816430586" lon="10.483173455221662"><ele>262.0</ele><time>2026-04-18T12:35:57Z</time></trkpt><trkpt lat="45.522803501742274" lon="10.483118718210301"><ele>262.0</ele><time>2026-04-18T12:35:58Z</time></trkpt><trkpt lat="45.52274162827303" lon="10.483061623174404"><ele>262.0</ele><time>2026-04-18T12:35:59Z</time></trkpt><trkpt lat="45.52268555784749" lon="10.4830148424249"><ele>262.5</ele><time>2026-04-18T12:36:00Z</time></trkpt><trkpt lat="45.52261561236513" lon="10.482960880889234"><ele>263.0</ele><time>2026-04-18T12:36:01Z</time></trkpt><trkpt lat="45.522540852738295" lon="10.482916401986751"><ele>263.5</ele><time>2026-04-18T12:36:02Z</time></trkpt><trkpt lat="45.52245440956552" lon="10.482856695815869"><ele>264.0</ele><time>2026-04-18T12:36:03Z</time></trkpt><trkpt lat="45.522376345156616" lon="10.482809973575069"><ele>264.5</ele><time>2026-04-18T12:36:04Z</time></trkpt><trkpt lat="45.52230637701646" lon="10.482760070510148"><ele>265.0</ele><time>2026-04-18T12:36:05Z</time></trkpt><trkpt lat="45.52223728491959" lon="10.482709560888647"><ele>265.0</ele><time>2026-04-18T12:36:06Z</time></trkpt><trkpt lat="45.522169962050846" lon="10.482664824629513"><ele>265.0</ele><time>2026-04-18T12:36:07Z</time></trkpt><trkpt lat="45.522103453201396" lon="10.48262886687978"><ele>265.0</ele><time>2026-04-18T12:36:08Z</time></trkpt><trkpt lat="45.522033300456634" lon="10.482585265715286"><ele>265.0</ele><time>2026-04-18T12:36:09Z</time></trkpt><trkpt lat="45.521963776626116" lon="10.482537508381876"><ele>265.0</ele><time>2026-04-18T12:36:10Z</time></trkpt><trkpt lat="45.521894639459354" lon="10.482493823975398"><ele>265.0</ele><time>2026-04-18T12:36:11Z</time></trkpt><trkpt lat="45.521825870115805" lon="10.482451471265053"><ele>262.66666666666663</ele><time>2026-04-18T12:36:12Z</time></trkpt><trkpt lat="45.52175166153365" lon="10.48242633585795"><ele>260.3333333333333</ele><time>2026-04-18T12:36:13Z</time></trkpt><trkpt lat="45.52167917015968" lon="10.482435320265186"><ele>258.0</ele><time>2026-04-18T12:36:14Z</time></trkpt><trkpt lat="45.52159888333313" lon="10.482427090713545"><ele>255.66666666666669</ele><time>2026-04-18T12:36:15Z</time></trkpt><trkpt lat="45.521516520537425" lon="10.482427794423721"><ele>253.33333333333334</ele><time>2026-04-18T12:36:16Z</time></trkpt><trkpt lat="45.52145007422914" lon="10.482415539640758"><ele>251.0</ele><time>2026-04-18T12:36:17Z</time></trkpt><trkpt lat="45.52136663786815" lon="10.482365010027367"><ele>251.00000000000003</ele><time>2026-04-18T12:36:18Z</time></trkpt><trkpt lat="45.521284163624365" lon="10.48230828697089"><ele>251.0</ele><time>2026-04-18T12:36:19Z</time></trkpt><trkpt lat="45.521207351009075" lon="10.482247959110204"><ele>251.0</ele><time>2026-04-18T12:36:20Z</time></trkpt><trkpt lat="45.52113503017716" lon="10.482191383108137"><ele>251.0</ele><time>2026-04-18T12:36:21Z</time></trkpt><trkpt lat="45.52106367692796" lon="10.482132302622567"><ele>251.00000000000003</ele><time>2026-04-18T12:36:22Z</time></trkpt><trkpt lat="45.52099336145201" lon="10.482075344702118"><ele>251.0</ele><time>2026-04-18T12:36:23Z</time></trkpt><trkpt lat="45.5209204538152" lon="10.482023723180331"><ele>251.57142857142856</ele><time>2026-04-18T12:36:24Z</time></trkpt><trkpt lat="45.52086034800844" lon="10.481990035221221"><ele>252.14285714285714</ele><time>2026-04-18T12:36:25Z</time></trkpt><trkpt lat="45.520796010168944" lon="10.481946628920603"><ele>252.71428571428572</ele><time>2026-04-18T12:36:26Z</time></trkpt><trkpt lat="45.52072535838473" lon="10.481916961865071"><ele>253.28571428571428</ele><time>2026-04-18T12:36:27Z</time></trkpt><trkpt lat="45.52065575150944" lon="10.481895264342059"><ele>253.8571428571429</ele><time>2026-04-18T12:36:28Z</time></trkpt><trkpt lat="45.52058599168159" lon="10.481897224410702"><ele>254.42857142857144</ele><time>2026-04-18T12:36:29Z</time></trkpt><trkpt lat="45.52051631359507" lon="10.481908146616766"><ele>255.0</ele><time>2026-04-18T12:36:30Z</time></trkpt><trkpt lat="45.520453113866466" lon="10.481942729808804"><ele>254.16666666666666</ele><time>2026-04-18T12:36:31Z</time></trkpt><trkpt lat="45.52038499724718" lon="10.4819868013482"><ele>253.33333333333331</ele><time>2026-04-18T12:36:32Z</time></trkpt><trkpt lat="45.520309566167526" lon="10.482027891191988"><ele>252.5</ele><time>2026-04-18T12:36:33Z</time></trkpt><trkpt lat="45.52022501614646" lon="10.482041088226824"><ele>251.66666666666666</ele><time>2026-04-18T12:36:34Z</time></trkpt><trkpt lat="45.52014785328883" lon="10.48204383159067"><ele>250.83333333333331</ele><time>2026-04-18T12:36:35Z</time></trkpt><trkpt lat="45.52007753532556" lon="10.482022140154424"><ele>250.0</ele><time>2026-04-18T12:36:36Z</time></trkpt><trkpt lat="45.519999955255955" lon="10.481975303561851"><ele>249.99999999999997</ele><time>2026-04-18T12:36:37Z</time></trkpt><trkpt lat="45.519928522276366" lon="10.481937742441344"><ele>250.0</ele><time>2026-04-18T12:36:38Z</time></trkpt><trkpt lat="45.51985496440601" lon="10.481895637008238"><ele>250.0</ele><time>2026-04-18T12:36:39Z</time></trkpt><trkpt lat="45.519782950143004" lon="10.481853820797204"><ele>250.0</ele><time>2026-04-18T12:36:40Z</time></trkpt><trkpt lat="45.51969493324954" lon="10.481797243875247"><ele>249.99999999999997</ele><time>2026-04-18T12:36:41Z</time></trkpt><trkpt lat="45.51960434932024" lon="10.481734034658475"><ele>250.0</ele><time>2026-04-18T12:36:42Z</time></trkpt><trkpt lat="45.51952190409177" lon="10.481679168420587"><ele>248.49999999999997</ele><time>2026-04-18T12:36:43Z</time></trkpt><trkpt lat="45.51944415575892" lon="10.481624316372336"><ele>247.0</ele><time>2026-04-18T12:36:44Z</time></trkpt><trkpt lat="45.519372487290156" lon="10.4815815312025"><ele>245.5</ele><time>2026-04-18T12:36:45Z</time></trkpt><trkpt lat="45.51927852251482" lon="10.481526583617194"><ele>244.0</ele><time>2026-04-18T12:36:47Z</time></trkpt><trkpt lat="45.51920506753532" lon="10.48147201732019"><ele>242.49999999999997</ele><time>2026-04-18T12:36:49Z</time></trkpt><trkpt lat="45.51913039087145" lon="10.481477327917336"><ele>241.0</ele><time>2026-04-18T12:36:55Z</time></trkpt><trkpt lat="45.51906001818796" lon="10.481472926311534"><ele>241.0</ele><time>2026-04-18T12:36:58Z</time></trkpt><trkpt lat="45.51901868304783" lon="10.481567458606005"><ele>241.00000000000003</ele><time>2026-04-18T12:37:00Z</time></trkpt><trkpt lat="45.51901385654898" lon="10.48173205338952"><ele>241.00000000000003</ele><time>2026-04-18T12:37:02Z</time></trkpt><trkpt lat="45.51899437080597" lon="10.481890361409013"><ele>241.0</ele><time>2026-04-18T12:37:04Z</time></trkpt><trkpt lat="45.5189304726314" lon="10.482009277529519"><ele>241.0</ele><time>2026-04-18T12:37:06Z</time></trkpt><trkpt lat="45.51885996376647" lon="10.48203892907712"><ele>240.99999999999997</ele><time>2026-04-18T12:37:07Z</time></trkpt><trkpt lat="45.51877949184902" lon="10.482032968546015"><ele>241.0</ele><time>2026-04-18T12:37:08Z</time></trkpt><trkpt lat="45.51870919237445" lon="10.482004005077517"><ele>241.0</ele><time>2026-04-18T12:37:09Z</time></trkpt><trkpt lat="45.518626593975874" lon="10.481961886346609"><ele>241.0</ele><time>2026-04-18T12:37:10Z</time></trkpt><trkpt lat="45.51854717041973" lon="10.48194390930012"><ele>240.99999999999997</ele><time>2026-04-18T12:37:11Z</time></trkpt><trkpt lat="45.518465440480384" lon="10.481946002937239"><ele>241.0</ele><time>2026-04-18T12:37:12Z</time></trkpt><trkpt lat="45.51838111201803" lon="10.48195428028283"><ele>240.99999999999997</ele><time>2026-04-18T12:37:13Z</time></trkpt><trkpt lat="45.51830654361275" lon="10.481960717781696"><ele>241.0</ele><time>2026-04-18T12:37:14Z</time></trkpt><trkpt lat="45.51822693031116" lon="10.481954514663583"><ele>241.0</ele><time>2026-04-18T12:37:15Z</time></trkpt><trkpt lat="45.51814777310164" lon="10.481947869779816"><ele>241.0</ele><time>2026-04-18T12:37:16Z</time></trkpt><trkpt lat="45.518069741538916" lon="10.481950390383677"><ele>240.99999999999997</ele><time>2026-04-18T12:37:17Z</time></trkpt><trkpt lat="45.51798729899107" lon="10.481963398018062"><ele>241.0</ele><time>2026-04-18T12:37:18Z</time></trkpt><trkpt lat="45.51790831128624" lon="10.481996984632104"><ele>241.16666666666666</ele><time>2026-04-18T12:37:19Z</time></trkpt><trkpt lat="45.51784355873863" lon="10.482040811316736"><ele>241.33333333333331</ele><time>2026-04-18T12:37:20Z</time></trkpt><trkpt lat="45.517776997112854" lon="10.482086514856976"><ele>241.5</ele><time>2026-04-18T12:37:21Z</time></trkpt><trkpt lat="45.517718500451714" lon="10.482138382284036"><ele>241.66666666666669</ele><time>2026-04-18T12:37:22Z</time></trkpt><trkpt lat="45.517599114153775" lon="10.482184014014916"><ele>241.83333333333334</ele><time>2026-04-18T12:37:24Z</time></trkpt><trkpt lat="45.51753899563183" lon="10.482137321150482"><ele>242.0</ele><time>2026-04-18T12:37:25Z</time></trkpt><trkpt lat="45.51748851632193" lon="10.482076654489541"><ele>242.0</ele><time>2026-04-18T12:37:26Z</time></trkpt><trkpt lat="45.51740080375289" lon="10.481994149267143"><ele>242.0</ele><time>2026-04-18T12:37:27Z</time></trkpt><trkpt lat="45.517316959896206" lon="10.481943044884346"><ele>242.0</ele><time>2026-04-18T12:37:28Z</time></trkpt><trkpt lat="45.51722587447557" lon="10.481913589945949"><ele>242.0</ele><time>2026-04-18T12:37:29Z</time></trkpt><trkpt lat="45.517122219551744" lon="10.4818762919761"><ele>242.0</ele><time>2026-04-18T12:37:30Z</time></trkpt><trkpt lat="45.517017434542474" lon="10.481844908235454"><ele>240.2</ele><time>2026-04-18T12:37:31Z</time></trkpt><trkpt lat="45.51690726790902" lon="10.481812107161527"><ele>238.39999999999998</ele><time>2026-04-18T12:37:32Z</time></trkpt><trkpt lat="45.51679236810818" lon="10.48177835492759"><ele>236.60000000000002</ele><time>2026-04-18T12:37:33Z</time></trkpt><trkpt lat="45.51668420200398" lon="10.481733489742043"><ele>234.8</ele><time>2026-04-18T12:37:34Z</time></trkpt><trkpt lat="45.51658640990104" lon="10.48168467841759"><ele>233.0</ele><time>2026-04-18T12:37:35Z</time></trkpt><trkpt lat="45.51649529364678" lon="10.4816444027425"><ele>233.00000000000003</ele><time>2026-04-18T12:37:36Z</time></trkpt><trkpt lat="45.51641205688" lon="10.481615072985798"><ele>233.0</ele><time>2026-04-18T12:37:37Z</time></trkpt><trkpt lat="45.51632882751893" lon="10.48158617089657"><ele>233.0</ele><time>2026-04-18T12:37:38Z</time></trkpt><trkpt lat="45.5162542627435" lon="10.481556349979325"><ele>233.0</ele><time>2026-04-18T12:37:39Z</time></trkpt><trkpt lat="45.516175727138574" lon="10.481540053599861"><ele>233.00000000000003</ele><time>2026-04-18T12:37:40Z</time></trkpt><trkpt lat="45.51609840148327" lon="10.481522422695733"><ele>233.0</ele><time>2026-04-18T12:37:41Z</time></trkpt><trkpt lat="45.51601541637818" lon="10.48150244210504"><ele>231.8</ele><time>2026-04-18T12:37:42Z</time></trkpt><trkpt lat="45.515930945871176" lon="10.48146771052654"><ele>230.60000000000002</ele><time>2026-04-18T12:37:43Z</time></trkpt><trkpt lat="45.51584397822291" lon="10.481426093217129"><ele>229.39999999999998</ele><time>2026-04-18T12:37:44Z</time></trkpt><trkpt lat="45.51574787086948" lon="10.481391089559438"><ele>228.2</ele><time>2026-04-18T12:37:45Z</time></trkpt><trkpt lat="45.51563286573544" lon="10.481370823600736"><ele>227.0</ele><time>2026-04-18T12:37:46Z</time></trkpt><trkpt lat="45.5155147893805" lon="10.481344087151527"><ele>226.6</ele><time>2026-04-18T12:37:47Z</time></trkpt><trkpt lat="45.51540170250979" lon="10.48131951746694"><ele>226.2</ele><time>2026-04-18T12:37:48Z</time></trkpt><trkpt lat="45.51529388282182" lon="10.481294332246602"><ele>225.8</ele><time>2026-04-18T12:37:49Z</time></trkpt><trkpt lat="45.51519302374367" lon="10.481292389777929"><ele>225.4</ele><time>2026-04-18T12:37:50Z</time></trkpt><trkpt lat="45.51510509041967" lon="10.481307578886474"><ele>225.0</ele><time>2026-04-18T12:37:51Z</time></trkpt><trkpt lat="45.51501106812731" lon="10.48132565546015"><ele>225.0</ele><time>2026-04-18T12:37:52Z</time></trkpt><trkpt lat="45.51491524708531" lon="10.481346608853709"><ele>225.0</ele><time>2026-04-18T12:37:53Z</time></trkpt><trkpt lat="45.51481467615889" lon="10.48138388399209"><ele>225.0</ele><time>2026-04-18T12:37:54Z</time></trkpt><trkpt lat="45.514729359448424" lon="10.481418200068713"><ele>225.0</ele><time>2026-04-18T12:37:55Z</time></trkpt><trkpt lat="45.514642615170544" lon="10.481449637850831"><ele>225.0</ele><time>2026-04-18T12:37:56Z</time></trkpt><trkpt lat="45.51455434949314" lon="10.481470189050011"><ele>224.8571428571429</ele><time>2026-04-18T12:37:57Z</time></trkpt><trkpt lat="45.51446043606056" lon="10.481490164941716"><ele>224.71428571428572</ele><time>2026-04-18T12:37:58Z</time></trkpt><trkpt lat="45.51438602302814" lon="10.481506462418913"><ele>224.57142857142858</ele><time>2026-04-18T12:37:59Z</time></trkpt><trkpt lat="45.51431114046565" lon="10.481515312991553"><ele>224.42857142857144</ele><time>2026-04-18T12:38:00Z</time></trkpt><trkpt lat="45.51424268168245" lon="10.481529448658991"><ele>224.28571428571428</ele><time>2026-04-18T12:38:01Z</time></trkpt><trkpt lat="45.514185443019656" lon="10.481573223145809"><ele>224.14285714285714</ele><time>2026-04-18T12:38:02Z</time></trkpt><trkpt lat="45.51413279232917" lon="10.481625751378525"><ele>224.0</ele><time>2026-04-18T12:38:03Z</time></trkpt><trkpt lat="45.51407448639482" lon="10.481664524937582"><ele>224.00000000000003</ele><time>2026-04-18T12:38:04Z</time></trkpt><trkpt lat="45.5140229025416" lon="10.48172386660263"><ele>224.0</ele><time>2026-04-18T12:38:05Z</time></trkpt><trkpt lat="45.5139378222175" lon="10.481778982973621"><ele>224.0</ele><time>2026-04-18T12:38:07Z</time></trkpt><trkpt lat="45.51386494664046" lon="10.48182619291161"><ele>224.0</ele><time>2026-04-18T12:38:10Z</time></trkpt><trkpt lat="45.513829115752664" lon="10.481974592924832"><ele>224.00000000000003</ele><time>2026-04-18T12:38:12Z</time></trkpt><trkpt lat="45.513729902944554" lon="10.48196516773777"><ele>224.0</ele><time>2026-04-18T12:38:14Z</time></trkpt><trkpt lat="45.51363255196115" lon="10.481914775342794"><ele>222.79999999999998</ele><time>2026-04-18T12:38:16Z</time></trkpt><trkpt lat="45.51356844330971" lon="10.481866146269745"><ele>221.59999999999997</ele><time>2026-04-18T12:38:17Z</time></trkpt><trkpt lat="45.513485986397086" lon="10.481820230057515"><ele>220.4</ele><time>2026-04-18T12:38:18Z</time></trkpt><trkpt lat="45.51339770594764" lon="10.481786492156658"><ele>219.2</ele><time>2026-04-18T12:38:19Z</time></trkpt><trkpt lat="45.51330110530644" lon="10.481754569996955"><ele>218.0</ele><time>2026-04-18T12:38:20Z</time></trkpt><trkpt lat="45.5132013279058" lon="10.481723847831608"><ele>218.0</ele><time>2026-04-18T12:38:21Z</time></trkpt><trkpt lat="45.51309878935244" lon="10.481696519081595"><ele>218.0</ele><time>2026-04-18T12:38:22Z</time></trkpt><trkpt lat="45.51299028165732" lon="10.481656766342724"><ele>218.0</ele><time>2026-04-18T12:38:23Z</time></trkpt><trkpt lat="45.51288874462607" lon="10.481611673957266"><ele>218.0</ele><time>2026-04-18T12:38:24Z</time></trkpt><trkpt lat="45.512796523859286" lon="10.48157445994919"><ele>218.0</ele><time>2026-04-18T12:38:25Z</time></trkpt><trkpt lat="45.51271727927749" lon="10.481528472954128"><ele>216.8</ele><time>2026-04-18T12:38:26Z</time></trkpt><trkpt lat="45.51263195164468" lon="10.481486976739852"><ele>215.60000000000002</ele><time>2026-04-18T12:38:27Z</time></trkpt><trkpt lat="45.51254578572358" lon="10.481440631074717"><ele>214.39999999999998</ele><time>2026-04-18T12:38:28Z</time></trkpt><trkpt lat="45.51245886685341" lon="10.481397202223135"><ele>213.2</ele><time>2026-04-18T12:38:29Z</time></trkpt><trkpt lat="45.5123654858232" lon="10.481356949293104"><ele>212.0</ele><time>2026-04-18T12:38:30Z</time></trkpt><trkpt lat="45.51228057741299" lon="10.481315074014589"><ele>213.00000000000003</ele><time>2026-04-18T12:38:31Z</time></trkpt><trkpt lat="45.512197144955195" lon="10.481263760966668"><ele>214.0</ele><time>2026-04-18T12:38:32Z</time></trkpt><trkpt lat="45.5121171904125" lon="10.481214035861992"><ele>215.0</ele><time>2026-04-18T12:38:33Z</time></trkpt><trkpt lat="45.51203798334113" lon="10.481170163909521"><ele>216.0</ele><time>2026-04-18T12:38:34Z</time></trkpt><trkpt lat="45.511961535353706" lon="10.481123592173121"><ele>217.00000000000003</ele><time>2026-04-18T12:38:35Z</time></trkpt><trkpt lat="45.51190411030111" lon="10.481059559696854"><ele>218.0</ele><time>2026-04-18T12:38:36Z</time></trkpt><trkpt lat="45.51184312951862" lon="10.48099282347188"><ele>218.00000000000003</ele><time>2026-04-18T12:38:37Z</time></trkpt><trkpt lat="45.511790443120205" lon="10.480900700345687"><ele>218.0</ele><time>2026-04-18T12:38:38Z</time></trkpt><trkpt lat="45.51172396467798" lon="10.480818611811502"><ele>218.0</ele><time>2026-04-18T12:38:39Z</time></trkpt><trkpt lat="45.511657556425526" lon="10.480729782714693"><ele>218.0</ele><time>2026-04-18T12:38:40Z</time></trkpt><trkpt lat="45.51159936217075" lon="10.4806284426163"><ele>218.00000000000003</ele><time>2026-04-18T12:38:41Z</time></trkpt><trkpt lat="45.5115529442373" lon="10.48051065933173"><ele>218.0</ele><time>2026-04-18T12:38:42Z</time></trkpt><trkpt lat="45.511507145238355" lon="10.480391915367376"><ele>218.83333333333334</ele><time>2026-04-18T12:38:43Z</time></trkpt><trkpt lat="45.51145931552699" lon="10.480273070029142"><ele>219.66666666666669</ele><time>2026-04-18T12:38:44Z</time></trkpt><trkpt lat="45.511409237314496" lon="10.480164688429548"><ele>220.5</ele><time>2026-04-18T12:38:45Z</time></trkpt><trkpt lat="45.51136346643833" lon="10.480057568068872"><ele>221.33333333333331</ele><time>2026-04-18T12:38:46Z</time></trkpt><trkpt lat="45.511333445983645" lon="10.479941787750912"><ele>222.16666666666666</ele><time>2026-04-18T12:38:47Z</time></trkpt><trkpt lat="45.5113055106266" lon="10.479833002705645"><ele>223.0</ele><time>2026-04-18T12:38:48Z</time></trkpt><trkpt lat="45.51127917486874" lon="10.479718306171554"><ele>222.66666666666666</ele><time>2026-04-18T12:38:49Z</time></trkpt><trkpt lat="45.511262138565215" lon="10.479599747853328"><ele>222.33333333333331</ele><time>2026-04-18T12:38:50Z</time></trkpt><trkpt lat="45.511246989310145" lon="10.479471606238622"><ele>222.0</ele><time>2026-04-18T12:38:51Z</time></trkpt><trkpt lat="45.51123792475996" lon="10.479343241285"><ele>221.66666666666669</ele><time>2026-04-18T12:38:52Z</time></trkpt><trkpt lat="45.511230146531474" lon="10.479218169152432"><ele>221.33333333333334</ele><time>2026-04-18T12:38:53Z</time></trkpt><trkpt lat="45.51121612753266" lon="10.479102371592273"><ele>221.0</ele><time>2026-04-18T12:38:54Z</time></trkpt><trkpt lat="45.51121282029555" lon="10.478981032638494"><ele>219.8</ele><time>2026-04-18T12:38:55Z</time></trkpt><trkpt lat="45.511211623540554" lon="10.478871448267219"><ele>218.60000000000002</ele><time>2026-04-18T12:38:56Z</time></trkpt><trkpt lat="45.51123219026516" lon="10.478772948677776"><ele>217.4</ele><time>2026-04-18T12:38:57Z</time></trkpt><trkpt lat="45.51122587085759" lon="10.478625584396806"><ele>216.2</ele><time>2026-04-18T12:38:59Z</time></trkpt><trkpt lat="45.51116610014263" lon="10.478458256948485"><ele>215.0</ele><time>2026-04-18T12:39:02Z</time></trkpt><trkpt lat="45.5110437270971" lon="10.478477854296488"><ele>214.16666666666669</ele><time>2026-04-18T12:39:04Z</time></trkpt><trkpt lat="45.510978534632876" lon="10.478523070231748"><ele>213.33333333333334</ele><time>2026-04-18T12:39:05Z</time></trkpt><trkpt lat="45.51090217540193" lon="10.478499420773522"><ele>212.5</ele><time>2026-04-18T12:39:06Z</time></trkpt><trkpt lat="45.51082998777978" lon="10.478472338339046"><ele>211.66666666666669</ele><time>2026-04-18T12:39:07Z</time></trkpt><trkpt lat="45.510770161447304" lon="10.478416443344853"><ele>210.83333333333334</ele><time>2026-04-18T12:39:08Z</time></trkpt><trkpt lat="45.51074098046405" lon="10.478319957730921"><ele>210.0</ele><time>2026-04-18T12:39:09Z</time></trkpt><trkpt lat="45.510683702888315" lon="10.478219541123108"><ele>210.0</ele><time>2026-04-18T12:39:10Z</time></trkpt><trkpt lat="45.51059662328449" lon="10.478142689907065"><ele>210.0</ele><time>2026-04-18T12:39:11Z</time></trkpt><trkpt lat="45.51050325415371" lon="10.478031759216242"><ele>210.0</ele><time>2026-04-18T12:39:12Z</time></trkpt><trkpt lat="45.51041156510046" lon="10.4779282520019"><ele>210.0</ele><time>2026-04-18T12:39:13Z</time></trkpt><trkpt lat="45.510323445576404" lon="10.477798873857905"><ele>209.25</ele><time>2026-04-18T12:39:14Z</time></trkpt><trkpt lat="45.51024496252643" lon="10.477666940163097"><ele>208.5</ele><time>2026-04-18T12:39:15Z</time></trkpt><trkpt lat="45.510182077016076" lon="10.47753055576316"><ele>207.75</ele><time>2026-04-18T12:39:16Z</time></trkpt><trkpt lat="45.51010975720692" lon="10.477385771293557"><ele>207.0</ele><time>2026-04-18T12:39:17Z</time></trkpt><trkpt lat="45.51003769939804" lon="10.477220234061186"><ele>206.0</ele><time>2026-04-18T12:39:18Z</time></trkpt><trkpt lat="45.5099270176519" lon="10.477095561758235"><ele>205.0</ele><time>2026-04-18T12:39:19Z</time></trkpt><trkpt lat="45.50980064127462" lon="10.47699237942898"><ele>204.0</ele><time>2026-04-18T12:39:20Z</time></trkpt><trkpt lat="45.509673757495996" lon="10.476887186747645"><ele>203.0</ele><time>2026-04-18T12:39:21Z</time></trkpt><trkpt lat="45.5095263891754" lon="10.476815180080482"><ele>202.75</ele><time>2026-04-18T12:39:22Z</time></trkpt><trkpt lat="45.50938344576686" lon="10.476729568468473"><ele>202.5</ele><time>2026-04-18T12:39:23Z</time></trkpt><trkpt lat="45.50925181272913" lon="10.476650814881141"><ele>202.25</ele><time>2026-04-18T12:39:24Z</time></trkpt><trkpt lat="45.50913097713281" lon="10.4766066782842"><ele>202.0</ele><time>2026-04-18T12:39:25Z</time></trkpt><trkpt lat="45.509015357939916" lon="10.476579282578847"><ele>202.0</ele><time>2026-04-18T12:39:26Z</time></trkpt><trkpt lat="45.50890946637807" lon="10.476558307561692"><ele>202.0</ele><time>2026-04-18T12:39:27Z</time></trkpt><trkpt lat="45.5087991403357" lon="10.47653300683637"><ele>202.0</ele><time>2026-04-18T12:39:28Z</time></trkpt><trkpt lat="45.508687211452575" lon="10.476505833516821"><ele>202.0</ele><time>2026-04-18T12:39:29Z</time></trkpt><trkpt lat="45.50857905436644" lon="10.476498428043989"><ele>202.0</ele><time>2026-04-18T12:39:30Z</time></trkpt><trkpt lat="45.50847068177066" lon="10.476446510126918"><ele>201.5</ele><time>2026-04-18T12:39:30.999Z</time></trkpt><trkpt lat="45.50835686297699" lon="10.476414021942196"><ele>201.0</ele><time>2026-04-18T12:39:31.999Z</time></trkpt><trkpt lat="45.50823825016005" lon="10.476379751673962"><ele>200.5</ele><time>2026-04-18T12:39:32.999Z</time></trkpt><trkpt lat="45.50811677962107" lon="10.476340015242133"><ele>200.0</ele><time>2026-04-18T12:39:33.999Z</time></trkpt><trkpt lat="45.50799140562828" lon="10.476281860142416"><ele>199.0</ele><time>2026-04-18T12:39:34.999Z</time></trkpt><trkpt lat="45.50786357522244" lon="10.476218661055972"><ele>198.0</ele><time>2026-04-18T12:39:35.999Z</time></trkpt><trkpt lat="45.50774040958311" lon="10.476118936008755"><ele>197.0</ele><time>2026-04-18T12:39:36.999Z</time></trkpt><trkpt lat="45.50761462836962" lon="10.476023533769734"><ele>196.0</ele><time>2026-04-18T12:39:37.999Z</time></trkpt><trkpt lat="45.5074942860124" lon="10.475922515522837"><ele>196.0</ele><time>2026-04-18T12:39:38.999Z</time></trkpt><trkpt lat="45.507385289465006" lon="10.47581733045892"><ele>196.0</ele><time>2026-04-18T12:39:39.999Z</time></trkpt><trkpt lat="45.50727809796235" lon="10.47571122771808"><ele>196.0</ele><time>2026-04-18T12:39:40.999Z</time></trkpt><trkpt lat="45.50716717671845" lon="10.475609454256546"><ele>196.0</ele><time>2026-04-18T12:39:41.999Z</time></trkpt><trkpt lat="45.507050576877994" lon="10.475521643432788"><ele>195.75</ele><time>2026-04-18T12:39:42.999Z</time></trkpt><trkpt lat="45.506938409067246" lon="10.475444818720668"><ele>195.5</ele><time>2026-04-18T12:39:43.999Z</time></trkpt><trkpt lat="45.506831987020384" lon="10.4753718172529"><ele>195.25</ele><time>2026-04-18T12:39:44.999Z</time></trkpt><trkpt lat="45.506730903075365" lon="10.475306816774353"><ele>195.0</ele><time>2026-04-18T12:39:45.999Z</time></trkpt><trkpt lat="45.50663582340646" lon="10.47524114084848"><ele>195.0</ele><time>2026-04-18T12:39:46.999Z</time></trkpt><trkpt lat="45.50654607465661" lon="10.475170133753238"><ele>195.0</ele><time>2026-04-18T12:39:47.999Z</time></trkpt><trkpt lat="45.50646903748567" lon="10.475100947718053"><ele>195.0</ele><time>2026-04-18T12:39:48.999Z</time></trkpt><trkpt lat="45.506396622017164" lon="10.475054427104467"><ele>195.0</ele><time>2026-04-18T12:39:49.999Z</time></trkpt><trkpt lat="45.506332562114046" lon="10.474959977983275"><ele>195.0</ele><time>2026-04-18T12:39:51.999Z</time></trkpt><trkpt lat="45.5062810077483" lon="10.474894197157361"><ele>195.0</ele><time>2026-04-18T12:39:56Z</time></trkpt><trkpt lat="45.50620368316693" lon="10.474799681945997"><ele>195.0</ele><time>2026-04-18T12:39:59Z</time></trkpt><trkpt lat="45.50612844058715" lon="10.474723487381658"><ele>195.0</ele><time>2026-04-18T12:40:00Z</time></trkpt><trkpt lat="45.50603998128181" lon="10.474622395203795"><ele>195.0</ele><time>2026-04-18T12:40:01Z</time></trkpt><trkpt lat="45.505929014604256" lon="10.47451356750079"><ele>195.0</ele><time>2026-04-18T12:40:02Z</time></trkpt><trkpt lat="45.50585591488102" lon="10.474345113750756"><ele>194.75</ele><time>2026-04-18T12:40:03Z</time></trkpt><trkpt lat="45.50581383134915" lon="10.474150105918273"><ele>194.5</ele><time>2026-04-18T12:40:04Z</time></trkpt><trkpt lat="45.5057870031019" lon="10.473963155612314"><ele>194.25</ele><time>2026-04-18T12:40:05Z</time></trkpt><trkpt lat="45.50576276385999" lon="10.473783588234793"><ele>194.0</ele><time>2026-04-18T12:40:06Z</time></trkpt><trkpt lat="45.50575073073675" lon="10.473610800432168"><ele>194.0</ele><time>2026-04-18T12:40:07Z</time></trkpt><trkpt lat="45.505711548399574" lon="10.473457615837786"><ele>194.0</ele><time>2026-04-18T12:40:08Z</time></trkpt><trkpt lat="45.50566741902078" lon="10.473312148448562"><ele>194.0</ele><time>2026-04-18T12:40:09Z</time></trkpt><trkpt lat="45.50562245398517" lon="10.47318990874517"><ele>194.0</ele><time>2026-04-18T12:40:10Z</time></trkpt><trkpt lat="45.50557066710406" lon="10.473095348961868"><ele>194.0</ele><time>2026-04-18T12:40:11Z</time></trkpt><trkpt lat="45.505511061852715" lon="10.47303298851705"><ele>194.0</ele><time>2026-04-18T12:40:12Z</time></trkpt><trkpt lat="45.50544924604415" lon="10.473015050232737"><ele>194.0</ele><time>2026-04-18T12:40:13Z</time></trkpt><trkpt lat="45.50534892117569" lon="10.473116501334347"><ele>194.0</ele><time>2026-04-18T12:40:15Z</time></trkpt><trkpt lat="45.5052770702776" lon="10.473182548863981"><ele>194.0</ele><time>2026-04-18T12:40:16Z</time></trkpt><trkpt lat="45.505209070868155" lon="10.47327339414805"><ele>194.0</ele><time>2026-04-18T12:40:17Z</time></trkpt><trkpt lat="45.505134612219884" lon="10.473373041961363"><ele>194.0</ele><time>2026-04-18T12:40:18Z</time></trkpt><trkpt lat="45.505053208390706" lon="10.473478745263975"><ele>194.0</ele><time>2026-04-18T12:40:19Z</time></trkpt><trkpt lat="45.50497051793382" lon="10.473584570497252"><ele>194.0</ele><time>2026-04-18T12:40:20Z</time></trkpt><trkpt lat="45.504889931983776" lon="10.47368437823499"><ele>194.0</ele><time>2026-04-18T12:40:21Z</time></trkpt><trkpt lat="45.50480791049404" lon="10.473779851846258"><ele>194.0</ele><time>2026-04-18T12:40:22Z</time></trkpt><trkpt lat="45.50472391503345" lon="10.473871424814215"><ele>194.0</ele><time>2026-04-18T12:40:23Z</time></trkpt><trkpt lat="45.50463766469657" lon="10.473950066018402"><ele>194.0</ele><time>2026-04-18T12:40:24Z</time></trkpt><trkpt lat="45.504537502892326" lon="10.474016919345917"><ele>194.0</ele><time>2026-04-18T12:40:25Z</time></trkpt><trkpt lat="45.50441859195965" lon="10.474026938364517"><ele>194.0</ele><time>2026-04-18T12:40:26Z</time></trkpt><trkpt lat="45.50430415536094" lon="10.474021641055753"><ele>194.0</ele><time>2026-04-18T12:40:27Z</time></trkpt><trkpt lat="45.504197412918636" lon="10.474026203025776"><ele>196.75</ele><time>2026-04-18T12:40:28Z</time></trkpt><trkpt lat="45.50407852279905" lon="10.474054038593348"><ele>199.5</ele><time>2026-04-18T12:40:29Z</time></trkpt><trkpt lat="45.50396343134091" lon="10.474023454621321"><ele>202.25</ele><time>2026-04-18T12:40:30Z</time></trkpt><trkpt lat="45.503847901596174" lon="10.473994617631833"><ele>205.0</ele><time>2026-04-18T12:40:31Z</time></trkpt><trkpt lat="45.503744862203376" lon="10.473977115587676"><ele>206.0</ele><time>2026-04-18T12:40:32Z</time></trkpt><trkpt lat="45.503641236306954" lon="10.47397452730275"><ele>207.0</ele><time>2026-04-18T12:40:33Z</time></trkpt><trkpt lat="45.503531736552056" lon="10.473991185596875"><ele>208.0</ele><time>2026-04-18T12:40:34Z</time></trkpt><trkpt lat="45.50341872920322" lon="10.47403328656342"><ele>209.0</ele><time>2026-04-18T12:40:35Z</time></trkpt><trkpt lat="45.50331042836257" lon="10.474098403276974"><ele>210.0</ele><time>2026-04-18T12:40:36Z</time></trkpt><trkpt lat="45.50321087941513" lon="10.474171434153162"><ele>210.0</ele><time>2026-04-18T12:40:37Z</time></trkpt><trkpt lat="45.50310448445265" lon="10.47422502917947"><ele>210.0</ele><time>2026-04-18T12:40:38Z</time></trkpt><trkpt lat="45.50300296632501" lon="10.474305594289369"><ele>210.0</ele><time>2026-04-18T12:40:39Z</time></trkpt><trkpt lat="45.50290238845885" lon="10.474392351487126"><ele>210.0</ele><time>2026-04-18T12:40:40Z</time></trkpt><trkpt lat="45.50279870827497" lon="10.474481784704471"><ele>209.8</ele><time>2026-04-18T12:40:41Z</time></trkpt><trkpt lat="45.50270683233904" lon="10.474557809652149"><ele>209.6</ele><time>2026-04-18T12:40:42Z</time></trkpt><trkpt lat="45.5026157169028" lon="10.474614849703404"><ele>209.39999999999998</ele><time>2026-04-18T12:40:43Z</time></trkpt><trkpt lat="45.50251284598161" lon="10.4746585118849"><ele>209.2</ele><time>2026-04-18T12:40:44Z</time></trkpt><trkpt lat="45.502395010747186" lon="10.474642536670197"><ele>209.0</ele><time>2026-04-18T12:40:45Z</time></trkpt><trkpt lat="45.50228039960306" lon="10.474606827125502"><ele>208.75</ele><time>2026-04-18T12:40:46Z</time></trkpt><trkpt lat="45.502168337055814" lon="10.474560650264376"><ele>208.5</ele><time>2026-04-18T12:40:47Z</time></trkpt><trkpt lat="45.502050918979414" lon="10.474524664246243"><ele>208.25</ele><time>2026-04-18T12:40:48Z</time></trkpt><trkpt lat="45.50194369221713" lon="10.474461558764162"><ele>208.0</ele><time>2026-04-18T12:40:49Z</time></trkpt><trkpt lat="45.50184504655365" lon="10.4743779886876"><ele>208.4</ele><time>2026-04-18T12:40:50Z</time></trkpt><trkpt lat="45.501745708604844" lon="10.474306487880085"><ele>208.8</ele><time>2026-04-18T12:40:51Z</time></trkpt><trkpt lat="45.501657746607115" lon="10.474234738213083"><ele>209.2</ele><time>2026-04-18T12:40:52Z</time></trkpt><trkpt lat="45.501580449499244" lon="10.474160936146612"><ele>209.6</ele><time>2026-04-18T12:40:53Z</time></trkpt><trkpt lat="45.50150690713636" lon="10.474088913232821"><ele>210.0</ele><time>2026-04-18T12:40:54Z</time></trkpt><trkpt lat="45.501437499427986" lon="10.474039949670114"><ele>210.0</ele><time>2026-04-18T12:40:55Z</time></trkpt><trkpt lat="45.50137027162357" lon="10.474018393197726"><ele>210.0</ele><time>2026-04-18T12:40:56Z</time></trkpt><trkpt lat="45.5012515660559" lon="10.474122817970438"><ele>210.0</ele><time>2026-04-18T12:40:58Z</time></trkpt><trkpt lat="45.50116240647157" lon="10.474101839039411"><ele>210.0</ele><time>2026-04-18T12:40:59Z</time></trkpt><trkpt lat="45.50110280051438" lon="10.474015278113512"><ele>210.0</ele><time>2026-04-18T12:41:00Z</time></trkpt><trkpt lat="45.50106052454467" lon="10.473905701360842"><ele>209.8</ele><time>2026-04-18T12:41:01Z</time></trkpt><trkpt lat="45.50100429982908" lon="10.473807550695216"><ele>209.6</ele><time>2026-04-18T12:41:02Z</time></trkpt><trkpt lat="45.50094398672963" lon="10.473703700972989"><ele>209.39999999999998</ele><time>2026-04-18T12:41:03Z</time></trkpt><trkpt lat="45.50089592674367" lon="10.473588497071944"><ele>209.2</ele><time>2026-04-18T12:41:04Z</time></trkpt><trkpt lat="45.50084532995877" lon="10.473486166942266"><ele>209.0</ele><time>2026-04-18T12:41:05Z</time></trkpt><trkpt lat="45.50080280690522" lon="10.473379798433132"><ele>209.0</ele><time>2026-04-18T12:41:06Z</time></trkpt><trkpt lat="45.50077414949459" lon="10.473274316295381"><ele>209.0</ele><time>2026-04-18T12:41:07Z</time></trkpt><trkpt lat="45.50075160746906" lon="10.473152986914576"><ele>209.0</ele><time>2026-04-18T12:41:08Z</time></trkpt><trkpt lat="45.500686091632986" lon="10.47307699817111"><ele>209.0</ele><time>2026-04-18T12:41:09Z</time></trkpt><trkpt lat="45.50059808305631" lon="10.473013602508871"><ele>209.0</ele><time>2026-04-18T12:41:10Z</time></trkpt><trkpt lat="45.50048671272427" lon="10.472975272432736"><ele>207.25</ele><time>2026-04-18T12:41:11Z</time></trkpt><trkpt lat="45.50035757170072" lon="10.472958709409182"><ele>205.5</ele><time>2026-04-18T12:41:12Z</time></trkpt><trkpt lat="45.50023235606206" lon="10.472922865759937"><ele>203.75</ele><time>2026-04-18T12:41:13Z</time></trkpt><trkpt lat="45.50010752253107" lon="10.472887133524685"><ele>202.0</ele><time>2026-04-18T12:41:14Z</time></trkpt><trkpt lat="45.4999863221806" lon="10.472852727957248"><ele>202.0</ele><time>2026-04-18T12:41:15Z</time></trkpt><trkpt lat="45.499870401908396" lon="10.472820014347691"><ele>202.0</ele><time>2026-04-18T12:41:16Z</time></trkpt><trkpt lat="45.49976064698917" lon="10.472788680799672"><ele>202.0</ele><time>2026-04-18T12:41:17Z</time></trkpt><trkpt lat="45.49965650774519" lon="10.472758359045393"><ele>202.0</ele><time>2026-04-18T12:41:18Z</time></trkpt><trkpt lat="45.499550771709245" lon="10.472750577157429"><ele>202.0</ele><time>2026-04-18T12:41:19Z</time></trkpt><trkpt lat="45.49945447878294" lon="10.47269837994931"><ele>201.39999999999998</ele><time>2026-04-18T12:41:20Z</time></trkpt><trkpt lat="45.49936374497466" lon="10.472670621711261"><ele>200.79999999999998</ele><time>2026-04-18T12:41:21Z</time></trkpt><trkpt lat="45.4992823380646" lon="10.472644325126593"><ele>200.2</ele><time>2026-04-18T12:41:22Z</time></trkpt><trkpt lat="45.49921124651713" lon="10.472621360681655"><ele>199.6</ele><time>2026-04-18T12:41:23Z</time></trkpt><trkpt lat="45.49910975592292" lon="10.47258693312561"><ele>199.0</ele><time>2026-04-18T12:41:25Z</time></trkpt><trkpt lat="45.49900744337474" lon="10.47263819412405"><ele>198.99999999999997</ele><time>2026-04-18T12:41:27Z</time></trkpt><trkpt lat="45.499002774397105" lon="10.472779312222011"><ele>199.0</ele><time>2026-04-18T12:41:29Z</time></trkpt><trkpt lat="45.4989996924981" lon="10.472872461464146"><ele>199.0</ele><time>2026-04-18T12:41:30Z</time></trkpt><trkpt lat="45.49899602476424" lon="10.472983317390748"><ele>199.0</ele><time>2026-04-18T12:41:31Z</time></trkpt><trkpt lat="45.49899185818946" lon="10.473109250604924"><ele>198.99999999999997</ele><time>2026-04-18T12:41:32Z</time></trkpt><trkpt lat="45.49898746190279" lon="10.473242126782715"><ele>199.0</ele><time>2026-04-18T12:41:33Z</time></trkpt><trkpt lat="45.498996171684965" lon="10.473380315784832"><ele>199.2</ele><time>2026-04-18T12:41:34Z</time></trkpt><trkpt lat="45.49898688664729" lon="10.473524693678618"><ele>199.39999999999998</ele><time>2026-04-18T12:41:35Z</time></trkpt><trkpt lat="45.498982047665834" lon="10.473678020778578"><ele>199.6</ele><time>2026-04-18T12:41:36Z</time></trkpt><trkpt lat="45.49897758478551" lon="10.473831247701712"><ele>199.8</ele><time>2026-04-18T12:41:37Z</time></trkpt><trkpt lat="45.49896813275993" lon="10.473982997172532"><ele>200.0</ele><time>2026-04-18T12:41:38Z</time></trkpt><trkpt lat="45.498948976126854" lon="10.474135234300052"><ele>200.5</ele><time>2026-04-18T12:41:39Z</time></trkpt><trkpt lat="45.498944421052634" lon="10.474290517785947"><ele>201.0</ele><time>2026-04-18T12:41:40Z</time></trkpt><trkpt lat="45.49893974226462" lon="10.474450018694855"><ele>201.5</ele><time>2026-04-18T12:41:41Z</time></trkpt><trkpt lat="45.4989347035198" lon="10.474621790593856"><ele>202.0</ele><time>2026-04-18T12:41:42Z</time></trkpt><trkpt lat="45.498935095046775" lon="10.474812650270048"><ele>202.66666666666666</ele><time>2026-04-18T12:41:43Z</time></trkpt><trkpt lat="45.4989296931288" lon="10.475017916376794"><ele>203.33333333333331</ele><time>2026-04-18T12:41:44Z</time></trkpt><trkpt lat="45.4989184825044" lon="10.47523358635367"><ele>204.0</ele><time>2026-04-18T12:41:45Z</time></trkpt><trkpt lat="45.4989035108616" lon="10.475461885895125"><ele>206.0</ele><time>2026-04-18T12:41:46Z</time></trkpt><trkpt lat="45.49889035675486" lon="10.475702850989814"><ele>208.0</ele><time>2026-04-18T12:41:47Z</time></trkpt><trkpt lat="45.498891682374115" lon="10.475937972883642"><ele>210.0</ele><time>2026-04-18T12:41:48Z</time></trkpt><trkpt lat="45.49888354166815" lon="10.476152745194652"><ele>210.5</ele><time>2026-04-18T12:41:49Z</time></trkpt><trkpt lat="45.498861749505124" lon="10.476319881924502"><ele>211.0</ele><time>2026-04-18T12:41:50Z</time></trkpt><trkpt lat="45.498824617365976" lon="10.476488689392497"><ele>211.5</ele><time>2026-04-18T12:41:51Z</time></trkpt><trkpt lat="45.49878096676505" lon="10.476670120995289"><ele>212.0</ele><time>2026-04-18T12:41:52Z</time></trkpt><trkpt lat="45.498733972035225" lon="10.476883592532284"><ele>212.0</ele><time>2026-04-18T12:41:53Z</time></trkpt><trkpt lat="45.49868933399045" lon="10.477096928425752"><ele>212.0</ele><time>2026-04-18T12:41:54Z</time></trkpt><trkpt lat="45.4986906690888" lon="10.477289756672851"><ele>212.0</ele><time>2026-04-18T12:41:55Z</time></trkpt><trkpt lat="45.49865680777543" lon="10.477455573605429"><ele>212.0</ele><time>2026-04-18T12:41:56Z</time></trkpt><trkpt lat="45.49862964478948" lon="10.477604120678015"><ele>212.83333333333334</ele><time>2026-04-18T12:41:57Z</time></trkpt><trkpt lat="45.498604552376705" lon="10.477752809131694"><ele>213.66666666666669</ele><time>2026-04-18T12:41:58Z</time></trkpt><trkpt lat="45.498570608681355" lon="10.477873106315466"><ele>214.5</ele><time>2026-04-18T12:41:59Z</time></trkpt><trkpt lat="45.49853266839931" lon="10.477977575985175"><ele>215.33333333333331</ele><time>2026-04-18T12:42:00Z</time></trkpt><trkpt lat="45.49848199283103" lon="10.47807040285259"><ele>216.16666666666666</ele><time>2026-04-18T12:42:01Z</time></trkpt><trkpt lat="45.49842113674766" lon="10.478135203382177"><ele>217.0</ele><time>2026-04-18T12:42:02Z</time></trkpt><trkpt lat="45.4983459100264" lon="10.478189277810019"><ele>218.2</ele><time>2026-04-18T12:42:03Z</time></trkpt><trkpt lat="45.49825708381529" lon="10.478236942352492"><ele>219.39999999999998</ele><time>2026-04-18T12:42:04Z</time></trkpt><trkpt lat="45.498162263498294" lon="10.47828369273004"><ele>220.60000000000002</ele><time>2026-04-18T12:42:05Z</time></trkpt><trkpt lat="45.498072619068154" lon="10.478338842840332"><ele>221.8</ele><time>2026-04-18T12:42:06Z</time></trkpt><trkpt lat="45.49797725136236" lon="10.478393332220021"><ele>223.0</ele><time>2026-04-18T12:42:07Z</time></trkpt><trkpt lat="45.49787753131516" lon="10.478441356529519"><ele>223.0</ele><time>2026-04-18T12:42:08Z</time></trkpt><trkpt lat="45.497767949435364" lon="10.47847468634392"><ele>223.0</ele><time>2026-04-18T12:42:09Z</time></trkpt><trkpt lat="45.49766147868435" lon="10.478484444235447"><ele>223.0</ele><time>2026-04-18T12:42:10Z</time></trkpt><trkpt lat="45.49755916826321" lon="10.478426300930241"><ele>223.0</ele><time>2026-04-18T12:42:11Z</time></trkpt><trkpt lat="45.497456818707256" lon="10.478384698337553"><ele>223.0</ele><time>2026-04-18T12:42:12Z</time></trkpt><trkpt lat="45.49735131153188" lon="10.478342798724997"><ele>223.0</ele><time>2026-04-18T12:42:13Z</time></trkpt><trkpt lat="45.49724069479932" lon="10.478310175089092"><ele>223.0</ele><time>2026-04-18T12:42:14Z</time></trkpt><trkpt lat="45.49713984660093" lon="10.478288047242893"><ele>223.0</ele><time>2026-04-18T12:42:15Z</time></trkpt><trkpt lat="45.497039742171246" lon="10.478252021785561"><ele>223.0</ele><time>2026-04-18T12:42:16Z</time></trkpt><trkpt lat="45.49694557657355" lon="10.478190503041132"><ele>223.0</ele><time>2026-04-18T12:42:17Z</time></trkpt><trkpt lat="45.49685592649201" lon="10.47812329475461"><ele>223.2</ele><time>2026-04-18T12:42:18Z</time></trkpt><trkpt lat="45.49676861899657" lon="10.478067738862615"><ele>223.4</ele><time>2026-04-18T12:42:19Z</time></trkpt><trkpt lat="45.49667546845831" lon="10.478014143367822"><ele>223.59999999999997</ele><time>2026-04-18T12:42:20Z</time></trkpt><trkpt lat="45.49657303670927" lon="10.47798609434327"><ele>223.79999999999998</ele><time>2026-04-18T12:42:21Z</time></trkpt><trkpt lat="45.496472053216706" lon="10.477967355205344"><ele>224.0</ele><time>2026-04-18T12:42:22Z</time></trkpt><trkpt lat="45.49637591241304" lon="10.477992202712484"><ele>224.00000000000003</ele><time>2026-04-18T12:42:23Z</time></trkpt><trkpt lat="45.4962927740078" lon="10.478010553353247"><ele>224.0</ele><time>2026-04-18T12:42:24Z</time></trkpt><trkpt lat="45.49621357542741" lon="10.47804850613303"><ele>224.0</ele><time>2026-04-18T12:42:25Z</time></trkpt><trkpt lat="45.4961278579091" lon="10.478101338247663"><ele>224.0</ele><time>2026-04-18T12:42:26Z</time></trkpt><trkpt lat="45.496078486573154" lon="10.478200959201708"><ele>224.00000000000003</ele><time>2026-04-18T12:42:27Z</time></trkpt><trkpt lat="45.496031076981915" lon="10.478299979427968"><ele>224.0</ele><time>2026-04-18T12:42:28Z</time></trkpt><trkpt lat="45.49598080428969" lon="10.478429149514222"><ele>223.6</ele><time>2026-04-18T12:42:29Z</time></trkpt><trkpt lat="45.49597501668741" lon="10.478575738710028"><ele>223.2</ele><time>2026-04-18T12:42:30Z</time></trkpt><trkpt lat="45.4959682819146" lon="10.47872046410487"><ele>222.79999999999998</ele><time>2026-04-18T12:42:31Z</time></trkpt><trkpt lat="45.495960171540425" lon="10.478865682477721"><ele>222.39999999999998</ele><time>2026-04-18T12:42:32Z</time></trkpt><trkpt lat="45.49593090844132" lon="10.47900422058745"><ele>222.0</ele><time>2026-04-18T12:42:33Z</time></trkpt><trkpt lat="45.49588157581894" lon="10.479131165211447"><ele>223.2</ele><time>2026-04-18T12:42:34Z</time></trkpt><trkpt lat="45.49583111006709" lon="10.479262362702931"><ele>224.39999999999998</ele><time>2026-04-18T12:42:35Z</time></trkpt><trkpt lat="45.49577901255914" lon="10.479383872371269"><ele>225.60000000000002</ele><time>2026-04-18T12:42:36Z</time></trkpt><trkpt lat="45.495717247829404" lon="10.47949359455487"><ele>226.8</ele><time>2026-04-18T12:42:37Z</time></trkpt><trkpt lat="45.4956460020647" lon="10.47959978172377"><ele>228.0</ele><time>2026-04-18T12:42:38Z</time></trkpt><trkpt lat="45.49556479788239" lon="10.479701522994388"><ele>229.8</ele><time>2026-04-18T12:42:39Z</time></trkpt><trkpt lat="45.49548452355398" lon="10.47980454301726"><ele>231.60000000000002</ele><time>2026-04-18T12:42:40Z</time></trkpt><trkpt lat="45.4953955161161" lon="10.479883252657888"><ele>233.39999999999998</ele><time>2026-04-18T12:42:41Z</time></trkpt><trkpt lat="45.495303287584875" lon="10.479962582066419"><ele>235.2</ele><time>2026-04-18T12:42:42Z</time></trkpt><trkpt lat="45.49523587817717" lon="10.480074773237574"><ele>237.0</ele><time>2026-04-18T12:42:43Z</time></trkpt><trkpt lat="45.495180249154245" lon="10.48019059646105"><ele>237.39999999999998</ele><time>2026-04-18T12:42:44Z</time></trkpt><trkpt lat="45.49512247577913" lon="10.480296163866072"><ele>237.79999999999998</ele><time>2026-04-18T12:42:45Z</time></trkpt><trkpt lat="45.4950645376484" lon="10.480412952723427"><ele>238.2</ele><time>2026-04-18T12:42:46Z</time></trkpt><trkpt lat="45.49499908592163" lon="10.480512933333955"><ele>238.6</ele><time>2026-04-18T12:42:47Z</time></trkpt><trkpt lat="45.49493148351804" lon="10.480606804079352"><ele>239.0</ele><time>2026-04-18T12:42:48Z</time></trkpt><trkpt lat="45.49483804271469" lon="10.480655544871116"><ele>241.6</ele><time>2026-04-18T12:42:49Z</time></trkpt><trkpt lat="45.49473890841835" lon="10.480665515979988"><ele>244.2</ele><time>2026-04-18T12:42:50Z</time></trkpt><trkpt lat="45.49462140944345" lon="10.480655994419736"><ele>246.79999999999998</ele><time>2026-04-18T12:42:51Z</time></trkpt><trkpt lat="45.494499872098245" lon="10.48063139700401"><ele>249.39999999999998</ele><time>2026-04-18T12:42:52Z</time></trkpt><trkpt lat="45.4944003779723" lon="10.480614763698556"><ele>252.0</ele><time>2026-04-18T12:42:53Z</time></trkpt><trkpt lat="45.494303256239164" lon="10.48059460836764"><ele>252.0</ele><time>2026-04-18T12:42:54Z</time></trkpt><trkpt lat="45.494214335734874" lon="10.480571417079886"><ele>252.0</ele><time>2026-04-18T12:42:55Z</time></trkpt><trkpt lat="45.494136306226984" lon="10.48057662524689"><ele>252.0</ele><time>2026-04-18T12:42:56Z</time></trkpt><trkpt lat="45.4940495312467" lon="10.480547131322227"><ele>252.0</ele><time>2026-04-18T12:42:57Z</time></trkpt><trkpt lat="45.493969275582096" lon="10.480579224803032"><ele>252.0</ele><time>2026-04-18T12:42:58Z</time></trkpt><trkpt lat="45.49389165177429" lon="10.480622099248679"><ele>252.0</ele><time>2026-04-18T12:42:59Z</time></trkpt><trkpt lat="45.49381608536373" lon="10.48067253234159"><ele>251.66666666666666</ele><time>2026-04-18T12:43:00Z</time></trkpt><trkpt lat="45.49374822048664" lon="10.480747273531936"><ele>251.33333333333331</ele><time>2026-04-18T12:43:01Z</time></trkpt><trkpt lat="45.49367754345168" lon="10.480807542413933"><ele>251.0</ele><time>2026-04-18T12:43:02Z</time></trkpt><trkpt lat="45.49362263631445" lon="10.480886970661427"><ele>250.66666666666666</ele><time>2026-04-18T12:43:03Z</time></trkpt><trkpt lat="45.49357054661756" lon="10.480958669229334"><ele>250.33333333333331</ele><time>2026-04-18T12:43:04Z</time></trkpt><trkpt lat="45.49353695910896" lon="10.48105129868014"><ele>250.0</ele><time>2026-04-18T12:43:05Z</time></trkpt><trkpt lat="45.49351820784392" lon="10.481167115651806"><ele>250.2</ele><time>2026-04-18T12:43:06Z</time></trkpt><trkpt lat="45.49351394552104" lon="10.481290886096874"><ele>250.4</ele><time>2026-04-18T12:43:07Z</time></trkpt><trkpt lat="45.493497701963264" lon="10.481415964978105"><ele>250.60000000000002</ele><time>2026-04-18T12:43:08Z</time></trkpt><trkpt lat="45.49348461208304" lon="10.481548006954572"><ele>250.8</ele><time>2026-04-18T12:43:09Z</time></trkpt><trkpt lat="45.493469135237696" lon="10.48167429498389"><ele>251.0</ele><time>2026-04-18T12:43:10Z</time></trkpt><trkpt lat="45.49345386198652" lon="10.48182418557563"><ele>251.0</ele><time>2026-04-18T12:43:11Z</time></trkpt><trkpt lat="45.493432177457024" lon="10.481982109540466"><ele>251.00000000000003</ele><time>2026-04-18T12:43:12Z</time></trkpt><trkpt lat="45.493418296582576" lon="10.482132528295665"><ele>251.00000000000003</ele><time>2026-04-18T12:43:13Z</time></trkpt><trkpt lat="45.49339947787278" lon="10.482260910215718"><ele>251.0</ele><time>2026-04-18T12:43:14Z</time></trkpt><trkpt lat="45.4933773497488" lon="10.482389308800267"><ele>251.0</ele><time>2026-04-18T12:43:15Z</time></trkpt><trkpt lat="45.49335768326892" lon="10.482502980456635"><ele>251.0</ele><time>2026-04-18T12:43:16Z</time></trkpt><trkpt lat="45.493339239590846" lon="10.482636918698223"><ele>251.00000000000003</ele><time>2026-04-18T12:43:17Z</time></trkpt><trkpt lat="45.493329226205354" lon="10.482761499345456"><ele>251.00000000000003</ele><time>2026-04-18T12:43:18Z</time></trkpt><trkpt lat="45.49333032735725" lon="10.482900377026304"><ele>251.0</ele><time>2026-04-18T12:43:19Z</time></trkpt><trkpt lat="45.49334306214918" lon="10.483008855345412"><ele>251.0</ele><time>2026-04-18T12:43:20Z</time></trkpt><trkpt lat="45.49336361445813" lon="10.483146084547144"><ele>251.33333333333334</ele><time>2026-04-18T12:43:21Z</time></trkpt><trkpt lat="45.493392224088794" lon="10.483278469170772"><ele>251.66666666666669</ele><time>2026-04-18T12:43:22Z</time></trkpt><trkpt lat="45.49342043165587" lon="10.483399354011476"><ele>252.0</ele><time>2026-04-18T12:43:23Z</time></trkpt><trkpt lat="45.493436501982956" lon="10.48350427073558"><ele>252.33333333333331</ele><time>2026-04-18T12:43:24Z</time></trkpt><trkpt lat="45.493444510818776" lon="10.483617917352692"><ele>252.66666666666666</ele><time>2026-04-18T12:43:25Z</time></trkpt><trkpt lat="45.49344580290257" lon="10.48375861997813"><ele>253.0</ele><time>2026-04-18T12:43:26Z</time></trkpt><trkpt lat="45.49346317546034" lon="10.483910798227816"><ele>253.49999999999997</ele><time>2026-04-18T12:43:27Z</time></trkpt><trkpt lat="45.49347803412153" lon="10.484040989699984"><ele>254.0</ele><time>2026-04-18T12:43:28Z</time></trkpt><trkpt lat="45.49349127218861" lon="10.484162205495345"><ele>254.5</ele><time>2026-04-18T12:43:29Z</time></trkpt><trkpt lat="45.4934810682974" lon="10.484278068217042"><ele>255.0</ele><time>2026-04-18T12:43:30Z</time></trkpt><trkpt lat="45.493483498682835" lon="10.484383628352283"><ele>255.49999999999997</ele><time>2026-04-18T12:43:31Z</time></trkpt><trkpt lat="45.493478971122606" lon="10.48453994359358"><ele>256.0</ele><time>2026-04-18T12:43:33Z</time></trkpt><trkpt lat="45.49348009267974" lon="10.484691137232248"><ele>255.99999999999997</ele><time>2026-04-18T12:43:35Z</time></trkpt><trkpt lat="45.49351152482371" lon="10.484868648645872"><ele>256.0</ele><time>2026-04-18T12:43:37Z</time></trkpt><trkpt lat="45.493535195936595" lon="10.484966557125034"><ele>256.0</ele><time>2026-04-18T12:43:38Z</time></trkpt><trkpt lat="45.493558397681724" lon="10.485064784727095"><ele>256.0</ele><time>2026-04-18T12:43:39Z</time></trkpt><trkpt lat="45.49358126166716" lon="10.485169961392145"><ele>255.99999999999997</ele><time>2026-04-18T12:43:40Z</time></trkpt><trkpt lat="45.493600469258766" lon="10.485287537489306"><ele>256.0</ele><time>2026-04-18T12:43:41Z</time></trkpt><trkpt lat="45.493618620365254" lon="10.485420615984022"><ele>256.16666666666663</ele><time>2026-04-18T12:43:42Z</time></trkpt><trkpt lat="45.49363077566756" lon="10.485547052058756"><ele>256.3333333333333</ele><time>2026-04-18T12:43:43Z</time></trkpt><trkpt lat="45.493673750197004" lon="10.485670056803777"><ele>256.5</ele><time>2026-04-18T12:43:44Z</time></trkpt><trkpt lat="45.493672622761245" lon="10.485794736275963"><ele>256.6666666666667</ele><time>2026-04-18T12:43:45Z</time></trkpt><trkpt lat="45.493673295093664" lon="10.485904247315325"><ele>256.83333333333337</ele><time>2026-04-18T12:43:46Z</time></trkpt><trkpt lat="45.493671519959406" lon="10.486004294132838"><ele>257.0</ele><time>2026-04-18T12:43:47Z</time></trkpt><trkpt lat="45.49365184132411" lon="10.486103649554613"><ele>257.0</ele><time>2026-04-18T12:43:48Z</time></trkpt><trkpt lat="45.493640763123224" lon="10.48623440244519"><ele>257.0</ele><time>2026-04-18T12:43:50Z</time></trkpt><trkpt lat="45.49363440230864" lon="10.486349995837129"><ele>257.0</ele><time>2026-04-18T12:43:54Z</time></trkpt><trkpt lat="45.493577301343386" lon="10.486395097447634"><ele>257.0</ele><time>2026-04-18T12:43:59Z</time></trkpt><trkpt lat="45.49353130191438" lon="10.486490456481668"><ele>257.0</ele><time>2026-04-18T12:44:03Z</time></trkpt><trkpt lat="45.493481615284416" lon="10.486567823834445"><ele>257.0</ele><time>2026-04-18T12:44:06Z</time></trkpt><trkpt lat="45.493397526723605" lon="10.486616371614788"><ele>257.4</ele><time>2026-04-18T12:44:08Z</time></trkpt><trkpt lat="45.493480842979785" lon="10.486628815824194"><ele>257.79999999999995</ele><time>2026-04-18T12:44:15Z</time></trkpt><trkpt lat="45.49357574644814" lon="10.486620696688547"><ele>258.2</ele><time>2026-04-18T12:44:17Z</time></trkpt><trkpt lat="45.49365645695809" lon="10.486605841104165"><ele>258.59999999999997</ele><time>2026-04-18T12:44:19Z</time></trkpt><trkpt lat="45.49374933683853" lon="10.486653768634818"><ele>259.0</ele><time>2026-04-18T12:44:21Z</time></trkpt><trkpt lat="45.493831843727875" lon="10.486715403433333"><ele>259.0</ele><time>2026-04-18T12:44:23Z</time></trkpt><trkpt lat="45.49391291951406" lon="10.48681234433953"><ele>259.0</ele><time>2026-04-18T12:44:25Z</time></trkpt><trkpt lat="45.49396646040677" lon="10.486881785668283"><ele>259.0</ele><time>2026-04-18T12:44:26Z</time></trkpt><trkpt lat="45.49405309125513" lon="10.48697571748553"><ele>259.0</ele><time>2026-04-18T12:44:28Z</time></trkpt><trkpt lat="45.49416947816884" lon="10.487059371731576"><ele>259.0</ele><time>2026-04-18T12:44:30Z</time></trkpt><trkpt lat="45.49428011172263" lon="10.4870922972439"><ele>259.0</ele><time>2026-04-18T12:44:32Z</time></trkpt><trkpt lat="45.49440240173454" lon="10.487077200175337"><ele>259.0</ele><time>2026-04-18T12:44:34Z</time></trkpt><trkpt lat="45.49446875269106" lon="10.487085573649308"><ele>259.0</ele><time>2026-04-18T12:44:35Z</time></trkpt><trkpt lat="45.4945356134036" lon="10.487084784433664"><ele>259.0</ele><time>2026-04-18T12:44:36Z</time></trkpt><trkpt lat="45.49460307893304" lon="10.487100488938276"><ele>259.0</ele><time>2026-04-18T12:44:37Z</time></trkpt><trkpt lat="45.49467355216626" lon="10.487115825896833"><ele>259.0</ele><time>2026-04-18T12:44:38Z</time></trkpt><trkpt lat="45.49474589927415" lon="10.487132323988186"><ele>256.8333333333333</ele><time>2026-04-18T12:44:39Z</time></trkpt><trkpt lat="45.494811581049184" lon="10.48714128396933"><ele>254.66666666666666</ele><time>2026-04-18T12:44:40Z</time></trkpt><trkpt lat="45.49487702449484" lon="10.487162900101458"><ele>252.5</ele><time>2026-04-18T12:44:41Z</time></trkpt><trkpt lat="45.49493956865884" lon="10.487180454252373"><ele>250.33333333333331</ele><time>2026-04-18T12:44:42Z</time></trkpt><trkpt lat="45.49500151880796" lon="10.487197849672484"><ele>248.16666666666666</ele><time>2026-04-18T12:44:43Z</time></trkpt><trkpt lat="45.49511135167711" lon="10.487252570746538"><ele>246.0</ele><time>2026-04-18T12:44:45Z</time></trkpt><trkpt lat="45.49522286706159" lon="10.487308750404646"><ele>246.0</ele><time>2026-04-18T12:44:47Z</time></trkpt><trkpt lat="45.4953051961799" lon="10.487367723652476"><ele>246.0</ele><time>2026-04-18T12:44:49Z</time></trkpt><trkpt lat="45.4953774695144" lon="10.487422097725105"><ele>246.0</ele><time>2026-04-18T12:44:51Z</time></trkpt><trkpt lat="45.4954837824295" lon="10.487447065546341"><ele>246.0</ele><time>2026-04-18T12:44:54Z</time></trkpt><trkpt lat="45.49554225638248" lon="10.487484895891244"><ele>246.0</ele><time>2026-04-18T12:44:55Z</time></trkpt><trkpt lat="45.49559773526728" lon="10.487528470749147"><ele>246.0</ele><time>2026-04-18T12:44:56Z</time></trkpt><trkpt lat="45.49568928458744" lon="10.487563302382286"><ele>245.8</ele><time>2026-04-18T12:44:58Z</time></trkpt><trkpt lat="45.49578453572042" lon="10.487587718333348"><ele>245.60000000000002</ele><time>2026-04-18T12:45:00Z</time></trkpt><trkpt lat="45.49584875735857" lon="10.4876209859242"><ele>245.4</ele><time>2026-04-18T12:45:01Z</time></trkpt><trkpt lat="45.49593966833888" lon="10.487670251614214"><ele>245.2</ele><time>2026-04-18T12:45:03Z</time></trkpt><trkpt lat="45.496023779668235" lon="10.487725437288464"><ele>245.0</ele><time>2026-04-18T12:45:05Z</time></trkpt><trkpt lat="45.496118372435824" lon="10.487751219161135"><ele>245.00000000000003</ele><time>2026-04-18T12:45:08Z</time></trkpt><trkpt lat="45.49618798996748" lon="10.487764526568915"><ele>245.0</ele><time>2026-04-18T12:45:10Z</time></trkpt><trkpt lat="45.4962714406576" lon="10.487793704438849"><ele>245.0</ele><time>2026-04-18T12:45:12Z</time></trkpt><trkpt lat="45.496359442265316" lon="10.487849137526814"><ele>245.0</ele><time>2026-04-18T12:45:14Z</time></trkpt><trkpt lat="45.49641813101922" lon="10.48788563480973"><ele>245.00000000000003</ele><time>2026-04-18T12:45:15Z</time></trkpt><trkpt lat="45.49647931466032" lon="10.48795785447712"><ele>245.0</ele><time>2026-04-18T12:45:17Z</time></trkpt><trkpt lat="45.496547800261126" lon="10.488010661678361"><ele>242.50000000000003</ele><time>2026-04-18T12:45:19Z</time></trkpt><trkpt lat="45.49661127138898" lon="10.488046573859556"><ele>240.0</ele><time>2026-04-18T12:45:21Z</time></trkpt><trkpt lat="45.49670011752445" lon="10.488095016497079"><ele>237.5</ele><time>2026-04-18T12:45:24Z</time></trkpt><trkpt lat="45.49676769051288" lon="10.488129458499127"><ele>235.0</ele><time>2026-04-18T12:45:26Z</time></trkpt><trkpt lat="45.49683011792621" lon="10.488144892839943"><ele>232.50000000000003</ele><time>2026-04-18T12:45:28Z</time></trkpt><trkpt lat="45.49692048631473" lon="10.488192566076759"><ele>230.0</ele><time>2026-04-18T12:45:31Z</time></trkpt><trkpt lat="45.496989457692216" lon="10.48823601431103"><ele>230.00000000000003</ele><time>2026-04-18T12:45:33Z</time></trkpt><trkpt lat="45.497050355622356" lon="10.488265125300789"><ele>230.0</ele><time>2026-04-18T12:45:35Z</time></trkpt><trkpt lat="45.49712774158971" lon="10.488268411306512"><ele>230.0</ele><time>2026-04-18T12:45:38Z</time></trkpt><trkpt lat="45.49720200687865" lon="10.488221187335114"><ele>230.0</ele><time>2026-04-18T12:45:40Z</time></trkpt><trkpt lat="45.49729010155086" lon="10.48822818747113"><ele>230.00000000000003</ele><time>2026-04-18T12:45:42Z</time></trkpt><trkpt lat="45.497411842816724" lon="10.488231042618526"><ele>230.0</ele><time>2026-04-18T12:45:44Z</time></trkpt><trkpt lat="45.497515325986775" lon="10.488258601113083"><ele>230.4</ele><time>2026-04-18T12:45:45Z</time></trkpt><trkpt lat="45.49761424145461" lon="10.488248089898303"><ele>230.8</ele><time>2026-04-18T12:45:46Z</time></trkpt><trkpt lat="45.49771093423604" lon="10.488240923005954"><ele>231.2</ele><time>2026-04-18T12:45:47Z</time></trkpt><trkpt lat="45.49779234033755" lon="10.488239291558603"><ele>231.6</ele><time>2026-04-18T12:45:48Z</time></trkpt><trkpt lat="45.497878949433456" lon="10.488236989200795"><ele>232.0</ele><time>2026-04-18T12:45:49Z</time></trkpt><trkpt lat="45.49797239200907" lon="10.488235879489643"><ele>232.2</ele><time>2026-04-18T12:45:50Z</time></trkpt><trkpt lat="45.4980724493043" lon="10.488238198487503"><ele>232.39999999999998</ele><time>2026-04-18T12:45:51Z</time></trkpt><trkpt lat="45.498177104286356" lon="10.488243233969003"><ele>232.60000000000002</ele><time>2026-04-18T12:45:52Z</time></trkpt><trkpt lat="45.49827881958588" lon="10.48824903033434"><ele>232.8</ele><time>2026-04-18T12:45:53Z</time></trkpt><trkpt lat="45.49836145592157" lon="10.488271971089448"><ele>233.0</ele><time>2026-04-18T12:45:54Z</time></trkpt><trkpt lat="45.498433621154334" lon="10.48829528005139"><ele>233.00000000000003</ele><time>2026-04-18T12:45:55Z</time></trkpt><trkpt lat="45.4985065251421" lon="10.488325586768736"><ele>233.0</ele><time>2026-04-18T12:45:56Z</time></trkpt><trkpt lat="45.49859702032036" lon="10.488366153126014"><ele>233.0</ele><time>2026-04-18T12:45:57Z</time></trkpt><trkpt lat="45.49866438014379" lon="10.488382086026181"><ele>233.0</ele><time>2026-04-18T12:45:58Z</time></trkpt><trkpt lat="45.498744129263216" lon="10.488434792366425"><ele>233.00000000000003</ele><time>2026-04-18T12:46:00Z</time></trkpt><trkpt lat="45.49878507971443" lon="10.488559524139529"><ele>233.0</ele><time>2026-04-18T12:46:02Z</time></trkpt><trkpt lat="45.4987897585299" lon="10.488735668830227"><ele>230.2</ele><time>2026-04-18T12:46:04Z</time></trkpt><trkpt lat="45.49874863951945" lon="10.488827819475768"><ele>227.4</ele><time>2026-04-18T12:46:05Z</time></trkpt><trkpt lat="45.49869795793819" lon="10.488924513192798"><ele>224.59999999999997</ele><time>2026-04-18T12:46:06Z</time></trkpt><trkpt lat="45.498633195643784" lon="10.489021733207426"><ele>221.79999999999998</ele><time>2026-04-18T12:46:07Z</time></trkpt><trkpt lat="45.49855784996301" lon="10.489131434093984"><ele>219.0</ele><time>2026-04-18T12:46:08Z</time></trkpt><trkpt lat="45.4984897331306" lon="10.489231439381834"><ele>219.0</ele><time>2026-04-18T12:46:09Z</time></trkpt><trkpt lat="45.49842568307043" lon="10.489325358981144"><ele>218.99999999999997</ele><time>2026-04-18T12:46:10Z</time></trkpt><trkpt lat="45.49838712641939" lon="10.489463107740166"><ele>218.99999999999997</ele><time>2026-04-18T12:46:11Z</time></trkpt><trkpt lat="45.49835183980298" lon="10.489576194735674"><ele>219.0</ele><time>2026-04-18T12:46:12Z</time></trkpt><trkpt lat="45.49834939312058" lon="10.489716496313893"><ele>219.0</ele><time>2026-04-18T12:46:13Z</time></trkpt><trkpt lat="45.49835089305213" lon="10.489855565111887"><ele>218.33333333333334</ele><time>2026-04-18T12:46:14Z</time></trkpt><trkpt lat="45.498361727860285" lon="10.489972182838846"><ele>217.66666666666669</ele><time>2026-04-18T12:46:15Z</time></trkpt><trkpt lat="45.4983783034863" lon="10.490074233383094"><ele>217.0</ele><time>2026-04-18T12:46:16Z</time></trkpt><trkpt lat="45.49840464338745" lon="10.490171176948659"><ele>216.33333333333334</ele><time>2026-04-18T12:46:17Z</time></trkpt><trkpt lat="45.49843005380197" lon="10.490277260255716"><ele>215.66666666666669</ele><time>2026-04-18T12:46:18Z</time></trkpt><trkpt lat="45.498458104559596" lon="10.490376080282907"><ele>215.0</ele><time>2026-04-18T12:46:19Z</time></trkpt><trkpt lat="45.498483713919626" lon="10.490490386821905"><ele>214.83333333333334</ele><time>2026-04-18T12:46:20Z</time></trkpt><trkpt lat="45.498511776715084" lon="10.490606379964044"><ele>214.66666666666669</ele><time>2026-04-18T12:46:21Z</time></trkpt><trkpt lat="45.498543435219574" lon="10.49070293581995"><ele>214.5</ele><time>2026-04-18T12:46:22Z</time></trkpt><trkpt lat="45.498574045986295" lon="10.490808267427575"><ele>214.33333333333331</ele><time>2026-04-18T12:46:23Z</time></trkpt><trkpt lat="45.498616632820706" lon="10.490890227497946"><ele>214.16666666666666</ele><time>2026-04-18T12:46:24Z</time></trkpt><trkpt lat="45.49866526977105" lon="10.490978838578245"><ele>214.0</ele><time>2026-04-18T12:46:25Z</time></trkpt><trkpt lat="45.498711789463535" lon="10.491059531054653"><ele>212.66666666666666</ele><time>2026-04-18T12:46:26Z</time></trkpt><trkpt lat="45.498762870685304" lon="10.491132771499265"><ele>211.33333333333331</ele><time>2026-04-18T12:46:27Z</time></trkpt><trkpt lat="45.49880910518849" lon="10.491210527491907"><ele>210.0</ele><time>2026-04-18T12:46:28Z</time></trkpt><trkpt lat="45.49885061478343" lon="10.491295892975906"><ele>208.66666666666669</ele><time>2026-04-18T12:46:29Z</time></trkpt><trkpt lat="45.49890584615828" lon="10.491373934740158"><ele>207.33333333333334</ele><time>2026-04-18T12:46:30Z</time></trkpt><trkpt lat="45.498963006159855" lon="10.491471585055923"><ele>206.0</ele><time>2026-04-18T12:46:31Z</time></trkpt><trkpt lat="45.49903675760541" lon="10.491608984484271"><ele>206.0</ele><time>2026-04-18T12:46:33Z</time></trkpt><trkpt lat="45.49911214831968" lon="10.491765770630934"><ele>206.0</ele><time>2026-04-18T12:46:35Z</time></trkpt><trkpt lat="45.49915396771517" lon="10.491910871933266"><ele>206.0</ele><time>2026-04-18T12:46:37Z</time></trkpt><trkpt lat="45.49916786357954" lon="10.492026519272654"><ele>206.0</ele><time>2026-04-18T12:46:39Z</time></trkpt><trkpt lat="45.49918700018504" lon="10.492160085700009"><ele>206.0</ele><time>2026-04-18T12:46:41Z</time></trkpt><trkpt lat="45.49919823953624" lon="10.492254814482868"><ele>205.83333333333334</ele><time>2026-04-18T12:46:43Z</time></trkpt><trkpt lat="45.49920039426237" lon="10.49239124014432"><ele>205.66666666666669</ele><time>2026-04-18T12:46:45Z</time></trkpt><trkpt lat="45.49920580069441" lon="10.492497488516667"><ele>205.5</ele><time>2026-04-18T12:46:46Z</time></trkpt><trkpt lat="45.49921073462901" lon="10.492627955042888"><ele>205.33333333333331</ele><time>2026-04-18T12:46:47Z</time></trkpt><trkpt lat="45.49921839892857" lon="10.492772939326068"><ele>205.16666666666666</ele><time>2026-04-18T12:46:49Z</time></trkpt><trkpt lat="45.49914312191612" lon="10.492801184469174"><ele>205.0</ele><time>2026-04-18T12:46:52Z</time></trkpt><trkpt lat="45.49903857987274" lon="10.492733473744517"><ele>205.0</ele><time>2026-04-18T12:46:54Z</time></trkpt><trkpt lat="45.49896139850504" lon="10.492707874865971"><ele>205.0</ele><time>2026-04-18T12:46:55Z</time></trkpt><trkpt lat="45.49887840711761" lon="10.492645102844168"><ele>205.0</ele><time>2026-04-18T12:46:56Z</time></trkpt><trkpt lat="45.498786463399185" lon="10.492576477905436"><ele>205.0</ele><time>2026-04-18T12:46:57Z</time></trkpt><trkpt lat="45.498699719254724" lon="10.49251372395661"><ele>205.0</ele><time>2026-04-18T12:46:58Z</time></trkpt><trkpt lat="45.4986233107813" lon="10.492449522586709"><ele>204.8</ele><time>2026-04-18T12:46:59Z</time></trkpt><trkpt lat="45.498555217448214" lon="10.492339749643294"><ele>204.6</ele><time>2026-04-18T12:47:00Z</time></trkpt><trkpt lat="45.498490248234994" lon="10.492258341549643"><ele>204.39999999999998</ele><time>2026-04-18T12:47:01Z</time></trkpt><trkpt lat="45.49842454675167" lon="10.492169444571884"><ele>204.2</ele><time>2026-04-18T12:47:02Z</time></trkpt><trkpt lat="45.49835141351283" lon="10.492064387283612"><ele>204.0</ele><time>2026-04-18T12:47:03Z</time></trkpt><trkpt lat="45.49827010630352" lon="10.491950964385847"><ele>203.5</ele><time>2026-04-18T12:47:04Z</time></trkpt><trkpt lat="45.49820381954532" lon="10.491841018585975"><ele>203.0</ele><time>2026-04-18T12:47:05Z</time></trkpt><trkpt lat="45.49812675872669" lon="10.491741262331432"><ele>202.5</ele><time>2026-04-18T12:47:06Z</time></trkpt><trkpt lat="45.49802064510901" lon="10.491657492814031"><ele>202.0</ele><time>2026-04-18T12:47:07Z</time></trkpt><trkpt lat="45.49791295298204" lon="10.491555692544557"><ele>202.0</ele><time>2026-04-18T12:47:08Z</time></trkpt><trkpt lat="45.49781840822008" lon="10.491474942479835"><ele>202.0</ele><time>2026-04-18T12:47:09Z</time></trkpt><trkpt lat="45.497712244233604" lon="10.491398345950495"><ele>202.0</ele><time>2026-04-18T12:47:10Z</time></trkpt><trkpt lat="45.497602250105956" lon="10.491320765806329"><ele>202.0</ele><time>2026-04-18T12:47:11Z</time></trkpt><trkpt lat="45.49749838230278" lon="10.491253024007985"><ele>201.5</ele><time>2026-04-18T12:47:12Z</time></trkpt><trkpt lat="45.497394244832435" lon="10.491183584448251"><ele>201.0</ele><time>2026-04-18T12:47:13Z</time></trkpt><trkpt lat="45.497295672028024" lon="10.491118284754354"><ele>200.5</ele><time>2026-04-18T12:47:14Z</time></trkpt><trkpt lat="45.497177338436344" lon="10.491064088961037"><ele>200.0</ele><time>2026-04-18T12:47:15Z</time></trkpt><trkpt lat="45.49707972780992" lon="10.490971298747446"><ele>200.0</ele><time>2026-04-18T12:47:16Z</time></trkpt><trkpt lat="45.49697831066213" lon="10.490894860765946"><ele>200.0</ele><time>2026-04-18T12:47:17Z</time></trkpt><trkpt lat="45.49687688815434" lon="10.49081807506194"><ele>200.0</ele><time>2026-04-18T12:47:18Z</time></trkpt><trkpt lat="45.496768873785" lon="10.490754877117116"><ele>200.0</ele><time>2026-04-18T12:47:19Z</time></trkpt><trkpt lat="45.49667476323146" lon="10.490664467581574"><ele>200.0</ele><time>2026-04-18T12:47:20Z</time></trkpt><trkpt lat="45.49658205813311" lon="10.490576126183832"><ele>200.0</ele><time>2026-04-18T12:47:21Z</time></trkpt><trkpt lat="45.496492417665934" lon="10.490489637626046"><ele>200.0</ele><time>2026-04-18T12:47:22Z</time></trkpt><trkpt lat="45.496400761261846" lon="10.490415032680222"><ele>200.0</ele><time>2026-04-18T12:47:23Z</time></trkpt><trkpt lat="45.49629660551002" lon="10.49035615737428"><ele>200.0</ele><time>2026-04-18T12:47:24Z</time></trkpt><trkpt lat="45.49618912450954" lon="10.490321225083514"><ele>199.6</ele><time>2026-04-18T12:47:25Z</time></trkpt><trkpt lat="45.49608310903298" lon="10.490293750288945"><ele>199.2</ele><time>2026-04-18T12:47:26Z</time></trkpt><trkpt lat="45.49597887232482" lon="10.490278187613784"><ele>198.8</ele><time>2026-04-18T12:47:27Z</time></trkpt><trkpt lat="45.49586499453502" lon="10.490263076219485"><ele>198.4</ele><time>2026-04-18T12:47:28Z</time></trkpt><trkpt lat="45.495748906632585" lon="10.490264297096346"><ele>198.0</ele><time>2026-04-18T12:47:29Z</time></trkpt><trkpt lat="45.49563834776028" lon="10.490275133372045"><ele>198.0</ele><time>2026-04-18T12:47:30Z</time></trkpt><trkpt lat="45.495530556478535" lon="10.490286660073721"><ele>198.0</ele><time>2026-04-18T12:47:31Z</time></trkpt><trkpt lat="45.49542703132254" lon="10.49031201949906"><ele>198.0</ele><time>2026-04-18T12:47:32Z</time></trkpt><trkpt lat="45.495327517975255" lon="10.490315872675094"><ele>198.0</ele><time>2026-04-18T12:47:33Z</time></trkpt><trkpt lat="45.4952332484992" lon="10.490301376396857"><ele>198.0</ele><time>2026-04-18T12:47:34Z</time></trkpt><trkpt lat="45.49514395468612" lon="10.490299689368129"><ele>197.4</ele><time>2026-04-18T12:47:35Z</time></trkpt><trkpt lat="45.495054382575404" lon="10.490292399905455"><ele>196.8</ele><time>2026-04-18T12:47:36Z</time></trkpt><trkpt lat="45.4949691324779" lon="10.490274632746862"><ele>196.2</ele><time>2026-04-18T12:47:37Z</time></trkpt><trkpt lat="45.49488144377048" lon="10.490247438288355"><ele>195.6</ele><time>2026-04-18T12:47:38Z</time></trkpt><trkpt lat="45.49479345608415" lon="10.490218550205611"><ele>195.0</ele><time>2026-04-18T12:47:39Z</time></trkpt><trkpt lat="45.494696711577" lon="10.49016142091924"><ele>195.0</ele><time>2026-04-18T12:47:40Z</time></trkpt><trkpt lat="45.494602904870064" lon="10.49010282424917"><ele>195.0</ele><time>2026-04-18T12:47:41Z</time></trkpt><trkpt lat="45.49451371624568" lon="10.49006575194613"><ele>195.0</ele><time>2026-04-18T12:47:42Z</time></trkpt><trkpt lat="45.494428230836654" lon="10.490033400688313"><ele>195.0</ele><time>2026-04-18T12:47:43Z</time></trkpt><trkpt lat="45.49434391292603" lon="10.490011663102559"><ele>195.0</ele><time>2026-04-18T12:47:44Z</time></trkpt><trkpt lat="45.49425557486067" lon="10.490004265781458"><ele>195.4</ele><time>2026-04-18T12:47:45Z</time></trkpt><trkpt lat="45.49416315686097" lon="10.49000197794316"><ele>195.8</ele><time>2026-04-18T12:47:46Z</time></trkpt><trkpt lat="45.49406834115075" lon="10.490006021436448"><ele>196.2</ele><time>2026-04-18T12:47:47Z</time></trkpt><trkpt lat="45.49397706400475" lon="10.490013454214358"><ele>196.6</ele><time>2026-04-18T12:47:48Z</time></trkpt><trkpt lat="45.49388450812788" lon="10.490015833889935"><ele>197.0</ele><time>2026-04-18T12:47:49Z</time></trkpt><trkpt lat="45.4937878187097" lon="10.48998965763907"><ele>197.2</ele><time>2026-04-18T12:47:50Z</time></trkpt><trkpt lat="45.49369137064798" lon="10.489996315420994"><ele>197.39999999999998</ele><time>2026-04-18T12:47:51Z</time></trkpt><trkpt lat="45.493600060241036" lon="10.490002618560474"><ele>197.60000000000002</ele><time>2026-04-18T12:47:52Z</time></trkpt><trkpt lat="45.493502682695095" lon="10.490026854228915"><ele>197.8</ele><time>2026-04-18T12:47:53Z</time></trkpt><trkpt lat="45.493397815017374" lon="10.490041763881038"><ele>198.0</ele><time>2026-04-18T12:47:54Z</time></trkpt><trkpt lat="45.4932877449757" lon="10.49004860081533"><ele>198.0</ele><time>2026-04-18T12:47:55Z</time></trkpt><trkpt lat="45.49317991757072" lon="10.490031274306654"><ele>198.0</ele><time>2026-04-18T12:47:56Z</time></trkpt><trkpt lat="45.49307747299845" lon="10.49003997678055"><ele>198.0</ele><time>2026-04-18T12:47:57Z</time></trkpt><trkpt lat="45.49298250054847" lon="10.490060301798955"><ele>198.0</ele><time>2026-04-18T12:47:58Z</time></trkpt><trkpt lat="45.49289076499875" lon="10.490087377302515"><ele>198.0</ele><time>2026-04-18T12:47:59Z</time></trkpt><trkpt lat="45.492802075581494" lon="10.490123065391538"><ele>198.33333333333334</ele><time>2026-04-18T12:48:00Z</time></trkpt><trkpt lat="45.49272361506297" lon="10.490169637203213"><ele>198.66666666666669</ele><time>2026-04-18T12:48:01Z</time></trkpt><trkpt lat="45.49264090147041" lon="10.490179997647681"><ele>199.0</ele><time>2026-04-18T12:48:02Z</time></trkpt><trkpt lat="45.492567707448735" lon="10.49021061717685"><ele>199.33333333333334</ele><time>2026-04-18T12:48:03Z</time></trkpt><trkpt lat="45.492489913711815" lon="10.490224218029267"><ele>199.66666666666669</ele><time>2026-04-18T12:48:04Z</time></trkpt><trkpt lat="45.492415199324064" lon="10.490255630090317"><ele>200.0</ele><time>2026-04-18T12:48:05Z</time></trkpt><trkpt lat="45.49234489379556" lon="10.490282413929634"><ele>200.00000000000003</ele><time>2026-04-18T12:48:06Z</time></trkpt><trkpt lat="45.49227322534765" lon="10.490309719029856"><ele>200.0</ele><time>2026-04-18T12:48:07Z</time></trkpt><trkpt lat="45.492192277998384" lon="10.490326100115489"><ele>200.0</ele><time>2026-04-18T12:48:08Z</time></trkpt><trkpt lat="45.492104154241076" lon="10.490330425125777"><ele>200.0</ele><time>2026-04-18T12:48:09Z</time></trkpt><trkpt lat="45.49202269102662" lon="10.49032747111297"><ele>200.00000000000003</ele><time>2026-04-18T12:48:10Z</time></trkpt><trkpt lat="45.49194371982159" lon="10.490337427890525"><ele>200.0</ele><time>2026-04-18T12:48:11Z</time></trkpt><trkpt lat="45.49186019281131" lon="10.490365103967784"><ele>197.2</ele><time>2026-04-18T12:48:12Z</time></trkpt><trkpt lat="45.491789905535576" lon="10.490428376403752"><ele>194.4</ele><time>2026-04-18T12:48:13Z</time></trkpt><trkpt lat="45.49171940612408" lon="10.490508945936137"><ele>191.60000000000002</ele><time>2026-04-18T12:48:14Z</time></trkpt><trkpt lat="45.4916251222978" lon="10.490561879896331"><ele>188.8</ele><time>2026-04-18T12:48:14.999Z</time></trkpt><trkpt lat="45.491532607069814" lon="10.490610190227605"><ele>186.0</ele><time>2026-04-18T12:48:15.999Z</time></trkpt><trkpt lat="45.49144069270342" lon="10.490662813517694"><ele>186.0</ele><time>2026-04-18T12:48:16.999Z</time></trkpt><trkpt lat="45.49134781846304" lon="10.490717448566219"><ele>186.0</ele><time>2026-04-18T12:48:17.999Z</time></trkpt><trkpt lat="45.4912531458223" lon="10.49077654612994"><ele>186.0</ele><time>2026-04-18T12:48:18.999Z</time></trkpt><trkpt lat="45.49115721798075" lon="10.490829646725004"><ele>186.0</ele><time>2026-04-18T12:48:19.999Z</time></trkpt><trkpt lat="45.491053411743124" lon="10.490857251996363"><ele>186.0</ele><time>2026-04-18T12:48:20.999Z</time></trkpt><trkpt lat="45.49093761647228" lon="10.490875510557657"><ele>187.0</ele><time>2026-04-18T12:48:21.999Z</time></trkpt><trkpt lat="45.49083868930437" lon="10.490937995850514"><ele>188.0</ele><time>2026-04-18T12:48:22.999Z</time></trkpt><trkpt lat="45.49074042013289" lon="10.49100922103006"><ele>189.0</ele><time>2026-04-18T12:48:23.999Z</time></trkpt><trkpt lat="45.490633487713964" lon="10.49105147756122"><ele>190.0</ele><time>2026-04-18T12:48:24.999Z</time></trkpt><trkpt lat="45.4905324353811" lon="10.491126223237702"><ele>191.0</ele><time>2026-04-18T12:48:25.999Z</time></trkpt><trkpt lat="45.490422317371085" lon="10.491173644825986"><ele>192.20000000000002</ele><time>2026-04-18T12:48:26.999Z</time></trkpt><trkpt lat="45.49031812970672" lon="10.49123650045659"><ele>193.4</ele><time>2026-04-18T12:48:27.999Z</time></trkpt><trkpt lat="45.49022213638079" lon="10.491317565579703"><ele>194.6</ele><time>2026-04-18T12:48:28.999Z</time></trkpt><trkpt lat="45.49012468984951" lon="10.491373802215156"><ele>195.8</ele><time>2026-04-18T12:48:29.999Z</time></trkpt><trkpt lat="45.49002647931802" lon="10.49142919256998"><ele>197.0</ele><time>2026-04-18T12:48:30.999Z</time></trkpt><trkpt lat="45.48992604263356" lon="10.491464496150373"><ele>195.8</ele><time>2026-04-18T12:48:31.999Z</time></trkpt><trkpt lat="45.48983406846288" lon="10.491513526279608"><ele>194.6</ele><time>2026-04-18T12:48:32.999Z</time></trkpt><trkpt lat="45.489743952008645" lon="10.491556735808572"><ele>193.4</ele><time>2026-04-18T12:48:33.999Z</time></trkpt><trkpt lat="45.48965154944839" lon="10.491593117994944"><ele>192.20000000000002</ele><time>2026-04-18T12:48:34.999Z</time></trkpt><trkpt lat="45.489550635925305" lon="10.49162634958043"><ele>191.0</ele><time>2026-04-18T12:48:35.999Z</time></trkpt><trkpt lat="45.48944445306519" lon="10.491649973855061"><ele>191.0</ele><time>2026-04-18T12:48:36.999Z</time></trkpt><trkpt lat="45.489348423387" lon="10.491655054050883"><ele>191.0</ele><time>2026-04-18T12:48:37.999Z</time></trkpt><trkpt lat="45.48925109497266" lon="10.491665438004278"><ele>191.0</ele><time>2026-04-18T12:48:38.999Z</time></trkpt><trkpt lat="45.48915531378279" lon="10.491710988622595"><ele>191.0</ele><time>2026-04-18T12:48:39.999Z</time></trkpt><trkpt lat="45.489053915129915" lon="10.491772943273912"><ele>191.0</ele><time>2026-04-18T12:48:40.999Z</time></trkpt><trkpt lat="45.488947658885024" lon="10.4918459867559"><ele>191.0</ele><time>2026-04-18T12:48:41.999Z</time></trkpt><trkpt lat="45.48884616222409" lon="10.491918971996416"><ele>191.0</ele><time>2026-04-18T12:48:42.999Z</time></trkpt><trkpt lat="45.488749249700575" lon="10.491984154083875"><ele>191.0</ele><time>2026-04-18T12:48:43.999Z</time></trkpt><trkpt lat="45.48866064441569" lon="10.492056563847193"><ele>191.0</ele><time>2026-04-18T12:48:44.999Z</time></trkpt><trkpt lat="45.48856978516105" lon="10.492091580794355"><ele>191.0</ele><time>2026-04-18T12:48:45.999Z</time></trkpt><trkpt lat="45.4884824790982" lon="10.492128489941503"><ele>190.60000000000002</ele><time>2026-04-18T12:48:46.999Z</time></trkpt><trkpt lat="45.48838144205054" lon="10.492104460486267"><ele>190.2</ele><time>2026-04-18T12:48:47.999Z</time></trkpt><trkpt lat="45.48829068758462" lon="10.492133567515348"><ele>189.8</ele><time>2026-04-18T12:48:48.999Z</time></trkpt><trkpt lat="45.48820806689373" lon="10.492172339252528"><ele>189.39999999999998</ele><time>2026-04-18T12:48:49.999Z</time></trkpt><trkpt lat="45.48812503845392" lon="10.49220240032186"><ele>189.0</ele><time>2026-04-18T12:48:50.999Z</time></trkpt><trkpt lat="45.48804098190464" lon="10.492222156625626"><ele>189.0</ele><time>2026-04-18T12:48:51.999Z</time></trkpt><trkpt lat="45.487958113530574" lon="10.492237137706669"><ele>189.0</ele><time>2026-04-18T12:48:52.999Z</time></trkpt><trkpt lat="45.48788122484593" lon="10.492254522249379"><ele>189.0</ele><time>2026-04-18T12:48:53.999Z</time></trkpt><trkpt lat="45.487812005420075" lon="10.49227414840964"><ele>189.0</ele><time>2026-04-18T12:48:54.999Z</time></trkpt><trkpt lat="45.48771718202043" lon="10.49229736904128"><ele>189.0</ele><time>2026-04-18T12:48:56.999Z</time></trkpt><trkpt lat="45.48764257819413" lon="10.49230453580442"><ele>189.0</ele><time>2026-04-18T12:48:59.999Z</time></trkpt><trkpt lat="45.48757441272092" lon="10.492441719590479"><ele>189.0</ele><time>2026-04-18T12:49:01.999Z</time></trkpt><trkpt lat="45.487634355007216" lon="10.492523795083864"><ele>189.0</ele><time>2026-04-18T12:49:03.999Z</time></trkpt><trkpt lat="45.487718443579034" lon="10.492629494942623"><ele>189.0</ele><time>2026-04-18T12:49:05.999Z</time></trkpt><trkpt lat="45.48780489754952" lon="10.49271150163309"><ele>189.0</ele><time>2026-04-18T12:49:07.999Z</time></trkpt><trkpt lat="45.48789084769797" lon="10.492807414975566"><ele>189.0</ele><time>2026-04-18T12:49:09.999Z</time></trkpt><trkpt lat="45.487938643790656" lon="10.492883138594642"><ele>187.33333333333334</ele><time>2026-04-18T12:49:10.999Z</time></trkpt><trkpt lat="45.487971543672266" lon="10.492979319558815"><ele>185.66666666666666</ele><time>2026-04-18T12:49:11.999Z</time></trkpt><trkpt lat="45.488003618400676" lon="10.493087833916503"><ele>184.0</ele><time>2026-04-18T12:49:12.999Z</time></trkpt><trkpt lat="45.488033705442376" lon="10.493198958428716"><ele>182.33333333333331</ele><time>2026-04-18T12:49:13.999Z</time></trkpt><trkpt lat="45.48805617189291" lon="10.493315380773467"><ele>180.66666666666666</ele><time>2026-04-18T12:49:14.999Z</time></trkpt><trkpt lat="45.48808458313409" lon="10.49343181704471"><ele>179.0</ele><time>2026-04-18T12:49:15.999Z</time></trkpt><trkpt lat="45.488108531181005" lon="10.493556077190739"><ele>179.0</ele><time>2026-04-18T12:49:16.999Z</time></trkpt><trkpt lat="45.48813077193707" lon="10.493685792974754"><ele>179.0</ele><time>2026-04-18T12:49:17.999Z</time></trkpt><trkpt lat="45.48815228810875" lon="10.493818328690132"><ele>179.0</ele><time>2026-04-18T12:49:18.999Z</time></trkpt><trkpt lat="45.48818571316231" lon="10.493936546801349"><ele>179.0</ele><time>2026-04-18T12:49:19.999Z</time></trkpt><trkpt lat="45.48822266639243" lon="10.494040429130635"><ele>179.0</ele><time>2026-04-18T12:49:21Z</time></trkpt><trkpt lat="45.488256434103896" lon="10.494143419682093"><ele>179.0</ele><time>2026-04-18T12:49:22Z</time></trkpt><trkpt lat="45.48827162732482" lon="10.494251734520553"><ele>178.14285714285717</ele><time>2026-04-18T12:49:23Z</time></trkpt><trkpt lat="45.48827458230439" lon="10.494345571266736"><ele>177.28571428571428</ele><time>2026-04-18T12:49:24Z</time></trkpt><trkpt lat="45.48824973911022" lon="10.494434149441442"><ele>176.42857142857144</ele><time>2026-04-18T12:49:25Z</time></trkpt><trkpt lat="45.48821304290486" lon="10.494526150790023"><ele>175.57142857142858</ele><time>2026-04-18T12:49:26Z</time></trkpt><trkpt lat="45.48818414784348" lon="10.494623503114278"><ele>174.71428571428572</ele><time>2026-04-18T12:49:27Z</time></trkpt><trkpt lat="45.488159616109726" lon="10.49472181539769"><ele>173.85714285714286</ele><time>2026-04-18T12:49:28Z</time></trkpt><trkpt lat="45.48809006249758" lon="10.49481349548026"><ele>173.0</ele><time>2026-04-18T12:49:30Z</time></trkpt><trkpt lat="45.48797246570762" lon="10.49483695121599"><ele>172.33333333333331</ele><time>2026-04-18T12:49:32Z</time></trkpt><trkpt lat="45.48790939332413" lon="10.494860884927252"><ele>171.66666666666666</ele><time>2026-04-18T12:49:33Z</time></trkpt><trkpt lat="45.48779518709484" lon="10.494893840096601"><ele>171.0</ele><time>2026-04-18T12:49:35Z</time></trkpt><trkpt lat="45.48773320048861" lon="10.49491323201335"><ele>170.33333333333334</ele><time>2026-04-18T12:49:36Z</time></trkpt><trkpt lat="45.48762737713643" lon="10.494993981815028"><ele>169.66666666666669</ele><time>2026-04-18T12:49:38Z</time></trkpt><trkpt lat="45.487572364853335" lon="10.495039187373896"><ele>169.0</ele><time>2026-04-18T12:49:39Z</time></trkpt><trkpt lat="45.48751675921633" lon="10.495084571407256"><ele>169.0</ele><time>2026-04-18T12:49:40Z</time></trkpt><trkpt lat="45.48743400011544" lon="10.495143275420638"><ele>169.0</ele><time>2026-04-18T12:49:41Z</time></trkpt><trkpt lat="45.4873406068372" lon="10.495222774101926"><ele>169.0</ele><time>2026-04-18T12:49:42Z</time></trkpt><trkpt lat="45.4872443654195" lon="10.4952791696168"><ele>169.0</ele><time>2026-04-18T12:49:43Z</time></trkpt><trkpt lat="45.487150678612345" lon="10.495322130461568"><ele>169.0</ele><time>2026-04-18T12:49:44Z</time></trkpt><trkpt lat="45.48706626141249" lon="10.49535756115445"><ele>169.33333333333334</ele><time>2026-04-18T12:49:45Z</time></trkpt><trkpt lat="45.486979730813474" lon="10.495392345638791"><ele>169.66666666666669</ele><time>2026-04-18T12:49:46Z</time></trkpt><trkpt lat="45.486893248374805" lon="10.495420347677879"><ele>170.0</ele><time>2026-04-18T12:49:47Z</time></trkpt><trkpt lat="45.48679609090618" lon="10.495449713759433"><ele>170.33333333333334</ele><time>2026-04-18T12:49:48Z</time></trkpt><trkpt lat="45.48671817757992" lon="10.49548641819306"><ele>170.66666666666666</ele><time>2026-04-18T12:49:49Z</time></trkpt><trkpt lat="45.48665550221493" lon="10.495545508589926"><ele>171.0</ele><time>2026-04-18T12:49:50Z</time></trkpt><trkpt lat="45.48661052178906" lon="10.495628257792276"><ele>169.83333333333334</ele><time>2026-04-18T12:49:51Z</time></trkpt><trkpt lat="45.48660158649398" lon="10.49572444025031"><ele>168.66666666666666</ele><time>2026-04-18T12:49:52Z</time></trkpt><trkpt lat="45.486617660846726" lon="10.495812888044751"><ele>167.5</ele><time>2026-04-18T12:49:53Z</time></trkpt><trkpt lat="45.486662684462715" lon="10.495920017941897"><ele>166.33333333333331</ele><time>2026-04-18T12:49:54Z</time></trkpt><trkpt lat="45.48670279383983" lon="10.496021716985872"><ele>165.16666666666666</ele><time>2026-04-18T12:49:55Z</time></trkpt><trkpt lat="45.48674165090746" lon="10.496124408239426"><ele>164.0</ele><time>2026-04-18T12:49:56Z</time></trkpt><trkpt lat="45.48677810024131" lon="10.496220525998092"><ele>163.14285714285714</ele><time>2026-04-18T12:49:57Z</time></trkpt><trkpt lat="45.486805908424465" lon="10.496312381348801"><ele>162.28571428571428</ele><time>2026-04-18T12:49:58Z</time></trkpt><trkpt lat="45.486834492024805" lon="10.496416249126256"><ele>161.42857142857144</ele><time>2026-04-18T12:49:59Z</time></trkpt><trkpt lat="45.48685290385944" lon="10.496502443918025"><ele>160.57142857142856</ele><time>2026-04-18T12:50:00Z</time></trkpt><trkpt lat="45.48686666247153" lon="10.496611905561076"><ele>159.71428571428572</ele><time>2026-04-18T12:50:02Z</time></trkpt><trkpt lat="45.48687149574109" lon="10.496708658969126"><ele>158.85714285714286</ele><time>2026-04-18T12:50:07Z</time></trkpt><trkpt lat="45.486799598530055" lon="10.496772405752697"><ele>158.0</ele><time>2026-04-18T12:50:09Z</time></trkpt><trkpt lat="45.48672654508222" lon="10.496793007090417"><ele>158.0</ele><time>2026-04-18T12:50:10Z</time></trkpt><trkpt lat="45.48662900489006" lon="10.496788422580748"><ele>158.0</ele><time>2026-04-18T12:50:11Z</time></trkpt><trkpt lat="45.48651479567874" lon="10.49677729539414"><ele>158.0</ele><time>2026-04-18T12:50:12Z</time></trkpt><trkpt lat="45.48639656023285" lon="10.49676719408837"><ele>158.0</ele><time>2026-04-18T12:50:13Z</time></trkpt><trkpt lat="45.48627293104503" lon="10.49676901626534"><ele>157.25</ele><time>2026-04-18T12:50:14Z</time></trkpt><trkpt lat="45.48614079147396" lon="10.496765894531947"><ele>156.5</ele><time>2026-04-18T12:50:15Z</time></trkpt><trkpt lat="45.48600469689877" lon="10.496760677934137"><ele>155.75</ele><time>2026-04-18T12:50:16Z</time></trkpt><trkpt lat="45.48587322528681" lon="10.49675935823389"><ele>155.0</ele><time>2026-04-18T12:50:17Z</time></trkpt><trkpt lat="45.4857390342346" lon="10.496755269327974"><ele>155.0</ele><time>2026-04-18T12:50:18Z</time></trkpt><trkpt lat="45.48560999095694" lon="10.49674848192671"><ele>155.0</ele><time>2026-04-18T12:50:19Z</time></trkpt><trkpt lat="45.48548438169658" lon="10.4967433431702"><ele>155.0</ele><time>2026-04-18T12:50:20Z</time></trkpt><trkpt lat="45.48536528709012" lon="10.496735653782396"><ele>155.0</ele><time>2026-04-18T12:50:21Z</time></trkpt><trkpt lat="45.4852480124366" lon="10.496725998141363"><ele>155.0</ele><time>2026-04-18T12:50:22Z</time></trkpt><trkpt lat="45.48512697513197" lon="10.496718269093035"><ele>155.0</ele><time>2026-04-18T12:50:23Z</time></trkpt><trkpt lat="45.48500894789336" lon="10.496684666618473"><ele>155.0</ele><time>2026-04-18T12:50:24Z</time></trkpt><trkpt lat="45.48491041486838" lon="10.496672153786998"><ele>155.0</ele><time>2026-04-18T12:50:25Z</time></trkpt><trkpt lat="45.48483285905326" lon="10.496661501448"><ele>155.0</ele><time>2026-04-18T12:50:26Z</time></trkpt><trkpt lat="45.48472160677151" lon="10.496646220861619"><ele>155.0</ele><time>2026-04-18T12:50:28Z</time></trkpt><trkpt lat="45.484679753283565" lon="10.49679104057505"><ele>155.0</ele><time>2026-04-18T12:50:29Z</time></trkpt><trkpt lat="45.484678754503406" lon="10.496982288714577"><ele>155.0</ele><time>2026-04-18T12:50:31Z</time></trkpt><trkpt lat="45.48467371722308" lon="10.497102386314562"><ele>155.0</ele><time>2026-04-18T12:50:32Z</time></trkpt><trkpt lat="45.484666932805276" lon="10.49722840759121"><ele>155.0</ele><time>2026-04-18T12:50:33Z</time></trkpt><trkpt lat="45.4846656443668" lon="10.497359339534409"><ele>154.57142857142858</ele><time>2026-04-18T12:50:34Z</time></trkpt><trkpt lat="45.484659619798244" lon="10.497480218944775"><ele>154.14285714285714</ele><time>2026-04-18T12:50:35Z</time></trkpt><trkpt lat="45.484649338740724" lon="10.497587115999343"><ele>153.71428571428572</ele><time>2026-04-18T12:50:36Z</time></trkpt><trkpt lat="45.48463408477102" lon="10.497683631777146"><ele>153.28571428571428</ele><time>2026-04-18T12:50:37Z</time></trkpt><trkpt lat="45.484595836944685" lon="10.497767559709782"><ele>152.85714285714286</ele><time>2026-04-18T12:50:38Z</time></trkpt><trkpt lat="45.484541127606946" lon="10.497826347272163"><ele>152.42857142857142</ele><time>2026-04-18T12:50:39Z</time></trkpt><trkpt lat="45.484480403346865" lon="10.49786916245425"><ele>152.0</ele><time>2026-04-18T12:50:40Z</time></trkpt><trkpt lat="45.484412721463784" lon="10.497898096085036"><ele>151.83333333333331</ele><time>2026-04-18T12:50:41Z</time></trkpt><trkpt lat="45.48434217562966" lon="10.497905646582526"><ele>151.66666666666666</ele><time>2026-04-18T12:50:42Z</time></trkpt><trkpt lat="45.48428109192369" lon="10.497877413407961"><ele>151.5</ele><time>2026-04-18T12:50:43Z</time></trkpt><trkpt lat="45.48416038827806" lon="10.49787005341397"><ele>151.33333333333334</ele><time>2026-04-18T12:50:45Z</time></trkpt><trkpt lat="45.48409600648121" lon="10.497867429144767"><ele>151.16666666666669</ele><time>2026-04-18T12:50:46Z</time></trkpt><trkpt lat="45.48402441066334" lon="10.497837630058548"><ele>151.0</ele><time>2026-04-18T12:50:47Z</time></trkpt><trkpt lat="45.48394048088744" lon="10.497830795757329"><ele>151.0</ele><time>2026-04-18T12:50:48Z</time></trkpt><trkpt lat="45.48384588103909" lon="10.497826177027637"><ele>151.0</ele><time>2026-04-18T12:50:49Z</time></trkpt><trkpt lat="45.483750201486735" lon="10.497823509088244"><ele>151.0</ele><time>2026-04-18T12:50:50Z</time></trkpt><trkpt lat="45.48365450011741" lon="10.497822598754802"><ele>151.0</ele><time>2026-04-18T12:50:51Z</time></trkpt><trkpt lat="45.48355862816473" lon="10.49782702896057"><ele>151.0</ele><time>2026-04-18T12:50:52Z</time></trkpt><trkpt lat="45.483468056687386" lon="10.497858652616788"><ele>150.4</ele><time>2026-04-18T12:50:53Z</time></trkpt><trkpt lat="45.483377179506135" lon="10.497865671209475"><ele>149.8</ele><time>2026-04-18T12:50:54Z</time></trkpt><trkpt lat="45.48329031060342" lon="10.497928388346168"><ele>149.20000000000002</ele><time>2026-04-18T12:50:55Z</time></trkpt><trkpt lat="45.48319410722297" lon="10.497990271973725"><ele>148.6</ele><time>2026-04-18T12:50:56Z</time></trkpt><trkpt lat="45.483112431850046" lon="10.498135823130074"><ele>148.0</ele><time>2026-04-18T12:50:57Z</time></trkpt><trkpt lat="45.483081914697664" lon="10.498319565143234"><ele>146.0</ele><time>2026-04-18T12:50:58Z</time></trkpt><trkpt lat="45.48307160807225" lon="10.49848090965722"><ele>144.0</ele><time>2026-04-18T12:50:59Z</time></trkpt><trkpt lat="45.48306328799171" lon="10.498643851649465"><ele>142.0</ele><time>2026-04-18T12:51:00Z</time></trkpt><trkpt lat="45.48305449086332" lon="10.498816136794705"><ele>140.0</ele><time>2026-04-18T12:51:01Z</time></trkpt><trkpt lat="45.48304561077745" lon="10.498984477063244"><ele>137.6</ele><time>2026-04-18T12:51:02Z</time></trkpt><trkpt lat="45.48301564712803" lon="10.499161274250325"><ele>135.2</ele><time>2026-04-18T12:51:03Z</time></trkpt><trkpt lat="45.48304727140733" lon="10.499304449354844"><ele>132.8</ele><time>2026-04-18T12:51:04Z</time></trkpt><trkpt lat="45.48309891246314" lon="10.499409246193302"><ele>130.4</ele><time>2026-04-18T12:51:05Z</time></trkpt><trkpt lat="45.48317826968728" lon="10.499466139887272"><ele>128.0</ele><time>2026-04-18T12:51:06Z</time></trkpt><trkpt lat="45.48326807216737" lon="10.499508276315563"><ele>128.0</ele><time>2026-04-18T12:51:07Z</time></trkpt><trkpt lat="45.483361917970036" lon="10.499536959558569"><ele>128.0</ele><time>2026-04-18T12:51:08Z</time></trkpt><trkpt lat="45.48345075934586" lon="10.499557185565928"><ele>128.0</ele><time>2026-04-18T12:51:09Z</time></trkpt><trkpt lat="45.483536073151626" lon="10.499575109374588"><ele>128.0</ele><time>2026-04-18T12:51:10Z</time></trkpt><trkpt lat="45.48362450333619" lon="10.49958415646574"><ele>128.0</ele><time>2026-04-18T12:51:11Z</time></trkpt><trkpt lat="45.48371362214347" lon="10.499549809092896"><ele>128.6</ele><time>2026-04-18T12:51:12Z</time></trkpt><trkpt lat="45.48381082875459" lon="10.499541366045326"><ele>129.20000000000002</ele><time>2026-04-18T12:51:13Z</time></trkpt><trkpt lat="45.483905942205766" lon="10.499565136605591"><ele>129.8</ele><time>2026-04-18T12:51:14Z</time></trkpt><trkpt lat="45.48398442333819" lon="10.499630200911906"><ele>130.4</ele><time>2026-04-18T12:51:15Z</time></trkpt><trkpt lat="45.48404676241711" lon="10.499724275138975"><ele>131.0</ele><time>2026-04-18T12:51:16Z</time></trkpt><trkpt lat="45.48407368848596" lon="10.499853139981797"><ele>127.8</ele><time>2026-04-18T12:51:17Z</time></trkpt><trkpt lat="45.484062726376635" lon="10.499984757604865"><ele>124.6</ele><time>2026-04-18T12:51:18Z</time></trkpt><trkpt lat="45.48404111133315" lon="10.500113831317405"><ele>121.4</ele><time>2026-04-18T12:51:19Z</time></trkpt><trkpt lat="45.484005053450375" lon="10.500242599017238"><ele>118.2</ele><time>2026-04-18T12:51:20Z</time></trkpt><trkpt lat="45.48398771712361" lon="10.500377730132286"><ele>115.0</ele><time>2026-04-18T12:51:21Z</time></trkpt><trkpt lat="45.48397122891196" lon="10.500517291006481"><ele>113.8</ele><time>2026-04-18T12:51:22Z</time></trkpt><trkpt lat="45.48395217949879" lon="10.50065288579177"><ele>112.6</ele><time>2026-04-18T12:51:23Z</time></trkpt><trkpt lat="45.48392919358349" lon="10.500787185965576"><ele>111.4</ele><time>2026-04-18T12:51:24Z</time></trkpt><trkpt lat="45.483904711706316" lon="10.500921730134976"><ele>110.2</ele><time>2026-04-18T12:51:25Z</time></trkpt><trkpt lat="45.483864342861985" lon="10.501048441349534"><ele>109.0</ele><time>2026-04-18T12:51:26Z</time></trkpt><trkpt lat="45.48384363990835" lon="10.50117350330516"><ele>109.16666666666667</ele><time>2026-04-18T12:51:27Z</time></trkpt><trkpt lat="45.48382906477051" lon="10.501268536591319"><ele>109.33333333333334</ele><time>2026-04-18T12:51:28Z</time></trkpt><trkpt lat="45.48380942093591" lon="10.501396619201731"><ele>109.5</ele><time>2026-04-18T12:51:30Z</time></trkpt><trkpt lat="45.48386293978774" lon="10.501444532243456"><ele>109.66666666666666</ele><time>2026-04-18T12:51:32Z</time></trkpt><trkpt lat="45.483929801821915" lon="10.50145779876363"><ele>109.83333333333333</ele><time>2026-04-18T12:51:33Z</time></trkpt><trkpt lat="45.484031415472415" lon="10.501481124632972"><ele>110.0</ele><time>2026-04-18T12:51:34Z</time></trkpt><trkpt lat="45.48414922709473" lon="10.501506811416661"><ele>110.0</ele><time>2026-04-18T12:51:35Z</time></trkpt><trkpt lat="45.48427533638376" lon="10.501505795440044"><ele>110.0</ele><time>2026-04-18T12:51:36Z</time></trkpt><trkpt lat="45.48440187420592" lon="10.501539601568314"><ele>110.0</ele><time>2026-04-18T12:51:37Z</time></trkpt><trkpt lat="45.4845287622119" lon="10.501600771895056"><ele>110.0</ele><time>2026-04-18T12:51:38Z</time></trkpt><trkpt lat="45.48464162371697" lon="10.501683604603326"><ele>110.0</ele><time>2026-04-18T12:51:39Z</time></trkpt><trkpt lat="45.48473389468061" lon="10.501786414889079"><ele>110.0</ele><time>2026-04-18T12:51:40Z</time></trkpt><trkpt lat="45.48482866834338" lon="10.501852752730992"><ele>110.0</ele><time>2026-04-18T12:51:41Z</time></trkpt><trkpt lat="45.48491505105934" lon="10.501915353824598"><ele>110.0</ele><time>2026-04-18T12:51:42Z</time></trkpt><trkpt lat="45.4849980494174" lon="10.50197742092121"><ele>110.0</ele><time>2026-04-18T12:51:43Z</time></trkpt><trkpt lat="45.48508803754387" lon="10.50202305628015"><ele>109.99999999999999</ele><time>2026-04-18T12:51:44Z</time></trkpt><trkpt lat="45.48517863692406" lon="10.50205178324724"><ele>110.0</ele><time>2026-04-18T12:51:45Z</time></trkpt><trkpt lat="45.485268260294994" lon="10.502072727305714"><ele>110.0</ele><time>2026-04-18T12:51:46Z</time></trkpt><trkpt lat="45.48535012777963" lon="10.502100105780862"><ele>110.0</ele><time>2026-04-18T12:51:47Z</time></trkpt><trkpt lat="45.48542320927786" lon="10.502139154162627"><ele>109.99999999999999</ele><time>2026-04-18T12:51:48Z</time></trkpt><trkpt lat="45.485485848703284" lon="10.502199540246616"><ele>110.0</ele><time>2026-04-18T12:51:49Z</time></trkpt><trkpt lat="45.485550665869546" lon="10.502265653724201"><ele>110.4</ele><time>2026-04-18T12:51:50Z</time></trkpt><trkpt lat="45.4855336196771" lon="10.502426857390788"><ele>110.8</ele><time>2026-04-18T12:51:52Z</time></trkpt><trkpt lat="45.48552427714002" lon="10.502555490618942"><ele>111.19999999999999</ele><time>2026-04-18T12:51:54Z</time></trkpt><trkpt lat="45.48548830095985" lon="10.502685348381872"><ele>111.6</ele><time>2026-04-18T12:51:56Z</time></trkpt><trkpt lat="45.4854870282655" lon="10.502841501905419"><ele>112.0</ele><time>2026-04-18T12:51:58Z</time></trkpt><trkpt lat="45.48546503698244" lon="10.503008595989169"><ele>112.19999999999999</ele><time>2026-04-18T12:52:00Z</time></trkpt><trkpt lat="45.48545000040146" lon="10.503104125516888"><ele>112.39999999999999</ele><time>2026-04-18T12:52:01Z</time></trkpt><trkpt lat="45.48543331121696" lon="10.503225162964695"><ele>112.60000000000001</ele><time>2026-04-18T12:52:02Z</time></trkpt><trkpt lat="45.485424076329934" lon="10.503363788720051"><ele>112.80000000000001</ele><time>2026-04-18T12:52:03Z</time></trkpt><trkpt lat="45.48541986788881" lon="10.503510541189193"><ele>113.0</ele><time>2026-04-18T12:52:04Z</time></trkpt><trkpt lat="45.4854107030462" lon="10.503659521962831"><ele>111.80000000000001</ele><time>2026-04-18T12:52:05Z</time></trkpt><trkpt lat="45.48540504467755" lon="10.503812046230212"><ele>110.60000000000001</ele><time>2026-04-18T12:52:06Z</time></trkpt><trkpt lat="45.485418446684236" lon="10.503973028181534"><ele>109.39999999999999</ele><time>2026-04-18T12:52:07Z</time></trkpt><trkpt lat="45.48544935788716" lon="10.50411852044282"><ele>108.19999999999999</ele><time>2026-04-18T12:52:08Z</time></trkpt><trkpt lat="45.485483936117696" lon="10.504261051849145"><ele>107.0</ele><time>2026-04-18T12:52:09Z</time></trkpt><trkpt lat="45.48551949550494" lon="10.504394289692506"><ele>106.6</ele><time>2026-04-18T12:52:10Z</time></trkpt><trkpt lat="45.48555437608105" lon="10.504524786717099"><ele>106.19999999999999</ele><time>2026-04-18T12:52:11Z</time></trkpt><trkpt lat="45.48558801187484" lon="10.504650626793017"><ele>105.8</ele><time>2026-04-18T12:52:12Z</time></trkpt><trkpt lat="45.485621197688076" lon="10.504774783228305"><ele>105.4</ele><time>2026-04-18T12:52:13Z</time></trkpt><trkpt lat="45.48565220976742" lon="10.50489080722566"><ele>105.0</ele><time>2026-04-18T12:52:14Z</time></trkpt><trkpt lat="45.48569417954749" lon="10.504983452835708"><ele>104.5</ele><time>2026-04-18T12:52:15Z</time></trkpt><trkpt lat="45.485714196844924" lon="10.505069061545361"><ele>104.0</ele><time>2026-04-18T12:52:16Z</time></trkpt><trkpt lat="45.48574706065418" lon="10.505185284759843"><ele>103.5</ele><time>2026-04-18T12:52:18Z</time></trkpt><trkpt lat="45.485772770170406" lon="10.505308506064193"><ele>103.0</ele><time>2026-04-18T12:52:48Z</time></trkpt><trkpt lat="45.48587127694902" lon="10.50541447374893"><ele>102.5</ele><time>2026-04-18T12:52:50Z</time></trkpt><trkpt lat="45.48592504387949" lon="10.505479667069341"><ele>102.0</ele><time>2026-04-18T12:52:51Z</time></trkpt><trkpt lat="45.48599714822557" lon="10.50551335236626"><ele>101.5</ele><time>2026-04-18T12:52:52Z</time></trkpt><trkpt lat="45.486068657314284" lon="10.505554009382694"><ele>101.0</ele><time>2026-04-18T12:52:53Z</time></trkpt><trkpt lat="45.486151074010465" lon="10.505578856999476"><ele>100.5</ele><time>2026-04-18T12:52:54Z</time></trkpt><trkpt lat="45.48622361819213" lon="10.505634920224017"><ele>100.0</ele><time>2026-04-18T12:52:55Z</time></trkpt><trkpt lat="45.48629346379138" lon="10.505686210405345"><ele>99.5</ele><time>2026-04-18T12:52:56Z</time></trkpt><trkpt lat="45.48636108611024" lon="10.505733245386411"><ele>99.0</ele><time>2026-04-18T12:52:57Z</time></trkpt><trkpt lat="45.48643276521362" lon="10.505770462602175"><ele>99.0</ele><time>2026-04-18T12:52:58Z</time></trkpt><trkpt lat="45.48650909937985" lon="10.50579023943379"><ele>99.0</ele><time>2026-04-18T12:52:59Z</time></trkpt><trkpt lat="45.48658214809462" lon="10.505820439689163"><ele>99.0</ele><time>2026-04-18T12:53:00Z</time></trkpt><trkpt lat="45.48665488856729" lon="10.505842387909457"><ele>99.0</ele><time>2026-04-18T12:53:01Z</time></trkpt><trkpt lat="45.48672594285267" lon="10.505886722102826"><ele>99.0</ele><time>2026-04-18T12:53:02Z</time></trkpt><trkpt lat="45.48678865090918" lon="10.50595301552201"><ele>99.0</ele><time>2026-04-18T12:53:03Z</time></trkpt><trkpt lat="45.48681882991747" lon="10.506052096367673"><ele>99.0</ele><time>2026-04-18T12:53:04Z</time></trkpt><trkpt lat="45.48681876867711" lon="10.506170510326303"><ele>99.0</ele><time>2026-04-18T12:53:05Z</time></trkpt><trkpt lat="45.48682032717913" lon="10.50629301457991"><ele>99.0</ele><time>2026-04-18T12:53:06Z</time></trkpt><trkpt lat="45.48680807132997" lon="10.506421855864438"><ele>99.0</ele><time>2026-04-18T12:53:07Z</time></trkpt><trkpt lat="45.48681246218796" lon="10.506555560025616"><ele>99.0</ele><time>2026-04-18T12:53:08Z</time></trkpt><trkpt lat="45.486817630527526" lon="10.506687335390206"><ele>99.0</ele><time>2026-04-18T12:53:09Z</time></trkpt><trkpt lat="45.48682277083026" lon="10.506818395796916"><ele>98.33333333333333</ele><time>2026-04-18T12:53:10Z</time></trkpt><trkpt lat="45.48682978622162" lon="10.5069482667449"><ele>97.66666666666667</ele><time>2026-04-18T12:53:11Z</time></trkpt><trkpt lat="45.486835195623634" lon="10.507078272616816"><ele>97.0</ele><time>2026-04-18T12:53:12Z</time></trkpt><trkpt lat="45.48682428513426" lon="10.507196973374358"><ele>96.33333333333334</ele><time>2026-04-18T12:53:13Z</time></trkpt><trkpt lat="45.48679631397463" lon="10.507290976557627"><ele>95.66666666666667</ele><time>2026-04-18T12:53:14Z</time></trkpt><trkpt lat="45.48676280980269" lon="10.507399384592867"><ele>95.0</ele><time>2026-04-18T12:53:15Z</time></trkpt><trkpt lat="45.48672263386872" lon="10.507513041118317"><ele>95.0</ele><time>2026-04-18T12:53:16Z</time></trkpt><trkpt lat="45.48668074945681" lon="10.507628440660918"><ele>95.0</ele><time>2026-04-18T12:53:17Z</time></trkpt><trkpt lat="45.48663513675615" lon="10.507745077544657"><ele>95.0</ele><time>2026-04-18T12:53:18Z</time></trkpt><trkpt lat="45.486585847383765" lon="10.507875087091131"><ele>95.0</ele><time>2026-04-18T12:53:19Z</time></trkpt><trkpt lat="45.486534394420346" lon="10.508013021380359"><ele>95.0</ele><time>2026-04-18T12:53:20Z</time></trkpt><trkpt lat="45.48648014665954" lon="10.508158927861693"><ele>95.0</ele><time>2026-04-18T12:53:21Z</time></trkpt><trkpt lat="45.486426690602556" lon="10.508306149024753"><ele>95.0</ele><time>2026-04-18T12:53:22Z</time></trkpt><trkpt lat="45.48637646547562" lon="10.508452715714146"><ele>95.0</ele><time>2026-04-18T12:53:23Z</time></trkpt><trkpt lat="45.48632821963114" lon="10.508600024178309"><ele>95.0</ele><time>2026-04-18T12:53:24Z</time></trkpt><trkpt lat="45.486284934856855" lon="10.50874832593504"><ele>94.4</ele><time>2026-04-18T12:53:25Z</time></trkpt><trkpt lat="45.486245251138" lon="10.508904070818142"><ele>93.8</ele><time>2026-04-18T12:53:26Z</time></trkpt><trkpt lat="45.486211832231035" lon="10.509057287777576"><ele>93.19999999999999</ele><time>2026-04-18T12:53:27Z</time></trkpt><trkpt lat="45.48617560726942" lon="10.50920028467214"><ele>92.6</ele><time>2026-04-18T12:53:28Z</time></trkpt><trkpt lat="45.48613664932946" lon="10.509346061028616"><ele>92.0</ele><time>2026-04-18T12:53:29Z</time></trkpt><trkpt lat="45.48609555970826" lon="10.509498119690216"><ele>91.75</ele><time>2026-04-18T12:53:30Z</time></trkpt><trkpt lat="45.48607114419477" lon="10.509664688374233"><ele>91.5</ele><time>2026-04-18T12:53:31Z</time></trkpt><trkpt lat="45.486025423701534" lon="10.509823821671068"><ele>91.25</ele><time>2026-04-18T12:53:32Z</time></trkpt><trkpt lat="45.485979689718036" lon="10.509985076263206"><ele>91.0</ele><time>2026-04-18T12:53:33Z</time></trkpt><trkpt lat="45.48593656169264" lon="10.510156931714262"><ele>91.0</ele><time>2026-04-18T12:53:34Z</time></trkpt><trkpt lat="45.48585673041617" lon="10.510299887678924"><ele>91.0</ele><time>2026-04-18T12:53:35Z</time></trkpt><trkpt lat="45.48579929214432" lon="10.510447287636152"><ele>91.0</ele><time>2026-04-18T12:53:36Z</time></trkpt><trkpt lat="45.48574242785166" lon="10.510589228219427"><ele>91.0</ele><time>2026-04-18T12:53:37Z</time></trkpt><trkpt lat="45.48568531951974" lon="10.51072374441515"><ele>90.6</ele><time>2026-04-18T12:53:38Z</time></trkpt><trkpt lat="45.485630734928506" lon="10.510859685370674"><ele>90.19999999999999</ele><time>2026-04-18T12:53:39Z</time></trkpt><trkpt lat="45.485570062515656" lon="10.510992294693322"><ele>89.80000000000001</ele><time>2026-04-18T12:53:40Z</time></trkpt><trkpt lat="45.48549519028196" lon="10.511110218883106"><ele>89.4</ele><time>2026-04-18T12:53:41Z</time></trkpt><trkpt lat="45.48541097656444" lon="10.511219164809024"><ele>89.0</ele><time>2026-04-18T12:53:42Z</time></trkpt><trkpt lat="45.48531803271914" lon="10.511323690268295"><ele>88.5</ele><time>2026-04-18T12:53:43Z</time></trkpt><trkpt lat="45.485221985118834" lon="10.51142837246414"><ele>88.0</ele><time>2026-04-18T12:53:44Z</time></trkpt><trkpt lat="45.485128349758064" lon="10.51153042553647"><ele>87.5</ele><time>2026-04-18T12:53:45Z</time></trkpt><trkpt lat="45.48503955624686" lon="10.51163202400771"><ele>87.0</ele><time>2026-04-18T12:53:46Z</time></trkpt><trkpt lat="45.484965433601694" lon="10.511744206055523"><ele>87.0</ele><time>2026-04-18T12:53:47Z</time></trkpt><trkpt lat="45.48490639934775" lon="10.511864109733967"><ele>87.0</ele><time>2026-04-18T12:53:48Z</time></trkpt><trkpt lat="45.48486316715832" lon="10.511998184442296"><ele>87.0</ele><time>2026-04-18T12:53:49Z</time></trkpt><trkpt lat="45.48484292807777" lon="10.512140205593214"><ele>87.0</ele><time>2026-04-18T12:53:50Z</time></trkpt><trkpt lat="45.48481808729779" lon="10.512277758294871"><ele>87.0</ele><time>2026-04-18T12:53:51Z</time></trkpt><trkpt lat="45.48480177535278" lon="10.512413813541599"><ele>87.0</ele><time>2026-04-18T12:53:52Z</time></trkpt><trkpt lat="45.48480636725299" lon="10.512539533565578"><ele>87.0</ele><time>2026-04-18T12:53:53Z</time></trkpt><trkpt lat="45.48480936804771" lon="10.512657886184446"><ele>87.0</ele><time>2026-04-18T12:53:54Z</time></trkpt><trkpt lat="45.48481029196664" lon="10.512767695625405"><ele>87.0</ele><time>2026-04-18T12:53:55Z</time></trkpt><trkpt lat="45.48481232196707" lon="10.512873643233117"><ele>87.0</ele><time>2026-04-18T12:53:56Z</time></trkpt><trkpt lat="45.484816352172956" lon="10.5129790957338"><ele>87.0</ele><time>2026-04-18T12:53:57Z</time></trkpt><trkpt lat="45.484814747963235" lon="10.513095952181011"><ele>87.0</ele><time>2026-04-18T12:53:58Z</time></trkpt><trkpt lat="45.48481057291169" lon="10.51322605767517"><ele>87.0</ele><time>2026-04-18T12:53:59Z</time></trkpt><trkpt lat="45.48480125886455" lon="10.513362115235948"><ele>87.0</ele><time>2026-04-18T12:54:00Z</time></trkpt><trkpt lat="45.484798419405735" lon="10.51350618072645"><ele>87.0</ele><time>2026-04-18T12:54:01Z</time></trkpt><trkpt lat="45.48480148006474" lon="10.513654184233603"><ele>87.0</ele><time>2026-04-18T12:54:02Z</time></trkpt><trkpt lat="45.48479611493285" lon="10.513804287735901"><ele>86.39999999999999</ele><time>2026-04-18T12:54:03Z</time></trkpt><trkpt lat="45.484794630396145" lon="10.513956530348077"><ele>85.8</ele><time>2026-04-18T12:54:04Z</time></trkpt><trkpt lat="45.48477805322393" lon="10.514111154967038"><ele>85.2</ele><time>2026-04-18T12:54:05Z</time></trkpt><trkpt lat="45.48477340547944" lon="10.514271665281065"><ele>84.6</ele><time>2026-04-18T12:54:06Z</time></trkpt><trkpt lat="45.4847709575937" lon="10.51443415392736"><ele>84.0</ele><time>2026-04-18T12:54:07Z</time></trkpt><trkpt lat="45.48477214223496" lon="10.51459216694259"><ele>83.6</ele><time>2026-04-18T12:54:08Z</time></trkpt><trkpt lat="45.48479546078752" lon="10.514742197344882"><ele>83.2</ele><time>2026-04-18T12:54:09Z</time></trkpt><trkpt lat="45.4848111190853" lon="10.514886002754439"><ele>82.8</ele><time>2026-04-18T12:54:10Z</time></trkpt><trkpt lat="45.484844745979" lon="10.515021235948833"><ele>82.39999999999999</ele><time>2026-04-18T12:54:11Z</time></trkpt><trkpt lat="45.484876364884606" lon="10.515161345962563"><ele>82.0</ele><time>2026-04-18T12:54:12Z</time></trkpt><trkpt lat="45.4849037016902" lon="10.515301718441698"><ele>81.8</ele><time>2026-04-18T12:54:13Z</time></trkpt><trkpt lat="45.48489235789927" lon="10.515443858860465"><ele>81.6</ele><time>2026-04-18T12:54:14Z</time></trkpt><trkpt lat="45.48489923242766" lon="10.515586866900579"><ele>81.39999999999999</ele><time>2026-04-18T12:54:15Z</time></trkpt><trkpt lat="45.48488311783681" lon="10.51572100228238"><ele>81.19999999999999</ele><time>2026-04-18T12:54:16Z</time></trkpt><trkpt lat="45.48484090765202" lon="10.51584479845745"><ele>81.0</ele><time>2026-04-18T12:54:17Z</time></trkpt><trkpt lat="45.48479797351512" lon="10.515960296380653"><ele>81.0</ele><time>2026-04-18T12:54:18Z</time></trkpt><trkpt lat="45.484739878950904" lon="10.516068937525276"><ele>81.0</ele><time>2026-04-18T12:54:19Z</time></trkpt><trkpt lat="45.48469114560882" lon="10.516186283666034"><ele>81.0</ele><time>2026-04-18T12:54:20Z</time></trkpt><trkpt lat="45.48463284086515" lon="10.516287757914258"><ele>81.0</ele><time>2026-04-18T12:54:21Z</time></trkpt><trkpt lat="45.48458690577846" lon="10.516411370058156"><ele>81.0</ele><time>2026-04-18T12:54:22Z</time></trkpt><trkpt lat="45.484560760657985" lon="10.51655684840836"><ele>81.0</ele><time>2026-04-18T12:54:23Z</time></trkpt><trkpt lat="45.48456235519191" lon="10.516714372878507"><ele>81.0</ele><time>2026-04-18T12:54:24Z</time></trkpt><trkpt lat="45.48457718308937" lon="10.51687038944251"><ele>81.0</ele><time>2026-04-18T12:54:25Z</time></trkpt><trkpt lat="45.48458407086287" lon="10.517024464592238"><ele>81.0</ele><time>2026-04-18T12:54:26Z</time></trkpt><trkpt lat="45.48458448419136" lon="10.51717814320731"><ele>81.0</ele><time>2026-04-18T12:54:27Z</time></trkpt><trkpt lat="45.48457046206724" lon="10.517320758544145"><ele>82.19999999999999</ele><time>2026-04-18T12:54:28Z</time></trkpt><trkpt lat="45.48453317020896" lon="10.5174532780272"><ele>83.39999999999999</ele><time>2026-04-18T12:54:29Z</time></trkpt><trkpt lat="45.48452317875855" lon="10.5175991016421"><ele>84.6</ele><time>2026-04-18T12:54:30Z</time></trkpt><trkpt lat="45.48448412467679" lon="10.517735174658455"><ele>85.8</ele><time>2026-04-18T12:54:31Z</time></trkpt><trkpt lat="45.48446551805518" lon="10.517869202054767"><ele>87.0</ele><time>2026-04-18T12:54:32Z</time></trkpt><trkpt lat="45.48447093392318" lon="10.517976679964512"><ele>88.39999999999999</ele><time>2026-04-18T12:54:33Z</time></trkpt><trkpt lat="45.48445113750828" lon="10.518159326939383"><ele>89.8</ele><time>2026-04-18T12:54:35Z</time></trkpt><trkpt lat="45.484366279407226" lon="10.518171405623628"><ele>91.2</ele><time>2026-04-18T12:54:37Z</time></trkpt><trkpt lat="45.484250233320395" lon="10.518192189235544"><ele>92.6</ele><time>2026-04-18T12:54:39Z</time></trkpt><trkpt lat="45.484181619781246" lon="10.518214153038917"><ele>94.0</ele><time>2026-04-18T12:54:40Z</time></trkpt><trkpt lat="45.484102189075784" lon="10.5182430644958"><ele>94.0</ele><time>2026-04-18T12:54:41Z</time></trkpt><trkpt lat="45.484008436291866" lon="10.518282098802112"><ele>94.0</ele><time>2026-04-18T12:54:42Z</time></trkpt><trkpt lat="45.48391504950526" lon="10.51835421683185"><ele>94.0</ele><time>2026-04-18T12:54:43Z</time></trkpt><trkpt lat="45.48382323528687" lon="10.518425104048179"><ele>94.0</ele><time>2026-04-18T12:54:44Z</time></trkpt><trkpt lat="45.48375755795433" lon="10.518522246816566"><ele>94.0</ele><time>2026-04-18T12:54:45Z</time></trkpt><trkpt lat="45.48372811533924" lon="10.51864041276422"><ele>95.2</ele><time>2026-04-18T12:54:46Z</time></trkpt><trkpt lat="45.483706960705824" lon="10.51877135100411"><ele>96.4</ele><time>2026-04-18T12:54:47Z</time></trkpt><trkpt lat="45.48366523440353" lon="10.518890632084485"><ele>97.6</ele><time>2026-04-18T12:54:48Z</time></trkpt><trkpt lat="45.48362302654468" lon="10.518987765508413"><ele>98.8</ele><time>2026-04-18T12:54:49Z</time></trkpt><trkpt lat="45.483553926576676" lon="10.519116146397424"><ele>100.0</ele><time>2026-04-18T12:54:51Z</time></trkpt><trkpt lat="45.48351576143451" lon="10.519249564381301"><ele>100.0</ele><time>2026-04-18T12:54:53Z</time></trkpt><trkpt lat="45.483427954093976" lon="10.519421232628678"><ele>100.0</ele><time>2026-04-18T12:54:55Z</time></trkpt><trkpt lat="45.48337690242148" lon="10.519555995554176"><ele>100.0</ele><time>2026-04-18T12:54:56Z</time></trkpt><trkpt lat="45.48331406714094" lon="10.51968897848472"><ele>100.0</ele><time>2026-04-18T12:54:57Z</time></trkpt><trkpt lat="45.48324181943174" lon="10.519826679970606"><ele>101.5</ele><time>2026-04-18T12:54:58Z</time></trkpt><trkpt lat="45.483175272887834" lon="10.519961971479862"><ele>103.0</ele><time>2026-04-18T12:54:59Z</time></trkpt><trkpt lat="45.4831087914008" lon="10.52009717529851"><ele>104.5</ele><time>2026-04-18T12:55:00Z</time></trkpt><trkpt lat="45.483050834862404" lon="10.520232275513553"><ele>106.0</ele><time>2026-04-18T12:55:01Z</time></trkpt><trkpt lat="45.4829809327457" lon="10.520384713472083"><ele>106.5</ele><time>2026-04-18T12:55:02Z</time></trkpt><trkpt lat="45.48291055204721" lon="10.520533473792357"><ele>107.0</ele><time>2026-04-18T12:55:03Z</time></trkpt><trkpt lat="45.48283982775987" lon="10.520685806836536"><ele>107.5</ele><time>2026-04-18T12:55:04Z</time></trkpt><trkpt lat="45.48276349032292" lon="10.520833304592422"><ele>108.0</ele><time>2026-04-18T12:55:05Z</time></trkpt><trkpt lat="45.482698499985375" lon="10.520994862009577"><ele>108.0</ele><time>2026-04-18T12:55:06Z</time></trkpt><trkpt lat="45.482626586487505" lon="10.521174099017855"><ele>108.0</ele><time>2026-04-18T12:55:07Z</time></trkpt><trkpt lat="45.48256127262003" lon="10.521332427552172"><ele>108.0</ele><time>2026-04-18T12:55:08Z</time></trkpt><trkpt lat="45.482497071203916" lon="10.52148246124806"><ele>108.0</ele><time>2026-04-18T12:55:09Z</time></trkpt><trkpt lat="45.48243681953787" lon="10.521629308788372"><ele>107.75</ele><time>2026-04-18T12:55:10Z</time></trkpt><trkpt lat="45.48237134284342" lon="10.521780456862906"><ele>107.5</ele><time>2026-04-18T12:55:11Z</time></trkpt><trkpt lat="45.482315098837006" lon="10.52192788831657"><ele>107.25</ele><time>2026-04-18T12:55:12Z</time></trkpt><trkpt lat="45.48225383826707" lon="10.522076970996702"><ele>107.0</ele><time>2026-04-18T12:55:13Z</time></trkpt><trkpt lat="45.48218525706279" lon="10.522221599484846"><ele>106.25</ele><time>2026-04-18T12:55:14Z</time></trkpt><trkpt lat="45.482116389969356" lon="10.52236937885588"><ele>105.5</ele><time>2026-04-18T12:55:15Z</time></trkpt><trkpt lat="45.482044693285076" lon="10.522518332289703"><ele>104.75</ele><time>2026-04-18T12:55:16Z</time></trkpt><trkpt lat="45.48197096532616" lon="10.522659638582356"><ele>104.0</ele><time>2026-04-18T12:55:17Z</time></trkpt><trkpt lat="45.48190077567562" lon="10.5227996840097"><ele>105.5</ele><time>2026-04-18T12:55:18Z</time></trkpt><trkpt lat="45.481827570022816" lon="10.522931832214061"><ele>107.0</ele><time>2026-04-18T12:55:19Z</time></trkpt><trkpt lat="45.48174951814509" lon="10.523059428432388"><ele>108.5</ele><time>2026-04-18T12:55:20Z</time></trkpt><trkpt lat="45.48166617047148" lon="10.52318774621638"><ele>110.0</ele><time>2026-04-18T12:55:21Z</time></trkpt><trkpt lat="45.48158164144543" lon="10.5233214985426"><ele>110.0</ele><time>2026-04-18T12:55:22Z</time></trkpt><trkpt lat="45.48149931945004" lon="10.523455969216288"><ele>110.0</ele><time>2026-04-18T12:55:23Z</time></trkpt><trkpt lat="45.48141430553962" lon="10.523590159522863"><ele>110.0</ele><time>2026-04-18T12:55:24Z</time></trkpt><trkpt lat="45.48133110597172" lon="10.52372190812144"><ele>110.0</ele><time>2026-04-18T12:55:25Z</time></trkpt><trkpt lat="45.4812512631607" lon="10.523843599640568"><ele>109.75</ele><time>2026-04-18T12:55:26Z</time></trkpt><trkpt lat="45.48117569210602" lon="10.523959199963839"><ele>109.5</ele><time>2026-04-18T12:55:27Z</time></trkpt><trkpt lat="45.48109743730263" lon="10.52407432009571"><ele>109.25</ele><time>2026-04-18T12:55:28Z</time></trkpt><trkpt lat="45.48101881631088" lon="10.524202056044288"><ele>109.0</ele><time>2026-04-18T12:55:29Z</time></trkpt><trkpt lat="45.48093648055101" lon="10.524333283490991"><ele>109.0</ele><time>2026-04-18T12:55:30Z</time></trkpt><trkpt lat="45.48086451162245" lon="10.524479981549176"><ele>109.0</ele><time>2026-04-18T12:55:31Z</time></trkpt><trkpt lat="45.480792833226445" lon="10.524624911141958"><ele>109.0</ele><time>2026-04-18T12:55:32Z</time></trkpt><trkpt lat="45.48072769533037" lon="10.524765061495666"><ele>109.0</ele><time>2026-04-18T12:55:33Z</time></trkpt><trkpt lat="45.48065069724867" lon="10.524875411599837"><ele>108.83333333333334</ele><time>2026-04-18T12:55:34Z</time></trkpt><trkpt lat="45.48058835310085" lon="10.524972490560687"><ele>108.66666666666667</ele><time>2026-04-18T12:55:35Z</time></trkpt><trkpt lat="45.48053732209119" lon="10.525049948408833"><ele>108.5</ele><time>2026-04-18T12:55:36Z</time></trkpt><trkpt lat="45.480498202229285" lon="10.525124789023367"><ele>108.33333333333334</ele><time>2026-04-18T12:55:37Z</time></trkpt><trkpt lat="45.48049793600521" lon="10.525280199032872"><ele>108.16666666666667</ele><time>2026-04-18T12:55:39Z</time></trkpt><trkpt lat="45.48053930883188" lon="10.525352417503704"><ele>108.0</ele><time>2026-04-18T12:55:40Z</time></trkpt><trkpt lat="45.48057458482986" lon="10.525435526937658"><ele>107.80000000000001</ele><time>2026-04-18T12:55:41Z</time></trkpt><trkpt lat="45.480669758458355" lon="10.525533543883526"><ele>107.60000000000001</ele><time>2026-04-18T12:55:42Z</time></trkpt><trkpt lat="45.480643420243425" lon="10.525649764333348"><ele>107.39999999999999</ele><time>2026-04-18T12:55:43Z</time></trkpt><trkpt lat="45.48059242980408" lon="10.52574307881095"><ele>107.19999999999999</ele><time>2026-04-18T12:55:44Z</time></trkpt><trkpt lat="45.48053872828821" lon="10.525835944347797"><ele>107.0</ele><time>2026-04-18T12:55:45Z</time></trkpt><trkpt lat="45.480493392712326" lon="10.525930290590123"><ele>107.0</ele><time>2026-04-18T12:55:46Z</time></trkpt><trkpt lat="45.48046298933217" lon="10.526012979204758"><ele>106.99999999999999</ele><time>2026-04-18T12:55:47Z</time></trkpt><trkpt lat="45.48042471235902" lon="10.526165644736267"><ele>106.99999999999999</ele><time>2026-04-18T12:55:49Z</time></trkpt><trkpt lat="45.48034070608034" lon="10.526320382019565"><ele>107.0</ele><time>2026-04-18T12:55:51Z</time></trkpt><trkpt lat="45.48031123629727" lon="10.526182937855674"><ele>107.0</ele><time>2026-04-18T12:55:54Z</time></trkpt><trkpt lat="45.48031116080482" lon="10.52600238199689"><ele>106.42857142857143</ele><time>2026-04-18T12:55:56Z</time></trkpt><trkpt lat="45.48035375112294" lon="10.525907795732772"><ele>105.85714285714286</ele><time>2026-04-18T12:55:58Z</time></trkpt><trkpt lat="45.48035032754165" lon="10.525815191232102"><ele>105.28571428571428</ele><time>2026-04-18T12:56:01Z</time></trkpt><trkpt lat="45.48030019751764" lon="10.52574707238757"><ele>104.71428571428572</ele><time>2026-04-18T12:56:04Z</time></trkpt><trkpt lat="45.48021117714206" lon="10.525757493616974"><ele>104.14285714285714</ele><time>2026-04-18T12:56:12Z</time></trkpt><trkpt lat="45.480201338931515" lon="10.525860507057224"><ele>103.57142857142857</ele><time>2026-04-18T12:56:17Z</time></trkpt><trkpt lat="45.48021625087644" lon="10.525960040811212"><ele>103.0</ele><time>2026-04-18T12:56:29.001Z</time></trkpt><trkpt lat="45.48031219570112" lon="10.525988371005496"><ele>103.00000000000001</ele><time>2026-04-18T12:57:02.999Z</time></trkpt><trkpt lat="45.480258086810714" lon="10.525903311857176"><ele>103.0</ele><time>2026-04-18T12:57:03.999Z</time></trkpt><trkpt lat="45.48023156155641" lon="10.525810711021556"><ele>103.0</ele><time>2026-04-18T12:57:18.999Z</time></trkpt><trkpt lat="45.480298511080534" lon="10.525796440507307"><ele>103.0</ele><time>2026-04-18T12:57:22.999Z</time></trkpt><trkpt lat="45.48023862811409" lon="10.525842471101235"><ele>103.00000000000001</ele><time>2026-04-18T13:01:04Z</time></trkpt><trkpt lat="45.48022504788937" lon="10.525753858691761"><ele>103.0</ele><time>2026-04-18T13:01:10Z</time></trkpt><trkpt lat="45.48027944687586" lon="10.52561494533026"><ele>103.0</ele><time>2026-04-18T13:01:12Z</time></trkpt><trkpt lat="45.48032046673527" lon="10.525524261381342"><ele>103.0</ele><time>2026-04-18T13:01:13Z</time></trkpt><trkpt lat="45.48037331793334" lon="10.525450223703091"><ele>103.0</ele><time>2026-04-18T13:01:14Z</time></trkpt><trkpt lat="45.480431627467844" lon="10.525392811186556"><ele>103.0</ele><time>2026-04-18T13:01:15Z</time></trkpt><trkpt lat="45.480535551698964" lon="10.525338749772164"><ele>103.0</ele><time>2026-04-18T13:01:17Z</time></trkpt><trkpt lat="45.48065530877504" lon="10.525364360052459"><ele>103.83333333333334</ele><time>2026-04-18T13:01:19Z</time></trkpt><trkpt lat="45.4807358643902" lon="10.525358428709447"><ele>104.66666666666667</ele><time>2026-04-18T13:01:20Z</time></trkpt><trkpt lat="45.48081788509515" lon="10.525314177272431"><ele>105.5</ele><time>2026-04-18T13:01:21Z</time></trkpt><trkpt lat="45.480870903844384" lon="10.525241397528557"><ele>106.33333333333334</ele><time>2026-04-18T13:01:22Z</time></trkpt><trkpt lat="45.48090947563446" lon="10.52514608734232"><ele>107.16666666666667</ele><time>2026-04-18T13:01:23Z</time></trkpt><trkpt lat="45.480939376212" lon="10.525061276403468"><ele>108.0</ele><time>2026-04-18T13:01:24Z</time></trkpt><trkpt lat="45.480869086043604" lon="10.52491730416556"><ele>108.0</ele><time>2026-04-18T13:01:26Z</time></trkpt><trkpt lat="45.480785724277204" lon="10.524903494666372"><ele>108.00000000000001</ele><time>2026-04-18T13:01:27Z</time></trkpt><trkpt lat="45.48068099923646" lon="10.52492153341828"><ele>108.00000000000001</ele><time>2026-04-18T13:01:28Z</time></trkpt><trkpt lat="45.48058285857568" lon="10.524998092437578"><ele>108.0</ele><time>2026-04-18T13:01:29Z</time></trkpt><trkpt lat="45.48049470301065" lon="10.525104504434129"><ele>108.0</ele><time>2026-04-18T13:01:30Z</time></trkpt><trkpt lat="45.48041553058855" lon="10.52521924386229"><ele>107.25</ele><time>2026-04-18T13:01:31Z</time></trkpt><trkpt lat="45.48031975143406" lon="10.525323174985775"><ele>106.5</ele><time>2026-04-18T13:01:32Z</time></trkpt><trkpt lat="45.480219474658654" lon="10.525417493301429"><ele>105.75</ele><time>2026-04-18T13:01:33Z</time></trkpt><trkpt lat="45.48012022101743" lon="10.525509972854513"><ele>105.0</ele><time>2026-04-18T13:01:34Z</time></trkpt><trkpt lat="45.4800182944264" lon="10.52560846262686"><ele>104.5</ele><time>2026-04-18T13:01:35Z</time></trkpt><trkpt lat="45.4799074851489" lon="10.525709713997932"><ele>104.0</ele><time>2026-04-18T13:01:36Z</time></trkpt><trkpt lat="45.47978100722408" lon="10.525817581740718"><ele>103.5</ele><time>2026-04-18T13:01:37Z</time></trkpt><trkpt lat="45.47964904605781" lon="10.525929199228504"><ele>103.0</ele><time>2026-04-18T13:01:38Z</time></trkpt><trkpt lat="45.4795013549879" lon="10.526002105820346"><ele>102.75</ele><time>2026-04-18T13:01:39Z</time></trkpt><trkpt lat="45.47936015986957" lon="10.526093110354973"><ele>102.5</ele><time>2026-04-18T13:01:40Z</time></trkpt><trkpt lat="45.47922779753574" lon="10.526178421929847"><ele>102.25</ele><time>2026-04-18T13:01:41Z</time></trkpt><trkpt lat="45.47910135585681" lon="10.526260250620231"><ele>102.0</ele><time>2026-04-18T13:01:42Z</time></trkpt><trkpt lat="45.478978107595616" lon="10.526360289090297"><ele>102.0</ele><time>2026-04-18T13:01:43Z</time></trkpt><trkpt lat="45.47884049131788" lon="10.526449653492351"><ele>102.0</ele><time>2026-04-18T13:01:44Z</time></trkpt><trkpt lat="45.4787113277455" lon="10.526535349462884"><ele>102.0</ele><time>2026-04-18T13:01:45Z</time></trkpt><trkpt lat="45.478578765510356" lon="10.526594487594638"><ele>102.0</ele><time>2026-04-18T13:01:46Z</time></trkpt><trkpt lat="45.47845618732361" lon="10.526672371149086"><ele>103.0</ele><time>2026-04-18T13:01:47Z</time></trkpt><trkpt lat="45.4783341208964" lon="10.526749602898661"><ele>104.0</ele><time>2026-04-18T13:01:48Z</time></trkpt><trkpt lat="45.47821922502483" lon="10.526816873051139"><ele>105.0</ele><time>2026-04-18T13:01:49Z</time></trkpt><trkpt lat="45.47810939775403" lon="10.526876076804891"><ele>106.0</ele><time>2026-04-18T13:01:50Z</time></trkpt><trkpt lat="45.47799137886116" lon="10.526962280175061"><ele>106.0</ele><time>2026-04-18T13:01:51Z</time></trkpt><trkpt lat="45.47788139387914" lon="10.527004454624974"><ele>106.0</ele><time>2026-04-18T13:01:52Z</time></trkpt><trkpt lat="45.47776826049357" lon="10.52704049596437"><ele>106.0</ele><time>2026-04-18T13:01:53Z</time></trkpt><trkpt lat="45.477659775436344" lon="10.527095110617532"><ele>106.0</ele><time>2026-04-18T13:01:54Z</time></trkpt><trkpt lat="45.47754937313496" lon="10.527134335405208"><ele>105.6</ele><time>2026-04-18T13:01:55Z</time></trkpt><trkpt lat="45.4774291087139" lon="10.527140691307974"><ele>105.19999999999999</ele><time>2026-04-18T13:01:56Z</time></trkpt><trkpt lat="45.477316477570824" lon="10.527144200094588"><ele>104.80000000000001</ele><time>2026-04-18T13:01:57Z</time></trkpt><trkpt lat="45.477208478205355" lon="10.527138145279974"><ele>104.4</ele><time>2026-04-18T13:01:58Z</time></trkpt><trkpt lat="45.47710310249845" lon="10.527132935906593"><ele>104.0</ele><time>2026-04-18T13:01:59Z</time></trkpt><trkpt lat="45.476976500445225" lon="10.527111229456244"><ele>104.0</ele><time>2026-04-18T13:02:00Z</time></trkpt><trkpt lat="45.47686257110893" lon="10.52710659504584"><ele>104.0</ele><time>2026-04-18T13:02:01Z</time></trkpt><trkpt lat="45.476742796424396" lon="10.527069822035033"><ele>104.0</ele><time>2026-04-18T13:02:02Z</time></trkpt><trkpt lat="45.476626321977626" lon="10.527049313206856"><ele>104.0</ele><time>2026-04-18T13:02:03Z</time></trkpt><trkpt lat="45.476518800811434" lon="10.527029508638263"><ele>104.0</ele><time>2026-04-18T13:02:04Z</time></trkpt><trkpt lat="45.47640410102662" lon="10.527008432534808"><ele>104.0</ele><time>2026-04-18T13:02:05Z</time></trkpt><trkpt lat="45.47629426391212" lon="10.52698824996502"><ele>104.0</ele><time>2026-04-18T13:02:06Z</time></trkpt><trkpt lat="45.47619126788007" lon="10.52696932443299"><ele>104.0</ele><time>2026-04-18T13:02:07Z</time></trkpt><trkpt lat="45.47610031032837" lon="10.52695243335693"><ele>104.0</ele><time>2026-04-18T13:02:08Z</time></trkpt><trkpt lat="45.47601151662178" lon="10.526935751586118"><ele>103.99999999999999</ele><time>2026-04-18T13:02:09Z</time></trkpt><trkpt lat="45.475927386974675" lon="10.526941445836435"><ele>104.0</ele><time>2026-04-18T13:02:10Z</time></trkpt><trkpt lat="45.47584556541511" lon="10.526906832819199"><ele>104.0</ele><time>2026-04-18T13:02:11Z</time></trkpt><trkpt lat="45.475753987339274" lon="10.52689105089236"><ele>104.0</ele><time>2026-04-18T13:02:12Z</time></trkpt><trkpt lat="45.4756836733566" lon="10.526878926150841"><ele>103.99999999999999</ele><time>2026-04-18T13:02:13Z</time></trkpt><trkpt lat="45.47560847560507" lon="10.52688881682238"><ele>104.0</ele><time>2026-04-18T13:02:14Z</time></trkpt><trkpt lat="45.47554401208875" lon="10.52686781090433"><ele>103.99999999999999</ele><time>2026-04-18T13:02:15Z</time></trkpt><trkpt lat="45.47547816746963" lon="10.526844141745459"><ele>104.0</ele><time>2026-04-18T13:02:16Z</time></trkpt><trkpt lat="45.475396593721314" lon="10.526830906397702"><ele>104.0</ele><time>2026-04-18T13:02:18Z</time></trkpt><trkpt lat="45.475303794304274" lon="10.52681899595054"><ele>104.0</ele><time>2026-04-18T13:02:20Z</time></trkpt><trkpt lat="45.47524740991101" lon="10.526758181429235"><ele>103.99999999999999</ele><time>2026-04-18T13:02:21Z</time></trkpt><trkpt lat="45.47517089790184" lon="10.526735446557142"><ele>104.0</ele><time>2026-04-18T13:02:23Z</time></trkpt><trkpt lat="45.47507265129412" lon="10.526689206296677"><ele>103.6</ele><time>2026-04-18T13:02:26Z</time></trkpt><trkpt lat="45.47498403330982" lon="10.526704218319596"><ele>103.2</ele><time>2026-04-18T13:02:28Z</time></trkpt><trkpt lat="45.474945204185815" lon="10.526793333404386"><ele>102.8</ele><time>2026-04-18T13:02:29Z</time></trkpt><trkpt lat="45.47493735196669" lon="10.526912384938925"><ele>102.39999999999999</ele><time>2026-04-18T13:02:30Z</time></trkpt><trkpt lat="45.474916232877405" lon="10.52704742953816"><ele>102.0</ele><time>2026-04-18T13:02:31Z</time></trkpt><trkpt lat="45.474880606461774" lon="10.527196489890343"><ele>102.0</ele><time>2026-04-18T13:02:32Z</time></trkpt><trkpt lat="45.47484346025698" lon="10.527340602335125"><ele>102.0</ele><time>2026-04-18T13:02:33Z</time></trkpt><trkpt lat="45.47483543526378" lon="10.527483377991224"><ele>102.0</ele><time>2026-04-18T13:02:34Z</time></trkpt><trkpt lat="45.4748330765019" lon="10.527641623946435"><ele>102.0</ele><time>2026-04-18T13:02:35Z</time></trkpt><trkpt lat="45.47480614128334" lon="10.527782699744668"><ele>102.0</ele><time>2026-04-18T13:02:36Z</time></trkpt><trkpt lat="45.474799881166355" lon="10.52792975905001"><ele>102.0</ele><time>2026-04-18T13:02:37Z</time></trkpt><trkpt lat="45.4747908256115" lon="10.528038275766654"><ele>102.0</ele><time>2026-04-18T13:02:38Z</time></trkpt><trkpt lat="45.47476634144402" lon="10.528218456276539"><ele>102.0</ele><time>2026-04-18T13:02:40Z</time></trkpt><trkpt lat="45.474686998254235" lon="10.528274414767468"><ele>102.0</ele><time>2026-04-18T13:02:41Z</time></trkpt><trkpt lat="45.47460455825911" lon="10.528341524136483"><ele>102.0</ele><time>2026-04-18T13:02:42Z</time></trkpt><trkpt lat="45.47452156786737" lon="10.52839808470711"><ele>101.19999999999999</ele><time>2026-04-18T13:02:43Z</time></trkpt><trkpt lat="45.474432084050655" lon="10.528410472082196"><ele>100.4</ele><time>2026-04-18T13:02:44Z</time></trkpt><trkpt lat="45.474360968439115" lon="10.528430855305219"><ele>99.6</ele><time>2026-04-18T13:02:45Z</time></trkpt><trkpt lat="45.47425502070826" lon="10.528497873697496"><ele>98.80000000000001</ele><time>2026-04-18T13:02:47Z</time></trkpt><trkpt lat="45.47421763177996" lon="10.52860531563794"><ele>98.0</ele><time>2026-04-18T13:02:48Z</time></trkpt><trkpt lat="45.47422067109336" lon="10.528733631864425"><ele>97.80000000000001</ele><time>2026-04-18T13:02:49Z</time></trkpt><trkpt lat="45.47423793855059" lon="10.52887483395506"><ele>97.6</ele><time>2026-04-18T13:02:50Z</time></trkpt><trkpt lat="45.47423264367566" lon="10.52902541709621"><ele>97.4</ele><time>2026-04-18T13:02:51Z</time></trkpt><trkpt lat="45.474253248546425" lon="10.529187366417947"><ele>97.19999999999999</ele><time>2026-04-18T13:02:52Z</time></trkpt><trkpt lat="45.47426469539613" lon="10.529337484718178"><ele>97.0</ele><time>2026-04-18T13:02:53Z</time></trkpt><trkpt lat="45.474268783519854" lon="10.529454902478918"><ele>97.0</ele><time>2026-04-18T13:02:54Z</time></trkpt><trkpt lat="45.47427485003351" lon="10.529553215819464"><ele>97.0</ele><time>2026-04-18T13:02:55Z</time></trkpt><trkpt lat="45.47408783874074" lon="10.529655050575181"><ele>97.0</ele><time>2026-04-18T13:02:59Z</time></trkpt><trkpt lat="45.47399407998371" lon="10.529645699785897"><ele>97.0</ele><time>2026-04-18T13:03:00Z</time></trkpt><trkpt lat="45.473867576070816" lon="10.529633954379442"><ele>96.75</ele><time>2026-04-18T13:03:01Z</time></trkpt><trkpt lat="45.47372429936941" lon="10.529648178878654"><ele>96.5</ele><time>2026-04-18T13:03:02Z</time></trkpt><trkpt lat="45.473593268142395" lon="10.52963729823537"><ele>96.25</ele><time>2026-04-18T13:03:03Z</time></trkpt><trkpt lat="45.47346809092575" lon="10.529636522953611"><ele>96.0</ele><time>2026-04-18T13:03:04Z</time></trkpt><trkpt lat="45.47333428652083" lon="10.529633680662354"><ele>96.0</ele><time>2026-04-18T13:03:05Z</time></trkpt><trkpt lat="45.47320618573442" lon="10.529642091243883"><ele>96.0</ele><time>2026-04-18T13:03:06Z</time></trkpt><trkpt lat="45.47309225349162" lon="10.529633080954499"><ele>96.0</ele><time>2026-04-18T13:03:07Z</time></trkpt><trkpt lat="45.47296329661522" lon="10.52965199718698"><ele>96.0</ele><time>2026-04-18T13:03:08Z</time></trkpt><trkpt lat="45.47282914008888" lon="10.529644778513426"><ele>96.5</ele><time>2026-04-18T13:03:09Z</time></trkpt><trkpt lat="45.47269574328943" lon="10.529654377285372"><ele>97.0</ele><time>2026-04-18T13:03:10Z</time></trkpt><trkpt lat="45.472578422807445" lon="10.529656733747446"><ele>97.5</ele><time>2026-04-18T13:03:11Z</time></trkpt><trkpt lat="45.47247431421692" lon="10.529641080210185"><ele>98.0</ele><time>2026-04-18T13:03:12Z</time></trkpt><trkpt lat="45.47236586882626" lon="10.529641307690465"><ele>97.99999999999999</ele><time>2026-04-18T13:03:13Z</time></trkpt><trkpt lat="45.4722702279395" lon="10.529613658818336"><ele>98.0</ele><time>2026-04-18T13:03:14Z</time></trkpt><trkpt lat="45.47220516260881" lon="10.529618464008793"><ele>98.0</ele><time>2026-04-18T13:03:15Z</time></trkpt><trkpt lat="45.47208997981385" lon="10.529608955856572"><ele>98.0</ele><time>2026-04-18T13:03:17Z</time></trkpt><trkpt lat="45.47200323814103" lon="10.529598714877393"><ele>97.99999999999999</ele><time>2026-04-18T13:03:19Z</time></trkpt><trkpt lat="45.471938609895304" lon="10.52957849266472"><ele>98.0</ele><time>2026-04-18T13:03:21Z</time></trkpt><trkpt lat="45.47188382048801" lon="10.529719167738277"><ele>97.75</ele><time>2026-04-18T13:03:23Z</time></trkpt><trkpt lat="45.4718677389803" lon="10.529855328659032"><ele>97.5</ele><time>2026-04-18T13:03:24Z</time></trkpt><trkpt lat="45.47185196903684" lon="10.529988059839614"><ele>97.25</ele><time>2026-04-18T13:03:25Z</time></trkpt><trkpt lat="45.47182507572624" lon="10.530166816081817"><ele>97.0</ele><time>2026-04-18T13:03:26Z</time></trkpt><trkpt lat="45.47178338940442" lon="10.530344988069096"><ele>97.0</ele><time>2026-04-18T13:03:27Z</time></trkpt><trkpt lat="45.47177437661606" lon="10.530512576039916"><ele>97.0</ele><time>2026-04-18T13:03:28Z</time></trkpt><trkpt lat="45.47173598525738" lon="10.530658745818403"><ele>97.0</ele><time>2026-04-18T13:03:29Z</time></trkpt><trkpt lat="45.47169872629449" lon="10.530822348725158"><ele>97.0</ele><time>2026-04-18T13:03:30Z</time></trkpt><trkpt lat="45.471663215976704" lon="10.53098021351102"><ele>97.0</ele><time>2026-04-18T13:03:31Z</time></trkpt><trkpt lat="45.47162173407008" lon="10.531165010209099"><ele>97.0</ele><time>2026-04-18T13:03:32Z</time></trkpt><trkpt lat="45.47157923870734" lon="10.531354321752303"><ele>97.0</ele><time>2026-04-18T13:03:33Z</time></trkpt><trkpt lat="45.471545968721" lon="10.531526685721369"><ele>97.0</ele><time>2026-04-18T13:03:34Z</time></trkpt><trkpt lat="45.471501479012645" lon="10.531699566891952"><ele>96.6</ele><time>2026-04-18T13:03:35Z</time></trkpt><trkpt lat="45.47146992829646" lon="10.531861475644627"><ele>96.19999999999999</ele><time>2026-04-18T13:03:36Z</time></trkpt><trkpt lat="45.47144870515161" lon="10.532017299223988"><ele>95.8</ele><time>2026-04-18T13:03:37Z</time></trkpt><trkpt lat="45.471430154575884" lon="10.532163529112054"><ele>95.4</ele><time>2026-04-18T13:03:38Z</time></trkpt><trkpt lat="45.47141522159451" lon="10.532307160697869"><ele>95.0</ele><time>2026-04-18T13:03:39Z</time></trkpt><trkpt lat="45.47137550850608" lon="10.532423763881539"><ele>95.0</ele><time>2026-04-18T13:03:40Z</time></trkpt><trkpt lat="45.47134238955823" lon="10.532549545124047"><ele>95.0</ele><time>2026-04-18T13:03:41Z</time></trkpt><trkpt lat="45.471323206281426" lon="10.532663324279818"><ele>95.0</ele><time>2026-04-18T13:03:42Z</time></trkpt><trkpt lat="45.47130225408982" lon="10.532749136812198"><ele>95.0</ele><time>2026-04-18T13:03:43Z</time></trkpt><trkpt lat="45.47127364383663" lon="10.53283647201089"><ele>95.0</ele><time>2026-04-18T13:03:45Z</time></trkpt><trkpt lat="45.47118973317903" lon="10.532835946417448"><ele>95.0</ele><time>2026-04-18T13:03:47Z</time></trkpt><trkpt lat="45.47112911259583" lon="10.532795070679775"><ele>95.0</ele><time>2026-04-18T13:03:48Z</time></trkpt><trkpt lat="45.471064698011226" lon="10.532751788596848"><ele>95.0</ele><time>2026-04-18T13:03:49Z</time></trkpt><trkpt lat="45.47100426549505" lon="10.532713039234526"><ele>95.0</ele><time>2026-04-18T13:03:50Z</time></trkpt><trkpt lat="45.470936555737694" lon="10.532669454478354"><ele>95.0</ele><time>2026-04-18T13:03:51Z</time></trkpt><trkpt lat="45.47085688136236" lon="10.532629285206026"><ele>95.0</ele><time>2026-04-18T13:03:52Z</time></trkpt><trkpt lat="45.47077498004211" lon="10.532594255987288"><ele>95.0</ele><time>2026-04-18T13:03:53Z</time></trkpt><trkpt lat="45.470689820320516" lon="10.532562102403283"><ele>95.0</ele><time>2026-04-18T13:03:54Z</time></trkpt><trkpt lat="45.470608026419754" lon="10.53251404245811"><ele>95.0</ele><time>2026-04-18T13:03:55Z</time></trkpt><trkpt lat="45.47052209181731" lon="10.532486366697869"><ele>95.0</ele><time>2026-04-18T13:03:56Z</time></trkpt><trkpt lat="45.470439095453024" lon="10.532458032179512"><ele>95.0</ele><time>2026-04-18T13:03:57Z</time></trkpt><trkpt lat="45.47035858536976" lon="10.53241769719478"><ele>95.0</ele><time>2026-04-18T13:03:58Z</time></trkpt><trkpt lat="45.47028123625958" lon="10.53238255605012"><ele>95.0</ele><time>2026-04-18T13:03:59Z</time></trkpt><trkpt lat="45.470212822795" lon="10.532340446720509"><ele>95.0</ele><time>2026-04-18T13:04:00Z</time></trkpt><trkpt lat="45.470160174252015" lon="10.532269675250548"><ele>95.0</ele><time>2026-04-18T13:04:01Z</time></trkpt><trkpt lat="45.47005001336041" lon="10.532234544994095"><ele>95.0</ele><time>2026-04-18T13:04:03Z</time></trkpt><trkpt lat="45.469984735401994" lon="10.532193436702894"><ele>95.0</ele><time>2026-04-18T13:04:05Z</time></trkpt><trkpt lat="45.46992536428043" lon="10.5321522929253"><ele>95.0</ele><time>2026-04-18T13:04:07Z</time></trkpt><trkpt lat="45.46985027011492" lon="10.532025422203448"><ele>95.0</ele><time>2026-04-18T13:04:09Z</time></trkpt><trkpt lat="45.46974573644183" lon="10.532055598295957"><ele>95.16666666666667</ele><time>2026-04-18T13:04:10Z</time></trkpt><trkpt lat="45.46971358224026" lon="10.532136231016601"><ele>95.33333333333334</ele><time>2026-04-18T13:04:11Z</time></trkpt><trkpt lat="45.46974375815187" lon="10.532279540626284"><ele>95.5</ele><time>2026-04-18T13:04:12Z</time></trkpt><trkpt lat="45.469711116078" lon="10.532394905445107"><ele>95.66666666666667</ele><time>2026-04-18T13:04:13Z</time></trkpt><trkpt lat="45.46967042754294" lon="10.532517504399541"><ele>95.83333333333333</ele><time>2026-04-18T13:04:14Z</time></trkpt><trkpt lat="45.46963675998984" lon="10.532640575266841"><ele>96.0</ele><time>2026-04-18T13:04:15Z</time></trkpt><trkpt lat="45.469611878268495" lon="10.532755606279649"><ele>95.6</ele><time>2026-04-18T13:04:16Z</time></trkpt><trkpt lat="45.46953177619308" lon="10.532844556121077"><ele>95.19999999999999</ele><time>2026-04-18T13:04:17Z</time></trkpt><trkpt lat="45.46950634776049" lon="10.532945387535632"><ele>94.80000000000001</ele><time>2026-04-18T13:04:18Z</time></trkpt><trkpt lat="45.469483435772446" lon="10.533108863089549"><ele>94.4</ele><time>2026-04-18T13:04:20Z</time></trkpt><trkpt lat="45.46941169326951" lon="10.533109406120149"><ele>94.0</ele><time>2026-04-18T13:04:21Z</time></trkpt><trkpt lat="45.46931479769462" lon="10.533148746399355"><ele>94.0</ele><time>2026-04-18T13:04:22Z</time></trkpt><trkpt lat="45.469206022564535" lon="10.533185058486502"><ele>94.0</ele><time>2026-04-18T13:04:23Z</time></trkpt><trkpt lat="45.46909150862854" lon="10.533211339795335"><ele>94.0</ele><time>2026-04-18T13:04:24Z</time></trkpt><trkpt lat="45.468965464929056" lon="10.533207913517625"><ele>94.0</ele><time>2026-04-18T13:04:25Z</time></trkpt><trkpt lat="45.468830688514" lon="10.533204456025423"><ele>93.5</ele><time>2026-04-18T13:04:26Z</time></trkpt><trkpt lat="45.46869273017619" lon="10.533197107111"><ele>93.0</ele><time>2026-04-18T13:04:27Z</time></trkpt><trkpt lat="45.46854991741358" lon="10.533196674905541"><ele>92.5</ele><time>2026-04-18T13:04:28Z</time></trkpt><trkpt lat="45.46841267736989" lon="10.53319098773441"><ele>92.0</ele><time>2026-04-18T13:04:29Z</time></trkpt><trkpt lat="45.46827039632573" lon="10.533177508683872"><ele>92.0</ele><time>2026-04-18T13:04:30Z</time></trkpt><trkpt lat="45.46812353329147" lon="10.533149370702771"><ele>92.0</ele><time>2026-04-18T13:04:31Z</time></trkpt><trkpt lat="45.46798582126087" lon="10.533135628136453"><ele>92.0</ele><time>2026-04-18T13:04:32Z</time></trkpt><trkpt lat="45.467856880009755" lon="10.533080095238645"><ele>92.0</ele><time>2026-04-18T13:04:33Z</time></trkpt><trkpt lat="45.46774681909016" lon="10.532987651317178"><ele>92.75</ele><time>2026-04-18T13:04:34Z</time></trkpt><trkpt lat="45.46764717538468" lon="10.53287342498065"><ele>93.5</ele><time>2026-04-18T13:04:35Z</time></trkpt><trkpt lat="45.4675706388651" lon="10.532742294334817"><ele>94.25</ele><time>2026-04-18T13:04:36Z</time></trkpt><trkpt lat="45.46761195986864" lon="10.532501644417247"><ele>95.0</ele><time>2026-04-18T13:04:37Z</time></trkpt><trkpt lat="45.46755162376567" lon="10.532329907391595"><ele>95.0</ele><time>2026-04-18T13:04:38Z</time></trkpt><trkpt lat="45.467487328726676" lon="10.532191004840437"><ele>95.0</ele><time>2026-04-18T13:04:39Z</time></trkpt><trkpt lat="45.46739074356101" lon="10.532063555787353"><ele>95.0</ele><time>2026-04-18T13:04:40Z</time></trkpt><trkpt lat="45.46727930537426" lon="10.531993436029028"><ele>95.0</ele><time>2026-04-18T13:04:41Z</time></trkpt><trkpt lat="45.46718496410251" lon="10.531957595605137"><ele>94.8</ele><time>2026-04-18T13:04:42Z</time></trkpt><trkpt lat="45.467084404327245" lon="10.531935164962167"><ele>94.6</ele><time>2026-04-18T13:04:43Z</time></trkpt><trkpt lat="45.466980443653924" lon="10.531909836245836"><ele>94.4</ele><time>2026-04-18T13:04:44Z</time></trkpt><trkpt lat="45.46687485463296" lon="10.531884110803016"><ele>94.2</ele><time>2026-04-18T13:04:45Z</time></trkpt><trkpt lat="45.466767186871984" lon="10.531882041368242"><ele>94.0</ele><time>2026-04-18T13:04:46Z</time></trkpt><trkpt lat="45.46666399841161" lon="10.531833910487693"><ele>94.0</ele><time>2026-04-18T13:04:47Z</time></trkpt><trkpt lat="45.46658013907748" lon="10.53181406335675"><ele>94.0</ele><time>2026-04-18T13:04:48Z</time></trkpt><trkpt lat="45.466504180620795" lon="10.53179608626737"><ele>94.0</ele><time>2026-04-18T13:04:49Z</time></trkpt><trkpt lat="45.466432835172384" lon="10.531779200817462"><ele>94.0</ele><time>2026-04-18T13:04:50Z</time></trkpt><trkpt lat="45.466369328351874" lon="10.531764124521258"><ele>94.0</ele><time>2026-04-18T13:04:51Z</time></trkpt><trkpt lat="45.46629945363267" lon="10.531760832342206"><ele>94.0</ele><time>2026-04-18T13:04:53Z</time></trkpt><trkpt lat="45.46622955526318" lon="10.531795787003182"><ele>94.0</ele><time>2026-04-18T13:04:59Z</time></trkpt><trkpt lat="45.46619668845905" lon="10.53192981859577"><ele>94.75</ele><time>2026-04-18T13:05:01Z</time></trkpt><trkpt lat="45.46612025037072" lon="10.532052102047874"><ele>95.5</ele><time>2026-04-18T13:05:02Z</time></trkpt><trkpt lat="45.46604638531725" lon="10.532219448262762"><ele>96.25</ele><time>2026-04-18T13:05:03Z</time></trkpt><trkpt lat="45.465982945115236" lon="10.532375227465502"><ele>97.0</ele><time>2026-04-18T13:05:04Z</time></trkpt><trkpt lat="45.46592816435687" lon="10.532511162176158"><ele>97.33333333333334</ele><time>2026-04-18T13:05:05Z</time></trkpt><trkpt lat="45.46587957943124" lon="10.532631730325635"><ele>97.66666666666667</ele><time>2026-04-18T13:05:06Z</time></trkpt><trkpt lat="45.46583539241187" lon="10.532741384600792"><ele>98.0</ele><time>2026-04-18T13:05:07Z</time></trkpt><trkpt lat="45.465797470608564" lon="10.532835491156598"><ele>98.33333333333334</ele><time>2026-04-18T13:05:08Z</time></trkpt><trkpt lat="45.46575020409389" lon="10.532952788366671"><ele>98.66666666666667</ele><time>2026-04-18T13:05:10Z</time></trkpt><trkpt lat="45.465714436705504" lon="10.533033893734356"><ele>99.0</ele><time>2026-04-18T13:05:15Z</time></trkpt><trkpt lat="45.46571387428789" lon="10.533152870392101"><ele>99.4</ele><time>2026-04-18T13:05:18Z</time></trkpt><trkpt lat="45.46568878109222" lon="10.533251671371678"><ele>99.80000000000001</ele><time>2026-04-18T13:05:21Z</time></trkpt><trkpt lat="45.46566588588149" lon="10.533350003964072"><ele>100.19999999999999</ele><time>2026-04-18T13:05:23Z</time></trkpt><trkpt lat="45.46559478585115" lon="10.533512576841913"><ele>100.6</ele><time>2026-04-18T13:05:25Z</time></trkpt><trkpt lat="45.46551232684308" lon="10.533634605838941"><ele>101.0</ele><time>2026-04-18T13:05:26Z</time></trkpt><trkpt lat="45.46545994551586" lon="10.533741787596876"><ele>102.6</ele><time>2026-04-18T13:05:27Z</time></trkpt><trkpt lat="45.46539076046891" lon="10.533811107671635"><ele>104.19999999999999</ele><time>2026-04-18T13:05:28Z</time></trkpt><trkpt lat="45.46532521050309" lon="10.533880438225271"><ele>105.80000000000001</ele><time>2026-04-18T13:05:29Z</time></trkpt><trkpt lat="45.46526896464147" lon="10.53397558232781"><ele>107.4</ele><time>2026-04-18T13:05:30.001Z</time></trkpt><trkpt lat="45.46519895807994" lon="10.534141625481492"><ele>109.0</ele><time>2026-04-18T13:05:31.001Z</time></trkpt><trkpt lat="45.46514764758542" lon="10.53429575295187"><ele>109.0</ele><time>2026-04-18T13:05:32.001Z</time></trkpt><trkpt lat="45.4651240231533" lon="10.534475647468524"><ele>109.0</ele><time>2026-04-18T13:05:33.001Z</time></trkpt><trkpt lat="45.465089354426404" lon="10.534667265737628"><ele>109.0</ele><time>2026-04-18T13:05:34.001Z</time></trkpt><trkpt lat="45.46505958486652" lon="10.534855518914535"><ele>109.0</ele><time>2026-04-18T13:05:35.001Z</time></trkpt><trkpt lat="45.465045090641055" lon="10.535028977026712"><ele>108.80000000000001</ele><time>2026-04-18T13:05:36.001Z</time></trkpt><trkpt lat="45.46503265654064" lon="10.535190210776145"><ele>108.60000000000001</ele><time>2026-04-18T13:05:37.001Z</time></trkpt><trkpt lat="45.46501083851194" lon="10.535337152378737"><ele>108.4</ele><time>2026-04-18T13:05:38.001Z</time></trkpt><trkpt lat="45.46499218844435" lon="10.535447464387989"><ele>108.2</ele><time>2026-04-18T13:05:39.001Z</time></trkpt><trkpt lat="45.46497151246459" lon="10.535566360444017"><ele>108.0</ele><time>2026-04-18T13:05:40.001Z</time></trkpt><trkpt lat="45.4649565698061" lon="10.535673376453044"><ele>107.66666666666667</ele><time>2026-04-18T13:05:41.001Z</time></trkpt><trkpt lat="45.46494466288653" lon="10.535772275046165"><ele>107.33333333333334</ele><time>2026-04-18T13:05:42Z</time></trkpt><trkpt lat="45.4649317074548" lon="10.535899531960471"><ele>107.0</ele><time>2026-04-18T13:05:44Z</time></trkpt><trkpt lat="45.46492356306984" lon="10.536002048088818"><ele>106.66666666666667</ele><time>2026-04-18T13:05:46Z</time></trkpt><trkpt lat="45.46496404576502" lon="10.536074441536899"><ele>106.33333333333334</ele><time>2026-04-18T13:08:36Z</time></trkpt><trkpt lat="45.46505288103436" lon="10.5360708593936"><ele>106.0</ele><time>2026-04-18T13:08:40Z</time></trkpt><trkpt lat="45.46511726535737" lon="10.536054210390068"><ele>106.00000000000001</ele><time>2026-04-18T13:08:45Z</time></trkpt><trkpt lat="45.46519746941864" lon="10.536042039751054"><ele>106.0</ele><time>2026-04-18T13:09:06Z</time></trkpt><trkpt lat="45.46530766594199" lon="10.535997759645872"><ele>106.0</ele><time>2026-04-18T13:20:33Z</time></trkpt><trkpt lat="45.46524164650738" lon="10.535993479213937"><ele>106.0</ele><time>2026-04-18T13:46:56Z</time></trkpt><trkpt lat="45.46522100255418" lon="10.535885915802394"><ele>106.00000000000001</ele><time>2026-04-18T13:49:10.001Z</time></trkpt><trkpt lat="45.46516580980134" lon="10.535933996754553"><ele>106.0</ele><time>2026-04-18T13:51:18Z</time></trkpt><trkpt lat="45.46508915401897" lon="10.53593266281039"><ele>106.00000000000001</ele><time>2026-04-18T13:57:26Z</time></trkpt><trkpt lat="45.46500467639074" lon="10.535899061634005"><ele>106.0</ele><time>2026-04-18T13:57:30Z</time></trkpt><trkpt lat="45.4649184103137" lon="10.535940510924267"><ele>106.0</ele><time>2026-04-18T13:57:33Z</time></trkpt><trkpt lat="45.46488610807611" lon="10.536067210133824"><ele>106.0</ele><time>2026-04-18T13:57:36Z</time></trkpt><trkpt lat="45.46487903329378" lon="10.536222570963542"><ele>106.00000000000001</ele><time>2026-04-18T13:57:38Z</time></trkpt><trkpt lat="45.464867807536095" lon="10.536314776861813"><ele>106.0</ele><time>2026-04-18T13:57:39Z</time></trkpt><trkpt lat="45.46484698174779" lon="10.536486803801214"><ele>106.00000000000001</ele><time>2026-04-18T13:57:41Z</time></trkpt><trkpt lat="45.4648361629794" lon="10.536652615069787"><ele>106.0</ele><time>2026-04-18T13:57:43Z</time></trkpt><trkpt lat="45.46481200068323" lon="10.536749907153466"><ele>106.0</ele><time>2026-04-18T13:57:45Z</time></trkpt><trkpt lat="45.46475155854063" lon="10.536792877705487"><ele>106.0</ele><time>2026-04-18T13:57:47Z</time></trkpt><trkpt lat="45.464631924301145" lon="10.536792166004814"><ele>106.00000000000001</ele><time>2026-04-18T13:57:49Z</time></trkpt><trkpt lat="45.464569711547135" lon="10.536777143125635"><ele>106.0</ele><time>2026-04-18T13:57:50Z</time></trkpt><trkpt lat="45.46445442229099" lon="10.536782980366876"><ele>106.0</ele><time>2026-04-18T13:57:52Z</time></trkpt><trkpt lat="45.46441203704072" lon="10.536893796435555"><ele>106.0</ele><time>2026-04-18T13:57:53.999Z</time></trkpt><trkpt lat="45.46436417528772" lon="10.537060822662102"><ele>106.0</ele><time>2026-04-18T13:57:55.999Z</time></trkpt><trkpt lat="45.464318972909815" lon="10.537222121556088"><ele>106.0</ele><time>2026-04-18T13:57:57.999Z</time></trkpt><trkpt lat="45.46429788260863" lon="10.537322563307606"><ele>106.0</ele><time>2026-04-18T13:57:58.999Z</time></trkpt><trkpt lat="45.464273285570556" lon="10.53744472977353"><ele>105.6</ele><time>2026-04-18T13:57:59.999Z</time></trkpt><trkpt lat="45.464248067352415" lon="10.537555041331977"><ele>105.19999999999999</ele><time>2026-04-18T13:58:00.999Z</time></trkpt><trkpt lat="45.46423639913018" lon="10.537683387761525"><ele>104.80000000000001</ele><time>2026-04-18T13:58:01.999Z</time></trkpt><trkpt lat="45.46421440762355" lon="10.537827806551562"><ele>104.4</ele><time>2026-04-18T13:58:02.999Z</time></trkpt><trkpt lat="45.464186401397754" lon="10.537967593877521"><ele>104.0</ele><time>2026-04-18T13:58:03.999Z</time></trkpt><trkpt lat="45.46416231657351" lon="10.538110988348105"><ele>103.66666666666666</ele><time>2026-04-18T13:58:05Z</time></trkpt><trkpt lat="45.46413623345941" lon="10.538241495686364"><ele>103.33333333333333</ele><time>2026-04-18T13:58:06Z</time></trkpt><trkpt lat="45.464097673901364" lon="10.538357251739889"><ele>103.0</ele><time>2026-04-18T13:58:07Z</time></trkpt><trkpt lat="45.464071267217015" lon="10.538467270581858"><ele>102.66666666666666</ele><time>2026-04-18T13:58:08Z</time></trkpt><trkpt lat="45.46405003874804" lon="10.538593407027763"><ele>102.33333333333333</ele><time>2026-04-18T13:58:09Z</time></trkpt><trkpt lat="45.4640202394981" lon="10.538711159063725"><ele>102.0</ele><time>2026-04-18T13:58:10Z</time></trkpt><trkpt lat="45.46396883703847" lon="10.538818147735281"><ele>101.39999999999999</ele><time>2026-04-18T13:58:11Z</time></trkpt><trkpt lat="45.463922355357745" lon="10.53892555881018"><ele>100.8</ele><time>2026-04-18T13:58:12Z</time></trkpt><trkpt lat="45.463868008471664" lon="10.539055411406787"><ele>100.2</ele><time>2026-04-18T13:58:13Z</time></trkpt><trkpt lat="45.46380503571813" lon="10.539180681063595"><ele>99.6</ele><time>2026-04-18T13:58:14Z</time></trkpt><trkpt lat="45.46374628758973" lon="10.539301063474706"><ele>99.0</ele><time>2026-04-18T13:58:15Z</time></trkpt><trkpt lat="45.463697364594275" lon="10.539402423934154"><ele>100.0</ele><time>2026-04-18T13:58:16Z</time></trkpt><trkpt lat="45.46364294164383" lon="10.539504849613913"><ele>101.0</ele><time>2026-04-18T13:58:17Z</time></trkpt><trkpt lat="45.463568389393636" lon="10.539635824374283"><ele>102.0</ele><time>2026-04-18T13:58:18Z</time></trkpt><trkpt lat="45.46351224993739" lon="10.539763406822614"><ele>103.0</ele><time>2026-04-18T13:58:19Z</time></trkpt><trkpt lat="45.46348061635759" lon="10.539879635013202"><ele>104.0</ele><time>2026-04-18T13:58:20Z</time></trkpt><trkpt lat="45.463446622752315" lon="10.540001470670232"><ele>104.0</ele><time>2026-04-18T13:58:21Z</time></trkpt><trkpt lat="45.463402622223015" lon="10.54013498258972"><ele>104.0</ele><time>2026-04-18T13:58:22Z</time></trkpt><trkpt lat="45.46335560883133" lon="10.540263944075992"><ele>104.0</ele><time>2026-04-18T13:58:23Z</time></trkpt><trkpt lat="45.46331473046074" lon="10.540388692535194"><ele>104.0</ele><time>2026-04-18T13:58:24Z</time></trkpt><trkpt lat="45.4632872481414" lon="10.540515162659585"><ele>104.0</ele><time>2026-04-18T13:58:25Z</time></trkpt><trkpt lat="45.46326430909905" lon="10.540647464868151"><ele>104.0</ele><time>2026-04-18T13:58:26Z</time></trkpt><trkpt lat="45.46322834759787" lon="10.540775476266731"><ele>104.0</ele><time>2026-04-18T13:58:27Z</time></trkpt><trkpt lat="45.463182257436415" lon="10.540895369898498"><ele>104.0</ele><time>2026-04-18T13:58:28Z</time></trkpt><trkpt lat="45.46315146951516" lon="10.541025489375123"><ele>104.0</ele><time>2026-04-18T13:58:29Z</time></trkpt><trkpt lat="45.46311977120555" lon="10.541153349071003"><ele>104.0</ele><time>2026-04-18T13:58:30Z</time></trkpt><trkpt lat="45.46308712430584" lon="10.54126728894014"><ele>103.49999999999999</ele><time>2026-04-18T13:58:31Z</time></trkpt><trkpt lat="45.46304952510626" lon="10.541374499747667"><ele>103.0</ele><time>2026-04-18T13:58:32Z</time></trkpt><trkpt lat="45.46302817183677" lon="10.541484508222975"><ele>102.5</ele><time>2026-04-18T13:58:33Z</time></trkpt><trkpt lat="45.46299456597587" lon="10.541583887583078"><ele>102.0</ele><time>2026-04-18T13:58:34Z</time></trkpt><trkpt lat="45.46294373411151" lon="10.541720674763043"><ele>101.49999999999999</ele><time>2026-04-18T13:58:36Z</time></trkpt><trkpt lat="45.462910808031474" lon="10.541802893760778"><ele>101.0</ele><time>2026-04-18T13:58:39Z</time></trkpt><trkpt lat="45.46287531705284" lon="10.541908543943247"><ele>101.83333333333333</ele><time>2026-04-18T13:58:41Z</time></trkpt><trkpt lat="45.4628350867471" lon="10.541984367142543"><ele>102.66666666666666</ele><time>2026-04-18T13:58:42Z</time></trkpt><trkpt lat="45.462798336493954" lon="10.54208826163268"><ele>103.5</ele><time>2026-04-18T13:58:43Z</time></trkpt><trkpt lat="45.46275875333461" lon="10.542203143188955"><ele>104.33333333333334</ele><time>2026-04-18T13:58:44Z</time></trkpt><trkpt lat="45.46271624752528" lon="10.542317602214492"><ele>105.16666666666667</ele><time>2026-04-18T13:58:45Z</time></trkpt><trkpt lat="45.462681757476375" lon="10.54242997440186"><ele>106.0</ele><time>2026-04-18T13:58:46Z</time></trkpt><trkpt lat="45.462647421351775" lon="10.542529967135785"><ele>106.00000000000001</ele><time>2026-04-18T13:58:47Z</time></trkpt><trkpt lat="45.4625994275598" lon="10.542616163089884"><ele>106.0</ele><time>2026-04-18T13:58:48Z</time></trkpt><trkpt lat="45.46255454699634" lon="10.542705664882666"><ele>106.0</ele><time>2026-04-18T13:58:49Z</time></trkpt><trkpt lat="45.46251218391473" lon="10.542800960187861"><ele>106.0</ele><time>2026-04-18T13:58:50Z</time></trkpt><trkpt lat="45.46247173607675" lon="10.54290479558699"><ele>106.00000000000001</ele><time>2026-04-18T13:58:51Z</time></trkpt><trkpt lat="45.462431336242624" lon="10.543018439613295"><ele>106.0</ele><time>2026-04-18T13:58:52Z</time></trkpt><trkpt lat="45.46239038567459" lon="10.543141350886668"><ele>106.0</ele><time>2026-04-18T13:58:53Z</time></trkpt><trkpt lat="45.46234759054" lon="10.543266979010255"><ele>106.0</ele><time>2026-04-18T13:58:54Z</time></trkpt><trkpt lat="45.4622969886595" lon="10.54339604708738"><ele>106.0</ele><time>2026-04-18T13:58:55Z</time></trkpt><trkpt lat="45.462243405136334" lon="10.543536234211405"><ele>106.0</ele><time>2026-04-18T13:58:56Z</time></trkpt><trkpt lat="45.46217444099048" lon="10.54366273172357"><ele>106.0</ele><time>2026-04-18T13:58:57Z</time></trkpt><trkpt lat="45.46209273948264" lon="10.543787187786805"><ele>106.75</ele><time>2026-04-18T13:58:58Z</time></trkpt><trkpt lat="45.46200203184228" lon="10.543918478958325"><ele>107.5</ele><time>2026-04-18T13:58:59Z</time></trkpt><trkpt lat="45.46191715941592" lon="10.544058737643299"><ele>108.25</ele><time>2026-04-18T13:59:00Z</time></trkpt><trkpt lat="45.46183633366881" lon="10.544192687999455"><ele>109.0</ele><time>2026-04-18T13:59:01Z</time></trkpt><trkpt lat="45.46176060245322" lon="10.544330797232599"><ele>109.0</ele><time>2026-04-18T13:59:02Z</time></trkpt><trkpt lat="45.461685062299665" lon="10.544468597039216"><ele>109.0</ele><time>2026-04-18T13:59:03Z</time></trkpt><trkpt lat="45.46163372949695" lon="10.54462905138365"><ele>109.0</ele><time>2026-04-18T13:59:04Z</time></trkpt><trkpt lat="45.46156944803687" lon="10.544772477420794"><ele>109.0</ele><time>2026-04-18T13:59:05Z</time></trkpt><trkpt lat="45.46150265675995" lon="10.544912577619645"><ele>108.5</ele><time>2026-04-18T13:59:06Z</time></trkpt><trkpt lat="45.461434704763526" lon="10.545047973006394"><ele>108.0</ele><time>2026-04-18T13:59:07Z</time></trkpt><trkpt lat="45.461362846900734" lon="10.54517953467038"><ele>107.5</ele><time>2026-04-18T13:59:08Z</time></trkpt><trkpt lat="45.46129071841484" lon="10.545306904339917"><ele>107.0</ele><time>2026-04-18T13:59:09Z</time></trkpt><trkpt lat="45.46122171778674" lon="10.545430851902232"><ele>107.0</ele><time>2026-04-18T13:59:10Z</time></trkpt><trkpt lat="45.461147982501004" lon="10.545562803892942"><ele>107.0</ele><time>2026-04-18T13:59:11Z</time></trkpt><trkpt lat="45.46107001011919" lon="10.545714840816826"><ele>107.0</ele><time>2026-04-18T13:59:12Z</time></trkpt><trkpt lat="45.46098965270719" lon="10.545884794734391"><ele>107.0</ele><time>2026-04-18T13:59:13Z</time></trkpt><trkpt lat="45.46090331111516" lon="10.546061966624023"><ele>105.75</ele><time>2026-04-18T13:59:14Z</time></trkpt><trkpt lat="45.460814699434856" lon="10.546228985796516"><ele>104.5</ele><time>2026-04-18T13:59:15Z</time></trkpt><trkpt lat="45.46072807608884" lon="10.546392399130943"><ele>103.25</ele><time>2026-04-18T13:59:16Z</time></trkpt><trkpt lat="45.46063892118507" lon="10.546543755197815"><ele>102.0</ele><time>2026-04-18T13:59:17Z</time></trkpt><trkpt lat="45.460558846581826" lon="10.546707962247718"><ele>102.0</ele><time>2026-04-18T13:59:18Z</time></trkpt><trkpt lat="45.460458960616286" lon="10.546860547236394"><ele>102.0</ele><time>2026-04-18T13:59:19Z</time></trkpt><trkpt lat="45.460370581171304" lon="10.547022552432454"><ele>102.0</ele><time>2026-04-18T13:59:20Z</time></trkpt><trkpt lat="45.46028630378766" lon="10.547177041587682"><ele>102.0</ele><time>2026-04-18T13:59:21Z</time></trkpt><trkpt lat="45.46020506713243" lon="10.547321028706653"><ele>102.25</ele><time>2026-04-18T13:59:22Z</time></trkpt><trkpt lat="45.46012839196842" lon="10.547462299694779"><ele>102.5</ele><time>2026-04-18T13:59:23Z</time></trkpt><trkpt lat="45.46005502870181" lon="10.54759959940553"><ele>102.75</ele><time>2026-04-18T13:59:24Z</time></trkpt><trkpt lat="45.45998519080855" lon="10.547736445613465"><ele>103.0</ele><time>2026-04-18T13:59:25Z</time></trkpt><trkpt lat="45.45992299587235" lon="10.547869103276543"><ele>102.0</ele><time>2026-04-18T13:59:26Z</time></trkpt><trkpt lat="45.45986915668238" lon="10.547999029604439"><ele>101.0</ele><time>2026-04-18T13:59:27Z</time></trkpt><trkpt lat="45.4598213141515" lon="10.548122379614933"><ele>100.0</ele><time>2026-04-18T13:59:28Z</time></trkpt><trkpt lat="45.45977200416545" lon="10.548251615351809"><ele>99.0</ele><time>2026-04-18T13:59:29Z</time></trkpt><trkpt lat="45.45971756973938" lon="10.548402784728236"><ele>98.0</ele><time>2026-04-18T13:59:30Z</time></trkpt><trkpt lat="45.45966860991695" lon="10.548587989609256"><ele>98.0</ele><time>2026-04-18T13:59:31Z</time></trkpt><trkpt lat="45.459602508442906" lon="10.548780880478407"><ele>98.0</ele><time>2026-04-18T13:59:32Z</time></trkpt><trkpt lat="45.4595478422607" lon="10.548990016364408"><ele>98.0</ele><time>2026-04-18T13:59:33Z</time></trkpt><trkpt lat="45.459494595763985" lon="10.549195902602628"><ele>98.0</ele><time>2026-04-18T13:59:34Z</time></trkpt><trkpt lat="45.45944981564233" lon="10.549400539000334"><ele>98.0</ele><time>2026-04-18T13:59:35Z</time></trkpt><trkpt lat="45.45941089079411" lon="10.54960625976892"><ele>98.0</ele><time>2026-04-18T13:59:36Z</time></trkpt><trkpt lat="45.45938093933422" lon="10.549811782690174"><ele>98.0</ele><time>2026-04-18T13:59:37Z</time></trkpt><trkpt lat="45.459354715796444" lon="10.55002109446138"><ele>96.5</ele><time>2026-04-18T13:59:38Z</time></trkpt><trkpt lat="45.45933223323581" lon="10.550229087503194"><ele>95.0</ele><time>2026-04-18T13:59:39Z</time></trkpt><trkpt lat="45.45931606248815" lon="10.550430077102694"><ele>93.5</ele><time>2026-04-18T13:59:40Z</time></trkpt><trkpt lat="45.45930265069987" lon="10.550622558057658"><ele>92.0</ele><time>2026-04-18T13:59:41Z</time></trkpt><trkpt lat="45.459298036335014" lon="10.550807620875881"><ele>91.8</ele><time>2026-04-18T13:59:42Z</time></trkpt><trkpt lat="45.45930165766111" lon="10.550978936260492"><ele>91.6</ele><time>2026-04-18T13:59:43Z</time></trkpt><trkpt lat="45.459316735968365" lon="10.551136784538063"><ele>91.39999999999999</ele><time>2026-04-18T13:59:44Z</time></trkpt><trkpt lat="45.45932432196212" lon="10.551291165813131"><ele>91.19999999999999</ele><time>2026-04-18T13:59:45Z</time></trkpt><trkpt lat="45.45933468113439" lon="10.551443908222973"><ele>91.0</ele><time>2026-04-18T13:59:46Z</time></trkpt><trkpt lat="45.459355699068475" lon="10.55160317134081"><ele>90.75</ele><time>2026-04-18T13:59:47Z</time></trkpt><trkpt lat="45.45936998612086" lon="10.551773519190855"><ele>90.5</ele><time>2026-04-18T13:59:48Z</time></trkpt><trkpt lat="45.45938431553348" lon="10.551947017616408"><ele>90.25</ele><time>2026-04-18T13:59:49Z</time></trkpt><trkpt lat="45.4593975849987" lon="10.552118930424108"><ele>90.0</ele><time>2026-04-18T13:59:50Z</time></trkpt><trkpt lat="45.45941551637946" lon="10.552288071096001"><ele>89.8</ele><time>2026-04-18T13:59:51Z</time></trkpt><trkpt lat="45.459432357622646" lon="10.552449176366347"><ele>89.6</ele><time>2026-04-18T13:59:52Z</time></trkpt><trkpt lat="45.459453323442936" lon="10.55260319501005"><ele>89.4</ele><time>2026-04-18T13:59:53Z</time></trkpt><trkpt lat="45.45945719899397" lon="10.55275820147008"><ele>89.2</ele><time>2026-04-18T13:59:54Z</time></trkpt><trkpt lat="45.45948150822465" lon="10.552906125706215"><ele>89.0</ele><time>2026-04-18T13:59:55Z</time></trkpt><trkpt lat="45.45950577090972" lon="10.553041314053182"><ele>88.6</ele><time>2026-04-18T13:59:56Z</time></trkpt><trkpt lat="45.45952918991153" lon="10.55317180148925"><ele>88.2</ele><time>2026-04-18T13:59:57Z</time></trkpt><trkpt lat="45.459552116046304" lon="10.55329954266027"><ele>87.8</ele><time>2026-04-18T13:59:58Z</time></trkpt><trkpt lat="45.45957414237898" lon="10.553421807859332"><ele>87.39999999999999</ele><time>2026-04-18T13:59:59Z</time></trkpt><trkpt lat="45.45959829804784" lon="10.553553822455381"><ele>87.0</ele><time>2026-04-18T14:00:00Z</time></trkpt><trkpt lat="45.4596181235157" lon="10.55373139866307"><ele>85.75</ele><time>2026-04-18T14:00:01Z</time></trkpt><trkpt lat="45.459714842679595" lon="10.553891278047013"><ele>84.5</ele><time>2026-04-18T14:00:02Z</time></trkpt><trkpt lat="45.45980215901003" lon="10.554063014564319"><ele>83.25</ele><time>2026-04-18T14:00:03Z</time></trkpt><trkpt lat="45.459888366446435" lon="10.554216384024508"><ele>82.0</ele><time>2026-04-18T14:00:04Z</time></trkpt><trkpt lat="45.4598986819046" lon="10.55439666222894"><ele>81.66666666666666</ele><time>2026-04-18T14:00:05Z</time></trkpt><trkpt lat="45.459927066308744" lon="10.554593221022289"><ele>81.33333333333333</ele><time>2026-04-18T14:00:06Z</time></trkpt><trkpt lat="45.45995837285319" lon="10.55481001625533"><ele>81.0</ele><time>2026-04-18T14:00:07Z</time></trkpt><trkpt lat="45.459989689722995" lon="10.555025767626255"><ele>81.0</ele><time>2026-04-18T14:00:08Z</time></trkpt><trkpt lat="45.460019802233624" lon="10.555233342996523"><ele>81.0</ele><time>2026-04-18T14:00:09Z</time></trkpt><trkpt lat="45.46006072011665" lon="10.555422209990418"><ele>81.0</ele><time>2026-04-18T14:00:10Z</time></trkpt><trkpt lat="45.46008645107813" lon="10.55562085812434"><ele>81.0</ele><time>2026-04-18T14:00:11Z</time></trkpt><trkpt lat="45.46010422197897" lon="10.555815782230198"><ele>81.0</ele><time>2026-04-18T14:00:12Z</time></trkpt><trkpt lat="45.46011167833475" lon="10.556009802913394"><ele>81.0</ele><time>2026-04-18T14:00:13Z</time></trkpt><trkpt lat="45.46013953595978" lon="10.556179372374487"><ele>81.0</ele><time>2026-04-18T14:00:14Z</time></trkpt><trkpt lat="45.46016461029109" lon="10.556322555470734"><ele>81.0</ele><time>2026-04-18T14:00:15Z</time></trkpt><trkpt lat="45.4601462844773" lon="10.556516421631457"><ele>81.0</ele><time>2026-04-18T14:00:16Z</time></trkpt><trkpt lat="45.4601230905783" lon="10.556707646249004"><ele>81.0</ele><time>2026-04-18T14:00:17Z</time></trkpt><trkpt lat="45.46009969474347" lon="10.556887537736635"><ele>81.0</ele><time>2026-04-18T14:00:18Z</time></trkpt><trkpt lat="45.4600584502753" lon="10.557065682920728"><ele>81.0</ele><time>2026-04-18T14:00:19Z</time></trkpt><trkpt lat="45.46002163421856" lon="10.557249232098336"><ele>80.5</ele><time>2026-04-18T14:00:20Z</time></trkpt><trkpt lat="45.46000308101823" lon="10.557429417439971"><ele>80.0</ele><time>2026-04-18T14:00:21Z</time></trkpt><trkpt lat="45.459970704255376" lon="10.55761550043911"><ele>79.5</ele><time>2026-04-18T14:00:22Z</time></trkpt><trkpt lat="45.45994390468861" lon="10.557792226563993"><ele>79.0</ele><time>2026-04-18T14:00:23Z</time></trkpt><trkpt lat="45.45990860403219" lon="10.557973207398417"><ele>79.0</ele><time>2026-04-18T14:00:24Z</time></trkpt><trkpt lat="45.45988757920765" lon="10.558118590147181"><ele>79.0</ele><time>2026-04-18T14:00:25Z</time></trkpt><trkpt lat="45.45985730129059" lon="10.55828020616829"><ele>79.0</ele><time>2026-04-18T14:00:26Z</time></trkpt><trkpt lat="45.45982383010689" lon="10.558414878725323"><ele>79.0</ele><time>2026-04-18T14:00:27Z</time></trkpt><trkpt lat="45.45980947463333" lon="10.558558904930214"><ele>79.0</ele><time>2026-04-18T14:00:28Z</time></trkpt><trkpt lat="45.459779183685804" lon="10.558695909795794"><ele>79.2</ele><time>2026-04-18T14:00:29Z</time></trkpt><trkpt lat="45.45975635092787" lon="10.55882832557701"><ele>79.4</ele><time>2026-04-18T14:00:30Z</time></trkpt><trkpt lat="45.45971127658746" lon="10.558956505283192"><ele>79.6</ele><time>2026-04-18T14:00:31Z</time></trkpt><trkpt lat="45.45964583446576" lon="10.559049354264497"><ele>79.8</ele><time>2026-04-18T14:00:32Z</time></trkpt><trkpt lat="45.459614323172616" lon="10.559163083433777"><ele>80.0</ele><time>2026-04-18T14:00:33Z</time></trkpt><trkpt lat="45.459584193530496" lon="10.559341467202344"><ele>80.0</ele><time>2026-04-18T14:00:34Z</time></trkpt><trkpt lat="45.45958998995495" lon="10.559521047606879"><ele>80.0</ele><time>2026-04-18T14:00:35Z</time></trkpt><trkpt lat="45.459597641318354" lon="10.559701746870125"><ele>80.0</ele><time>2026-04-18T14:00:36Z</time></trkpt><trkpt lat="45.45959349650859" lon="10.559887332688982"><ele>80.0</ele><time>2026-04-18T14:00:37Z</time></trkpt><trkpt lat="45.45955316962678" lon="10.560074042049765"><ele>80.5</ele><time>2026-04-18T14:00:38Z</time></trkpt><trkpt lat="45.45951325512933" lon="10.560263368730451"><ele>81.0</ele><time>2026-04-18T14:00:39Z</time></trkpt><trkpt lat="45.45947209655014" lon="10.560448439583057"><ele>81.5</ele><time>2026-04-18T14:00:40Z</time></trkpt><trkpt lat="45.45942080557576" lon="10.560642629519775"><ele>82.0</ele><time>2026-04-18T14:00:41Z</time></trkpt><trkpt lat="45.45937038279235" lon="10.56083919978622"><ele>82.25</ele><time>2026-04-18T14:00:42Z</time></trkpt><trkpt lat="45.45931981089678" lon="10.561013278932178"><ele>82.5</ele><time>2026-04-18T14:00:43Z</time></trkpt><trkpt lat="45.45926919535652" lon="10.561182926020587"><ele>82.75</ele><time>2026-04-18T14:00:44Z</time></trkpt><trkpt lat="45.459217915382524" lon="10.561349444169766"><ele>83.0</ele><time>2026-04-18T14:00:45Z</time></trkpt><trkpt lat="45.45915908728108" lon="10.561535596300159"><ele>83.0</ele><time>2026-04-18T14:00:46Z</time></trkpt><trkpt lat="45.45913227588105" lon="10.561729156564526"><ele>83.0</ele><time>2026-04-18T14:00:47Z</time></trkpt><trkpt lat="45.45908218742239" lon="10.561908318597267"><ele>83.0</ele><time>2026-04-18T14:00:48Z</time></trkpt><trkpt lat="45.45901121970789" lon="10.562065686998398"><ele>83.0</ele><time>2026-04-18T14:00:49Z</time></trkpt><trkpt lat="45.45894169574174" lon="10.562231010142312"><ele>83.75</ele><time>2026-04-18T14:00:50Z</time></trkpt><trkpt lat="45.45885094353296" lon="10.562351834739172"><ele>84.5</ele><time>2026-04-18T14:00:51Z</time></trkpt><trkpt lat="45.45878938308863" lon="10.562490870432663"><ele>85.25</ele><time>2026-04-18T14:00:52Z</time></trkpt><trkpt lat="45.45872715682769" lon="10.562626899468004"><ele>86.0</ele><time>2026-04-18T14:00:53Z</time></trkpt><trkpt lat="45.45866517882323" lon="10.562753065126"><ele>86.25</ele><time>2026-04-18T14:00:54Z</time></trkpt><trkpt lat="45.45860069744849" lon="10.562885602021332"><ele>86.5</ele><time>2026-04-18T14:00:55Z</time></trkpt><trkpt lat="45.4585348281135" lon="10.563022971180526"><ele>86.75</ele><time>2026-04-18T14:00:56Z</time></trkpt><trkpt lat="45.458460373489494" lon="10.56317824460706"><ele>87.0</ele><time>2026-04-18T14:00:57Z</time></trkpt><trkpt lat="45.458382114917896" lon="10.56334145204586"><ele>87.0</ele><time>2026-04-18T14:00:58Z</time></trkpt><trkpt lat="45.458300941918964" lon="10.563511168370644"><ele>87.0</ele><time>2026-04-18T14:00:59Z</time></trkpt><trkpt lat="45.458221146439584" lon="10.563677710691984"><ele>87.0</ele><time>2026-04-18T14:01:00Z</time></trkpt><trkpt lat="45.45814463283984" lon="10.563834888779287"><ele>87.0</ele><time>2026-04-18T14:01:01Z</time></trkpt><trkpt lat="45.45807066865249" lon="10.563981072554844"><ele>87.0</ele><time>2026-04-18T14:01:02Z</time></trkpt><trkpt lat="45.45799119897536" lon="10.564133377087384"><ele>87.0</ele><time>2026-04-18T14:01:03Z</time></trkpt><trkpt lat="45.45791982745714" lon="10.564269453765673"><ele>87.0</ele><time>2026-04-18T14:01:04Z</time></trkpt><trkpt lat="45.457839090875304" lon="10.5644233857074"><ele>87.0</ele><time>2026-04-18T14:01:05Z</time></trkpt><trkpt lat="45.4577691668029" lon="10.564595181063156"><ele>87.25</ele><time>2026-04-18T14:01:06Z</time></trkpt><trkpt lat="45.457681007390875" lon="10.564740537230843"><ele>87.5</ele><time>2026-04-18T14:01:07Z</time></trkpt><trkpt lat="45.45759012014462" lon="10.564882264040232"><ele>87.75</ele><time>2026-04-18T14:01:08Z</time></trkpt><trkpt lat="45.45750906970694" lon="10.56504158942966"><ele>88.0</ele><time>2026-04-18T14:01:09Z</time></trkpt><trkpt lat="45.45741205059662" lon="10.565161433707985"><ele>88.0</ele><time>2026-04-18T14:01:10Z</time></trkpt><trkpt lat="45.457331541514364" lon="10.565300678903977"><ele>88.0</ele><time>2026-04-18T14:01:11Z</time></trkpt><trkpt lat="45.45722613740368" lon="10.565415717596185"><ele>88.0</ele><time>2026-04-18T14:01:12Z</time></trkpt><trkpt lat="45.457136557368294" lon="10.56553808616502"><ele>88.0</ele><time>2026-04-18T14:01:13Z</time></trkpt><trkpt lat="45.45704838137566" lon="10.565658536719006"><ele>88.0</ele><time>2026-04-18T14:01:14Z</time></trkpt><trkpt lat="45.4569656975958" lon="10.565801626477537"><ele>88.0</ele><time>2026-04-18T14:01:15Z</time></trkpt><trkpt lat="45.45688609179393" lon="10.565901676305698"><ele>88.0</ele><time>2026-04-18T14:01:16Z</time></trkpt><trkpt lat="45.45677992737507" lon="10.566026414836784"><ele>88.0</ele><time>2026-04-18T14:01:17Z</time></trkpt><trkpt lat="45.456709316180046" lon="10.56615423301169"><ele>88.0</ele><time>2026-04-18T14:01:18Z</time></trkpt><trkpt lat="45.45661707785885" lon="10.566250432915991"><ele>88.0</ele><time>2026-04-18T14:01:19Z</time></trkpt><trkpt lat="45.45655372435591" lon="10.566365230302418"><ele>88.0</ele><time>2026-04-18T14:01:20Z</time></trkpt><trkpt lat="45.45649256463205" lon="10.566443038152155"><ele>88.0</ele><time>2026-04-18T14:01:21Z</time></trkpt><trkpt lat="45.456425395534595" lon="10.56653358964591"><ele>88.0</ele><time>2026-04-18T14:01:22Z</time></trkpt><trkpt lat="45.45637656971558" lon="10.566608692406296"><ele>88.0</ele><time>2026-04-18T14:01:23Z</time></trkpt><trkpt lat="45.45631176556166" lon="10.566662794632203"><ele>88.0</ele><time>2026-04-18T14:01:25Z</time></trkpt><trkpt lat="45.456212646639095" lon="10.566683550000011"><ele>88.0</ele><time>2026-04-18T14:01:26Z</time></trkpt><trkpt lat="45.45611928777885" lon="10.566747136405496"><ele>88.0</ele><time>2026-04-18T14:01:27Z</time></trkpt><trkpt lat="45.45606446929667" lon="10.566864540667908"><ele>88.0</ele><time>2026-04-18T14:01:28Z</time></trkpt><trkpt lat="45.45606365166741" lon="10.567008650098462"><ele>88.0</ele><time>2026-04-18T14:01:29Z</time></trkpt><trkpt lat="45.45604049663683" lon="10.567139696198895"><ele>88.0</ele><time>2026-04-18T14:01:30Z</time></trkpt><trkpt lat="45.45598847531073" lon="10.567249824366613"><ele>88.0</ele><time>2026-04-18T14:01:31Z</time></trkpt><trkpt lat="45.45592701069934" lon="10.567366404884314"><ele>88.0</ele><time>2026-04-18T14:01:32Z</time></trkpt><trkpt lat="45.455879653650314" lon="10.56750733858878"><ele>88.0</ele><time>2026-04-18T14:01:33Z</time></trkpt><trkpt lat="45.45584848975019" lon="10.567634920032004"><ele>88.0</ele><time>2026-04-18T14:01:34Z</time></trkpt><trkpt lat="45.4558229708231" lon="10.56776322496093"><ele>88.0</ele><time>2026-04-18T14:01:35Z</time></trkpt><trkpt lat="45.45580908097038" lon="10.567888209415749"><ele>88.0</ele><time>2026-04-18T14:01:36Z</time></trkpt><trkpt lat="45.45579843221113" lon="10.568005568009582"><ele>88.0</ele><time>2026-04-18T14:01:37Z</time></trkpt><trkpt lat="45.45580748756464" lon="10.56817322079852"><ele>88.0</ele><time>2026-04-18T14:01:38Z</time></trkpt><trkpt lat="45.455782611118515" lon="10.568413522954112"><ele>87.33333333333333</ele><time>2026-04-18T14:01:39Z</time></trkpt><trkpt lat="45.455759342151964" lon="10.568662623966551"><ele>86.66666666666667</ele><time>2026-04-18T14:01:40Z</time></trkpt><trkpt lat="45.45578377148276" lon="10.568881080781408"><ele>86.0</ele><time>2026-04-18T14:01:41Z</time></trkpt><trkpt lat="45.4557950024688" lon="10.569080687234196"><ele>85.75</ele><time>2026-04-18T14:01:42Z</time></trkpt><trkpt lat="45.45580604487563" lon="10.569273013907821"><ele>85.5</ele><time>2026-04-18T14:01:43Z</time></trkpt><trkpt lat="45.4558112697745" lon="10.569461308858086"><ele>85.25</ele><time>2026-04-18T14:01:44Z</time></trkpt><trkpt lat="45.45581660541207" lon="10.56963248548875"><ele>85.0</ele><time>2026-04-18T14:01:45Z</time></trkpt><trkpt lat="45.455836193811095" lon="10.569796560546"><ele>85.0</ele><time>2026-04-18T14:01:46Z</time></trkpt><trkpt lat="45.4558453867626" lon="10.569965474166024"><ele>85.0</ele><time>2026-04-18T14:01:47Z</time></trkpt><trkpt lat="45.45590897927939" lon="10.57013049780063"><ele>85.0</ele><time>2026-04-18T14:01:48Z</time></trkpt><trkpt lat="45.45592124502234" lon="10.570288876507481"><ele>85.0</ele><time>2026-04-18T14:01:49Z</time></trkpt><trkpt lat="45.45591349546534" lon="10.570450024607732"><ele>84.6</ele><time>2026-04-18T14:01:50Z</time></trkpt><trkpt lat="45.45592136705407" lon="10.5706174674407"><ele>84.2</ele><time>2026-04-18T14:01:51Z</time></trkpt><trkpt lat="45.45593980068843" lon="10.57076255949897"><ele>83.80000000000001</ele><time>2026-04-18T14:01:52Z</time></trkpt><trkpt lat="45.45592985513033" lon="10.570895228216946"><ele>83.4</ele><time>2026-04-18T14:01:53Z</time></trkpt><trkpt lat="45.45592922220903" lon="10.571003701403036"><ele>83.0</ele><time>2026-04-18T14:01:54Z</time></trkpt><trkpt lat="45.45592357092618" lon="10.571159271490313"><ele>83.0</ele><time>2026-04-18T14:01:56Z</time></trkpt><trkpt lat="45.45585330873422" lon="10.571186704859114"><ele>83.0</ele><time>2026-04-18T14:01:57Z</time></trkpt><trkpt lat="45.45587837454734" lon="10.571370940588942"><ele>83.0</ele><time>2026-04-18T14:01:59Z</time></trkpt><trkpt lat="45.45592367809067" lon="10.571484038672507"><ele>83.0</ele><time>2026-04-18T14:02:00Z</time></trkpt><trkpt lat="45.455961579681045" lon="10.571615791564234"><ele>83.0</ele><time>2026-04-18T14:02:01Z</time></trkpt><trkpt lat="45.45597543168121" lon="10.571765959674885"><ele>82.75</ele><time>2026-04-18T14:02:02Z</time></trkpt><trkpt lat="45.4559974449041" lon="10.571957212942822"><ele>82.5</ele><time>2026-04-18T14:02:03Z</time></trkpt><trkpt lat="45.456007455320275" lon="10.572127412715172"><ele>82.25</ele><time>2026-04-18T14:02:04Z</time></trkpt><trkpt lat="45.456019317148396" lon="10.572292046872459"><ele>82.0</ele><time>2026-04-18T14:02:05Z</time></trkpt><trkpt lat="45.45603288737457" lon="10.572452919851441"><ele>82.0</ele><time>2026-04-18T14:02:06Z</time></trkpt><trkpt lat="45.45606710868082" lon="10.572611568748075"><ele>82.0</ele><time>2026-04-18T14:02:07Z</time></trkpt><trkpt lat="45.45609682519315" lon="10.572746625380677"><ele>82.0</ele><time>2026-04-18T14:02:08Z</time></trkpt><trkpt lat="45.456125968359494" lon="10.57288342618084"><ele>82.0</ele><time>2026-04-18T14:02:09Z</time></trkpt><trkpt lat="45.456179263151704" lon="10.57303513819502"><ele>82.0</ele><time>2026-04-18T14:02:10Z</time></trkpt><trkpt lat="45.45622746131253" lon="10.573201831895915"><ele>82.0</ele><time>2026-04-18T14:02:11Z</time></trkpt><trkpt lat="45.456274630959" lon="10.573404256161837"><ele>82.0</ele><time>2026-04-18T14:02:12Z</time></trkpt><trkpt lat="45.45633122863536" lon="10.57358028087754"><ele>82.0</ele><time>2026-04-18T14:02:13Z</time></trkpt><trkpt lat="45.45639663147704" lon="10.573753345325747"><ele>82.0</ele><time>2026-04-18T14:02:14Z</time></trkpt><trkpt lat="45.45645740808258" lon="10.573924713397478"><ele>81.25</ele><time>2026-04-18T14:02:15Z</time></trkpt><trkpt lat="45.456510302667844" lon="10.57407926144055"><ele>80.5</ele><time>2026-04-18T14:02:16Z</time></trkpt><trkpt lat="45.45656258913452" lon="10.574226663993965"><ele>79.75</ele><time>2026-04-18T14:02:17Z</time></trkpt><trkpt lat="45.45661159862618" lon="10.574349763913458"><ele>79.0</ele><time>2026-04-18T14:02:18Z</time></trkpt><trkpt lat="45.456667868609834" lon="10.574509724485514"><ele>78.75</ele><time>2026-04-18T14:02:19Z</time></trkpt><trkpt lat="45.45671731463423" lon="10.574660523316915"><ele>78.5</ele><time>2026-04-18T14:02:20Z</time></trkpt><trkpt lat="45.45677517465191" lon="10.574821567149113"><ele>78.25</ele><time>2026-04-18T14:02:21Z</time></trkpt><trkpt lat="45.45681728872193" lon="10.574993066905318"><ele>78.0</ele><time>2026-04-18T14:02:22Z</time></trkpt><trkpt lat="45.456866650066864" lon="10.57516563768705"><ele>78.0</ele><time>2026-04-18T14:02:23Z</time></trkpt><trkpt lat="45.45693472637676" lon="10.575306657559585"><ele>78.0</ele><time>2026-04-18T14:02:24Z</time></trkpt><trkpt lat="45.45698769730299" lon="10.575456163735693"><ele>78.0</ele><time>2026-04-18T14:02:25Z</time></trkpt><trkpt lat="45.45703973671452" lon="10.575610020955919"><ele>78.0</ele><time>2026-04-18T14:02:26Z</time></trkpt><trkpt lat="45.45707488628732" lon="10.575750677712373"><ele>77.75</ele><time>2026-04-18T14:02:27Z</time></trkpt><trkpt lat="45.45710842549452" lon="10.575900598525367"><ele>77.5</ele><time>2026-04-18T14:02:28Z</time></trkpt><trkpt lat="45.45713409629367" lon="10.576065505791714"><ele>77.25</ele><time>2026-04-18T14:02:29Z</time></trkpt><trkpt lat="45.457147765028054" lon="10.576229880160698"><ele>77.0</ele><time>2026-04-18T14:02:30Z</time></trkpt><trkpt lat="45.457166809770904" lon="10.576390311847303"><ele>77.0</ele><time>2026-04-18T14:02:31Z</time></trkpt><trkpt lat="45.45714335168504" lon="10.57655894056425"><ele>77.0</ele><time>2026-04-18T14:02:32Z</time></trkpt><trkpt lat="45.45710028533183" lon="10.57671951473157"><ele>77.0</ele><time>2026-04-18T14:02:33Z</time></trkpt><trkpt lat="45.45704451821823" lon="10.576845932362522"><ele>77.0</ele><time>2026-04-18T14:02:34Z</time></trkpt><trkpt lat="45.457074714497445" lon="10.576977826591976"><ele>77.0</ele><time>2026-04-18T14:02:35Z</time></trkpt><trkpt lat="45.45710280922463" lon="10.577092825218843"><ele>76.5</ele><time>2026-04-18T14:02:36Z</time></trkpt><trkpt lat="45.4571838733805" lon="10.57722548993925"><ele>76.0</ele><time>2026-04-18T14:02:37Z</time></trkpt><trkpt lat="45.457175680250906" lon="10.577374932470857"><ele>75.5</ele><time>2026-04-18T14:02:38Z</time></trkpt><trkpt lat="45.45716402993633" lon="10.577577142219365"><ele>75.0</ele><time>2026-04-18T14:02:39Z</time></trkpt><trkpt lat="45.45714940901766" lon="10.577762921155871"><ele>75.0</ele><time>2026-04-18T14:02:40Z</time></trkpt><trkpt lat="45.45713194674544" lon="10.577955695894198"><ele>75.0</ele><time>2026-04-18T14:02:41Z</time></trkpt><trkpt lat="45.457113338015475" lon="10.578159146649286"><ele>75.0</ele><time>2026-04-18T14:02:42Z</time></trkpt><trkpt lat="45.45709286908916" lon="10.57837946424719"><ele>75.0</ele><time>2026-04-18T14:02:43Z</time></trkpt><trkpt lat="45.457085216728245" lon="10.578603373942553"><ele>75.5</ele><time>2026-04-18T14:02:44Z</time></trkpt><trkpt lat="45.45706264904844" lon="10.578807140797393"><ele>76.0</ele><time>2026-04-18T14:02:45Z</time></trkpt><trkpt lat="45.45702389292507" lon="10.57899844405058"><ele>76.5</ele><time>2026-04-18T14:02:46Z</time></trkpt><trkpt lat="45.45699900603286" lon="10.579198080880868"><ele>77.0</ele><time>2026-04-18T14:02:47Z</time></trkpt><trkpt lat="45.45697227244328" lon="10.579383412796027"><ele>76.75</ele><time>2026-04-18T14:02:48Z</time></trkpt><trkpt lat="45.45695727436769" lon="10.579569431238953"><ele>76.5</ele><time>2026-04-18T14:02:49Z</time></trkpt><trkpt lat="45.45695925769398" lon="10.579770218687614"><ele>76.25</ele><time>2026-04-18T14:02:50Z</time></trkpt><trkpt lat="45.45694707904023" lon="10.579951602252537"><ele>76.0</ele><time>2026-04-18T14:02:51Z</time></trkpt><trkpt lat="45.4569267111437" lon="10.580103179057998"><ele>76.0</ele><time>2026-04-18T14:02:52Z</time></trkpt><trkpt lat="45.45693022687289" lon="10.58026774476109"><ele>76.0</ele><time>2026-04-18T14:02:53Z</time></trkpt><trkpt lat="45.456928281004686" lon="10.580414520818666"><ele>76.0</ele><time>2026-04-18T14:02:54Z</time></trkpt><trkpt lat="45.45691502545803" lon="10.58053389931045"><ele>76.0</ele><time>2026-04-18T14:02:55Z</time></trkpt><trkpt lat="45.45689192227755" lon="10.580636583496537"><ele>76.0</ele><time>2026-04-18T14:02:56Z</time></trkpt><trkpt lat="45.456889331425614" lon="10.58073511064883"><ele>76.0</ele><time>2026-04-18T14:02:57Z</time></trkpt><trkpt lat="45.45685697982179" lon="10.580826058471988"><ele>75.8</ele><time>2026-04-18T14:02:58Z</time></trkpt><trkpt lat="45.45684783740819" lon="10.580971619648606"><ele>75.6</ele><time>2026-04-18T14:03:00Z</time></trkpt><trkpt lat="45.45697535936913" lon="10.58100154228069"><ele>75.4</ele><time>2026-04-18T14:03:02Z</time></trkpt><trkpt lat="45.457074354849944" lon="10.580955314629355"><ele>75.2</ele><time>2026-04-18T14:03:03Z</time></trkpt><trkpt lat="45.45714781977579" lon="10.580872013494888"><ele>75.0</ele><time>2026-04-18T14:03:04Z</time></trkpt><trkpt lat="45.45722172128154" lon="10.580780443149115"><ele>75.0</ele><time>2026-04-18T14:03:05Z</time></trkpt><trkpt lat="45.45730816425544" lon="10.580726893674495"><ele>75.0</ele><time>2026-04-18T14:03:06Z</time></trkpt><trkpt lat="45.45742091887223" lon="10.580709760093292"><ele>75.0</ele><time>2026-04-18T14:03:07Z</time></trkpt><trkpt lat="45.457557144728035" lon="10.580674049054036"><ele>75.0</ele><time>2026-04-18T14:03:08Z</time></trkpt><trkpt lat="45.45771089077401" lon="10.580617415027419"><ele>75.0</ele><time>2026-04-18T14:03:09Z</time></trkpt><trkpt lat="45.457866901492814" lon="10.580592484851032"><ele>75.0</ele><time>2026-04-18T14:03:10Z</time></trkpt><trkpt lat="45.45803202223359" lon="10.58055413209815"><ele>75.0</ele><time>2026-04-18T14:03:11Z</time></trkpt><trkpt lat="45.458185375481634" lon="10.580522254455046"><ele>75.0</ele><time>2026-04-18T14:03:12Z</time></trkpt><trkpt lat="45.458328248465214" lon="10.580558591992315"><ele>75.0</ele><time>2026-04-18T14:03:13Z</time></trkpt><trkpt lat="45.458473601642375" lon="10.580585889558352"><ele>75.0</ele><time>2026-04-18T14:03:14Z</time></trkpt><trkpt lat="45.45860486270139" lon="10.580667514889319"><ele>75.0</ele><time>2026-04-18T14:03:15Z</time></trkpt><trkpt lat="45.45873777601552" lon="10.580721391849565"><ele>74.5</ele><time>2026-04-18T14:03:16Z</time></trkpt><trkpt lat="45.45887053887859" lon="10.580779581699927"><ele>74.0</ele><time>2026-04-18T14:03:17Z</time></trkpt><trkpt lat="45.459009694878105" lon="10.58082554537223"><ele>73.5</ele><time>2026-04-18T14:03:18Z</time></trkpt><trkpt lat="45.459149334167854" lon="10.580901165794215"><ele>73.0</ele><time>2026-04-18T14:03:19Z</time></trkpt><trkpt lat="45.459293231302766" lon="10.580942383340012"><ele>73.0</ele><time>2026-04-18T14:03:20Z</time></trkpt><trkpt lat="45.45942362363041" lon="10.5809974709251"><ele>73.0</ele><time>2026-04-18T14:03:21Z</time></trkpt><trkpt lat="45.45953942602299" lon="10.5810218357465"><ele>73.0</ele><time>2026-04-18T14:03:22Z</time></trkpt><trkpt lat="45.45967868942445" lon="10.581103165242741"><ele>73.0</ele><time>2026-04-18T14:03:23Z</time></trkpt><trkpt lat="45.45979141996907" lon="10.58115197251477"><ele>72.0</ele><time>2026-04-18T14:03:24Z</time></trkpt><trkpt lat="45.45988110304375" lon="10.581174089542309"><ele>71.0</ele><time>2026-04-18T14:03:25Z</time></trkpt><trkpt lat="45.459961351923155" lon="10.581198091908488"><ele>70.0</ele><time>2026-04-18T14:03:26Z</time></trkpt><trkpt lat="45.460032233013216" lon="10.58125395097254"><ele>69.0</ele><time>2026-04-18T14:03:27Z</time></trkpt><trkpt lat="45.46010157876901" lon="10.581344308137313"><ele>68.0</ele><time>2026-04-18T14:03:28Z</time></trkpt><trkpt lat="45.4601616476067" lon="10.581479563094769"><ele>68.0</ele><time>2026-04-18T14:03:29Z</time></trkpt><trkpt lat="45.46021378299389" lon="10.581641999053518"><ele>68.0</ele><time>2026-04-18T14:03:30Z</time></trkpt><trkpt lat="45.4602388882907" lon="10.581810821471867"><ele>68.0</ele><time>2026-04-18T14:03:31Z</time></trkpt><trkpt lat="45.460255369065656" lon="10.581993949974576"><ele>68.0</ele><time>2026-04-18T14:03:32Z</time></trkpt><trkpt lat="45.4602558285797" lon="10.582188888577376"><ele>68.5</ele><time>2026-04-18T14:03:33Z</time></trkpt><trkpt lat="45.46029230653249" lon="10.582372171072947"><ele>69.0</ele><time>2026-04-18T14:03:34Z</time></trkpt><trkpt lat="45.46031585476357" lon="10.582541831830481"><ele>69.5</ele><time>2026-04-18T14:03:35Z</time></trkpt><trkpt lat="45.46032801948764" lon="10.58270904160305"><ele>70.0</ele><time>2026-04-18T14:03:36Z</time></trkpt><trkpt lat="45.46038270349148" lon="10.582846923184984"><ele>69.75</ele><time>2026-04-18T14:03:37Z</time></trkpt><trkpt lat="45.46042356222479" lon="10.583008534237324"><ele>69.5</ele><time>2026-04-18T14:03:38Z</time></trkpt><trkpt lat="45.460442254692786" lon="10.583176307411472"><ele>69.25</ele><time>2026-04-18T14:03:39Z</time></trkpt><trkpt lat="45.46044332802198" lon="10.5833276287151"><ele>69.0</ele><time>2026-04-18T14:03:40Z</time></trkpt><trkpt lat="45.460399296496135" lon="10.583515868720458"><ele>68.75</ele><time>2026-04-18T14:03:41Z</time></trkpt><trkpt lat="45.460416242540845" lon="10.583682899899479"><ele>68.5</ele><time>2026-04-18T14:03:42Z</time></trkpt><trkpt lat="45.46044513779502" lon="10.58383452416263"><ele>68.25</ele><time>2026-04-18T14:03:43Z</time></trkpt><trkpt lat="45.46046306028426" lon="10.58400672546128"><ele>68.0</ele><time>2026-04-18T14:03:44Z</time></trkpt><trkpt lat="45.460466180829876" lon="10.58417759205032"><ele>68.0</ele><time>2026-04-18T14:03:45Z</time></trkpt><trkpt lat="45.46047679912512" lon="10.584321900573757"><ele>68.0</ele><time>2026-04-18T14:03:46Z</time></trkpt><trkpt lat="45.46048439621704" lon="10.584445102086132"><ele>68.0</ele><time>2026-04-18T14:03:47Z</time></trkpt><trkpt lat="45.46048135639258" lon="10.584534894723875"><ele>68.0</ele><time>2026-04-18T14:03:48Z</time></trkpt><trkpt lat="45.4604461579633" lon="10.584672255165792"><ele>68.0</ele><time>2026-04-18T14:03:50Z</time></trkpt><trkpt lat="45.460416631880385" lon="10.584809938249252"><ele>68.0</ele><time>2026-04-18T14:03:52Z</time></trkpt><trkpt lat="45.46041056231859" lon="10.584931535707398"><ele>68.0</ele><time>2026-04-18T14:03:54Z</time></trkpt><trkpt lat="45.46045476508923" lon="10.585043025192773"><ele>68.0</ele><time>2026-04-18T14:03:56Z</time></trkpt><trkpt lat="45.46053000399935" lon="10.585078362121697"><ele>68.0</ele><time>2026-04-18T14:03:57Z</time></trkpt><trkpt lat="45.460622397961416" lon="10.585092445989842"><ele>68.0</ele><time>2026-04-18T14:03:58Z</time></trkpt><trkpt lat="45.4606984029785" lon="10.585140902181054"><ele>68.0</ele><time>2026-04-18T14:03:59Z</time></trkpt><trkpt lat="45.460757950836765" lon="10.58524017149946"><ele>67.8</ele><time>2026-04-18T14:04:00Z</time></trkpt><trkpt lat="45.46082412511558" lon="10.585348391182858"><ele>67.6</ele><time>2026-04-18T14:04:01Z</time></trkpt><trkpt lat="45.46089038221183" lon="10.585469651506164"><ele>67.4</ele><time>2026-04-18T14:04:02Z</time></trkpt><trkpt lat="45.460965078460994" lon="10.585585875985503"><ele>67.2</ele><time>2026-04-18T14:04:03Z</time></trkpt><trkpt lat="45.46102482696703" lon="10.585729971267254"><ele>67.0</ele><time>2026-04-18T14:04:04Z</time></trkpt><trkpt lat="45.46110104234147" lon="10.585853917195463"><ele>67.0</ele><time>2026-04-18T14:04:05Z</time></trkpt><trkpt lat="45.46119170857102" lon="10.586010023274275"><ele>67.0</ele><time>2026-04-18T14:04:06Z</time></trkpt><trkpt lat="45.461300163295824" lon="10.58616177891335"><ele>67.0</ele><time>2026-04-18T14:04:07Z</time></trkpt><trkpt lat="45.46139429290241" lon="10.586342311206794"><ele>66.66666666666666</ele><time>2026-04-18T14:04:08Z</time></trkpt><trkpt lat="45.46150792031723" lon="10.58651370945828"><ele>66.33333333333333</ele><time>2026-04-18T14:04:09Z</time></trkpt><trkpt lat="45.461598507772464" lon="10.586706768111151"><ele>66.0</ele><time>2026-04-18T14:04:10Z</time></trkpt><trkpt lat="45.46167405909638" lon="10.586844435604114"><ele>66.0</ele><time>2026-04-18T14:04:11Z</time></trkpt><trkpt lat="45.46175681403987" lon="10.58698136082658"><ele>66.0</ele><time>2026-04-18T14:04:12Z</time></trkpt><trkpt lat="45.46184097936343" lon="10.587147916281113"><ele>66.0</ele><time>2026-04-18T14:04:13Z</time></trkpt><trkpt lat="45.46193195530467" lon="10.587315405291593"><ele>66.0</ele><time>2026-04-18T14:04:14Z</time></trkpt><trkpt lat="45.46203615608316" lon="10.587507238804934"><ele>66.0</ele><time>2026-04-18T14:04:15Z</time></trkpt><trkpt lat="45.46214997054258" lon="10.587715392532319"><ele>66.0</ele><time>2026-04-18T14:04:16Z</time></trkpt><trkpt lat="45.46225789380152" lon="10.587914272227684"><ele>66.0</ele><time>2026-04-18T14:04:17Z</time></trkpt><trkpt lat="45.46236035773211" lon="10.58808547985226"><ele>66.0</ele><time>2026-04-18T14:04:18Z</time></trkpt><trkpt lat="45.462442053681485" lon="10.58825995161521"><ele>66.0</ele><time>2026-04-18T14:04:19Z</time></trkpt><trkpt lat="45.462522612541356" lon="10.588430769025932"><ele>66.0</ele><time>2026-04-18T14:04:20Z</time></trkpt><trkpt lat="45.46261274994537" lon="10.588578584611875"><ele>66.0</ele><time>2026-04-18T14:04:21Z</time></trkpt><trkpt lat="45.46267376415507" lon="10.588764956715323"><ele>65.5</ele><time>2026-04-18T14:04:22Z</time></trkpt><trkpt lat="45.46275060207632" lon="10.588952835758434"><ele>65.0</ele><time>2026-04-18T14:04:23Z</time></trkpt><trkpt lat="45.46282031508283" lon="10.589123293682917"><ele>64.5</ele><time>2026-04-18T14:04:24Z</time></trkpt><trkpt lat="45.462889368790584" lon="10.589294212692362"><ele>64.0</ele><time>2026-04-18T14:04:25Z</time></trkpt><trkpt lat="45.46297169850821" lon="10.589459834474358"><ele>64.5</ele><time>2026-04-18T14:04:26Z</time></trkpt><trkpt lat="45.46303006921824" lon="10.589638268876689"><ele>65.0</ele><time>2026-04-18T14:04:27Z</time></trkpt><trkpt lat="45.463060091488515" lon="10.589834493951162"><ele>65.5</ele><time>2026-04-18T14:04:28Z</time></trkpt><trkpt lat="45.46310904089145" lon="10.590024876584243"><ele>66.0</ele><time>2026-04-18T14:04:29Z</time></trkpt><trkpt lat="45.46312032030337" lon="10.59023843176034"><ele>66.0</ele><time>2026-04-18T14:04:30Z</time></trkpt><trkpt lat="45.46311336604254" lon="10.590434369225067"><ele>66.0</ele><time>2026-04-18T14:04:31Z</time></trkpt><trkpt lat="45.46311599868425" lon="10.590615480203919"><ele>66.0</ele><time>2026-04-18T14:04:32Z</time></trkpt><trkpt lat="45.463114204209674" lon="10.59080150022481"><ele>66.0</ele><time>2026-04-18T14:04:33Z</time></trkpt><trkpt lat="45.46311364741024" lon="10.590998186000146"><ele>66.5</ele><time>2026-04-18T14:04:34Z</time></trkpt><trkpt lat="45.463118782552364" lon="10.591194134579117"><ele>67.0</ele><time>2026-04-18T14:04:35Z</time></trkpt><trkpt lat="45.46312061035638" lon="10.591374034282481"><ele>67.5</ele><time>2026-04-18T14:04:36Z</time></trkpt><trkpt lat="45.463102979809705" lon="10.591520219912642"><ele>68.0</ele><time>2026-04-18T14:04:37Z</time></trkpt><trkpt lat="45.46310005261821" lon="10.591691132099383"><ele>68.0</ele><time>2026-04-18T14:04:38Z</time></trkpt><trkpt lat="45.4630937501882" lon="10.591860646324072"><ele>68.0</ele><time>2026-04-18T14:04:39Z</time></trkpt><trkpt lat="45.463100411532174" lon="10.59203044224499"><ele>68.0</ele><time>2026-04-18T14:04:40Z</time></trkpt><trkpt lat="45.46309190380791" lon="10.592189792264772"><ele>68.0</ele><time>2026-04-18T14:04:41Z</time></trkpt><trkpt lat="45.46310262965752" lon="10.592324099939539"><ele>68.0</ele><time>2026-04-18T14:04:42Z</time></trkpt><trkpt lat="45.463125527901276" lon="10.592436575503651"><ele>68.4</ele><time>2026-04-18T14:04:43Z</time></trkpt><trkpt lat="45.463104374185676" lon="10.59254425684541"><ele>68.8</ele><time>2026-04-18T14:04:44Z</time></trkpt><trkpt lat="45.463112303606145" lon="10.592668831385806"><ele>69.2</ele><time>2026-04-18T14:04:45Z</time></trkpt><trkpt lat="45.46309514985421" lon="10.59277052857176"><ele>69.6</ele><time>2026-04-18T14:04:46Z</time></trkpt><trkpt lat="45.46301359556592" lon="10.592815659564828"><ele>70.0</ele><time>2026-04-18T14:04:47Z</time></trkpt><trkpt lat="45.462995062752114" lon="10.593012017197694"><ele>70.0</ele><time>2026-04-18T14:04:48Z</time></trkpt><trkpt lat="45.46297500885306" lon="10.593192011606293"><ele>70.0</ele><time>2026-04-18T14:04:49Z</time></trkpt><trkpt lat="45.462989104515124" lon="10.593362779070171"><ele>70.0</ele><time>2026-04-18T14:04:50Z</time></trkpt><trkpt lat="45.46299727093063" lon="10.593502529093076"><ele>70.0</ele><time>2026-04-18T14:04:51Z</time></trkpt><trkpt lat="45.46302299802116" lon="10.59364757435181"><ele>70.0</ele><time>2026-04-18T14:04:52Z</time></trkpt><trkpt lat="45.463058017704995" lon="10.593799608836772"><ele>70.0</ele><time>2026-04-18T14:04:53Z</time></trkpt><trkpt lat="45.46310393835206" lon="10.593942485457841"><ele>70.0</ele><time>2026-04-18T14:04:54Z</time></trkpt><trkpt lat="45.46312174416625" lon="10.594078928430722"><ele>70.0</ele><time>2026-04-18T14:04:55Z</time></trkpt><trkpt lat="45.46315663173027" lon="10.594224665746198"><ele>70.0</ele><time>2026-04-18T14:04:56Z</time></trkpt><trkpt lat="45.46316737613636" lon="10.59438459014482"><ele>69.5</ele><time>2026-04-18T14:04:57Z</time></trkpt><trkpt lat="45.463206023511546" lon="10.594547133353586"><ele>69.0</ele><time>2026-04-18T14:04:58Z</time></trkpt><trkpt lat="45.46323610237264" lon="10.594716296886796"><ele>68.5</ele><time>2026-04-18T14:04:59Z</time></trkpt><trkpt lat="45.46326999561426" lon="10.594896081173511"><ele>68.0</ele><time>2026-04-18T14:05:00Z</time></trkpt><trkpt lat="45.463316524905856" lon="10.595071692280177"><ele>68.0</ele><time>2026-04-18T14:05:01Z</time></trkpt><trkpt lat="45.4633516807802" lon="10.59527513561202"><ele>68.0</ele><time>2026-04-18T14:05:02Z</time></trkpt><trkpt lat="45.46339760903664" lon="10.595478904349896"><ele>68.0</ele><time>2026-04-18T14:05:03Z</time></trkpt><trkpt lat="45.46345235430091" lon="10.595670079825652"><ele>68.0</ele><time>2026-04-18T14:05:04Z</time></trkpt><trkpt lat="45.46350286402646" lon="10.595876336934058"><ele>69.0</ele><time>2026-04-18T14:05:05Z</time></trkpt><trkpt lat="45.463551071866206" lon="10.596086674205528"><ele>70.0</ele><time>2026-04-18T14:05:06Z</time></trkpt><trkpt lat="45.46360599137975" lon="10.596336220879257"><ele>71.0</ele><time>2026-04-18T14:05:07Z</time></trkpt><trkpt lat="45.463681671974534" lon="10.596624523962637"><ele>71.0</ele><time>2026-04-18T14:05:08Z</time></trkpt><trkpt lat="45.463732577819734" lon="10.596965306072425"><ele>71.0</ele><time>2026-04-18T14:05:09Z</time></trkpt><trkpt lat="45.46379894687848" lon="10.597299552805907"><ele>71.0</ele><time>2026-04-18T14:05:10Z</time></trkpt><trkpt lat="45.46387935577759" lon="10.597637639749832"><ele>71.0</ele><time>2026-04-18T14:05:11Z</time></trkpt><trkpt lat="45.463965191616126" lon="10.597955419936907"><ele>71.0</ele><time>2026-04-18T14:05:12Z</time></trkpt><trkpt lat="45.46403634820356" lon="10.598262857027137"><ele>71.0</ele><time>2026-04-18T14:05:13Z</time></trkpt><trkpt lat="45.46408623582152" lon="10.598521689870571"><ele>71.0</ele><time>2026-04-18T14:05:14Z</time></trkpt><trkpt lat="45.46411990779319" lon="10.598782440495029"><ele>71.66666666666667</ele><time>2026-04-18T14:05:15Z</time></trkpt><trkpt lat="45.46417114774619" lon="10.59902981951445"><ele>72.33333333333333</ele><time>2026-04-18T14:05:16Z</time></trkpt><trkpt lat="45.464225202313024" lon="10.599267692539788"><ele>73.0</ele><time>2026-04-18T14:05:17Z</time></trkpt><trkpt lat="45.46429939769656" lon="10.599488202431798"><ele>73.0</ele><time>2026-04-18T14:05:18Z</time></trkpt><trkpt lat="45.46434163318699" lon="10.599709444620432"><ele>73.0</ele><time>2026-04-18T14:05:19Z</time></trkpt><trkpt lat="45.464376373350966" lon="10.599913968225545"><ele>73.0</ele><time>2026-04-18T14:05:20Z</time></trkpt><trkpt lat="45.464411441501255" lon="10.600080639024863"><ele>73.0</ele><time>2026-04-18T14:05:21Z</time></trkpt><trkpt lat="45.4644432426824" lon="10.60024629249407"><ele>73.0</ele><time>2026-04-18T14:05:22Z</time></trkpt><trkpt lat="45.464473721106" lon="10.600404998676437"><ele>73.0</ele><time>2026-04-18T14:05:23Z</time></trkpt><trkpt lat="45.464509379790854" lon="10.600560262832877"><ele>73.0</ele><time>2026-04-18T14:05:24Z</time></trkpt><trkpt lat="45.46455115829506" lon="10.600708970128593"><ele>73.0</ele><time>2026-04-18T14:05:25Z</time></trkpt><trkpt lat="45.464587781745514" lon="10.600834983425056"><ele>73.0</ele><time>2026-04-18T14:05:26Z</time></trkpt><trkpt lat="45.464622294591" lon="10.600968024282517"><ele>73.5</ele><time>2026-04-18T14:05:27Z</time></trkpt><trkpt lat="45.46467685357612" lon="10.601084971444783"><ele>74.0</ele><time>2026-04-18T14:05:28Z</time></trkpt><trkpt lat="45.46468976399096" lon="10.601211485105988"><ele>74.5</ele><time>2026-04-18T14:05:30Z</time></trkpt><trkpt lat="45.46467503068931" lon="10.601302112038807"><ele>75.0</ele><time>2026-04-18T14:05:34Z</time></trkpt><trkpt lat="45.464693472317975" lon="10.601437392363692"><ele>75.5</ele><time>2026-04-18T14:05:39Z</time></trkpt><trkpt lat="45.46469560477869" lon="10.601565844293441"><ele>76.0</ele><time>2026-04-18T14:05:40Z</time></trkpt><trkpt lat="45.46471168463192" lon="10.601742161107422"><ele>76.0</ele><time>2026-04-18T14:05:41Z</time></trkpt><trkpt lat="45.46475473262396" lon="10.601952227735095"><ele>76.0</ele><time>2026-04-18T14:05:42Z</time></trkpt><trkpt lat="45.46482150399396" lon="10.602159127946388"><ele>76.0</ele><time>2026-04-18T14:05:43Z</time></trkpt><trkpt lat="45.464851876675965" lon="10.60242476660208"><ele>76.66666666666666</ele><time>2026-04-18T14:05:44Z</time></trkpt><trkpt lat="45.464907746741574" lon="10.602742808197522"><ele>77.33333333333333</ele><time>2026-04-18T14:05:45Z</time></trkpt><trkpt lat="45.464944756366314" lon="10.603045435120514"><ele>78.0</ele><time>2026-04-18T14:05:46Z</time></trkpt><trkpt lat="45.4649356630529" lon="10.603346755427586"><ele>78.66666666666667</ele><time>2026-04-18T14:05:47Z</time></trkpt><trkpt lat="45.46496383616203" lon="10.603625513819365"><ele>79.33333333333334</ele><time>2026-04-18T14:05:48Z</time></trkpt><trkpt lat="45.46500004061534" lon="10.603879952053218"><ele>80.0</ele><time>2026-04-18T14:05:49Z</time></trkpt><trkpt lat="45.46502967082936" lon="10.604120216000535"><ele>80.0</ele><time>2026-04-18T14:05:50Z</time></trkpt><trkpt lat="45.46503068997101" lon="10.604332640083102"><ele>80.0</ele><time>2026-04-18T14:05:51Z</time></trkpt><trkpt lat="45.4650309995377" lon="10.60455344363356"><ele>80.0</ele><time>2026-04-18T14:05:52Z</time></trkpt><trkpt lat="45.46504434519312" lon="10.604736139345997"><ele>80.0</ele><time>2026-04-18T14:05:53Z</time></trkpt><trkpt lat="45.46503492509437" lon="10.604880386034578"><ele>80.16666666666667</ele><time>2026-04-18T14:05:54Z</time></trkpt><trkpt lat="45.465050003117284" lon="10.605005491869527"><ele>80.33333333333334</ele><time>2026-04-18T14:05:55Z</time></trkpt><trkpt lat="45.465040206498514" lon="10.605096818145379"><ele>80.5</ele><time>2026-04-18T14:05:56Z</time></trkpt><trkpt lat="45.465053911718414" lon="10.605184587762906"><ele>80.66666666666667</ele><time>2026-04-18T14:05:57Z</time></trkpt><trkpt lat="45.46505253772312" lon="10.60527444387302"><ele>80.83333333333333</ele><time>2026-04-18T14:05:58Z</time></trkpt><trkpt lat="45.46503582087212" lon="10.605413412332139"><ele>81.0</ele><time>2026-04-18T14:05:59Z</time></trkpt><trkpt lat="45.46502226565604" lon="10.605531618846381"><ele>81.0</ele><time>2026-04-18T14:06:00Z</time></trkpt><trkpt lat="45.46501157201935" lon="10.605641472211364"><ele>81.0</ele><time>2026-04-18T14:06:01Z</time></trkpt><trkpt lat="45.465005559337165" lon="10.605747256507785"><ele>81.0</ele><time>2026-04-18T14:06:02Z</time></trkpt><trkpt lat="45.465006579811536" lon="10.605846142850163"><ele>81.0</ele><time>2026-04-18T14:06:03Z</time></trkpt><trkpt lat="45.46500150372051" lon="10.605947271759492"><ele>81.0</ele><time>2026-04-18T14:06:04Z</time></trkpt><trkpt lat="45.464997902038384" lon="10.606051550077007"><ele>81.0</ele><time>2026-04-18T14:06:05Z</time></trkpt><trkpt lat="45.465015845826954" lon="10.606216560266432"><ele>81.16666666666667</ele><time>2026-04-18T14:06:07Z</time></trkpt><trkpt lat="45.46501668354138" lon="10.606323941283728"><ele>81.33333333333333</ele><time>2026-04-18T14:06:08Z</time></trkpt><trkpt lat="45.46501546429551" lon="10.606474906828819"><ele>81.5</ele><time>2026-04-18T14:06:10Z</time></trkpt><trkpt lat="45.464984927929784" lon="10.606577634327213"><ele>81.66666666666666</ele><time>2026-04-18T14:06:12Z</time></trkpt><trkpt lat="45.46495877192017" lon="10.606674034892345"><ele>81.83333333333333</ele><time>2026-04-18T14:06:14Z</time></trkpt><trkpt lat="45.46494611136444" lon="10.606795248158635"><ele>82.0</ele><time>2026-04-18T14:06:16Z</time></trkpt><trkpt lat="45.46494561833999" lon="10.60691198374721"><ele>81.39999999999999</ele><time>2026-04-18T14:06:18Z</time></trkpt><trkpt lat="45.46495635811091" lon="10.60701388651233"><ele>80.8</ele><time>2026-04-18T14:06:20Z</time></trkpt><trkpt lat="45.4649576409093" lon="10.607144766847508"><ele>80.2</ele><time>2026-04-18T14:06:22Z</time></trkpt><trkpt lat="45.46494223115345" lon="10.607300505290556"><ele>79.6</ele><time>2026-04-18T14:06:24Z</time></trkpt><trkpt lat="45.4649352253849" lon="10.607435212900933"><ele>79.0</ele><time>2026-04-18T14:06:25Z</time></trkpt><trkpt lat="45.46492217085741" lon="10.607563390604104"><ele>79.0</ele><time>2026-04-18T14:06:26Z</time></trkpt><trkpt lat="45.46492441379282" lon="10.607712295668536"><ele>79.0</ele><time>2026-04-18T14:06:27Z</time></trkpt><trkpt lat="45.464924453263876" lon="10.607844079068514"><ele>79.0</ele><time>2026-04-18T14:06:28Z</time></trkpt><trkpt lat="45.46493031001693" lon="10.607974481034748"><ele>79.0</ele><time>2026-04-18T14:06:29Z</time></trkpt><trkpt lat="45.464932308529235" lon="10.608105699470295"><ele>79.0</ele><time>2026-04-18T14:06:30Z</time></trkpt><trkpt lat="45.46491426126225" lon="10.608205957983742"><ele>78.4</ele><time>2026-04-18T14:06:31Z</time></trkpt><trkpt lat="45.46492338969321" lon="10.608357757830534"><ele>77.80000000000001</ele><time>2026-04-18T14:06:33Z</time></trkpt><trkpt lat="45.464908206897874" lon="10.608505061294725"><ele>77.19999999999999</ele><time>2026-04-18T14:06:34.999Z</time></trkpt><trkpt lat="45.46491329013712" lon="10.608617907624105"><ele>76.6</ele><time>2026-04-18T14:06:35.999Z</time></trkpt><trkpt lat="45.464909506404474" lon="10.608815435907072"><ele>76.0</ele><time>2026-04-18T14:06:37.999Z</time></trkpt><trkpt lat="45.46489747756677" lon="10.60896385868484"><ele>75.5</ele><time>2026-04-18T14:06:38.999Z</time></trkpt><trkpt lat="45.46487364111807" lon="10.609171470039337"><ele>75.0</ele><time>2026-04-18T14:06:39.999Z</time></trkpt><trkpt lat="45.46487572280758" lon="10.609365555460665"><ele>74.5</ele><time>2026-04-18T14:06:40.999Z</time></trkpt><trkpt lat="45.464919665713644" lon="10.609566182715076"><ele>74.0</ele><time>2026-04-18T14:06:41.999Z</time></trkpt><trkpt lat="45.4649543769935" lon="10.609804725716467"><ele>73.66666666666667</ele><time>2026-04-18T14:06:42.999Z</time></trkpt><trkpt lat="45.464956123005834" lon="10.610059040730782"><ele>73.33333333333333</ele><time>2026-04-18T14:06:43.999Z</time></trkpt><trkpt lat="45.464968984894256" lon="10.610325591282448"><ele>73.0</ele><time>2026-04-18T14:06:44.999Z</time></trkpt><trkpt lat="45.465001936180485" lon="10.610579328043945"><ele>72.33333333333333</ele><time>2026-04-18T14:06:45.999Z</time></trkpt><trkpt lat="45.46501221116239" lon="10.610829062172472"><ele>71.66666666666667</ele><time>2026-04-18T14:06:46.999Z</time></trkpt><trkpt lat="45.4650232042431" lon="10.611067297248171"><ele>71.0</ele><time>2026-04-18T14:06:47.999Z</time></trkpt><trkpt lat="45.46502400958865" lon="10.611279040027913"><ele>70.5</ele><time>2026-04-18T14:06:48.999Z</time></trkpt><trkpt lat="45.464987508112436" lon="10.611475159853482"><ele>70.0</ele><time>2026-04-18T14:06:49.999Z</time></trkpt><trkpt lat="45.46493422414224" lon="10.611644837098453"><ele>69.5</ele><time>2026-04-18T14:06:50.999Z</time></trkpt><trkpt lat="45.464833497353446" lon="10.611805493927958"><ele>69.0</ele><time>2026-04-18T14:06:51.999Z</time></trkpt><trkpt lat="45.464733194066525" lon="10.611891979643644"><ele>68.5</ele><time>2026-04-18T14:06:52.999Z</time></trkpt><trkpt lat="45.4646678905406" lon="10.612012274418374"><ele>68.0</ele><time>2026-04-18T14:06:53.999Z</time></trkpt><trkpt lat="45.46463128044838" lon="10.612148618985719"><ele>67.5</ele><time>2026-04-18T14:06:54.999Z</time></trkpt><trkpt lat="45.464654676446784" lon="10.612321455339497"><ele>67.0</ele><time>2026-04-18T14:06:55.999Z</time></trkpt><trkpt lat="45.46476053781899" lon="10.61245859524768"><ele>67.0</ele><time>2026-04-18T14:06:56.999Z</time></trkpt><trkpt lat="45.46477639593113" lon="10.61262277304348"><ele>67.0</ele><time>2026-04-18T14:06:57.999Z</time></trkpt><trkpt lat="45.46475506987681" lon="10.61275328951541"><ele>67.0</ele><time>2026-04-18T14:06:58.999Z</time></trkpt><trkpt lat="45.46470071642234" lon="10.61291550449592"><ele>67.0</ele><time>2026-04-18T14:06:59.999Z</time></trkpt><trkpt lat="45.464597066245126" lon="10.613079968743309"><ele>67.0</ele><time>2026-04-18T14:07:00.999Z</time></trkpt><trkpt lat="45.46450223352197" lon="10.613232530366538"><ele>67.0</ele><time>2026-04-18T14:07:01.999Z</time></trkpt><trkpt lat="45.464431114430774" lon="10.613393110782287"><ele>67.0</ele><time>2026-04-18T14:07:02.999Z</time></trkpt><trkpt lat="45.464374027789674" lon="10.613538223109709"><ele>67.0</ele><time>2026-04-18T14:07:03.999Z</time></trkpt><trkpt lat="45.464330290199335" lon="10.613663472302159"><ele>67.16666666666666</ele><time>2026-04-18T14:07:04.999Z</time></trkpt><trkpt lat="45.4642929981226" lon="10.613766436103553"><ele>67.33333333333333</ele><time>2026-04-18T14:07:05.999Z</time></trkpt><trkpt lat="45.46423314458555" lon="10.613864004858632"><ele>67.5</ele><time>2026-04-18T14:07:07.999Z</time></trkpt><trkpt lat="45.46417018559167" lon="10.613865796677254"><ele>67.66666666666667</ele><time>2026-04-18T14:07:09.999Z</time></trkpt><trkpt lat="45.46410578406835" lon="10.613976865975419"><ele>67.83333333333334</ele><time>2026-04-18T14:07:11.999Z</time></trkpt><trkpt lat="45.464063690775276" lon="10.614070172794227"><ele>68.0</ele><time>2026-04-18T14:07:12.999Z</time></trkpt><trkpt lat="45.46400181062232" lon="10.61418213066206"><ele>68.0</ele><time>2026-04-18T14:07:13.999Z</time></trkpt><trkpt lat="45.463930334286985" lon="10.614317974611758"><ele>68.0</ele><time>2026-04-18T14:07:14.999Z</time></trkpt><trkpt lat="45.46383994678016" lon="10.614462582891793"><ele>68.0</ele><time>2026-04-18T14:07:15.999Z</time></trkpt><trkpt lat="45.46376297591944" lon="10.614629284651617"><ele>68.0</ele><time>2026-04-18T14:07:16.999Z</time></trkpt><trkpt lat="45.463678779043455" lon="10.6147970985397"><ele>67.66666666666667</ele><time>2026-04-18T14:07:17.999Z</time></trkpt><trkpt lat="45.463580481213704" lon="10.614986726756031"><ele>67.33333333333333</ele><time>2026-04-18T14:07:18.999Z</time></trkpt><trkpt lat="45.46348947167975" lon="10.615161657928745"><ele>67.0</ele><time>2026-04-18T14:07:19.999Z</time></trkpt><trkpt lat="45.46341106475085" lon="10.61534777113065"><ele>67.0</ele><time>2026-04-18T14:07:20.999Z</time></trkpt><trkpt lat="45.46330112670205" lon="10.615502668560747"><ele>67.0</ele><time>2026-04-18T14:07:22Z</time></trkpt><trkpt lat="45.46323935639079" lon="10.615698249592699"><ele>67.0</ele><time>2026-04-18T14:07:23Z</time></trkpt><trkpt lat="45.463153156620955" lon="10.615854794933561"><ele>67.0</ele><time>2026-04-18T14:07:24Z</time></trkpt><trkpt lat="45.46304536420444" lon="10.615966274964395"><ele>67.0</ele><time>2026-04-18T14:07:25Z</time></trkpt><trkpt lat="45.46294379130553" lon="10.61602113216218"><ele>67.0</ele><time>2026-04-18T14:07:26Z</time></trkpt><trkpt lat="45.46285086599519" lon="10.616067005425066"><ele>67.0</ele><time>2026-04-18T14:07:27Z</time></trkpt><trkpt lat="45.46278885926593" lon="10.616181526276225"><ele>67.0</ele><time>2026-04-18T14:07:28Z</time></trkpt><trkpt lat="45.462812941136946" lon="10.616333077271221"><ele>67.0</ele><time>2026-04-18T14:07:29Z</time></trkpt><trkpt lat="45.46279114831387" lon="10.616511335501563"><ele>67.0</ele><time>2026-04-18T14:07:30Z</time></trkpt><trkpt lat="45.46277452305704" lon="10.616688622232953"><ele>67.0</ele><time>2026-04-18T14:07:31Z</time></trkpt><trkpt lat="45.46274446079222" lon="10.616879891592513"><ele>67.0</ele><time>2026-04-18T14:07:32Z</time></trkpt><trkpt lat="45.462689358845644" lon="10.617036682308498"><ele>67.0</ele><time>2026-04-18T14:07:33Z</time></trkpt><trkpt lat="45.46265236640381" lon="10.617249920579225"><ele>67.0</ele><time>2026-04-18T14:07:34Z</time></trkpt><trkpt lat="45.462574407391664" lon="10.617463114532809"><ele>67.0</ele><time>2026-04-18T14:07:35Z</time></trkpt><trkpt lat="45.46253146207639" lon="10.617684185790278"><ele>67.0</ele><time>2026-04-18T14:07:36Z</time></trkpt><trkpt lat="45.46249765585715" lon="10.617888578318231"><ele>66.33333333333333</ele><time>2026-04-18T14:07:37Z</time></trkpt><trkpt lat="45.46244760433826" lon="10.61807831577137"><ele>65.66666666666667</ele><time>2026-04-18T14:07:38Z</time></trkpt><trkpt lat="45.462383331475536" lon="10.618293108033216"><ele>65.0</ele><time>2026-04-18T14:07:39Z</time></trkpt><trkpt lat="45.462303673540625" lon="10.618494256982693"><ele>65.0</ele><time>2026-04-18T14:07:40Z</time></trkpt><trkpt lat="45.462224666818706" lon="10.618717306920466"><ele>65.0</ele><time>2026-04-18T14:07:41Z</time></trkpt><trkpt lat="45.46218030137359" lon="10.61890298580826"><ele>65.0</ele><time>2026-04-18T14:07:42Z</time></trkpt><trkpt lat="45.462142621428555" lon="10.61905184143991"><ele>65.0</ele><time>2026-04-18T14:07:43Z</time></trkpt><trkpt lat="45.462111879676016" lon="10.619184082314899"><ele>65.0</ele><time>2026-04-18T14:07:44Z</time></trkpt><trkpt lat="45.46206634413815" lon="10.619324558881134"><ele>65.0</ele><time>2026-04-18T14:07:45Z</time></trkpt><trkpt lat="45.46207175583056" lon="10.619492230071872"><ele>65.0</ele><time>2026-04-18T14:07:46Z</time></trkpt><trkpt lat="45.462050776001824" lon="10.619655142509405"><ele>65.0</ele><time>2026-04-18T14:07:47Z</time></trkpt><trkpt lat="45.462002858815765" lon="10.619814997681244"><ele>65.33333333333334</ele><time>2026-04-18T14:07:48Z</time></trkpt><trkpt lat="45.461956065685136" lon="10.620033278082412"><ele>65.66666666666667</ele><time>2026-04-18T14:07:49Z</time></trkpt><trkpt lat="45.46190103862248" lon="10.620260330085658"><ele>66.0</ele><time>2026-04-18T14:07:50Z</time></trkpt><trkpt lat="45.46186129029597" lon="10.620451640139942"><ele>66.25</ele><time>2026-04-18T14:07:51Z</time></trkpt><trkpt lat="45.46181333598502" lon="10.6206529217555"><ele>66.5</ele><time>2026-04-18T14:07:52Z</time></trkpt><trkpt lat="45.4617865729483" lon="10.620817509259513"><ele>66.75</ele><time>2026-04-18T14:07:53Z</time></trkpt><trkpt lat="45.46177199291716" lon="10.620974850790123"><ele>67.0</ele><time>2026-04-18T14:07:54Z</time></trkpt><trkpt lat="45.46175193168102" lon="10.621133445116174"><ele>67.16666666666666</ele><time>2026-04-18T14:07:55Z</time></trkpt><trkpt lat="45.46173792098679" lon="10.62125329572242"><ele>67.33333333333333</ele><time>2026-04-18T14:07:56Z</time></trkpt><trkpt lat="45.46174362531387" lon="10.621364492436228"><ele>67.5</ele><time>2026-04-18T14:07:57Z</time></trkpt><trkpt lat="45.461752036100194" lon="10.62146973825423"><ele>67.66666666666667</ele><time>2026-04-18T14:07:58Z</time></trkpt><trkpt lat="45.461737945607894" lon="10.621574454484668"><ele>67.83333333333334</ele><time>2026-04-18T14:07:59Z</time></trkpt><trkpt lat="45.46171741678027" lon="10.621679525990233"><ele>68.0</ele><time>2026-04-18T14:08:00Z</time></trkpt><trkpt lat="45.46169148818131" lon="10.621773194702513"><ele>68.0</ele><time>2026-04-18T14:08:01Z</time></trkpt><trkpt lat="45.46170237782837" lon="10.621907907400798"><ele>68.0</ele><time>2026-04-18T14:08:03Z</time></trkpt><trkpt lat="45.46168089886175" lon="10.622019018821018"><ele>68.0</ele><time>2026-04-18T14:08:04Z</time></trkpt><trkpt lat="45.46165817851805" lon="10.622146391339014"><ele>68.0</ele><time>2026-04-18T14:08:05Z</time></trkpt><trkpt lat="45.461635992803515" lon="10.622265624798972"><ele>68.0</ele><time>2026-04-18T14:08:06Z</time></trkpt><trkpt lat="45.46161742147952" lon="10.622387409368082"><ele>68.0</ele><time>2026-04-18T14:08:07Z</time></trkpt><trkpt lat="45.46157477444203" lon="10.622509100130888"><ele>67.8</ele><time>2026-04-18T14:08:08Z</time></trkpt><trkpt lat="45.46153110828393" lon="10.62260407749328"><ele>67.6</ele><time>2026-04-18T14:08:09Z</time></trkpt><trkpt lat="45.46150317113329" lon="10.622712283255126"><ele>67.4</ele><time>2026-04-18T14:08:10Z</time></trkpt><trkpt lat="45.46149697539234" lon="10.622846772881811"><ele>67.2</ele><time>2026-04-18T14:08:11Z</time></trkpt><trkpt lat="45.461450707639564" lon="10.62297083228637"><ele>67.0</ele><time>2026-04-18T14:08:12Z</time></trkpt><trkpt lat="45.46141433223065" lon="10.623098975640938"><ele>67.0</ele><time>2026-04-18T14:08:13Z</time></trkpt><trkpt lat="45.461366825347895" lon="10.623264472849357"><ele>67.0</ele><time>2026-04-18T14:08:14Z</time></trkpt><trkpt lat="45.461345325025064" lon="10.623398163444175"><ele>67.0</ele><time>2026-04-18T14:08:15Z</time></trkpt><trkpt lat="45.46128837607321" lon="10.623526552614384"><ele>67.0</ele><time>2026-04-18T14:08:16Z</time></trkpt><trkpt lat="45.461236754047285" lon="10.623665087411519"><ele>67.0</ele><time>2026-04-18T14:08:17Z</time></trkpt><trkpt lat="45.46119427958335" lon="10.623807336597036"><ele>66.75</ele><time>2026-04-18T14:08:18Z</time></trkpt><trkpt lat="45.46116852093003" lon="10.623966173021982"><ele>66.5</ele><time>2026-04-18T14:08:19Z</time></trkpt><trkpt lat="45.46112787420959" lon="10.624123388122834"><ele>66.25</ele><time>2026-04-18T14:08:20Z</time></trkpt><trkpt lat="45.461053770383984" lon="10.624287895826075"><ele>66.0</ele><time>2026-04-18T14:08:21Z</time></trkpt><trkpt lat="45.46101574801685" lon="10.62448230746933"><ele>66.0</ele><time>2026-04-18T14:08:22Z</time></trkpt><trkpt lat="45.46096774878846" lon="10.62469284085638"><ele>66.0</ele><time>2026-04-18T14:08:23Z</time></trkpt><trkpt lat="45.46089563446561" lon="10.624857669440289"><ele>66.0</ele><time>2026-04-18T14:08:24Z</time></trkpt><trkpt lat="45.46085461777213" lon="10.625061594924043"><ele>66.0</ele><time>2026-04-18T14:08:25Z</time></trkpt><trkpt lat="45.460816579369784" lon="10.625239603680534"><ele>66.33333333333333</ele><time>2026-04-18T14:08:26Z</time></trkpt><trkpt lat="45.46077835497826" lon="10.62543309734533"><ele>66.66666666666666</ele><time>2026-04-18T14:08:27Z</time></trkpt><trkpt lat="45.46070620982845" lon="10.625629640509489"><ele>67.0</ele><time>2026-04-18T14:08:28Z</time></trkpt><trkpt lat="45.46062102066662" lon="10.625840839324923"><ele>67.0</ele><time>2026-04-18T14:08:29Z</time></trkpt><trkpt lat="45.460537637544036" lon="10.626092954007396"><ele>67.0</ele><time>2026-04-18T14:08:30Z</time></trkpt><trkpt lat="45.460467801818794" lon="10.6263453478142"><ele>67.0</ele><time>2026-04-18T14:08:31Z</time></trkpt><trkpt lat="45.46041687306805" lon="10.62658838418654"><ele>67.0</ele><time>2026-04-18T14:08:32Z</time></trkpt><trkpt lat="45.46035947802686" lon="10.626830567415041"><ele>67.0</ele><time>2026-04-18T14:08:33Z</time></trkpt><trkpt lat="45.460292238317955" lon="10.627053885134568"><ele>67.0</ele><time>2026-04-18T14:08:34Z</time></trkpt><trkpt lat="45.460233490604914" lon="10.627235341074032"><ele>66.8</ele><time>2026-04-18T14:08:35Z</time></trkpt><trkpt lat="45.460192520542385" lon="10.627404303082487"><ele>66.6</ele><time>2026-04-18T14:08:36Z</time></trkpt><trkpt lat="45.4601314919875" lon="10.627543193471691"><ele>66.39999999999999</ele><time>2026-04-18T14:08:37Z</time></trkpt><trkpt lat="45.460067795018425" lon="10.627654851697116"><ele>66.2</ele><time>2026-04-18T14:08:38Z</time></trkpt><trkpt lat="45.460009760160915" lon="10.627711540325182"><ele>66.0</ele><time>2026-04-18T14:08:39Z</time></trkpt><trkpt lat="45.4599496614302" lon="10.627744541808214"><ele>66.0</ele><time>2026-04-18T14:08:40Z</time></trkpt><trkpt lat="45.45989062033869" lon="10.627785921854647"><ele>66.0</ele><time>2026-04-18T14:08:41Z</time></trkpt><trkpt lat="45.459780323289415" lon="10.627816464239004"><ele>66.0</ele><time>2026-04-18T14:08:43Z</time></trkpt><trkpt lat="45.45972260231215" lon="10.627869539683202"><ele>66.0</ele><time>2026-04-18T14:08:44Z</time></trkpt><trkpt lat="45.459753950512855" lon="10.627977797082611"><ele>66.0</ele><time>2026-04-18T14:08:45Z</time></trkpt><trkpt lat="45.45982166296086" lon="10.628128703427366"><ele>66.39999999999999</ele><time>2026-04-18T14:08:47Z</time></trkpt><trkpt lat="45.45988556302858" lon="10.628192164635168"><ele>66.8</ele><time>2026-04-18T14:08:48Z</time></trkpt><trkpt lat="45.459890148590446" lon="10.62832771531887"><ele>67.19999999999999</ele><time>2026-04-18T14:08:49Z</time></trkpt><trkpt lat="45.459901933700806" lon="10.62844798864246"><ele>67.6</ele><time>2026-04-18T14:08:50Z</time></trkpt><trkpt lat="45.45988689369387" lon="10.628573489849272"><ele>68.0</ele><time>2026-04-18T14:08:51Z</time></trkpt><trkpt lat="45.45988593649597" lon="10.628721764942147"><ele>68.5</ele><time>2026-04-18T14:08:52Z</time></trkpt><trkpt lat="45.459802816869455" lon="10.628863650091816"><ele>69.0</ele><time>2026-04-18T14:08:53Z</time></trkpt><trkpt lat="45.45975181916461" lon="10.629044876020547"><ele>69.5</ele><time>2026-04-18T14:08:54Z</time></trkpt><trkpt lat="45.45969624859056" lon="10.629242352174337"><ele>70.0</ele><time>2026-04-18T14:08:55Z</time></trkpt><trkpt lat="45.45964021614403" lon="10.629441469616118"><ele>68.66666666666666</ele><time>2026-04-18T14:08:56Z</time></trkpt><trkpt lat="45.45958091833597" lon="10.629654479854743"><ele>67.33333333333333</ele><time>2026-04-18T14:08:57Z</time></trkpt><trkpt lat="45.459501513052494" lon="10.62985433973597"><ele>66.0</ele><time>2026-04-18T14:08:58Z</time></trkpt><trkpt lat="45.45942784900875" lon="10.630086910417486"><ele>66.33333333333333</ele><time>2026-04-18T14:08:59Z</time></trkpt><trkpt lat="45.45936426249726" lon="10.630329981317557"><ele>66.66666666666666</ele><time>2026-04-18T14:09:00Z</time></trkpt><trkpt lat="45.45929840927014" lon="10.630569240785835"><ele>67.0</ele><time>2026-04-18T14:09:01Z</time></trkpt><trkpt lat="45.459239312147865" lon="10.630804318596091"><ele>67.0</ele><time>2026-04-18T14:09:02Z</time></trkpt><trkpt lat="45.459190837826974" lon="10.631044429353805"><ele>67.0</ele><time>2026-04-18T14:09:03Z</time></trkpt><trkpt lat="45.45912077663971" lon="10.631283573645357"><ele>67.0</ele><time>2026-04-18T14:09:04Z</time></trkpt><trkpt lat="45.45905741363059" lon="10.63152740196632"><ele>66.66666666666666</ele><time>2026-04-18T14:09:05Z</time></trkpt><trkpt lat="45.45898643775064" lon="10.631770730243206"><ele>66.33333333333333</ele><time>2026-04-18T14:09:06Z</time></trkpt><trkpt lat="45.45892027950234" lon="10.632015039459286"><ele>66.0</ele><time>2026-04-18T14:09:07Z</time></trkpt><trkpt lat="45.458845136253274" lon="10.632289029499844"><ele>66.0</ele><time>2026-04-18T14:09:08Z</time></trkpt><trkpt lat="45.458775814059074" lon="10.632558397831101"><ele>66.0</ele><time>2026-04-18T14:09:09Z</time></trkpt><trkpt lat="45.45868196939517" lon="10.632831583976973"><ele>66.0</ele><time>2026-04-18T14:09:10Z</time></trkpt><trkpt lat="45.45860122813476" lon="10.6331122927423"><ele>66.0</ele><time>2026-04-18T14:09:11Z</time></trkpt><trkpt lat="45.45851358489056" lon="10.633381685860108"><ele>66.0</ele><time>2026-04-18T14:09:12Z</time></trkpt><trkpt lat="45.45843618633289" lon="10.633675841148962"><ele>66.0</ele><time>2026-04-18T14:09:13Z</time></trkpt><trkpt lat="45.45836136536484" lon="10.63397832966048"><ele>66.33333333333333</ele><time>2026-04-18T14:09:14Z</time></trkpt><trkpt lat="45.45828444949494" lon="10.63427287819884"><ele>66.66666666666666</ele><time>2026-04-18T14:09:15Z</time></trkpt><trkpt lat="45.4582048635463" lon="10.63455114712787"><ele>67.0</ele><time>2026-04-18T14:09:16Z</time></trkpt><trkpt lat="45.45814478132591" lon="10.634773579775015"><ele>67.5</ele><time>2026-04-18T14:09:17Z</time></trkpt><trkpt lat="45.45807844727661" lon="10.63499503093982"><ele>68.0</ele><time>2026-04-18T14:09:18Z</time></trkpt><trkpt lat="45.45803324038485" lon="10.635156413510776"><ele>68.5</ele><time>2026-04-18T14:09:19Z</time></trkpt><trkpt lat="45.45800157082883" lon="10.63527013750949"><ele>69.0</ele><time>2026-04-18T14:09:20Z</time></trkpt><trkpt lat="45.45797029431108" lon="10.635382595334413"><ele>69.2</ele><time>2026-04-18T14:09:21Z</time></trkpt><trkpt lat="45.45794391155127" lon="10.635477456346704"><ele>69.4</ele><time>2026-04-18T14:09:22Z</time></trkpt><trkpt lat="45.45791644287985" lon="10.635576222481514"><ele>69.6</ele><time>2026-04-18T14:09:23Z</time></trkpt><trkpt lat="45.45788275768362" lon="10.635697337348029"><ele>69.8</ele><time>2026-04-18T14:09:24Z</time></trkpt><trkpt lat="45.45786619033879" lon="10.635846836731313"><ele>70.0</ele><time>2026-04-18T14:09:25Z</time></trkpt><trkpt lat="45.45781108943004" lon="10.635977605534872"><ele>70.0</ele><time>2026-04-18T14:09:26Z</time></trkpt><trkpt lat="45.45777145108161" lon="10.636097922061984"><ele>70.0</ele><time>2026-04-18T14:09:27Z</time></trkpt><trkpt lat="45.45774860373826" lon="10.636222008983856"><ele>70.0</ele><time>2026-04-18T14:09:28Z</time></trkpt><trkpt lat="45.457697512142026" lon="10.63638352319139"><ele>70.0</ele><time>2026-04-18T14:09:29Z</time></trkpt><trkpt lat="45.457644251408226" lon="10.636563267409056"><ele>70.0</ele><time>2026-04-18T14:09:30Z</time></trkpt><trkpt lat="45.45759387495722" lon="10.636754417079953"><ele>70.0</ele><time>2026-04-18T14:09:31Z</time></trkpt><trkpt lat="45.45752453768108" lon="10.636961504999611"><ele>70.0</ele><time>2026-04-18T14:09:32Z</time></trkpt><trkpt lat="45.45744668963166" lon="10.637177987988695"><ele>70.0</ele><time>2026-04-18T14:09:33Z</time></trkpt><trkpt lat="45.45739527487687" lon="10.637395866497425"><ele>70.33333333333333</ele><time>2026-04-18T14:09:34Z</time></trkpt><trkpt lat="45.457326680974695" lon="10.637623848691135"><ele>70.66666666666667</ele><time>2026-04-18T14:09:35Z</time></trkpt><trkpt lat="45.45726393305707" lon="10.6378499113877"><ele>71.0</ele><time>2026-04-18T14:09:36Z</time></trkpt><trkpt lat="45.457206686013684" lon="10.63807295513921"><ele>71.0</ele><time>2026-04-18T14:09:37Z</time></trkpt><trkpt lat="45.45714108918692" lon="10.638291818733542"><ele>71.0</ele><time>2026-04-18T14:09:38Z</time></trkpt><trkpt lat="45.45708793486112" lon="10.638494694810175"><ele>71.0</ele><time>2026-04-18T14:09:39Z</time></trkpt><trkpt lat="45.45704363188514" lon="10.638688765635443"><ele>70.8</ele><time>2026-04-18T14:09:40Z</time></trkpt><trkpt lat="45.457008352901006" lon="10.638840550246583"><ele>70.6</ele><time>2026-04-18T14:09:41Z</time></trkpt><trkpt lat="45.45696525291736" lon="10.638985100443891"><ele>70.4</ele><time>2026-04-18T14:09:42Z</time></trkpt><trkpt lat="45.456929215976494" lon="10.639114916764711"><ele>70.2</ele><time>2026-04-18T14:09:43Z</time></trkpt><trkpt lat="45.45688435970804" lon="10.63921264127995"><ele>70.0</ele><time>2026-04-18T14:09:44Z</time></trkpt><trkpt lat="45.456854253214" lon="10.639330635181175"><ele>70.0</ele><time>2026-04-18T14:09:45Z</time></trkpt><trkpt lat="45.456813056206784" lon="10.639430072716886"><ele>70.0</ele><time>2026-04-18T14:09:46Z</time></trkpt><trkpt lat="45.456716929730234" lon="10.63954551275937"><ele>70.0</ele><time>2026-04-18T14:09:48Z</time></trkpt><trkpt lat="45.45662112162777" lon="10.639629302773479"><ele>70.0</ele><time>2026-04-18T14:09:50Z</time></trkpt><trkpt lat="45.45655373781144" lon="10.639657169785195"><ele>70.0</ele><time>2026-04-18T14:09:51Z</time></trkpt><trkpt lat="45.45647388905693" lon="10.639769157602998"><ele>70.0</ele><time>2026-04-18T14:09:52Z</time></trkpt><trkpt lat="45.4563984119871" lon="10.639758156377304"><ele>70.0</ele><time>2026-04-18T14:09:53Z</time></trkpt><trkpt lat="45.45634058783583" lon="10.639818031779585"><ele>70.0</ele><time>2026-04-18T14:09:54Z</time></trkpt><trkpt lat="45.456318668405004" lon="10.639923141841942"><ele>70.0</ele><time>2026-04-18T14:09:55Z</time></trkpt><trkpt lat="45.45636245417331" lon="10.640049991364393"><ele>70.0</ele><time>2026-04-18T14:09:56Z</time></trkpt><trkpt lat="45.45639100565063" lon="10.640132160422791"><ele>70.0</ele><time>2026-04-18T14:09:57Z</time></trkpt><trkpt lat="45.45648067366743" lon="10.640259931117974"><ele>69.5</ele><time>2026-04-18T14:09:59Z</time></trkpt><trkpt lat="45.4564846019997" lon="10.640513836643516"><ele>69.0</ele><time>2026-04-18T14:10:01Z</time></trkpt><trkpt lat="45.45647491302401" lon="10.640622483257642"><ele>68.5</ele><time>2026-04-18T14:10:02Z</time></trkpt><trkpt lat="45.456467479031275" lon="10.64077081531955"><ele>68.0</ele><time>2026-04-18T14:10:03Z</time></trkpt><trkpt lat="45.45643191552459" lon="10.64094943328703"><ele>67.66666666666667</ele><time>2026-04-18T14:10:04Z</time></trkpt><trkpt lat="45.45636899147328" lon="10.641151056372445"><ele>67.33333333333333</ele><time>2026-04-18T14:10:05Z</time></trkpt><trkpt lat="45.45628422669248" lon="10.64136342569273"><ele>67.0</ele><time>2026-04-18T14:10:06Z</time></trkpt><trkpt lat="45.45622711124513" lon="10.6415892712536"><ele>67.0</ele><time>2026-04-18T14:10:07Z</time></trkpt><trkpt lat="45.45615340584107" lon="10.641821864448502"><ele>67.0</ele><time>2026-04-18T14:10:08Z</time></trkpt><trkpt lat="45.456088671749434" lon="10.642067954780655"><ele>67.0</ele><time>2026-04-18T14:10:09Z</time></trkpt><trkpt lat="45.45602212167431" lon="10.642298534154094"><ele>67.0</ele><time>2026-04-18T14:10:10Z</time></trkpt><trkpt lat="45.455946807527376" lon="10.642516757048394"><ele>67.0</ele><time>2026-04-18T14:10:11Z</time></trkpt><trkpt lat="45.45589629746106" lon="10.642729232789076"><ele>67.0</ele><time>2026-04-18T14:10:12Z</time></trkpt><trkpt lat="45.455849822920534" lon="10.642962651574909"><ele>67.0</ele><time>2026-04-18T14:10:13Z</time></trkpt><trkpt lat="45.45580261176733" lon="10.643212423827041"><ele>67.0</ele><time>2026-04-18T14:10:14Z</time></trkpt><trkpt lat="45.45575534068459" lon="10.64348082310971"><ele>67.0</ele><time>2026-04-18T14:10:15Z</time></trkpt><trkpt lat="45.455698631722896" lon="10.643762507997199"><ele>67.0</ele><time>2026-04-18T14:10:16Z</time></trkpt><trkpt lat="45.45563360285767" lon="10.64403274944861"><ele>67.0</ele><time>2026-04-18T14:10:17Z</time></trkpt><trkpt lat="45.455563999383564" lon="10.644309887438341"><ele>67.0</ele><time>2026-04-18T14:10:18Z</time></trkpt><trkpt lat="45.4554897507346" lon="10.644584361343444"><ele>67.33333333333333</ele><time>2026-04-18T14:10:19Z</time></trkpt><trkpt lat="45.45541132870311" lon="10.644883301648266"><ele>67.66666666666667</ele><time>2026-04-18T14:10:20Z</time></trkpt><trkpt lat="45.45536175477724" lon="10.64518651856698"><ele>68.0</ele><time>2026-04-18T14:10:21Z</time></trkpt><trkpt lat="45.455300545585395" lon="10.645433808917165"><ele>68.0</ele><time>2026-04-18T14:10:22Z</time></trkpt><trkpt lat="45.455241046519035" lon="10.645701461134436"><ele>68.0</ele><time>2026-04-18T14:10:23Z</time></trkpt><trkpt lat="45.455187437854896" lon="10.645945933644596"><ele>68.0</ele><time>2026-04-18T14:10:24Z</time></trkpt><trkpt lat="45.45513219591195" lon="10.646205197594874"><ele>67.0</ele><time>2026-04-18T14:10:25Z</time></trkpt><trkpt lat="45.455087531989975" lon="10.646456174039683"><ele>66.0</ele><time>2026-04-18T14:10:26Z</time></trkpt><trkpt lat="45.45501288235576" lon="10.646690121684511"><ele>65.0</ele><time>2026-04-18T14:10:27Z</time></trkpt><trkpt lat="45.45494384159261" lon="10.646934988742089"><ele>65.33333333333334</ele><time>2026-04-18T14:10:28Z</time></trkpt><trkpt lat="45.45486744382513" lon="10.64720753808196"><ele>65.66666666666667</ele><time>2026-04-18T14:10:29Z</time></trkpt><trkpt lat="45.4548055514846" lon="10.647464450700713"><ele>66.0</ele><time>2026-04-18T14:10:30Z</time></trkpt><trkpt lat="45.45474495930212" lon="10.647710475594547"><ele>66.33333333333333</ele><time>2026-04-18T14:10:31Z</time></trkpt><trkpt lat="45.454694510758316" lon="10.647963668997367"><ele>66.66666666666666</ele><time>2026-04-18T14:10:32Z</time></trkpt><trkpt lat="45.45463398305187" lon="10.648231777255068"><ele>67.0</ele><time>2026-04-18T14:10:33Z</time></trkpt><trkpt lat="45.45460740464854" lon="10.648505684082323"><ele>67.33333333333333</ele><time>2026-04-18T14:10:34Z</time></trkpt><trkpt lat="45.454578176333655" lon="10.64877681332471"><ele>67.66666666666667</ele><time>2026-04-18T14:10:35Z</time></trkpt><trkpt lat="45.454554213512225" lon="10.649037040052194"><ele>68.0</ele><time>2026-04-18T14:10:36Z</time></trkpt><trkpt lat="45.45453139182018" lon="10.649299889461345"><ele>67.66666666666667</ele><time>2026-04-18T14:10:37Z</time></trkpt><trkpt lat="45.454514946227825" lon="10.649559211549755"><ele>67.33333333333333</ele><time>2026-04-18T14:10:38Z</time></trkpt><trkpt lat="45.454492644498586" lon="10.649818275598044"><ele>67.0</ele><time>2026-04-18T14:10:39Z</time></trkpt><trkpt lat="45.45445290865007" lon="10.650068533367085"><ele>67.33333333333333</ele><time>2026-04-18T14:10:40Z</time></trkpt><trkpt lat="45.45441259885617" lon="10.650312381550687"><ele>67.66666666666667</ele><time>2026-04-18T14:10:41Z</time></trkpt><trkpt lat="45.454351630428" lon="10.650559254372252"><ele>68.0</ele><time>2026-04-18T14:10:42Z</time></trkpt><trkpt lat="45.4543035805656" lon="10.650833451329664"><ele>68.0</ele><time>2026-04-18T14:10:43Z</time></trkpt><trkpt lat="45.45431717291443" lon="10.651096605934795"><ele>68.0</ele><time>2026-04-18T14:10:44Z</time></trkpt><trkpt lat="45.45430074207844" lon="10.651345020392263"><ele>68.0</ele><time>2026-04-18T14:10:45Z</time></trkpt><trkpt lat="45.45426692926266" lon="10.651581208795458"><ele>68.0</ele><time>2026-04-18T14:10:46Z</time></trkpt><trkpt lat="45.454221947200246" lon="10.651839867045286"><ele>68.0</ele><time>2026-04-18T14:10:47Z</time></trkpt><trkpt lat="45.45416873029613" lon="10.652096103499737"><ele>68.0</ele><time>2026-04-18T14:10:48Z</time></trkpt><trkpt lat="45.45414786139992" lon="10.65237167192587"><ele>68.66666666666667</ele><time>2026-04-18T14:10:49Z</time></trkpt><trkpt lat="45.454110866300155" lon="10.652649596652658"><ele>69.33333333333333</ele><time>2026-04-18T14:10:50Z</time></trkpt><trkpt lat="45.45408464711637" lon="10.652934977515713"><ele>70.0</ele><time>2026-04-18T14:10:51Z</time></trkpt><trkpt lat="45.454047079790634" lon="10.65323251206247"><ele>70.0</ele><time>2026-04-18T14:10:52Z</time></trkpt><trkpt lat="45.45400703490049" lon="10.653511531073619"><ele>70.0</ele><time>2026-04-18T14:10:53Z</time></trkpt><trkpt lat="45.45396436844309" lon="10.653789124022973"><ele>70.0</ele><time>2026-04-18T14:10:54Z</time></trkpt><trkpt lat="45.45391250924678" lon="10.654051499095742"><ele>70.0</ele><time>2026-04-18T14:10:55Z</time></trkpt><trkpt lat="45.453903049296265" lon="10.65431344059638"><ele>70.0</ele><time>2026-04-18T14:10:56Z</time></trkpt><trkpt lat="45.4538658013974" lon="10.654584440534336"><ele>70.0</ele><time>2026-04-18T14:10:57Z</time></trkpt><trkpt lat="45.45381947443078" lon="10.654857823001594"><ele>70.33333333333333</ele><time>2026-04-18T14:10:58Z</time></trkpt><trkpt lat="45.453786115523656" lon="10.655112329382801"><ele>70.66666666666667</ele><time>2026-04-18T14:10:59Z</time></trkpt><trkpt lat="45.45376018845572" lon="10.655387921644481"><ele>71.0</ele><time>2026-04-18T14:11:00Z</time></trkpt><trkpt lat="45.45372244101535" lon="10.655664046943105"><ele>71.0</ele><time>2026-04-18T14:11:01Z</time></trkpt><trkpt lat="45.45367852900575" lon="10.655942568014602"><ele>71.0</ele><time>2026-04-18T14:11:02Z</time></trkpt><trkpt lat="45.45364520419499" lon="10.65620096034027"><ele>71.0</ele><time>2026-04-18T14:11:03Z</time></trkpt><trkpt lat="45.45361505990318" lon="10.656434691625561"><ele>71.0</ele><time>2026-04-18T14:11:04Z</time></trkpt><trkpt lat="45.45360217366442" lon="10.656646270869532"><ele>71.0</ele><time>2026-04-18T14:11:05Z</time></trkpt><trkpt lat="45.45357359878874" lon="10.656842408597285"><ele>71.0</ele><time>2026-04-18T14:11:06Z</time></trkpt><trkpt lat="45.4535532762302" lon="10.657010891528794"><ele>71.0</ele><time>2026-04-18T14:11:07Z</time></trkpt><trkpt lat="45.45351861604845" lon="10.65717720279148"><ele>70.8</ele><time>2026-04-18T14:11:08Z</time></trkpt><trkpt lat="45.453501859417564" lon="10.657306693343976"><ele>70.6</ele><time>2026-04-18T14:11:09Z</time></trkpt><trkpt lat="45.45348242192665" lon="10.657458738935631"><ele>70.4</ele><time>2026-04-18T14:11:10Z</time></trkpt><trkpt lat="45.45346452474653" lon="10.657598733857139"><ele>70.2</ele><time>2026-04-18T14:11:11Z</time></trkpt><trkpt lat="45.4534559553218" lon="10.657772236321417"><ele>70.0</ele><time>2026-04-18T14:11:12Z</time></trkpt><trkpt lat="45.453426743631304" lon="10.65794938401145"><ele>69.75</ele><time>2026-04-18T14:11:13Z</time></trkpt><trkpt lat="45.45339985120402" lon="10.658111645441599"><ele>69.5</ele><time>2026-04-18T14:11:14Z</time></trkpt><trkpt lat="45.45335268823246" lon="10.65827150716041"><ele>69.25</ele><time>2026-04-18T14:11:15Z</time></trkpt><trkpt lat="45.453341374058816" lon="10.658460342760398"><ele>69.0</ele><time>2026-04-18T14:11:16Z</time></trkpt><trkpt lat="45.4533246075199" lon="10.65864462161198"><ele>68.75</ele><time>2026-04-18T14:11:17Z</time></trkpt><trkpt lat="45.45331827115929" lon="10.658819117890005"><ele>68.5</ele><time>2026-04-18T14:11:18Z</time></trkpt><trkpt lat="45.453300443831075" lon="10.658993297505958"><ele>68.25</ele><time>2026-04-18T14:11:19Z</time></trkpt><trkpt lat="45.45323548847916" lon="10.659148011557068"><ele>68.0</ele><time>2026-04-18T14:11:20Z</time></trkpt><trkpt lat="45.45323596124011" lon="10.659342575590202"><ele>67.75</ele><time>2026-04-18T14:11:21Z</time></trkpt><trkpt lat="45.45322669390913" lon="10.659540667487564"><ele>67.5</ele><time>2026-04-18T14:11:22Z</time></trkpt><trkpt lat="45.4532090303133" lon="10.65971719249621"><ele>67.25</ele><time>2026-04-18T14:11:23Z</time></trkpt><trkpt lat="45.453177738801244" lon="10.659842690572527"><ele>67.0</ele><time>2026-04-18T14:11:24Z</time></trkpt><trkpt lat="45.453164144124635" lon="10.660008665147902"><ele>67.0</ele><time>2026-04-18T14:11:25Z</time></trkpt><trkpt lat="45.453144158281575" lon="10.660165322697468"><ele>67.0</ele><time>2026-04-18T14:11:26Z</time></trkpt><trkpt lat="45.45310580135393" lon="10.660347589997688"><ele>67.0</ele><time>2026-04-18T14:11:27Z</time></trkpt><trkpt lat="45.453078672853536" lon="10.660533291107365"><ele>67.0</ele><time>2026-04-18T14:11:28Z</time></trkpt><trkpt lat="45.45303427440683" lon="10.660690144994867"><ele>67.0</ele><time>2026-04-18T14:11:29Z</time></trkpt><trkpt lat="45.45298329281259" lon="10.66086359075055"><ele>67.0</ele><time>2026-04-18T14:11:30Z</time></trkpt><trkpt lat="45.45292515253748" lon="10.661015657783672"><ele>67.0</ele><time>2026-04-18T14:11:31Z</time></trkpt><trkpt lat="45.45286169777724" lon="10.661153148863878"><ele>67.0</ele><time>2026-04-18T14:11:32Z</time></trkpt><trkpt lat="45.452792827023806" lon="10.661266962991604"><ele>67.75</ele><time>2026-04-18T14:11:33Z</time></trkpt><trkpt lat="45.45269828150421" lon="10.661391817166542"><ele>68.5</ele><time>2026-04-18T14:11:34Z</time></trkpt><trkpt lat="45.45259101931586" lon="10.661530006772256"><ele>69.25</ele><time>2026-04-18T14:11:35Z</time></trkpt><trkpt lat="45.45248040210334" lon="10.661672884978625"><ele>70.0</ele><time>2026-04-18T14:11:36Z</time></trkpt><trkpt lat="45.45235451212549" lon="10.661837939798339"><ele>69.33333333333333</ele><time>2026-04-18T14:11:37Z</time></trkpt><trkpt lat="45.45223819116716" lon="10.661989309319555"><ele>68.66666666666667</ele><time>2026-04-18T14:11:38Z</time></trkpt><trkpt lat="45.45211953736683" lon="10.662157678696264"><ele>68.0</ele><time>2026-04-18T14:11:39Z</time></trkpt><trkpt lat="45.45200311666828" lon="10.662324680383158"><ele>69.33333333333334</ele><time>2026-04-18T14:11:40Z</time></trkpt><trkpt lat="45.45185160716944" lon="10.662484435664565"><ele>70.66666666666667</ele><time>2026-04-18T14:11:41Z</time></trkpt><trkpt lat="45.45172073072441" lon="10.662646164949098"><ele>72.0</ele><time>2026-04-18T14:11:42Z</time></trkpt><trkpt lat="45.45161422796773" lon="10.662797608194158"><ele>72.0</ele><time>2026-04-18T14:11:43Z</time></trkpt><trkpt lat="45.45150245609021" lon="10.6629138688517"><ele>72.0</ele><time>2026-04-18T14:11:44Z</time></trkpt><trkpt lat="45.45137963671365" lon="10.662923796508341"><ele>72.0</ele><time>2026-04-18T14:11:45Z</time></trkpt><trkpt lat="45.45125733361601" lon="10.66298835444521"><ele>72.0</ele><time>2026-04-18T14:11:46Z</time></trkpt><trkpt lat="45.45118308230776" lon="10.663101397917316"><ele>72.25</ele><time>2026-04-18T14:11:47Z</time></trkpt><trkpt lat="45.451152986121414" lon="10.663249668017755"><ele>72.5</ele><time>2026-04-18T14:11:48Z</time></trkpt><trkpt lat="45.45111558543468" lon="10.663394367917299"><ele>72.75</ele><time>2026-04-18T14:11:49Z</time></trkpt><trkpt lat="45.45102526473989" lon="10.663544123143817"><ele>73.0</ele><time>2026-04-18T14:11:50Z</time></trkpt><trkpt lat="45.4509135892553" lon="10.663710786320195"><ele>73.0</ele><time>2026-04-18T14:11:51Z</time></trkpt><trkpt lat="45.45077450245042" lon="10.663896548961018"><ele>73.0</ele><time>2026-04-18T14:11:52Z</time></trkpt><trkpt lat="45.45062395966825" lon="10.664086445064214"><ele>73.0</ele><time>2026-04-18T14:11:53Z</time></trkpt><trkpt lat="45.450473312052054" lon="10.664265568899452"><ele>73.66666666666666</ele><time>2026-04-18T14:11:54Z</time></trkpt><trkpt lat="45.4503344801686" lon="10.664448183304557"><ele>74.33333333333333</ele><time>2026-04-18T14:11:55Z</time></trkpt><trkpt lat="45.4502007472443" lon="10.664632864811056"><ele>75.0</ele><time>2026-04-18T14:11:56Z</time></trkpt><trkpt lat="45.45006367846101" lon="10.664828395543406"><ele>75.0</ele><time>2026-04-18T14:11:57Z</time></trkpt><trkpt lat="45.44993123131226" lon="10.665018808859127"><ele>75.0</ele><time>2026-04-18T14:11:58Z</time></trkpt><trkpt lat="45.449783340240444" lon="10.66517160514262"><ele>75.0</ele><time>2026-04-18T14:11:59Z</time></trkpt><trkpt lat="45.44966830766796" lon="10.665324421038598"><ele>76.0</ele><time>2026-04-18T14:12:00Z</time></trkpt><trkpt lat="45.449562628748744" lon="10.665490852233992"><ele>77.0</ele><time>2026-04-18T14:12:01Z</time></trkpt><trkpt lat="45.44944699578272" lon="10.665659825280109"><ele>78.0</ele><time>2026-04-18T14:12:02Z</time></trkpt><trkpt lat="45.44931231235987" lon="10.665821068962131"><ele>78.0</ele><time>2026-04-18T14:12:03Z</time></trkpt><trkpt lat="45.44917723382276" lon="10.665974910057134"><ele>78.0</ele><time>2026-04-18T14:12:04Z</time></trkpt><trkpt lat="45.4490463616379" lon="10.666133294995111"><ele>78.0</ele><time>2026-04-18T14:12:05Z</time></trkpt><trkpt lat="45.44893155426863" lon="10.666290489105531"><ele>78.0</ele><time>2026-04-18T14:12:06Z</time></trkpt><trkpt lat="45.44883099232839" lon="10.66644135710913"><ele>78.0</ele><time>2026-04-18T14:12:07Z</time></trkpt><trkpt lat="45.44870715574868" lon="10.666581378691646"><ele>78.0</ele><time>2026-04-18T14:12:08Z</time></trkpt><trkpt lat="45.44857969850699" lon="10.666701477861409"><ele>78.66666666666667</ele><time>2026-04-18T14:12:09Z</time></trkpt><trkpt lat="45.448464143012046" lon="10.666852534467342"><ele>79.33333333333334</ele><time>2026-04-18T14:12:10Z</time></trkpt><trkpt lat="45.44835840530442" lon="10.667032086029977"><ele>80.0</ele><time>2026-04-18T14:12:11Z</time></trkpt><trkpt lat="45.44825426253593" lon="10.667188181458334"><ele>80.0</ele><time>2026-04-18T14:12:12Z</time></trkpt><trkpt lat="45.448148870097846" lon="10.667315491336995"><ele>80.0</ele><time>2026-04-18T14:12:13Z</time></trkpt><trkpt lat="45.448044227024425" lon="10.667457619909548"><ele>80.0</ele><time>2026-04-18T14:12:14Z</time></trkpt><trkpt lat="45.44792804591717" lon="10.667593746070928"><ele>80.0</ele><time>2026-04-18T14:12:15Z</time></trkpt><trkpt lat="45.44783510872655" lon="10.667727080148623"><ele>80.6</ele><time>2026-04-18T14:12:16Z</time></trkpt><trkpt lat="45.44774325466108" lon="10.66783087007769"><ele>81.2</ele><time>2026-04-18T14:12:17Z</time></trkpt><trkpt lat="45.447666627772655" lon="10.667928423908688"><ele>81.80000000000001</ele><time>2026-04-18T14:12:18Z</time></trkpt><trkpt lat="45.44758200351345" lon="10.668033618472368"><ele>82.4</ele><time>2026-04-18T14:12:19Z</time></trkpt><trkpt lat="45.44752152098014" lon="10.668151163782557"><ele>83.0</ele><time>2026-04-18T14:12:20Z</time></trkpt><trkpt lat="45.44744343559026" lon="10.668262521903605"><ele>83.0</ele><time>2026-04-18T14:12:21Z</time></trkpt><trkpt lat="45.44737098898766" lon="10.66836941284132"><ele>83.0</ele><time>2026-04-18T14:12:22Z</time></trkpt><trkpt lat="45.447297233476206" lon="10.668465034934277"><ele>83.0</ele><time>2026-04-18T14:12:23Z</time></trkpt><trkpt lat="45.447212793992584" lon="10.668498934888325"><ele>83.0</ele><time>2026-04-18T14:12:24Z</time></trkpt><trkpt lat="45.447169016707356" lon="10.668592326436587"><ele>83.0</ele><time>2026-04-18T14:12:25Z</time></trkpt><trkpt lat="45.447097678254465" lon="10.668660688428018"><ele>83.2</ele><time>2026-04-18T14:12:27Z</time></trkpt><trkpt lat="45.44703868115167" lon="10.668740174064938"><ele>83.4</ele><time>2026-04-18T14:12:31Z</time></trkpt><trkpt lat="45.44696627985699" lon="10.668841708184996"><ele>83.60000000000001</ele><time>2026-04-18T14:12:33Z</time></trkpt><trkpt lat="45.44685380448948" lon="10.668921576961877"><ele>83.80000000000001</ele><time>2026-04-18T14:12:35Z</time></trkpt><trkpt lat="45.4467884083329" lon="10.669014760482083"><ele>84.0</ele><time>2026-04-18T14:12:36Z</time></trkpt><trkpt lat="45.4467320512276" lon="10.66914351141185"><ele>84.0</ele><time>2026-04-18T14:12:37Z</time></trkpt><trkpt lat="45.4466722645595" lon="10.669256299517228"><ele>84.0</ele><time>2026-04-18T14:12:38Z</time></trkpt><trkpt lat="45.4465637135839" lon="10.669334713290086"><ele>84.0</ele><time>2026-04-18T14:12:39Z</time></trkpt><trkpt lat="45.446475869256446" lon="10.669450622159706"><ele>84.0</ele><time>2026-04-18T14:12:40Z</time></trkpt><trkpt lat="45.44638068429358" lon="10.669572243556821"><ele>83.5</ele><time>2026-04-18T14:12:41Z</time></trkpt><trkpt lat="45.4462640975382" lon="10.669717727364436"><ele>83.0</ele><time>2026-04-18T14:12:42Z</time></trkpt><trkpt lat="45.446159910481235" lon="10.669847738198923"><ele>82.5</ele><time>2026-04-18T14:12:43Z</time></trkpt><trkpt lat="45.44606137437927" lon="10.66997069729944"><ele>82.0</ele><time>2026-04-18T14:12:44Z</time></trkpt><trkpt lat="45.445965804571266" lon="10.670107401837337"><ele>82.0</ele><time>2026-04-18T14:12:45Z</time></trkpt><trkpt lat="45.44583961528631" lon="10.670249969128713"><ele>82.0</ele><time>2026-04-18T14:12:46Z</time></trkpt><trkpt lat="45.44570718516454" lon="10.670414337743917"><ele>82.0</ele><time>2026-04-18T14:12:47Z</time></trkpt><trkpt lat="45.445557266160336" lon="10.670570480843255"><ele>82.33333333333333</ele><time>2026-04-18T14:12:48Z</time></trkpt><trkpt lat="45.44544946930082" lon="10.670758641227758"><ele>82.66666666666667</ele><time>2026-04-18T14:12:49Z</time></trkpt><trkpt lat="45.44530943073844" lon="10.67094149794109"><ele>83.0</ele><time>2026-04-18T14:12:50Z</time></trkpt><trkpt lat="45.44514379674704" lon="10.671131262042257"><ele>83.0</ele><time>2026-04-18T14:12:51Z</time></trkpt><trkpt lat="45.44500781223073" lon="10.671350517906872"><ele>83.0</ele><time>2026-04-18T14:12:52Z</time></trkpt><trkpt lat="45.44484196297679" lon="10.671535172244319"><ele>83.0</ele><time>2026-04-18T14:12:53Z</time></trkpt><trkpt lat="45.4446927897732" lon="10.671727077465443"><ele>83.0</ele><time>2026-04-18T14:12:54Z</time></trkpt><trkpt lat="45.4445635968092" lon="10.671891347010435"><ele>83.0</ele><time>2026-04-18T14:12:55Z</time></trkpt><trkpt lat="45.44444395355645" lon="10.67204347418798"><ele>83.0</ele><time>2026-04-18T14:12:56Z</time></trkpt><trkpt lat="45.444327005788416" lon="10.672190675863503"><ele>83.5</ele><time>2026-04-18T14:12:57Z</time></trkpt><trkpt lat="45.44421839935741" lon="10.67232865414579"><ele>84.0</ele><time>2026-04-18T14:12:58Z</time></trkpt><trkpt lat="45.44412039489167" lon="10.672453559138495"><ele>84.5</ele><time>2026-04-18T14:12:59Z</time></trkpt><trkpt lat="45.44402612892403" lon="10.672572651612212"><ele>85.0</ele><time>2026-04-18T14:13:00Z</time></trkpt><trkpt lat="45.44394192203783" lon="10.672679044988422"><ele>84.4</ele><time>2026-04-18T14:13:01Z</time></trkpt><trkpt lat="45.4438629839972" lon="10.672780303043655"><ele>83.8</ele><time>2026-04-18T14:13:02Z</time></trkpt><trkpt lat="45.44379753893889" lon="10.672867227690626"><ele>83.19999999999999</ele><time>2026-04-18T14:13:03Z</time></trkpt><trkpt lat="45.44373047881235" lon="10.672958145479669"><ele>82.6</ele><time>2026-04-18T14:13:04Z</time></trkpt><trkpt lat="45.44366260514174" lon="10.67305199640447"><ele>82.0</ele><time>2026-04-18T14:13:05Z</time></trkpt><trkpt lat="45.44360019175993" lon="10.6731387838694"><ele>82.0</ele><time>2026-04-18T14:13:06Z</time></trkpt><trkpt lat="45.443528465017756" lon="10.67324098649537"><ele>82.0</ele><time>2026-04-18T14:13:07Z</time></trkpt><trkpt lat="45.44345061807586" lon="10.67335517354124"><ele>82.0</ele><time>2026-04-18T14:13:08Z</time></trkpt><trkpt lat="45.44337712468759" lon="10.673465104628509"><ele>82.0</ele><time>2026-04-18T14:13:09Z</time></trkpt><trkpt lat="45.44331517895092" lon="10.673558863153207"><ele>82.0</ele><time>2026-04-18T14:13:10Z</time></trkpt><trkpt lat="45.44324389009686" lon="10.673670326986851"><ele>82.16666666666666</ele><time>2026-04-18T14:13:11Z</time></trkpt><trkpt lat="45.44317895262272" lon="10.673772501113412"><ele>82.33333333333333</ele><time>2026-04-18T14:13:12Z</time></trkpt><trkpt lat="45.44311966754034" lon="10.673868080998176"><ele>82.5</ele><time>2026-04-18T14:13:13Z</time></trkpt><trkpt lat="45.4430607069561" lon="10.673963136833084"><ele>82.66666666666667</ele><time>2026-04-18T14:13:14Z</time></trkpt><trkpt lat="45.44301101348852" lon="10.674042200736798"><ele>82.83333333333334</ele><time>2026-04-18T14:13:15Z</time></trkpt><trkpt lat="45.44296890824191" lon="10.67410971022639"><ele>83.0</ele><time>2026-04-18T14:13:16Z</time></trkpt><trkpt lat="45.44292533451588" lon="10.674180174954929"><ele>83.0</ele><time>2026-04-18T14:13:17Z</time></trkpt><trkpt lat="45.44285039971312" lon="10.67430135285617"><ele>83.0</ele><time>2026-04-18T14:13:19Z</time></trkpt><trkpt lat="45.442796666009386" lon="10.67439126763458"><ele>83.0</ele><time>2026-04-18T14:13:20Z</time></trkpt><trkpt lat="45.44273008604792" lon="10.674501239376784"><ele>83.0</ele><time>2026-04-18T14:13:21Z</time></trkpt><trkpt lat="45.44264324871624" lon="10.674649155413174"><ele>83.0</ele><time>2026-04-18T14:13:22Z</time></trkpt><trkpt lat="45.44255844457036" lon="10.67479801292584"><ele>82.75</ele><time>2026-04-18T14:13:23Z</time></trkpt><trkpt lat="45.442468092606" lon="10.674971163080428"><ele>82.5</ele><time>2026-04-18T14:13:24Z</time></trkpt><trkpt lat="45.4423952898497" lon="10.675120099356354"><ele>82.25</ele><time>2026-04-18T14:13:25Z</time></trkpt><trkpt lat="45.44232494902435" lon="10.675264832418122"><ele>82.0</ele><time>2026-04-18T14:13:26Z</time></trkpt><trkpt lat="45.442259217588834" lon="10.675402692476696"><ele>82.0</ele><time>2026-04-18T14:13:27Z</time></trkpt><trkpt lat="45.44222016446619" lon="10.67550960792535"><ele>82.0</ele><time>2026-04-18T14:13:28Z</time></trkpt><trkpt lat="45.442152820442125" lon="10.675556773539034"><ele>82.0</ele><time>2026-04-18T14:13:29Z</time></trkpt><trkpt lat="45.44208897895937" lon="10.675586409410672"><ele>82.0</ele><time>2026-04-18T14:13:30Z</time></trkpt><trkpt lat="45.4420129166088" lon="10.675607400484187"><ele>82.0</ele><time>2026-04-18T14:13:31Z</time></trkpt><trkpt lat="45.441912788147135" lon="10.675597295241584"><ele>82.0</ele><time>2026-04-18T14:13:32Z</time></trkpt><trkpt lat="45.441785986669856" lon="10.675660888578179"><ele>82.0</ele><time>2026-04-18T14:13:33Z</time></trkpt><trkpt lat="45.4417247087481" lon="10.675788373074457"><ele>82.0</ele><time>2026-04-18T14:13:34Z</time></trkpt><trkpt lat="45.44167005730872" lon="10.675960651458341"><ele>82.0</ele><time>2026-04-18T14:13:35Z</time></trkpt><trkpt lat="45.44164332188924" lon="10.676131399769725"><ele>82.0</ele><time>2026-04-18T14:13:36Z</time></trkpt><trkpt lat="45.44165326903667" lon="10.676304611199518"><ele>82.25</ele><time>2026-04-18T14:13:37Z</time></trkpt><trkpt lat="45.44175033342868" lon="10.676455650057795"><ele>82.5</ele><time>2026-04-18T14:13:38Z</time></trkpt><trkpt lat="45.441780995603075" lon="10.676663193739786"><ele>82.75</ele><time>2026-04-18T14:13:39Z</time></trkpt><trkpt lat="45.44176963350959" lon="10.67686397698303"><ele>83.0</ele><time>2026-04-18T14:13:40Z</time></trkpt><trkpt lat="45.44175472057098" lon="10.677095283756284"><ele>83.66666666666667</ele><time>2026-04-18T14:13:41Z</time></trkpt><trkpt lat="45.44168040164966" lon="10.677328777741845"><ele>84.33333333333333</ele><time>2026-04-18T14:13:42Z</time></trkpt><trkpt lat="45.44162452044058" lon="10.677557099558602"><ele>85.0</ele><time>2026-04-18T14:13:43Z</time></trkpt><trkpt lat="45.44156021604552" lon="10.677801821793947"><ele>85.0</ele><time>2026-04-18T14:13:44Z</time></trkpt><trkpt lat="45.4415049614901" lon="10.678049645364107"><ele>85.0</ele><time>2026-04-18T14:13:45Z</time></trkpt><trkpt lat="45.441465133108125" lon="10.678288419845753"><ele>85.0</ele><time>2026-04-18T14:13:46Z</time></trkpt><trkpt lat="45.44142004128153" lon="10.678541892534302"><ele>85.0</ele><time>2026-04-18T14:13:47Z</time></trkpt><trkpt lat="45.441370084409286" lon="10.678811926713294"><ele>85.0</ele><time>2026-04-18T14:13:48Z</time></trkpt><trkpt lat="45.44130418071622" lon="10.679068986153437"><ele>85.0</ele><time>2026-04-18T14:13:49Z</time></trkpt><trkpt lat="45.44123867662674" lon="10.67933001182194"><ele>84.66666666666666</ele><time>2026-04-18T14:13:50Z</time></trkpt><trkpt lat="45.44121442584426" lon="10.679603904958912"><ele>84.33333333333333</ele><time>2026-04-18T14:13:51Z</time></trkpt><trkpt lat="45.441152945011105" lon="10.679859497276187"><ele>84.0</ele><time>2026-04-18T14:13:52Z</time></trkpt><trkpt lat="45.441126621175194" lon="10.680124452025032"><ele>84.66666666666667</ele><time>2026-04-18T14:13:53Z</time></trkpt><trkpt lat="45.44108328805627" lon="10.680359645136873"><ele>85.33333333333334</ele><time>2026-04-18T14:13:54Z</time></trkpt><trkpt lat="45.44105198025123" lon="10.680568932190859"><ele>86.0</ele><time>2026-04-18T14:13:55Z</time></trkpt><trkpt lat="45.441037379985175" lon="10.680761431385385"><ele>86.0</ele><time>2026-04-18T14:13:56Z</time></trkpt><trkpt lat="45.44103489233166" lon="10.680939623958716"><ele>86.0</ele><time>2026-04-18T14:13:57Z</time></trkpt><trkpt lat="45.441034419203504" lon="10.681096346336231"><ele>86.0</ele><time>2026-04-18T14:13:58Z</time></trkpt><trkpt lat="45.44101385217434" lon="10.681218641668934"><ele>86.0</ele><time>2026-04-18T14:13:59Z</time></trkpt><trkpt lat="45.44098395378947" lon="10.68131008331906"><ele>86.0</ele><time>2026-04-18T14:14:00Z</time></trkpt><trkpt lat="45.44090790049361" lon="10.681405565991813"><ele>86.19999999999999</ele><time>2026-04-18T14:14:02Z</time></trkpt><trkpt lat="45.44095795236945" lon="10.681538407788691"><ele>86.39999999999999</ele><time>2026-04-18T14:14:04Z</time></trkpt><trkpt lat="45.44094988408184" lon="10.681627847009414"><ele>86.6</ele><time>2026-04-18T14:14:05Z</time></trkpt><trkpt lat="45.440963343508265" lon="10.681745096369308"><ele>86.8</ele><time>2026-04-18T14:14:06Z</time></trkpt><trkpt lat="45.44093408505041" lon="10.681881890637579"><ele>87.0</ele><time>2026-04-18T14:14:07Z</time></trkpt><trkpt lat="45.440880831527735" lon="10.682070413043313"><ele>86.33333333333333</ele><time>2026-04-18T14:14:08Z</time></trkpt><trkpt lat="45.44081721005327" lon="10.682276984669148"><ele>85.66666666666666</ele><time>2026-04-18T14:14:09Z</time></trkpt><trkpt lat="45.440719490766796" lon="10.68249357514452"><ele>85.0</ele><time>2026-04-18T14:14:10Z</time></trkpt><trkpt lat="45.44068249074079" lon="10.682732058124241"><ele>84.33333333333333</ele><time>2026-04-18T14:14:11Z</time></trkpt><trkpt lat="45.440597174185385" lon="10.68295545690885"><ele>83.66666666666667</ele><time>2026-04-18T14:14:12Z</time></trkpt><trkpt lat="45.4405404778088" lon="10.68315319905327"><ele>83.0</ele><time>2026-04-18T14:14:13Z</time></trkpt><trkpt lat="45.44050249077975" lon="10.683335797621552"><ele>82.75</ele><time>2026-04-18T14:14:14Z</time></trkpt><trkpt lat="45.44046225004543" lon="10.683499323223515"><ele>82.5</ele><time>2026-04-18T14:14:15Z</time></trkpt><trkpt lat="45.44042659392893" lon="10.683659042162585"><ele>82.25</ele><time>2026-04-18T14:14:16Z</time></trkpt><trkpt lat="45.44038828371073" lon="10.683812944658605"><ele>82.0</ele><time>2026-04-18T14:14:17Z</time></trkpt><trkpt lat="45.440344469222346" lon="10.683974913474936"><ele>81.33333333333333</ele><time>2026-04-18T14:14:18Z</time></trkpt><trkpt lat="45.44029231628283" lon="10.684170693374643"><ele>80.66666666666667</ele><time>2026-04-18T14:14:19Z</time></trkpt><trkpt lat="45.44024142838021" lon="10.684419206504074"><ele>80.0</ele><time>2026-04-18T14:14:20Z</time></trkpt><trkpt lat="45.44017470317525" lon="10.684673316262012"><ele>79.33333333333334</ele><time>2026-04-18T14:14:21Z</time></trkpt><trkpt lat="45.44011327279613" lon="10.684938047638106"><ele>78.66666666666667</ele><time>2026-04-18T14:14:22Z</time></trkpt><trkpt lat="45.440037300157435" lon="10.685183899737645"><ele>78.0</ele><time>2026-04-18T14:14:23Z</time></trkpt><trkpt lat="45.43997972870463" lon="10.685416473343679"><ele>78.0</ele><time>2026-04-18T14:14:24Z</time></trkpt><trkpt lat="45.4399440563178" lon="10.685631493966328"><ele>78.0</ele><time>2026-04-18T14:14:25Z</time></trkpt><trkpt lat="45.43989864184066" lon="10.685816314958064"><ele>78.0</ele><time>2026-04-18T14:14:26Z</time></trkpt><trkpt lat="45.439856733546954" lon="10.685985344061102"><ele>78.0</ele><time>2026-04-18T14:14:27.001Z</time></trkpt><trkpt lat="45.439793396388254" lon="10.686156243514157"><ele>77.5</ele><time>2026-04-18T14:14:28.001Z</time></trkpt><trkpt lat="45.43976843657416" lon="10.686357304523918"><ele>77.0</ele><time>2026-04-18T14:14:29.001Z</time></trkpt><trkpt lat="45.439725134500414" lon="10.686529223790451"><ele>76.5</ele><time>2026-04-18T14:14:30.001Z</time></trkpt><trkpt lat="45.43968243199715" lon="10.686661059174751"><ele>76.0</ele><time>2026-04-18T14:14:31.001Z</time></trkpt><trkpt lat="45.43965129159977" lon="10.686765929957263"><ele>76.0</ele><time>2026-04-18T14:14:32.001Z</time></trkpt><trkpt lat="45.43973353581173" lon="10.686888354127674"><ele>76.0</ele><time>2026-04-18T14:14:35.001Z</time></trkpt><trkpt lat="45.439778524941566" lon="10.68695191693808"><ele>76.0</ele><time>2026-04-18T14:14:36.001Z</time></trkpt><trkpt lat="45.43981264663377" lon="10.68704594751601"><ele>76.0</ele><time>2026-04-18T14:14:37.001Z</time></trkpt><trkpt lat="45.43982977982663" lon="10.68719739315384"><ele>76.0</ele><time>2026-04-18T14:14:38.001Z</time></trkpt><trkpt lat="45.43985526366823" lon="10.687361666277168"><ele>75.25</ele><time>2026-04-18T14:14:39.001Z</time></trkpt><trkpt lat="45.439878432912614" lon="10.687529412296815"><ele>74.5</ele><time>2026-04-18T14:14:40.001Z</time></trkpt><trkpt lat="45.439894753421726" lon="10.687697771482139"><ele>73.75</ele><time>2026-04-18T14:14:41.001Z</time></trkpt><trkpt lat="45.43991994550467" lon="10.687905803515287"><ele>73.0</ele><time>2026-04-18T14:14:42.001Z</time></trkpt><trkpt lat="45.43994445098013" lon="10.68814381424713"><ele>73.0</ele><time>2026-04-18T14:14:43.001Z</time></trkpt><trkpt lat="45.43999523216591" lon="10.688434005506597"><ele>73.0</ele><time>2026-04-18T14:14:44.001Z</time></trkpt><trkpt lat="45.44003323590785" lon="10.688759625256722"><ele>73.0</ele><time>2026-04-18T14:14:45.001Z</time></trkpt><trkpt lat="45.440067322602914" lon="10.689056346001836"><ele>72.33333333333333</ele><time>2026-04-18T14:14:46.001Z</time></trkpt><trkpt lat="45.44009773262172" lon="10.689296081342365"><ele>71.66666666666667</ele><time>2026-04-18T14:14:47.001Z</time></trkpt><trkpt lat="45.44011421075991" lon="10.689537844360075"><ele>71.0</ele><time>2026-04-18T14:14:48.001Z</time></trkpt><trkpt lat="45.44011629732541" lon="10.68975413045735"><ele>70.2</ele><time>2026-04-18T14:14:49.001Z</time></trkpt><trkpt lat="45.44011455147901" lon="10.689933335832853"><ele>69.39999999999999</ele><time>2026-04-18T14:14:50.001Z</time></trkpt><trkpt lat="45.44010892258259" lon="10.690098004396765"><ele>68.6</ele><time>2026-04-18T14:14:51.001Z</time></trkpt><trkpt lat="45.4400917062095" lon="10.690227201103474"><ele>67.8</ele><time>2026-04-18T14:14:52.001Z</time></trkpt><trkpt lat="45.440068230629535" lon="10.690333351984908"><ele>67.0</ele><time>2026-04-18T14:14:53.001Z</time></trkpt><trkpt lat="45.440047442364865" lon="10.690430895754615"><ele>66.66666666666666</ele><time>2026-04-18T14:14:54.001Z</time></trkpt><trkpt lat="45.43998692094587" lon="10.690528321340574"><ele>66.33333333333333</ele><time>2026-04-18T14:14:56.001Z</time></trkpt><trkpt lat="45.43993728666428" lon="10.69062424699345"><ele>66.0</ele><time>2026-04-18T14:15:01.001Z</time></trkpt><trkpt lat="45.43994866431014" lon="10.690729925439872"><ele>65.66666666666667</ele><time>2026-04-18T14:15:03.001Z</time></trkpt><trkpt lat="45.43989621667943" lon="10.69079734017411"><ele>65.33333333333334</ele><time>2026-04-18T14:15:05.001Z</time></trkpt><trkpt lat="45.43983957409022" lon="10.690877259098293"><ele>65.0</ele><time>2026-04-18T14:15:07.001Z</time></trkpt><trkpt lat="45.439796364215766" lon="10.690960120303002"><ele>65.0</ele><time>2026-04-18T14:15:10.001Z</time></trkpt><trkpt lat="45.439750173951545" lon="10.69106275139823"><ele>65.0</ele><time>2026-04-18T14:15:13.001Z</time></trkpt><trkpt lat="45.43967584670027" lon="10.691232428518056"><ele>65.0</ele><time>2026-04-18T14:15:20Z</time></trkpt><trkpt lat="45.439607716539115" lon="10.691396541083945"><ele>65.0</ele><time>2026-04-18T14:15:21Z</time></trkpt><trkpt lat="45.439578857791815" lon="10.691574161290514"><ele>65.8</ele><time>2026-04-18T14:15:22Z</time></trkpt><trkpt lat="45.43954169506947" lon="10.69167657698058"><ele>66.6</ele><time>2026-04-18T14:15:23Z</time></trkpt><trkpt lat="45.43948732450785" lon="10.691740808232357"><ele>67.4</ele><time>2026-04-18T14:15:25Z</time></trkpt><trkpt lat="45.439356259346695" lon="10.691942217395694"><ele>68.2</ele><time>2026-04-18T14:15:27Z</time></trkpt><trkpt lat="45.43928232457938" lon="10.691921266221417"><ele>69.0</ele><time>2026-04-18T14:15:28Z</time></trkpt><trkpt lat="45.439207855810785" lon="10.691904430875525"><ele>69.0</ele><time>2026-04-18T14:15:29Z</time></trkpt><trkpt lat="45.43912928009746" lon="10.691888309004375"><ele>69.0</ele><time>2026-04-18T14:15:30Z</time></trkpt><trkpt lat="45.439043310471675" lon="10.691868694040874"><ele>69.0</ele><time>2026-04-18T14:15:31Z</time></trkpt><trkpt lat="45.43895682132191" lon="10.691841557986445"><ele>69.0</ele><time>2026-04-18T14:15:32Z</time></trkpt><trkpt lat="45.43887075439904" lon="10.691814554445159"><ele>69.0</ele><time>2026-04-18T14:15:33Z</time></trkpt><trkpt lat="45.438798536457455" lon="10.691791717431155"><ele>69.0</ele><time>2026-04-18T14:15:34Z</time></trkpt><trkpt lat="45.43873019611031" lon="10.691778046659863"><ele>69.33333333333333</ele><time>2026-04-18T14:15:35Z</time></trkpt><trkpt lat="45.438610291477566" lon="10.69178001934221"><ele>69.66666666666667</ele><time>2026-04-18T14:15:37Z</time></trkpt><trkpt lat="45.438551096371384" lon="10.691826563704337"><ele>70.0</ele><time>2026-04-18T14:15:38Z</time></trkpt><trkpt lat="45.43849230754725" lon="10.691874119115939"><ele>70.33333333333334</ele><time>2026-04-18T14:15:39Z</time></trkpt><trkpt lat="45.43840387353645" lon="10.691935718283304"><ele>70.66666666666667</ele><time>2026-04-18T14:15:41Z</time></trkpt><trkpt lat="45.4383509139245" lon="10.691990448314714"><ele>71.0</ele><time>2026-04-18T14:15:44Z</time></trkpt><trkpt lat="45.43825909152947" lon="10.692090848844733"><ele>71.2</ele><time>2026-04-18T14:15:46Z</time></trkpt><trkpt lat="45.438212841516446" lon="10.692184998069408"><ele>71.39999999999999</ele><time>2026-04-18T14:15:47Z</time></trkpt><trkpt lat="45.43816301170229" lon="10.692303476591462"><ele>71.6</ele><time>2026-04-18T14:15:48Z</time></trkpt><trkpt lat="45.43808783622902" lon="10.692436492763152"><ele>71.8</ele><time>2026-04-18T14:15:49Z</time></trkpt><trkpt lat="45.43801882760418" lon="10.692574717847705"><ele>72.0</ele><time>2026-04-18T14:15:50Z</time></trkpt><trkpt lat="45.43797605003418" lon="10.69269422815592"><ele>72.16666666666667</ele><time>2026-04-18T14:15:51Z</time></trkpt><trkpt lat="45.43795979699465" lon="10.692789600255923"><ele>72.33333333333333</ele><time>2026-04-18T14:15:52Z</time></trkpt><trkpt lat="45.437916656602546" lon="10.692875602534297"><ele>72.5</ele><time>2026-04-18T14:15:55Z</time></trkpt><trkpt lat="45.43788797007497" lon="10.69296333078793"><ele>72.66666666666666</ele><time>2026-04-18T14:16:13Z</time></trkpt><trkpt lat="45.43786110752021" lon="10.693047982133821"><ele>72.83333333333333</ele><time>2026-04-18T14:16:20Z</time></trkpt><trkpt lat="45.43782730134353" lon="10.693138661705945"><ele>73.0</ele><time>2026-04-18T14:16:37Z</time></trkpt><trkpt lat="45.437739156247815" lon="10.693425306184064"><ele>73.0</ele><time>2026-04-18T14:16:53Z</time></trkpt><trkpt lat="45.437710908973976" lon="10.693545849341621"><ele>73.0</ele><time>2026-04-18T14:16:54Z</time></trkpt><trkpt lat="45.43768849287102" lon="10.693654032267208"><ele>73.0</ele><time>2026-04-18T14:16:55Z</time></trkpt><trkpt lat="45.43767125428637" lon="10.693775585899115"><ele>73.0</ele><time>2026-04-18T14:16:56Z</time></trkpt><trkpt lat="45.43764555400966" lon="10.693890565837005"><ele>73.0</ele><time>2026-04-18T14:16:57Z</time></trkpt><trkpt lat="45.43761884014716" lon="10.694042978215915"><ele>72.8</ele><time>2026-04-18T14:16:59Z</time></trkpt><trkpt lat="45.43756733102517" lon="10.694136944349896"><ele>72.6</ele><time>2026-04-18T14:17:01Z</time></trkpt><trkpt lat="45.43753179487667" lon="10.694229632613913"><ele>72.4</ele><time>2026-04-18T14:17:03Z</time></trkpt><trkpt lat="45.43751048088491" lon="10.694358078388138"><ele>72.2</ele><time>2026-04-18T14:17:05Z</time></trkpt><trkpt lat="45.437488120145815" lon="10.69454756423634"><ele>72.0</ele><time>2026-04-18T14:17:07Z</time></trkpt><trkpt lat="45.43746994352371" lon="10.694661306806797"><ele>72.16666666666667</ele><time>2026-04-18T14:17:08Z</time></trkpt><trkpt lat="45.437462308107825" lon="10.69475892829646"><ele>72.33333333333333</ele><time>2026-04-18T14:17:09Z</time></trkpt><trkpt lat="45.437449841924234" lon="10.694861729279088"><ele>72.5</ele><time>2026-04-18T14:17:10Z</time></trkpt><trkpt lat="45.437428129084395" lon="10.69499190736103"><ele>72.66666666666666</ele><time>2026-04-18T14:17:11Z</time></trkpt><trkpt lat="45.43741675089484" lon="10.695126975262317"><ele>72.83333333333333</ele><time>2026-04-18T14:17:12Z</time></trkpt><trkpt lat="45.437434852051204" lon="10.695259075523284"><ele>73.0</ele><time>2026-04-18T14:17:13Z</time></trkpt><trkpt lat="45.43748930800486" lon="10.695367521787713"><ele>73.0</ele><time>2026-04-18T14:17:14Z</time></trkpt><trkpt lat="45.43755678269435" lon="10.695452223056472"><ele>73.0</ele><time>2026-04-18T14:17:15Z</time></trkpt><trkpt lat="45.43762314418483" lon="10.695539222968774"><ele>73.0</ele><time>2026-04-18T14:17:16Z</time></trkpt><trkpt lat="45.43768597155271" lon="10.695657966052028"><ele>73.0</ele><time>2026-04-18T14:17:17Z</time></trkpt><trkpt lat="45.43775588725744" lon="10.695797948780639"><ele>73.0</ele><time>2026-04-18T14:17:18Z</time></trkpt><trkpt lat="45.43782542154681" lon="10.695940800190048"><ele>73.0</ele><time>2026-04-18T14:17:19Z</time></trkpt><trkpt lat="45.43790709704275" lon="10.696061818778427"><ele>73.0</ele><time>2026-04-18T14:17:20Z</time></trkpt><trkpt lat="45.438008056642886" lon="10.69616602375918"><ele>73.0</ele><time>2026-04-18T14:17:21Z</time></trkpt><trkpt lat="45.43814708500708" lon="10.696172351763654"><ele>73.0</ele><time>2026-04-18T14:17:22Z</time></trkpt><trkpt lat="45.438286903718634" lon="10.696250791378988"><ele>72.0</ele><time>2026-04-18T14:17:23Z</time></trkpt><trkpt lat="45.43843417670316" lon="10.696324756296198"><ele>71.0</ele><time>2026-04-18T14:17:24Z</time></trkpt><trkpt lat="45.43858016445528" lon="10.696396255338286"><ele>70.0</ele><time>2026-04-18T14:17:25Z</time></trkpt><trkpt lat="45.438722061459686" lon="10.696464490741358"><ele>70.0</ele><time>2026-04-18T14:17:26Z</time></trkpt><trkpt lat="45.43886676144311" lon="10.696529139176654"><ele>70.0</ele><time>2026-04-18T14:17:27Z</time></trkpt><trkpt lat="45.4389974995459" lon="10.696583713581164"><ele>70.0</ele><time>2026-04-18T14:17:28Z</time></trkpt><trkpt lat="45.439099798272856" lon="10.69662641644659"><ele>70.0</ele><time>2026-04-18T14:17:29Z</time></trkpt><trkpt lat="45.43917752536767" lon="10.696658231558873"><ele>70.0</ele><time>2026-04-18T14:17:30Z</time></trkpt><trkpt lat="45.43923651743204" lon="10.696712183918452"><ele>70.0</ele><time>2026-04-18T14:17:31Z</time></trkpt><trkpt lat="45.43935251958586" lon="10.696729431684561"><ele>70.0</ele><time>2026-04-18T14:17:32Z</time></trkpt><trkpt lat="45.43941141359597" lon="10.696635613588617"><ele>70.0</ele><time>2026-04-18T14:17:33Z</time></trkpt><trkpt lat="45.43946557499903" lon="10.69651330685042"><ele>70.0</ele><time>2026-04-18T14:17:34Z</time></trkpt><trkpt lat="45.4394222339771" lon="10.696369198724247"><ele>70.0</ele><time>2026-04-18T14:17:35Z</time></trkpt><trkpt lat="45.4394888000667" lon="10.696256487577141"><ele>70.0</ele><time>2026-04-18T14:17:37Z</time></trkpt><trkpt lat="45.43958667031086" lon="10.696255301329927"><ele>70.0</ele><time>2026-04-18T14:17:39Z</time></trkpt><trkpt lat="45.43964431508452" lon="10.696295992498584"><ele>70.0</ele><time>2026-04-18T14:17:40Z</time></trkpt><trkpt lat="45.43970060348867" lon="10.696337458178913"><ele>70.0</ele><time>2026-04-18T14:17:41Z</time></trkpt><trkpt lat="45.4397773983219" lon="10.696383766157716"><ele>70.0</ele><time>2026-04-18T14:17:42Z</time></trkpt><trkpt lat="45.439865763251916" lon="10.69648318265149"><ele>69.25</ele><time>2026-04-18T14:17:43Z</time></trkpt><trkpt lat="45.43995577185334" lon="10.696598647514904"><ele>68.5</ele><time>2026-04-18T14:17:44Z</time></trkpt><trkpt lat="45.44005413487828" lon="10.69665016694422"><ele>67.75</ele><time>2026-04-18T14:17:45Z</time></trkpt><trkpt lat="45.440166433183876" lon="10.696734061673478"><ele>67.0</ele><time>2026-04-18T14:17:46Z</time></trkpt><trkpt lat="45.44028697069129" lon="10.696817428728105"><ele>67.0</ele><time>2026-04-18T14:17:47Z</time></trkpt><trkpt lat="45.44039705190327" lon="10.696891861001754"><ele>67.0</ele><time>2026-04-18T14:17:48Z</time></trkpt><trkpt lat="45.440484110686846" lon="10.696989843815661"><ele>67.0</ele><time>2026-04-18T14:17:49Z</time></trkpt><trkpt lat="45.44056226458356" lon="10.697104720848705"><ele>67.0</ele><time>2026-04-18T14:17:50Z</time></trkpt><trkpt lat="45.44060775158003" lon="10.697217300258789"><ele>67.0</ele><time>2026-04-18T14:17:51Z</time></trkpt><trkpt lat="45.44062282628275" lon="10.697330801591407"><ele>66.6</ele><time>2026-04-18T14:17:52Z</time></trkpt><trkpt lat="45.440656395701644" lon="10.697469039900557"><ele>66.2</ele><time>2026-04-18T14:17:53Z</time></trkpt><trkpt lat="45.44062229158054" lon="10.697629596979464"><ele>65.8</ele><time>2026-04-18T14:17:54Z</time></trkpt><trkpt lat="45.44062804858339" lon="10.697784747072152"><ele>65.4</ele><time>2026-04-18T14:17:55Z</time></trkpt><trkpt lat="45.44063579553079" lon="10.697920627130749"><ele>65.0</ele><time>2026-04-18T14:17:56Z</time></trkpt><trkpt lat="45.44064340733458" lon="10.698050449530992"><ele>65.0</ele><time>2026-04-18T14:17:57Z</time></trkpt><trkpt lat="45.440652687571884" lon="10.698183925230161"><ele>65.0</ele><time>2026-04-18T14:17:58Z</time></trkpt><trkpt lat="45.4406382311592" lon="10.698319482231135"><ele>65.0</ele><time>2026-04-18T14:17:59Z</time></trkpt><trkpt lat="45.44058869774985" lon="10.698440428657904"><ele>65.0</ele><time>2026-04-18T14:18:00Z</time></trkpt><trkpt lat="45.440519663168295" lon="10.698568843865884"><ele>65.0</ele><time>2026-04-18T14:18:01Z</time></trkpt><trkpt lat="45.44044451195038" lon="10.698692924969242"><ele>65.0</ele><time>2026-04-18T14:18:02Z</time></trkpt><trkpt lat="45.440377244813874" lon="10.698784436972176"><ele>65.0</ele><time>2026-04-18T14:18:03Z</time></trkpt><trkpt lat="45.440324185108445" lon="10.698837474141163"><ele>65.0</ele><time>2026-04-18T14:18:04Z</time></trkpt><trkpt lat="45.440264282155205" lon="10.698898943180328"><ele>65.0</ele><time>2026-04-18T14:18:07Z</time></trkpt><trkpt lat="45.44018137114074" lon="10.698909883617834"><ele>65.0</ele><time>2026-04-18T14:18:09Z</time></trkpt><trkpt lat="45.44006659907598" lon="10.69898131304701"><ele>65.0</ele><time>2026-04-18T14:18:11Z</time></trkpt><trkpt lat="45.44001749671714" lon="10.699138065191459"><ele>65.0</ele><time>2026-04-18T14:18:13Z</time></trkpt><trkpt lat="45.440097200731735" lon="10.69923827574132"><ele>65.0</ele><time>2026-04-18T14:18:15Z</time></trkpt><trkpt lat="45.440166298282094" lon="10.699290899841978"><ele>65.0</ele><time>2026-04-18T14:18:16Z</time></trkpt><trkpt lat="45.44026304992312" lon="10.699288366997628"><ele>65.0</ele><time>2026-04-18T14:18:17Z</time></trkpt><trkpt lat="45.440346647159615" lon="10.699179220369205"><ele>65.0</ele><time>2026-04-18T14:18:18Z</time></trkpt><trkpt lat="45.440363451633644" lon="10.699015763672039"><ele>65.0</ele><time>2026-04-18T14:18:19Z</time></trkpt><trkpt lat="45.440404664177734" lon="10.698883420040037"><ele>65.0</ele><time>2026-04-18T14:18:20Z</time></trkpt><trkpt lat="45.44043650468026" lon="10.698764159674598"><ele>65.0</ele><time>2026-04-18T14:18:21Z</time></trkpt><trkpt lat="45.44048568935874" lon="10.698667440739168"><ele>65.0</ele><time>2026-04-18T14:18:22Z</time></trkpt><trkpt lat="45.44054590819552" lon="10.698563507120305"><ele>65.0</ele><time>2026-04-18T14:18:23Z</time></trkpt><trkpt lat="45.440636892193425" lon="10.698506105523617"><ele>65.0</ele><time>2026-04-18T14:18:24Z</time></trkpt><trkpt lat="45.4407120264999" lon="10.698425150311534"><ele>65.0</ele><time>2026-04-18T14:18:25Z</time></trkpt><trkpt lat="45.440806815292135" lon="10.698376539882972"><ele>65.0</ele><time>2026-04-18T14:18:27Z</time></trkpt><trkpt lat="45.44088688071408" lon="10.698381339251114"><ele>65.0</ele><time>2026-04-18T14:18:29Z</time></trkpt><trkpt lat="45.440959452089615" lon="10.698378864850772"><ele>65.0</ele><time>2026-04-18T14:18:30Z</time></trkpt><trkpt lat="45.44102019461469" lon="10.6984229783979"><ele>65.0</ele><time>2026-04-18T14:18:31Z</time></trkpt><trkpt lat="45.44109644501228" lon="10.698469401871808"><ele>65.0</ele><time>2026-04-18T14:18:32Z</time></trkpt><trkpt lat="45.44119255296277" lon="10.698527914661607"><ele>65.0</ele><time>2026-04-18T14:18:33Z</time></trkpt><trkpt lat="45.44129686470639" lon="10.698582430096197"><ele>65.0</ele><time>2026-04-18T14:18:34Z</time></trkpt><trkpt lat="45.441407860285466" lon="10.698640006960655"><ele>65.0</ele><time>2026-04-18T14:18:35Z</time></trkpt><trkpt lat="45.44152162105213" lon="10.698695615266324"><ele>65.75</ele><time>2026-04-18T14:18:36Z</time></trkpt><trkpt lat="45.44162877717647" lon="10.698803347198353"><ele>66.5</ele><time>2026-04-18T14:18:37Z</time></trkpt><trkpt lat="45.441751862583445" lon="10.698879407953491"><ele>67.25</ele><time>2026-04-18T14:18:38Z</time></trkpt><trkpt lat="45.441899079912645" lon="10.69896143454287"><ele>68.0</ele><time>2026-04-18T14:18:39Z</time></trkpt><trkpt lat="45.44206776986144" lon="10.699055424698715"><ele>67.66666666666667</ele><time>2026-04-18T14:18:40Z</time></trkpt><trkpt lat="45.44224977295464" lon="10.699157880957483"><ele>67.33333333333333</ele><time>2026-04-18T14:18:41Z</time></trkpt><trkpt lat="45.442433654475984" lon="10.699261235908843"><ele>67.0</ele><time>2026-04-18T14:18:42Z</time></trkpt><trkpt lat="45.442620481714286" lon="10.699368104331274"><ele>67.0</ele><time>2026-04-18T14:18:43Z</time></trkpt><trkpt lat="45.44279872726064" lon="10.699466569220256"><ele>67.0</ele><time>2026-04-18T14:18:44Z</time></trkpt><trkpt lat="45.44295433441402" lon="10.69952889229894"><ele>67.0</ele><time>2026-04-18T14:18:45Z</time></trkpt><trkpt lat="45.44306051996727" lon="10.699569321924718"><ele>67.0</ele><time>2026-04-18T14:18:46Z</time></trkpt><trkpt lat="45.44311688244975" lon="10.699612086389628"><ele>67.0</ele><time>2026-04-18T14:18:48Z</time></trkpt><trkpt lat="45.443234735877795" lon="10.699412885453684"><ele>67.0</ele><time>2026-04-18T14:18:50Z</time></trkpt><trkpt lat="45.44325475048848" lon="10.699287948622079"><ele>67.0</ele><time>2026-04-18T14:18:51Z</time></trkpt><trkpt lat="45.44329466130729" lon="10.699165231128752"><ele>67.0</ele><time>2026-04-18T14:18:52Z</time></trkpt><trkpt lat="45.443332126246446" lon="10.699053703100967"><ele>67.0</ele><time>2026-04-18T14:18:53Z</time></trkpt><trkpt lat="45.44336549115416" lon="10.698965036053554"><ele>67.0</ele><time>2026-04-18T14:18:54Z</time></trkpt><trkpt lat="45.443411034446015" lon="10.698831322441944"><ele>67.0</ele><time>2026-04-18T14:18:56Z</time></trkpt><trkpt lat="45.44334713209999" lon="10.698766224308018"><ele>67.0</ele><time>2026-04-18T14:18:57Z</time></trkpt><trkpt lat="45.443256107725176" lon="10.698762844174126"><ele>67.0</ele><time>2026-04-18T14:18:59Z</time></trkpt><trkpt lat="45.443188470113654" lon="10.698752675040275"><ele>67.0</ele><time>2026-04-18T14:19:28Z</time></trkpt><trkpt lat="45.44313524627846" lon="10.69844598897212"><ele>67.0</ele><time>2026-04-18T14:20:34Z</time></trkpt><trkpt lat="45.44317941115468" lon="10.69836941450148"><ele>67.0</ele><time>2026-04-18T14:20:43Z</time></trkpt><trkpt lat="45.44312445624578" lon="10.6984300871213"><ele>67.0</ele><time>2026-04-18T14:22:10Z</time></trkpt><trkpt lat="45.44309473365289" lon="10.698517731064555"><ele>67.0</ele><time>2026-04-18T14:22:39Z</time></trkpt><trkpt lat="45.44292081858342" lon="10.698836800992261"><ele>67.0</ele><time>2026-04-18T14:23:48Z</time></trkpt><trkpt lat="45.442968799748925" lon="10.698906551757705"><ele>66.0</ele><time>2026-04-18T14:23:57.999Z</time></trkpt><trkpt lat="45.442958696553816" lon="10.698813490199662"><ele>67.0</ele><time>2026-04-18T14:24:07.999Z</time></trkpt><trkpt lat="45.44299082707315" lon="10.698733178624686"><ele>66.0</ele><time>2026-04-18T14:24:40.999Z</time></trkpt><trkpt lat="45.44298749819601" lon="10.69863437475401"><ele>66.0</ele><time>2026-04-18T14:24:46.999Z</time></trkpt><trkpt lat="45.44303191682395" lon="10.698560571693946"><ele>67.0</ele><time>2026-04-18T14:24:53.999Z</time></trkpt></trkseg></trk></gpx>